<?xml version="1.0" encoding="UTF-8" standalone="no" ?>
<gpx xmlns="http://www.topografix.com/GPX/1/1" xmlns:xsi="http://www.w3.org/2001/XMLSchema-instance" xsi:schemaLocation="http://www.topografix.com/GPX/1/1 http://www.topografix.com/GPX/1/1/gpx.xsd" version="1.1" creator="VisuGPX - https://www.visugpx.com">
  <metadata>
    <name>Couraduque 03/09/2020</name>
    <desc><![CDATA[boucle au départ de Couraduque jusqu'au col du soulor et retour]]></desc>
  </metadata>
  <trk>
    <name><![CDATA[Couraduque 03/09/2020_1]]></name>
    <trkseg>
      <trkpt lat="42.99116" lon="-0.20304">
        <ele>1366.4</ele>
        <time>2020-09-03T07:31:27Z</time>
      </trkpt>
      <trkpt lat="42.99123" lon="-0.20313">
        <ele>1366.6</ele>
        <time>2020-09-03T07:31:32Z</time>
      </trkpt>
      <trkpt lat="42.99123" lon="-0.20315">
        <ele>1366.6</ele>
        <time>2020-09-03T07:31:33Z</time>
      </trkpt>
      <trkpt lat="42.99123" lon="-0.20317">
        <ele>1366.6</ele>
        <time>2020-09-03T07:31:34Z</time>
      </trkpt>
      <trkpt lat="42.99123" lon="-0.20319">
        <ele>1366.6</ele>
        <time>2020-09-03T07:31:35Z</time>
      </trkpt>
      <trkpt lat="42.99123" lon="-0.20321">
        <ele>1366.8</ele>
        <time>2020-09-03T07:31:36Z</time>
      </trkpt>
      <trkpt lat="42.99123" lon="-0.20325">
        <ele>1367</ele>
        <time>2020-09-03T07:31:38Z</time>
      </trkpt>
      <trkpt lat="42.99123" lon="-0.2033">
        <ele>1367.2</ele>
        <time>2020-09-03T07:31:40Z</time>
      </trkpt>
      <trkpt lat="42.99122" lon="-0.20332">
        <ele>1367.4</ele>
        <time>2020-09-03T07:31:41Z</time>
      </trkpt>
      <trkpt lat="42.99122" lon="-0.20334">
        <ele>1367.4</ele>
        <time>2020-09-03T07:31:42Z</time>
      </trkpt>
      <trkpt lat="42.99122" lon="-0.20336">
        <ele>1367.6</ele>
        <time>2020-09-03T07:31:43Z</time>
      </trkpt>
      <trkpt lat="42.99123" lon="-0.20344">
        <ele>1368.2</ele>
        <time>2020-09-03T07:31:47Z</time>
      </trkpt>
      <trkpt lat="42.99124" lon="-0.20345">
        <ele>1368.8</ele>
        <time>2020-09-03T07:31:48Z</time>
      </trkpt>
      <trkpt lat="42.99126" lon="-0.20346">
        <ele>1369</ele>
        <time>2020-09-03T07:31:49Z</time>
      </trkpt>
      <trkpt lat="42.99127" lon="-0.20346">
        <ele>1369.4</ele>
        <time>2020-09-03T07:31:50Z</time>
      </trkpt>
      <trkpt lat="42.99128" lon="-0.20347">
        <ele>1369.6</ele>
        <time>2020-09-03T07:31:51Z</time>
      </trkpt>
      <trkpt lat="42.99129" lon="-0.20347">
        <ele>1369.6</ele>
        <time>2020-09-03T07:31:52Z</time>
      </trkpt>
      <trkpt lat="42.9913" lon="-0.20348">
        <ele>1369.8</ele>
        <time>2020-09-03T07:31:53Z</time>
      </trkpt>
      <trkpt lat="42.99131" lon="-0.20348">
        <ele>1370</ele>
        <time>2020-09-03T07:31:54Z</time>
      </trkpt>
      <trkpt lat="42.99132" lon="-0.20349">
        <ele>1370.2</ele>
        <time>2020-09-03T07:31:55Z</time>
      </trkpt>
      <trkpt lat="42.99133" lon="-0.20348">
        <ele>1370.4</ele>
        <time>2020-09-03T07:31:56Z</time>
      </trkpt>
      <trkpt lat="42.99134" lon="-0.20348">
        <ele>1370.4</ele>
        <time>2020-09-03T07:31:57Z</time>
      </trkpt>
      <trkpt lat="42.99135" lon="-0.20348">
        <ele>1370.6</ele>
        <time>2020-09-03T07:31:58Z</time>
      </trkpt>
      <trkpt lat="42.99136" lon="-0.20348">
        <ele>1370.6</ele>
        <time>2020-09-03T07:31:59Z</time>
      </trkpt>
      <trkpt lat="42.99137" lon="-0.20348">
        <ele>1370.6</ele>
        <time>2020-09-03T07:32:00Z</time>
      </trkpt>
      <trkpt lat="42.99138" lon="-0.20348">
        <ele>1370.6</ele>
        <time>2020-09-03T07:32:01Z</time>
      </trkpt>
      <trkpt lat="42.9914" lon="-0.20348">
        <ele>1370.6</ele>
        <time>2020-09-03T07:32:02Z</time>
      </trkpt>
      <trkpt lat="42.99141" lon="-0.20348">
        <ele>1370.6</ele>
        <time>2020-09-03T07:32:03Z</time>
      </trkpt>
      <trkpt lat="42.99142" lon="-0.20348">
        <ele>1370.8</ele>
        <time>2020-09-03T07:32:04Z</time>
      </trkpt>
      <trkpt lat="42.99143" lon="-0.20348">
        <ele>1370.8</ele>
        <time>2020-09-03T07:32:05Z</time>
      </trkpt>
      <trkpt lat="42.99144" lon="-0.20348">
        <ele>1370.8</ele>
        <time>2020-09-03T07:32:06Z</time>
      </trkpt>
      <trkpt lat="42.99145" lon="-0.20348">
        <ele>1370.8</ele>
        <time>2020-09-03T07:32:07Z</time>
      </trkpt>
      <trkpt lat="42.99146" lon="-0.20348">
        <ele>1370.8</ele>
        <time>2020-09-03T07:32:08Z</time>
      </trkpt>
      <trkpt lat="42.99147" lon="-0.20348">
        <ele>1370.8</ele>
        <time>2020-09-03T07:32:09Z</time>
      </trkpt>
      <trkpt lat="42.99149" lon="-0.20348">
        <ele>1370.8</ele>
        <time>2020-09-03T07:32:10Z</time>
      </trkpt>
      <trkpt lat="42.9915" lon="-0.20349">
        <ele>1370.8</ele>
        <time>2020-09-03T07:32:11Z</time>
      </trkpt>
      <trkpt lat="42.99151" lon="-0.20349">
        <ele>1370.8</ele>
        <time>2020-09-03T07:32:12Z</time>
      </trkpt>
      <trkpt lat="42.99152" lon="-0.20348">
        <ele>1371</ele>
        <time>2020-09-03T07:32:13Z</time>
      </trkpt>
      <trkpt lat="42.99153" lon="-0.20348">
        <ele>1371</ele>
        <time>2020-09-03T07:32:14Z</time>
      </trkpt>
      <trkpt lat="42.99154" lon="-0.20348">
        <ele>1371</ele>
        <time>2020-09-03T07:32:15Z</time>
      </trkpt>
      <trkpt lat="42.99156" lon="-0.20347">
        <ele>1371</ele>
        <time>2020-09-03T07:32:16Z</time>
      </trkpt>
      <trkpt lat="42.99158" lon="-0.20348">
        <ele>1371</ele>
        <time>2020-09-03T07:32:17Z</time>
      </trkpt>
      <trkpt lat="42.99159" lon="-0.2035">
        <ele>1371.2</ele>
        <time>2020-09-03T07:32:19Z</time>
      </trkpt>
      <trkpt lat="42.9916" lon="-0.20351">
        <ele>1371.2</ele>
        <time>2020-09-03T07:32:20Z</time>
      </trkpt>
      <trkpt lat="42.99161" lon="-0.20353">
        <ele>1371.2</ele>
        <time>2020-09-03T07:32:21Z</time>
      </trkpt>
      <trkpt lat="42.99162" lon="-0.20354">
        <ele>1371.2</ele>
        <time>2020-09-03T07:32:22Z</time>
      </trkpt>
      <trkpt lat="42.99163" lon="-0.20355">
        <ele>1371.4</ele>
        <time>2020-09-03T07:32:23Z</time>
      </trkpt>
      <trkpt lat="42.99166" lon="-0.20358">
        <ele>1371.6</ele>
        <time>2020-09-03T07:32:25Z</time>
      </trkpt>
      <trkpt lat="42.99167" lon="-0.20358">
        <ele>1371.8</ele>
        <time>2020-09-03T07:32:26Z</time>
      </trkpt>
      <trkpt lat="42.99169" lon="-0.20359">
        <ele>1371.8</ele>
        <time>2020-09-03T07:32:27Z</time>
      </trkpt>
      <trkpt lat="42.9917" lon="-0.20359">
        <ele>1372</ele>
        <time>2020-09-03T07:32:28Z</time>
      </trkpt>
      <trkpt lat="42.99171" lon="-0.2036">
        <ele>1372.2</ele>
        <time>2020-09-03T07:32:29Z</time>
      </trkpt>
      <trkpt lat="42.99174" lon="-0.20363">
        <ele>1372.4</ele>
        <time>2020-09-03T07:32:31Z</time>
      </trkpt>
      <trkpt lat="42.99175" lon="-0.20364">
        <ele>1372.6</ele>
        <time>2020-09-03T07:32:32Z</time>
      </trkpt>
      <trkpt lat="42.99177" lon="-0.20368">
        <ele>1373</ele>
        <time>2020-09-03T07:32:34Z</time>
      </trkpt>
      <trkpt lat="42.99179" lon="-0.2037">
        <ele>1373.4</ele>
        <time>2020-09-03T07:32:36Z</time>
      </trkpt>
      <trkpt lat="42.99181" lon="-0.20371">
        <ele>1373.6</ele>
        <time>2020-09-03T07:32:37Z</time>
      </trkpt>
      <trkpt lat="42.99182" lon="-0.20372">
        <ele>1373.8</ele>
        <time>2020-09-03T07:32:38Z</time>
      </trkpt>
      <trkpt lat="42.99183" lon="-0.20373">
        <ele>1374</ele>
        <time>2020-09-03T07:32:39Z</time>
      </trkpt>
      <trkpt lat="42.99184" lon="-0.20374">
        <ele>1374.2</ele>
        <time>2020-09-03T07:32:40Z</time>
      </trkpt>
      <trkpt lat="42.99186" lon="-0.20375">
        <ele>1374.4</ele>
        <time>2020-09-03T07:32:41Z</time>
      </trkpt>
      <trkpt lat="42.99187" lon="-0.20376">
        <ele>1374.4</ele>
        <time>2020-09-03T07:32:42Z</time>
      </trkpt>
      <trkpt lat="42.99189" lon="-0.20377">
        <ele>1374.6</ele>
        <time>2020-09-03T07:32:43Z</time>
      </trkpt>
      <trkpt lat="42.9919" lon="-0.20377">
        <ele>1374.8</ele>
        <time>2020-09-03T07:32:44Z</time>
      </trkpt>
      <trkpt lat="42.99191" lon="-0.20378">
        <ele>1374.6</ele>
        <time>2020-09-03T07:32:45Z</time>
      </trkpt>
      <trkpt lat="42.99193" lon="-0.20379">
        <ele>1374.8</ele>
        <time>2020-09-03T07:32:46Z</time>
      </trkpt>
      <trkpt lat="42.99194" lon="-0.20379">
        <ele>1375</ele>
        <time>2020-09-03T07:32:47Z</time>
      </trkpt>
      <trkpt lat="42.99195" lon="-0.20379">
        <ele>1375</ele>
        <time>2020-09-03T07:32:48Z</time>
      </trkpt>
      <trkpt lat="42.99197" lon="-0.20379">
        <ele>1375.2</ele>
        <time>2020-09-03T07:32:49Z</time>
      </trkpt>
      <trkpt lat="42.99198" lon="-0.2038">
        <ele>1375.4</ele>
        <time>2020-09-03T07:32:50Z</time>
      </trkpt>
      <trkpt lat="42.99199" lon="-0.2038">
        <ele>1375.6</ele>
        <time>2020-09-03T07:32:51Z</time>
      </trkpt>
      <trkpt lat="42.992" lon="-0.20381">
        <ele>1375.6</ele>
        <time>2020-09-03T07:32:52Z</time>
      </trkpt>
      <trkpt lat="42.99201" lon="-0.20382">
        <ele>1375.8</ele>
        <time>2020-09-03T07:32:53Z</time>
      </trkpt>
      <trkpt lat="42.99202" lon="-0.20382">
        <ele>1375.8</ele>
        <time>2020-09-03T07:32:54Z</time>
      </trkpt>
      <trkpt lat="42.99203" lon="-0.20384">
        <ele>1376</ele>
        <time>2020-09-03T07:32:55Z</time>
      </trkpt>
      <trkpt lat="42.99204" lon="-0.20385">
        <ele>1376.2</ele>
        <time>2020-09-03T07:32:56Z</time>
      </trkpt>
      <trkpt lat="42.99206" lon="-0.20387">
        <ele>1376.2</ele>
        <time>2020-09-03T07:32:57Z</time>
      </trkpt>
      <trkpt lat="42.99207" lon="-0.20387">
        <ele>1376.4</ele>
        <time>2020-09-03T07:32:58Z</time>
      </trkpt>
      <trkpt lat="42.99209" lon="-0.20388">
        <ele>1376.4</ele>
        <time>2020-09-03T07:32:59Z</time>
      </trkpt>
      <trkpt lat="42.9921" lon="-0.20388">
        <ele>1376.6</ele>
        <time>2020-09-03T07:33:00Z</time>
      </trkpt>
      <trkpt lat="42.99212" lon="-0.20389">
        <ele>1376.6</ele>
        <time>2020-09-03T07:33:01Z</time>
      </trkpt>
      <trkpt lat="42.99213" lon="-0.2039">
        <ele>1376.8</ele>
        <time>2020-09-03T07:33:02Z</time>
      </trkpt>
      <trkpt lat="42.99214" lon="-0.2039">
        <ele>1377</ele>
        <time>2020-09-03T07:33:03Z</time>
      </trkpt>
      <trkpt lat="42.99214" lon="-0.20391">
        <ele>1377</ele>
        <time>2020-09-03T07:33:04Z</time>
      </trkpt>
      <trkpt lat="42.99215" lon="-0.20392">
        <ele>1377.2</ele>
        <time>2020-09-03T07:33:05Z</time>
      </trkpt>
      <trkpt lat="42.99216" lon="-0.20392">
        <ele>1377.4</ele>
        <time>2020-09-03T07:33:06Z</time>
      </trkpt>
      <trkpt lat="42.99218" lon="-0.20393">
        <ele>1377.4</ele>
        <time>2020-09-03T07:33:07Z</time>
      </trkpt>
      <trkpt lat="42.99219" lon="-0.20394">
        <ele>1377.4</ele>
        <time>2020-09-03T07:33:08Z</time>
      </trkpt>
      <trkpt lat="42.9922" lon="-0.20395">
        <ele>1377.6</ele>
        <time>2020-09-03T07:33:09Z</time>
      </trkpt>
      <trkpt lat="42.99222" lon="-0.20395">
        <ele>1377.8</ele>
        <time>2020-09-03T07:33:10Z</time>
      </trkpt>
      <trkpt lat="42.99223" lon="-0.20396">
        <ele>1378</ele>
        <time>2020-09-03T07:33:11Z</time>
      </trkpt>
      <trkpt lat="42.99224" lon="-0.20398">
        <ele>1378</ele>
        <time>2020-09-03T07:33:12Z</time>
      </trkpt>
      <trkpt lat="42.99225" lon="-0.20399">
        <ele>1378.4</ele>
        <time>2020-09-03T07:33:13Z</time>
      </trkpt>
      <trkpt lat="42.99227" lon="-0.20401">
        <ele>1378.8</ele>
        <time>2020-09-03T07:33:14Z</time>
      </trkpt>
      <trkpt lat="42.99228" lon="-0.20402">
        <ele>1379</ele>
        <time>2020-09-03T07:33:15Z</time>
      </trkpt>
      <trkpt lat="42.9923" lon="-0.20403">
        <ele>1379.4</ele>
        <time>2020-09-03T07:33:16Z</time>
      </trkpt>
      <trkpt lat="42.99232" lon="-0.20405">
        <ele>1379.6</ele>
        <time>2020-09-03T07:33:17Z</time>
      </trkpt>
      <trkpt lat="42.99233" lon="-0.20406">
        <ele>1379.8</ele>
        <time>2020-09-03T07:33:18Z</time>
      </trkpt>
      <trkpt lat="42.99235" lon="-0.20408">
        <ele>1379.8</ele>
        <time>2020-09-03T07:33:19Z</time>
      </trkpt>
      <trkpt lat="42.99236" lon="-0.20409">
        <ele>1380</ele>
        <time>2020-09-03T07:33:20Z</time>
      </trkpt>
      <trkpt lat="42.99237" lon="-0.2041">
        <ele>1380.2</ele>
        <time>2020-09-03T07:33:21Z</time>
      </trkpt>
      <trkpt lat="42.99239" lon="-0.20412">
        <ele>1380.4</ele>
        <time>2020-09-03T07:33:22Z</time>
      </trkpt>
      <trkpt lat="42.99241" lon="-0.20413">
        <ele>1380.6</ele>
        <time>2020-09-03T07:33:23Z</time>
      </trkpt>
      <trkpt lat="42.99243" lon="-0.20414">
        <ele>1380.8</ele>
        <time>2020-09-03T07:33:24Z</time>
      </trkpt>
      <trkpt lat="42.99244" lon="-0.20416">
        <ele>1380.8</ele>
        <time>2020-09-03T07:33:25Z</time>
      </trkpt>
      <trkpt lat="42.99244" lon="-0.20417">
        <ele>1381</ele>
        <time>2020-09-03T07:33:26Z</time>
      </trkpt>
      <trkpt lat="42.99245" lon="-0.20418">
        <ele>1381.2</ele>
        <time>2020-09-03T07:33:27Z</time>
      </trkpt>
      <trkpt lat="42.99247" lon="-0.20419">
        <ele>1381.4</ele>
        <time>2020-09-03T07:33:28Z</time>
      </trkpt>
      <trkpt lat="42.99248" lon="-0.20421">
        <ele>1381.6</ele>
        <time>2020-09-03T07:33:29Z</time>
      </trkpt>
      <trkpt lat="42.99249" lon="-0.20421">
        <ele>1381.8</ele>
        <time>2020-09-03T07:33:30Z</time>
      </trkpt>
      <trkpt lat="42.9925" lon="-0.20422">
        <ele>1382</ele>
        <time>2020-09-03T07:33:31Z</time>
      </trkpt>
      <trkpt lat="42.99251" lon="-0.20424">
        <ele>1382</ele>
        <time>2020-09-03T07:33:32Z</time>
      </trkpt>
      <trkpt lat="42.99252" lon="-0.20425">
        <ele>1382.4</ele>
        <time>2020-09-03T07:33:33Z</time>
      </trkpt>
      <trkpt lat="42.99252" lon="-0.20425">
        <ele>1382.6</ele>
        <time>2020-09-03T07:33:34Z</time>
      </trkpt>
      <trkpt lat="42.99253" lon="-0.20426">
        <ele>1382.6</ele>
        <time>2020-09-03T07:33:35Z</time>
      </trkpt>
      <trkpt lat="42.99254" lon="-0.20428">
        <ele>1382.8</ele>
        <time>2020-09-03T07:33:36Z</time>
      </trkpt>
      <trkpt lat="42.99255" lon="-0.20429">
        <ele>1383</ele>
        <time>2020-09-03T07:33:37Z</time>
      </trkpt>
      <trkpt lat="42.99255" lon="-0.2043">
        <ele>1383</ele>
        <time>2020-09-03T07:33:38Z</time>
      </trkpt>
      <trkpt lat="42.99256" lon="-0.20431">
        <ele>1383.2</ele>
        <time>2020-09-03T07:33:39Z</time>
      </trkpt>
      <trkpt lat="42.99258" lon="-0.20432">
        <ele>1383.4</ele>
        <time>2020-09-03T07:33:40Z</time>
      </trkpt>
      <trkpt lat="42.99259" lon="-0.20433">
        <ele>1383.4</ele>
        <time>2020-09-03T07:33:41Z</time>
      </trkpt>
      <trkpt lat="42.9926" lon="-0.20433">
        <ele>1383.8</ele>
        <time>2020-09-03T07:33:42Z</time>
      </trkpt>
      <trkpt lat="42.9926" lon="-0.20435">
        <ele>1384</ele>
        <time>2020-09-03T07:33:43Z</time>
      </trkpt>
      <trkpt lat="42.99262" lon="-0.20437">
        <ele>1384</ele>
        <time>2020-09-03T07:33:44Z</time>
      </trkpt>
      <trkpt lat="42.99263" lon="-0.20438">
        <ele>1384.2</ele>
        <time>2020-09-03T07:33:45Z</time>
      </trkpt>
      <trkpt lat="42.99264" lon="-0.2044">
        <ele>1384.2</ele>
        <time>2020-09-03T07:33:46Z</time>
      </trkpt>
      <trkpt lat="42.99265" lon="-0.20442">
        <ele>1384.2</ele>
        <time>2020-09-03T07:33:47Z</time>
      </trkpt>
      <trkpt lat="42.99266" lon="-0.20443">
        <ele>1384.4</ele>
        <time>2020-09-03T07:33:48Z</time>
      </trkpt>
      <trkpt lat="42.99267" lon="-0.20444">
        <ele>1384.4</ele>
        <time>2020-09-03T07:33:49Z</time>
      </trkpt>
      <trkpt lat="42.99268" lon="-0.20446">
        <ele>1384.4</ele>
        <time>2020-09-03T07:33:50Z</time>
      </trkpt>
      <trkpt lat="42.9927" lon="-0.20448">
        <ele>1384.6</ele>
        <time>2020-09-03T07:33:51Z</time>
      </trkpt>
      <trkpt lat="42.99271" lon="-0.2045">
        <ele>1384.6</ele>
        <time>2020-09-03T07:33:52Z</time>
      </trkpt>
      <trkpt lat="42.99272" lon="-0.20452">
        <ele>1384.6</ele>
        <time>2020-09-03T07:33:53Z</time>
      </trkpt>
      <trkpt lat="42.99274" lon="-0.20453">
        <ele>1384.6</ele>
        <time>2020-09-03T07:33:54Z</time>
      </trkpt>
      <trkpt lat="42.99275" lon="-0.20455">
        <ele>1384.8</ele>
        <time>2020-09-03T07:33:55Z</time>
      </trkpt>
      <trkpt lat="42.99276" lon="-0.20457">
        <ele>1385</ele>
        <time>2020-09-03T07:33:56Z</time>
      </trkpt>
      <trkpt lat="42.99277" lon="-0.20458">
        <ele>1385</ele>
        <time>2020-09-03T07:33:57Z</time>
      </trkpt>
      <trkpt lat="42.99278" lon="-0.2046">
        <ele>1385.2</ele>
        <time>2020-09-03T07:33:58Z</time>
      </trkpt>
      <trkpt lat="42.99279" lon="-0.20462">
        <ele>1385.2</ele>
        <time>2020-09-03T07:33:59Z</time>
      </trkpt>
      <trkpt lat="42.9928" lon="-0.20463">
        <ele>1385.4</ele>
        <time>2020-09-03T07:34:00Z</time>
      </trkpt>
      <trkpt lat="42.99282" lon="-0.20464">
        <ele>1385.4</ele>
        <time>2020-09-03T07:34:01Z</time>
      </trkpt>
      <trkpt lat="42.99283" lon="-0.20464">
        <ele>1385.6</ele>
        <time>2020-09-03T07:34:02Z</time>
      </trkpt>
      <trkpt lat="42.99284" lon="-0.20465">
        <ele>1385.8</ele>
        <time>2020-09-03T07:34:03Z</time>
      </trkpt>
      <trkpt lat="42.99286" lon="-0.20465">
        <ele>1386</ele>
        <time>2020-09-03T07:34:04Z</time>
      </trkpt>
      <trkpt lat="42.99287" lon="-0.20466">
        <ele>1386.2</ele>
        <time>2020-09-03T07:34:05Z</time>
      </trkpt>
      <trkpt lat="42.99289" lon="-0.20466">
        <ele>1386.2</ele>
        <time>2020-09-03T07:34:06Z</time>
      </trkpt>
      <trkpt lat="42.99291" lon="-0.20467">
        <ele>1386.4</ele>
        <time>2020-09-03T07:34:07Z</time>
      </trkpt>
      <trkpt lat="42.99292" lon="-0.20467">
        <ele>1386.4</ele>
        <time>2020-09-03T07:34:08Z</time>
      </trkpt>
      <trkpt lat="42.99293" lon="-0.20467">
        <ele>1386.6</ele>
        <time>2020-09-03T07:34:09Z</time>
      </trkpt>
      <trkpt lat="42.99294" lon="-0.20467">
        <ele>1386.6</ele>
        <time>2020-09-03T07:34:10Z</time>
      </trkpt>
      <trkpt lat="42.99296" lon="-0.20468">
        <ele>1386.6</ele>
        <time>2020-09-03T07:34:11Z</time>
      </trkpt>
      <trkpt lat="42.99297" lon="-0.20468">
        <ele>1386.6</ele>
        <time>2020-09-03T07:34:12Z</time>
      </trkpt>
      <trkpt lat="42.99299" lon="-0.20468">
        <ele>1386.8</ele>
        <time>2020-09-03T07:34:13Z</time>
      </trkpt>
      <trkpt lat="42.993" lon="-0.20468">
        <ele>1387</ele>
        <time>2020-09-03T07:34:14Z</time>
      </trkpt>
      <trkpt lat="42.99301" lon="-0.20468">
        <ele>1387</ele>
        <time>2020-09-03T07:34:15Z</time>
      </trkpt>
      <trkpt lat="42.99302" lon="-0.20468">
        <ele>1387.4</ele>
        <time>2020-09-03T07:34:16Z</time>
      </trkpt>
      <trkpt lat="42.99303" lon="-0.20468">
        <ele>1387.6</ele>
        <time>2020-09-03T07:34:17Z</time>
      </trkpt>
      <trkpt lat="42.99304" lon="-0.20469">
        <ele>1387.8</ele>
        <time>2020-09-03T07:34:18Z</time>
      </trkpt>
      <trkpt lat="42.99306" lon="-0.20469">
        <ele>1388</ele>
        <time>2020-09-03T07:34:19Z</time>
      </trkpt>
      <trkpt lat="42.99307" lon="-0.20469">
        <ele>1388.2</ele>
        <time>2020-09-03T07:34:20Z</time>
      </trkpt>
      <trkpt lat="42.99308" lon="-0.20469">
        <ele>1388.4</ele>
        <time>2020-09-03T07:34:21Z</time>
      </trkpt>
      <trkpt lat="42.99309" lon="-0.20468">
        <ele>1388.4</ele>
        <time>2020-09-03T07:34:22Z</time>
      </trkpt>
      <trkpt lat="42.99311" lon="-0.20467">
        <ele>1388.6</ele>
        <time>2020-09-03T07:34:23Z</time>
      </trkpt>
      <trkpt lat="42.99312" lon="-0.20467">
        <ele>1388.6</ele>
        <time>2020-09-03T07:34:24Z</time>
      </trkpt>
      <trkpt lat="42.99314" lon="-0.20467">
        <ele>1388.6</ele>
        <time>2020-09-03T07:34:25Z</time>
      </trkpt>
      <trkpt lat="42.99315" lon="-0.20467">
        <ele>1388.8</ele>
        <time>2020-09-03T07:34:26Z</time>
      </trkpt>
      <trkpt lat="42.99317" lon="-0.20467">
        <ele>1388.8</ele>
        <time>2020-09-03T07:34:27Z</time>
      </trkpt>
      <trkpt lat="42.99318" lon="-0.20467">
        <ele>1388.8</ele>
        <time>2020-09-03T07:34:28Z</time>
      </trkpt>
      <trkpt lat="42.9932" lon="-0.20467">
        <ele>1389.2</ele>
        <time>2020-09-03T07:34:29Z</time>
      </trkpt>
      <trkpt lat="42.99321" lon="-0.20467">
        <ele>1389.2</ele>
        <time>2020-09-03T07:34:30Z</time>
      </trkpt>
      <trkpt lat="42.99323" lon="-0.20466">
        <ele>1389.4</ele>
        <time>2020-09-03T07:34:31Z</time>
      </trkpt>
      <trkpt lat="42.99325" lon="-0.20465">
        <ele>1389.6</ele>
        <time>2020-09-03T07:34:32Z</time>
      </trkpt>
      <trkpt lat="42.99326" lon="-0.20466">
        <ele>1389.6</ele>
        <time>2020-09-03T07:34:33Z</time>
      </trkpt>
      <trkpt lat="42.99328" lon="-0.20468">
        <ele>1389.6</ele>
        <time>2020-09-03T07:34:34Z</time>
      </trkpt>
      <trkpt lat="42.9933" lon="-0.20469">
        <ele>1389.6</ele>
        <time>2020-09-03T07:34:35Z</time>
      </trkpt>
      <trkpt lat="42.99332" lon="-0.2047">
        <ele>1389.6</ele>
        <time>2020-09-03T07:34:36Z</time>
      </trkpt>
      <trkpt lat="42.99334" lon="-0.2047">
        <ele>1389.8</ele>
        <time>2020-09-03T07:34:37Z</time>
      </trkpt>
      <trkpt lat="42.99336" lon="-0.20469">
        <ele>1389.8</ele>
        <time>2020-09-03T07:34:38Z</time>
      </trkpt>
      <trkpt lat="42.99337" lon="-0.20468">
        <ele>1389.6</ele>
        <time>2020-09-03T07:34:39Z</time>
      </trkpt>
      <trkpt lat="42.99338" lon="-0.20468">
        <ele>1389.6</ele>
        <time>2020-09-03T07:34:40Z</time>
      </trkpt>
      <trkpt lat="42.9934" lon="-0.20468">
        <ele>1389.6</ele>
        <time>2020-09-03T07:34:41Z</time>
      </trkpt>
      <trkpt lat="42.99343" lon="-0.20469">
        <ele>1389.6</ele>
        <time>2020-09-03T07:34:42Z</time>
      </trkpt>
      <trkpt lat="42.99346" lon="-0.20469">
        <ele>1389.6</ele>
        <time>2020-09-03T07:34:43Z</time>
      </trkpt>
      <trkpt lat="42.99349" lon="-0.2047">
        <ele>1389.6</ele>
        <time>2020-09-03T07:34:44Z</time>
      </trkpt>
      <trkpt lat="42.99352" lon="-0.20471">
        <ele>1389.6</ele>
        <time>2020-09-03T07:34:45Z</time>
      </trkpt>
      <trkpt lat="42.99355" lon="-0.20471">
        <ele>1389.6</ele>
        <time>2020-09-03T07:34:46Z</time>
      </trkpt>
      <trkpt lat="42.99357" lon="-0.20474">
        <ele>1389.6</ele>
        <time>2020-09-03T07:34:47Z</time>
      </trkpt>
      <trkpt lat="42.99359" lon="-0.20478">
        <ele>1389.4</ele>
        <time>2020-09-03T07:34:48Z</time>
      </trkpt>
      <trkpt lat="42.99361" lon="-0.20483">
        <ele>1389.4</ele>
        <time>2020-09-03T07:34:49Z</time>
      </trkpt>
      <trkpt lat="42.99363" lon="-0.20486">
        <ele>1389.4</ele>
        <time>2020-09-03T07:34:50Z</time>
      </trkpt>
      <trkpt lat="42.99365" lon="-0.20489">
        <ele>1389.2</ele>
        <time>2020-09-03T07:34:51Z</time>
      </trkpt>
      <trkpt lat="42.99368" lon="-0.20495">
        <ele>1389.2</ele>
        <time>2020-09-03T07:34:53Z</time>
      </trkpt>
      <trkpt lat="42.9938" lon="-0.20515">
        <ele>1388.6</ele>
        <time>2020-09-03T07:34:59Z</time>
      </trkpt>
      <trkpt lat="42.99388" lon="-0.20533">
        <ele>1388.4</ele>
        <time>2020-09-03T07:35:05Z</time>
      </trkpt>
      <trkpt lat="42.99389" lon="-0.20536">
        <ele>1388.4</ele>
        <time>2020-09-03T07:35:06Z</time>
      </trkpt>
      <trkpt lat="42.99389" lon="-0.20539">
        <ele>1388.6</ele>
        <time>2020-09-03T07:35:07Z</time>
      </trkpt>
      <trkpt lat="42.99391" lon="-0.20541">
        <ele>1388.6</ele>
        <time>2020-09-03T07:35:08Z</time>
      </trkpt>
      <trkpt lat="42.99392" lon="-0.20543">
        <ele>1388.6</ele>
        <time>2020-09-03T07:35:09Z</time>
      </trkpt>
      <trkpt lat="42.99393" lon="-0.20545">
        <ele>1388.6</ele>
        <time>2020-09-03T07:35:10Z</time>
      </trkpt>
      <trkpt lat="42.99394" lon="-0.20548">
        <ele>1388.8</ele>
        <time>2020-09-03T07:35:11Z</time>
      </trkpt>
      <trkpt lat="42.99396" lon="-0.2055">
        <ele>1388.6</ele>
        <time>2020-09-03T07:35:12Z</time>
      </trkpt>
      <trkpt lat="42.99397" lon="-0.20552">
        <ele>1388.6</ele>
        <time>2020-09-03T07:35:13Z</time>
      </trkpt>
      <trkpt lat="42.99398" lon="-0.20555">
        <ele>1388.8</ele>
        <time>2020-09-03T07:35:14Z</time>
      </trkpt>
      <trkpt lat="42.994" lon="-0.20557">
        <ele>1388.8</ele>
        <time>2020-09-03T07:35:15Z</time>
      </trkpt>
      <trkpt lat="42.99401" lon="-0.20559">
        <ele>1388.8</ele>
        <time>2020-09-03T07:35:16Z</time>
      </trkpt>
      <trkpt lat="42.99402" lon="-0.2056">
        <ele>1388.8</ele>
        <time>2020-09-03T07:35:17Z</time>
      </trkpt>
      <trkpt lat="42.99403" lon="-0.20561">
        <ele>1388.8</ele>
        <time>2020-09-03T07:35:18Z</time>
      </trkpt>
      <trkpt lat="42.99405" lon="-0.20562">
        <ele>1388.8</ele>
        <time>2020-09-03T07:35:19Z</time>
      </trkpt>
      <trkpt lat="42.99407" lon="-0.20563">
        <ele>1388.8</ele>
        <time>2020-09-03T07:35:20Z</time>
      </trkpt>
      <trkpt lat="42.99408" lon="-0.20565">
        <ele>1388.8</ele>
        <time>2020-09-03T07:35:21Z</time>
      </trkpt>
      <trkpt lat="42.99412" lon="-0.20567">
        <ele>1389</ele>
        <time>2020-09-03T07:35:23Z</time>
      </trkpt>
      <trkpt lat="42.99416" lon="-0.20569">
        <ele>1389</ele>
        <time>2020-09-03T07:35:25Z</time>
      </trkpt>
      <trkpt lat="42.99417" lon="-0.2057">
        <ele>1389</ele>
        <time>2020-09-03T07:35:26Z</time>
      </trkpt>
      <trkpt lat="42.99419" lon="-0.20571">
        <ele>1389.2</ele>
        <time>2020-09-03T07:35:27Z</time>
      </trkpt>
      <trkpt lat="42.99421" lon="-0.20572">
        <ele>1389.2</ele>
        <time>2020-09-03T07:35:28Z</time>
      </trkpt>
      <trkpt lat="42.99422" lon="-0.20573">
        <ele>1389.2</ele>
        <time>2020-09-03T07:35:29Z</time>
      </trkpt>
      <trkpt lat="42.99425" lon="-0.20576">
        <ele>1389.4</ele>
        <time>2020-09-03T07:35:31Z</time>
      </trkpt>
      <trkpt lat="42.9943" lon="-0.20579">
        <ele>1389.4</ele>
        <time>2020-09-03T07:35:33Z</time>
      </trkpt>
      <trkpt lat="42.99434" lon="-0.20583">
        <ele>1389.4</ele>
        <time>2020-09-03T07:35:35Z</time>
      </trkpt>
      <trkpt lat="42.99436" lon="-0.20585">
        <ele>1389.4</ele>
        <time>2020-09-03T07:35:36Z</time>
      </trkpt>
      <trkpt lat="42.9944" lon="-0.20588">
        <ele>1389.6</ele>
        <time>2020-09-03T07:35:38Z</time>
      </trkpt>
      <trkpt lat="42.99442" lon="-0.2059">
        <ele>1389.6</ele>
        <time>2020-09-03T07:35:39Z</time>
      </trkpt>
      <trkpt lat="42.99449" lon="-0.20595">
        <ele>1389.6</ele>
        <time>2020-09-03T07:35:42Z</time>
      </trkpt>
      <trkpt lat="42.99458" lon="-0.20596">
        <ele>1390</ele>
        <time>2020-09-03T07:35:46Z</time>
      </trkpt>
      <trkpt lat="42.99461" lon="-0.20596">
        <ele>1390</ele>
        <time>2020-09-03T07:35:47Z</time>
      </trkpt>
      <trkpt lat="42.99463" lon="-0.20596">
        <ele>1390.2</ele>
        <time>2020-09-03T07:35:48Z</time>
      </trkpt>
      <trkpt lat="42.99464" lon="-0.20596">
        <ele>1390.4</ele>
        <time>2020-09-03T07:35:49Z</time>
      </trkpt>
      <trkpt lat="42.99467" lon="-0.20596">
        <ele>1390.4</ele>
        <time>2020-09-03T07:35:50Z</time>
      </trkpt>
      <trkpt lat="42.99469" lon="-0.20596">
        <ele>1390.6</ele>
        <time>2020-09-03T07:35:51Z</time>
      </trkpt>
      <trkpt lat="42.99471" lon="-0.20596">
        <ele>1390.6</ele>
        <time>2020-09-03T07:35:52Z</time>
      </trkpt>
      <trkpt lat="42.99472" lon="-0.20596">
        <ele>1390.8</ele>
        <time>2020-09-03T07:35:53Z</time>
      </trkpt>
      <trkpt lat="42.99474" lon="-0.20596">
        <ele>1390.8</ele>
        <time>2020-09-03T07:35:54Z</time>
      </trkpt>
      <trkpt lat="42.99476" lon="-0.20596">
        <ele>1391</ele>
        <time>2020-09-03T07:35:55Z</time>
      </trkpt>
      <trkpt lat="42.9948" lon="-0.20596">
        <ele>1391</ele>
        <time>2020-09-03T07:35:56Z</time>
      </trkpt>
      <trkpt lat="42.99487" lon="-0.20598">
        <ele>1391.2</ele>
        <time>2020-09-03T07:35:58Z</time>
      </trkpt>
      <trkpt lat="42.99489" lon="-0.20599">
        <ele>1391.4</ele>
        <time>2020-09-03T07:35:59Z</time>
      </trkpt>
      <trkpt lat="42.99497" lon="-0.206">
        <ele>1392.4</ele>
        <time>2020-09-03T07:36:04Z</time>
      </trkpt>
      <trkpt lat="42.99501" lon="-0.20599">
        <ele>1392.6</ele>
        <time>2020-09-03T07:36:05Z</time>
      </trkpt>
      <trkpt lat="42.99505" lon="-0.20595">
        <ele>1392.8</ele>
        <time>2020-09-03T07:36:06Z</time>
      </trkpt>
      <trkpt lat="42.9951" lon="-0.20596">
        <ele>1393</ele>
        <time>2020-09-03T07:36:07Z</time>
      </trkpt>
      <trkpt lat="42.99515" lon="-0.20595">
        <ele>1393.2</ele>
        <time>2020-09-03T07:36:08Z</time>
      </trkpt>
      <trkpt lat="42.99517" lon="-0.20595">
        <ele>1393.4</ele>
        <time>2020-09-03T07:36:09Z</time>
      </trkpt>
      <trkpt lat="42.9952" lon="-0.20595">
        <ele>1393.4</ele>
        <time>2020-09-03T07:36:10Z</time>
      </trkpt>
      <trkpt lat="42.99522" lon="-0.20594">
        <ele>1393.6</ele>
        <time>2020-09-03T07:36:11Z</time>
      </trkpt>
      <trkpt lat="42.99524" lon="-0.20593">
        <ele>1393.6</ele>
        <time>2020-09-03T07:36:12Z</time>
      </trkpt>
      <trkpt lat="42.99526" lon="-0.20591">
        <ele>1393.8</ele>
        <time>2020-09-03T07:36:13Z</time>
      </trkpt>
      <trkpt lat="42.99528" lon="-0.20589">
        <ele>1393.8</ele>
        <time>2020-09-03T07:36:14Z</time>
      </trkpt>
      <trkpt lat="42.9953" lon="-0.20589">
        <ele>1394</ele>
        <time>2020-09-03T07:36:15Z</time>
      </trkpt>
      <trkpt lat="42.99532" lon="-0.20587">
        <ele>1394</ele>
        <time>2020-09-03T07:36:16Z</time>
      </trkpt>
      <trkpt lat="42.99534" lon="-0.20586">
        <ele>1394</ele>
        <time>2020-09-03T07:36:17Z</time>
      </trkpt>
      <trkpt lat="42.99536" lon="-0.20585">
        <ele>1394.2</ele>
        <time>2020-09-03T07:36:18Z</time>
      </trkpt>
      <trkpt lat="42.99538" lon="-0.20583">
        <ele>1394.4</ele>
        <time>2020-09-03T07:36:19Z</time>
      </trkpt>
      <trkpt lat="42.99539" lon="-0.20581">
        <ele>1394.4</ele>
        <time>2020-09-03T07:36:20Z</time>
      </trkpt>
      <trkpt lat="42.99541" lon="-0.20579">
        <ele>1394.6</ele>
        <time>2020-09-03T07:36:21Z</time>
      </trkpt>
      <trkpt lat="42.99542" lon="-0.20577">
        <ele>1394.8</ele>
        <time>2020-09-03T07:36:22Z</time>
      </trkpt>
      <trkpt lat="42.99544" lon="-0.20575">
        <ele>1395</ele>
        <time>2020-09-03T07:36:23Z</time>
      </trkpt>
      <trkpt lat="42.99546" lon="-0.20573">
        <ele>1395.2</ele>
        <time>2020-09-03T07:36:24Z</time>
      </trkpt>
      <trkpt lat="42.99547" lon="-0.2057">
        <ele>1395.2</ele>
        <time>2020-09-03T07:36:25Z</time>
      </trkpt>
      <trkpt lat="42.99549" lon="-0.20568">
        <ele>1395.4</ele>
        <time>2020-09-03T07:36:26Z</time>
      </trkpt>
      <trkpt lat="42.99551" lon="-0.20564">
        <ele>1395.4</ele>
        <time>2020-09-03T07:36:27Z</time>
      </trkpt>
      <trkpt lat="42.99552" lon="-0.20561">
        <ele>1395.6</ele>
        <time>2020-09-03T07:36:28Z</time>
      </trkpt>
      <trkpt lat="42.99553" lon="-0.20557">
        <ele>1395.6</ele>
        <time>2020-09-03T07:36:29Z</time>
      </trkpt>
      <trkpt lat="42.99555" lon="-0.20554">
        <ele>1395.8</ele>
        <time>2020-09-03T07:36:30Z</time>
      </trkpt>
      <trkpt lat="42.99556" lon="-0.20551">
        <ele>1395.8</ele>
        <time>2020-09-03T07:36:31Z</time>
      </trkpt>
      <trkpt lat="42.99557" lon="-0.20548">
        <ele>1395.8</ele>
        <time>2020-09-03T07:36:32Z</time>
      </trkpt>
      <trkpt lat="42.99558" lon="-0.20543">
        <ele>1395.8</ele>
        <time>2020-09-03T07:36:33Z</time>
      </trkpt>
      <trkpt lat="42.9956" lon="-0.20539">
        <ele>1395.8</ele>
        <time>2020-09-03T07:36:34Z</time>
      </trkpt>
      <trkpt lat="42.99561" lon="-0.20535">
        <ele>1395.8</ele>
        <time>2020-09-03T07:36:35Z</time>
      </trkpt>
      <trkpt lat="42.99562" lon="-0.20532">
        <ele>1395.8</ele>
        <time>2020-09-03T07:36:36Z</time>
      </trkpt>
      <trkpt lat="42.99565" lon="-0.20529">
        <ele>1395.8</ele>
        <time>2020-09-03T07:36:37Z</time>
      </trkpt>
      <trkpt lat="42.99567" lon="-0.20525">
        <ele>1395.6</ele>
        <time>2020-09-03T07:36:38Z</time>
      </trkpt>
      <trkpt lat="42.9957" lon="-0.20522">
        <ele>1395.4</ele>
        <time>2020-09-03T07:36:39Z</time>
      </trkpt>
      <trkpt lat="42.99573" lon="-0.2052">
        <ele>1395.4</ele>
        <time>2020-09-03T07:36:40Z</time>
      </trkpt>
      <trkpt lat="42.99577" lon="-0.20516">
        <ele>1395.4</ele>
        <time>2020-09-03T07:36:41Z</time>
      </trkpt>
      <trkpt lat="42.99581" lon="-0.20511">
        <ele>1395.2</ele>
        <time>2020-09-03T07:36:42Z</time>
      </trkpt>
      <trkpt lat="42.99586" lon="-0.20506">
        <ele>1395.2</ele>
        <time>2020-09-03T07:36:43Z</time>
      </trkpt>
      <trkpt lat="42.99597" lon="-0.20497">
        <ele>1394.8</ele>
        <time>2020-09-03T07:36:45Z</time>
      </trkpt>
      <trkpt lat="42.99603" lon="-0.20493">
        <ele>1394</ele>
        <time>2020-09-03T07:36:46Z</time>
      </trkpt>
      <trkpt lat="42.99615" lon="-0.20486">
        <ele>1393</ele>
        <time>2020-09-03T07:36:48Z</time>
      </trkpt>
      <trkpt lat="42.99621" lon="-0.20481">
        <ele>1392.8</ele>
        <time>2020-09-03T07:36:49Z</time>
      </trkpt>
      <trkpt lat="42.99632" lon="-0.20466">
        <ele>1392.4</ele>
        <time>2020-09-03T07:36:51Z</time>
      </trkpt>
      <trkpt lat="42.99636" lon="-0.20458">
        <ele>1392.2</ele>
        <time>2020-09-03T07:36:52Z</time>
      </trkpt>
      <trkpt lat="42.9964" lon="-0.20452">
        <ele>1392</ele>
        <time>2020-09-03T07:36:53Z</time>
      </trkpt>
      <trkpt lat="42.99644" lon="-0.20447">
        <ele>1391.8</ele>
        <time>2020-09-03T07:36:54Z</time>
      </trkpt>
      <trkpt lat="42.99648" lon="-0.20443">
        <ele>1391.8</ele>
        <time>2020-09-03T07:36:55Z</time>
      </trkpt>
      <trkpt lat="42.99652" lon="-0.20441">
        <ele>1391.6</ele>
        <time>2020-09-03T07:36:56Z</time>
      </trkpt>
      <trkpt lat="42.99656" lon="-0.2044">
        <ele>1391.4</ele>
        <time>2020-09-03T07:36:57Z</time>
      </trkpt>
      <trkpt lat="42.99661" lon="-0.20441">
        <ele>1391</ele>
        <time>2020-09-03T07:36:58Z</time>
      </trkpt>
      <trkpt lat="42.99665" lon="-0.20444">
        <ele>1390.6</ele>
        <time>2020-09-03T07:36:59Z</time>
      </trkpt>
      <trkpt lat="42.99668" lon="-0.20446">
        <ele>1390.4</ele>
        <time>2020-09-03T07:37:00Z</time>
      </trkpt>
      <trkpt lat="42.99671" lon="-0.20449">
        <ele>1390.2</ele>
        <time>2020-09-03T07:37:01Z</time>
      </trkpt>
      <trkpt lat="42.99674" lon="-0.2045">
        <ele>1390.2</ele>
        <time>2020-09-03T07:37:02Z</time>
      </trkpt>
      <trkpt lat="42.99677" lon="-0.20452">
        <ele>1390.2</ele>
        <time>2020-09-03T07:37:03Z</time>
      </trkpt>
      <trkpt lat="42.9968" lon="-0.20456">
        <ele>1390.2</ele>
        <time>2020-09-03T07:37:04Z</time>
      </trkpt>
      <trkpt lat="42.99692" lon="-0.2046">
        <ele>1390.2</ele>
        <time>2020-09-03T07:37:07Z</time>
      </trkpt>
      <trkpt lat="42.99698" lon="-0.20463">
        <ele>1390.2</ele>
        <time>2020-09-03T07:37:08Z</time>
      </trkpt>
      <trkpt lat="42.99704" lon="-0.20466">
        <ele>1390</ele>
        <time>2020-09-03T07:37:09Z</time>
      </trkpt>
      <trkpt lat="42.9971" lon="-0.20469">
        <ele>1390</ele>
        <time>2020-09-03T07:37:10Z</time>
      </trkpt>
      <trkpt lat="42.99716" lon="-0.20473">
        <ele>1390</ele>
        <time>2020-09-03T07:37:11Z</time>
      </trkpt>
      <trkpt lat="42.99721" lon="-0.20475">
        <ele>1389.8</ele>
        <time>2020-09-03T07:37:12Z</time>
      </trkpt>
      <trkpt lat="42.99726" lon="-0.20476">
        <ele>1389.4</ele>
        <time>2020-09-03T07:37:13Z</time>
      </trkpt>
      <trkpt lat="42.9973" lon="-0.20479">
        <ele>1389.2</ele>
        <time>2020-09-03T07:37:14Z</time>
      </trkpt>
      <trkpt lat="42.99735" lon="-0.20481">
        <ele>1389.2</ele>
        <time>2020-09-03T07:37:15Z</time>
      </trkpt>
      <trkpt lat="42.99739" lon="-0.20483">
        <ele>1389</ele>
        <time>2020-09-03T07:37:16Z</time>
      </trkpt>
      <trkpt lat="42.99743" lon="-0.20484">
        <ele>1388.8</ele>
        <time>2020-09-03T07:37:17Z</time>
      </trkpt>
      <trkpt lat="42.99748" lon="-0.20485">
        <ele>1388.6</ele>
        <time>2020-09-03T07:37:18Z</time>
      </trkpt>
      <trkpt lat="42.99753" lon="-0.20487">
        <ele>1388.4</ele>
        <time>2020-09-03T07:37:19Z</time>
      </trkpt>
      <trkpt lat="42.99757" lon="-0.2049">
        <ele>1388.4</ele>
        <time>2020-09-03T07:37:20Z</time>
      </trkpt>
      <trkpt lat="42.99761" lon="-0.20491">
        <ele>1388.4</ele>
        <time>2020-09-03T07:37:21Z</time>
      </trkpt>
      <trkpt lat="42.99766" lon="-0.20492">
        <ele>1388.6</ele>
        <time>2020-09-03T07:37:22Z</time>
      </trkpt>
      <trkpt lat="42.9977" lon="-0.20493">
        <ele>1388.6</ele>
        <time>2020-09-03T07:37:23Z</time>
      </trkpt>
      <trkpt lat="42.99775" lon="-0.20494">
        <ele>1388.8</ele>
        <time>2020-09-03T07:37:24Z</time>
      </trkpt>
      <trkpt lat="42.99779" lon="-0.20495">
        <ele>1388.8</ele>
        <time>2020-09-03T07:37:25Z</time>
      </trkpt>
      <trkpt lat="42.99783" lon="-0.20497">
        <ele>1388.8</ele>
        <time>2020-09-03T07:37:26Z</time>
      </trkpt>
      <trkpt lat="42.99787" lon="-0.20498">
        <ele>1388.8</ele>
        <time>2020-09-03T07:37:27Z</time>
      </trkpt>
      <trkpt lat="42.99791" lon="-0.205">
        <ele>1388.8</ele>
        <time>2020-09-03T07:37:28Z</time>
      </trkpt>
      <trkpt lat="42.99796" lon="-0.205">
        <ele>1388.8</ele>
        <time>2020-09-03T07:37:29Z</time>
      </trkpt>
      <trkpt lat="42.99801" lon="-0.20501">
        <ele>1389</ele>
        <time>2020-09-03T07:37:30Z</time>
      </trkpt>
      <trkpt lat="42.99805" lon="-0.20501">
        <ele>1389</ele>
        <time>2020-09-03T07:37:31Z</time>
      </trkpt>
      <trkpt lat="42.99808" lon="-0.20503">
        <ele>1388.8</ele>
        <time>2020-09-03T07:37:32Z</time>
      </trkpt>
      <trkpt lat="42.99811" lon="-0.20505">
        <ele>1389.2</ele>
        <time>2020-09-03T07:37:33Z</time>
      </trkpt>
      <trkpt lat="42.99815" lon="-0.20509">
        <ele>1389.2</ele>
        <time>2020-09-03T07:37:34Z</time>
      </trkpt>
      <trkpt lat="42.9982" lon="-0.2051">
        <ele>1389.2</ele>
        <time>2020-09-03T07:37:35Z</time>
      </trkpt>
      <trkpt lat="42.99824" lon="-0.20511">
        <ele>1389.4</ele>
        <time>2020-09-03T07:37:36Z</time>
      </trkpt>
      <trkpt lat="42.99832" lon="-0.20513">
        <ele>1389.6</ele>
        <time>2020-09-03T07:37:38Z</time>
      </trkpt>
      <trkpt lat="42.99838" lon="-0.20515">
        <ele>1389.8</ele>
        <time>2020-09-03T07:37:39Z</time>
      </trkpt>
      <trkpt lat="42.99842" lon="-0.20516">
        <ele>1389.8</ele>
        <time>2020-09-03T07:37:40Z</time>
      </trkpt>
      <trkpt lat="42.99847" lon="-0.20518">
        <ele>1389.8</ele>
        <time>2020-09-03T07:37:41Z</time>
      </trkpt>
      <trkpt lat="42.99861" lon="-0.20517">
        <ele>1390.2</ele>
        <time>2020-09-03T07:37:44Z</time>
      </trkpt>
      <trkpt lat="42.99864" lon="-0.20515">
        <ele>1390.2</ele>
        <time>2020-09-03T07:37:45Z</time>
      </trkpt>
      <trkpt lat="42.99867" lon="-0.20513">
        <ele>1390.4</ele>
        <time>2020-09-03T07:37:46Z</time>
      </trkpt>
      <trkpt lat="42.99871" lon="-0.20511">
        <ele>1390.6</ele>
        <time>2020-09-03T07:37:47Z</time>
      </trkpt>
      <trkpt lat="42.99877" lon="-0.20504">
        <ele>1390.8</ele>
        <time>2020-09-03T07:37:49Z</time>
      </trkpt>
      <trkpt lat="42.9988" lon="-0.20501">
        <ele>1391.2</ele>
        <time>2020-09-03T07:37:50Z</time>
      </trkpt>
      <trkpt lat="42.99883" lon="-0.205">
        <ele>1391.4</ele>
        <time>2020-09-03T07:37:51Z</time>
      </trkpt>
      <trkpt lat="42.99887" lon="-0.20499">
        <ele>1391.6</ele>
        <time>2020-09-03T07:37:52Z</time>
      </trkpt>
      <trkpt lat="42.9989" lon="-0.20499">
        <ele>1391.6</ele>
        <time>2020-09-03T07:37:53Z</time>
      </trkpt>
      <trkpt lat="42.99894" lon="-0.20501">
        <ele>1391.8</ele>
        <time>2020-09-03T07:37:54Z</time>
      </trkpt>
      <trkpt lat="42.99898" lon="-0.20505">
        <ele>1391.8</ele>
        <time>2020-09-03T07:37:55Z</time>
      </trkpt>
      <trkpt lat="42.999" lon="-0.20509">
        <ele>1391.8</ele>
        <time>2020-09-03T07:37:56Z</time>
      </trkpt>
      <trkpt lat="42.999" lon="-0.20514">
        <ele>1391.8</ele>
        <time>2020-09-03T07:37:57Z</time>
      </trkpt>
      <trkpt lat="42.99899" lon="-0.20519">
        <ele>1392</ele>
        <time>2020-09-03T07:37:58Z</time>
      </trkpt>
      <trkpt lat="42.99898" lon="-0.20523">
        <ele>1392</ele>
        <time>2020-09-03T07:37:59Z</time>
      </trkpt>
      <trkpt lat="42.99896" lon="-0.20527">
        <ele>1392</ele>
        <time>2020-09-03T07:38:00Z</time>
      </trkpt>
      <trkpt lat="42.99895" lon="-0.20531">
        <ele>1392</ele>
        <time>2020-09-03T07:38:01Z</time>
      </trkpt>
      <trkpt lat="42.99894" lon="-0.20534">
        <ele>1392</ele>
        <time>2020-09-03T07:38:02Z</time>
      </trkpt>
      <trkpt lat="42.99893" lon="-0.20538">
        <ele>1392.2</ele>
        <time>2020-09-03T07:38:03Z</time>
      </trkpt>
      <trkpt lat="42.99892" lon="-0.20542">
        <ele>1392.4</ele>
        <time>2020-09-03T07:38:04Z</time>
      </trkpt>
      <trkpt lat="42.99891" lon="-0.20545">
        <ele>1392.6</ele>
        <time>2020-09-03T07:38:05Z</time>
      </trkpt>
      <trkpt lat="42.9989" lon="-0.20549">
        <ele>1392.8</ele>
        <time>2020-09-03T07:38:06Z</time>
      </trkpt>
      <trkpt lat="42.99889" lon="-0.20554">
        <ele>1393</ele>
        <time>2020-09-03T07:38:07Z</time>
      </trkpt>
      <trkpt lat="42.99889" lon="-0.20558">
        <ele>1393.2</ele>
        <time>2020-09-03T07:38:08Z</time>
      </trkpt>
      <trkpt lat="42.99888" lon="-0.20562">
        <ele>1393.6</ele>
        <time>2020-09-03T07:38:09Z</time>
      </trkpt>
      <trkpt lat="42.99887" lon="-0.20567">
        <ele>1393.6</ele>
        <time>2020-09-03T07:38:10Z</time>
      </trkpt>
      <trkpt lat="42.99887" lon="-0.20571">
        <ele>1394</ele>
        <time>2020-09-03T07:38:11Z</time>
      </trkpt>
      <trkpt lat="42.99887" lon="-0.20576">
        <ele>1394</ele>
        <time>2020-09-03T07:38:12Z</time>
      </trkpt>
      <trkpt lat="42.99886" lon="-0.2058">
        <ele>1394.2</ele>
        <time>2020-09-03T07:38:13Z</time>
      </trkpt>
      <trkpt lat="42.99886" lon="-0.20584">
        <ele>1394.2</ele>
        <time>2020-09-03T07:38:14Z</time>
      </trkpt>
      <trkpt lat="42.99885" lon="-0.2059">
        <ele>1394.4</ele>
        <time>2020-09-03T07:38:15Z</time>
      </trkpt>
      <trkpt lat="42.99885" lon="-0.20594">
        <ele>1394.4</ele>
        <time>2020-09-03T07:38:16Z</time>
      </trkpt>
      <trkpt lat="42.99884" lon="-0.20599">
        <ele>1394.6</ele>
        <time>2020-09-03T07:38:17Z</time>
      </trkpt>
      <trkpt lat="42.99883" lon="-0.20603">
        <ele>1394.6</ele>
        <time>2020-09-03T07:38:18Z</time>
      </trkpt>
      <trkpt lat="42.99882" lon="-0.20607">
        <ele>1394.6</ele>
        <time>2020-09-03T07:38:19Z</time>
      </trkpt>
      <trkpt lat="42.99882" lon="-0.20612">
        <ele>1394.6</ele>
        <time>2020-09-03T07:38:20Z</time>
      </trkpt>
      <trkpt lat="42.9988" lon="-0.20617">
        <ele>1394.6</ele>
        <time>2020-09-03T07:38:21Z</time>
      </trkpt>
      <trkpt lat="42.99879" lon="-0.20623">
        <ele>1394.6</ele>
        <time>2020-09-03T07:38:22Z</time>
      </trkpt>
      <trkpt lat="42.99877" lon="-0.20629">
        <ele>1394.6</ele>
        <time>2020-09-03T07:38:23Z</time>
      </trkpt>
      <trkpt lat="42.99876" lon="-0.20634">
        <ele>1394.4</ele>
        <time>2020-09-03T07:38:24Z</time>
      </trkpt>
      <trkpt lat="42.99875" lon="-0.2064">
        <ele>1394.2</ele>
        <time>2020-09-03T07:38:25Z</time>
      </trkpt>
      <trkpt lat="42.99873" lon="-0.20646">
        <ele>1394</ele>
        <time>2020-09-03T07:38:26Z</time>
      </trkpt>
      <trkpt lat="42.99872" lon="-0.20654">
        <ele>1394</ele>
        <time>2020-09-03T07:38:27Z</time>
      </trkpt>
      <trkpt lat="42.9987" lon="-0.20662">
        <ele>1393.8</ele>
        <time>2020-09-03T07:38:28Z</time>
      </trkpt>
      <trkpt lat="42.99868" lon="-0.2067">
        <ele>1393.6</ele>
        <time>2020-09-03T07:38:29Z</time>
      </trkpt>
      <trkpt lat="42.99866" lon="-0.20688">
        <ele>1392.8</ele>
        <time>2020-09-03T07:38:31Z</time>
      </trkpt>
      <trkpt lat="42.99866" lon="-0.20706">
        <ele>1392.2</ele>
        <time>2020-09-03T07:38:33Z</time>
      </trkpt>
      <trkpt lat="42.99868" lon="-0.20713">
        <ele>1392</ele>
        <time>2020-09-03T07:38:34Z</time>
      </trkpt>
      <trkpt lat="42.99869" lon="-0.20724">
        <ele>1391.2</ele>
        <time>2020-09-03T07:38:35Z</time>
      </trkpt>
      <trkpt lat="42.9987" lon="-0.20734">
        <ele>1391</ele>
        <time>2020-09-03T07:38:36Z</time>
      </trkpt>
      <trkpt lat="42.9987" lon="-0.2076">
        <ele>1390.2</ele>
        <time>2020-09-03T07:38:39Z</time>
      </trkpt>
      <trkpt lat="42.9987" lon="-0.20775">
        <ele>1389.8</ele>
        <time>2020-09-03T07:38:41Z</time>
      </trkpt>
      <trkpt lat="42.9987" lon="-0.20781">
        <ele>1389.8</ele>
        <time>2020-09-03T07:38:42Z</time>
      </trkpt>
      <trkpt lat="42.99871" lon="-0.20788">
        <ele>1389.8</ele>
        <time>2020-09-03T07:38:43Z</time>
      </trkpt>
      <trkpt lat="42.99871" lon="-0.20793">
        <ele>1389.6</ele>
        <time>2020-09-03T07:38:44Z</time>
      </trkpt>
      <trkpt lat="42.99872" lon="-0.20799">
        <ele>1389.6</ele>
        <time>2020-09-03T07:38:45Z</time>
      </trkpt>
      <trkpt lat="42.99872" lon="-0.20804">
        <ele>1389.8</ele>
        <time>2020-09-03T07:38:46Z</time>
      </trkpt>
      <trkpt lat="42.99872" lon="-0.20809">
        <ele>1389.6</ele>
        <time>2020-09-03T07:38:47Z</time>
      </trkpt>
      <trkpt lat="42.99873" lon="-0.20814">
        <ele>1389.4</ele>
        <time>2020-09-03T07:38:48Z</time>
      </trkpt>
      <trkpt lat="42.99873" lon="-0.20819">
        <ele>1389.4</ele>
        <time>2020-09-03T07:38:49Z</time>
      </trkpt>
      <trkpt lat="42.99874" lon="-0.20834">
        <ele>1389.8</ele>
        <time>2020-09-03T07:38:52Z</time>
      </trkpt>
      <trkpt lat="42.99874" lon="-0.2084">
        <ele>1390</ele>
        <time>2020-09-03T07:38:53Z</time>
      </trkpt>
      <trkpt lat="42.99875" lon="-0.20845">
        <ele>1390</ele>
        <time>2020-09-03T07:38:54Z</time>
      </trkpt>
      <trkpt lat="42.99876" lon="-0.20849">
        <ele>1390.2</ele>
        <time>2020-09-03T07:38:55Z</time>
      </trkpt>
      <trkpt lat="42.99877" lon="-0.20859">
        <ele>1390.2</ele>
        <time>2020-09-03T07:38:57Z</time>
      </trkpt>
      <trkpt lat="42.99878" lon="-0.20862">
        <ele>1390.4</ele>
        <time>2020-09-03T07:38:58Z</time>
      </trkpt>
      <trkpt lat="42.99879" lon="-0.20867">
        <ele>1390.4</ele>
        <time>2020-09-03T07:38:59Z</time>
      </trkpt>
      <trkpt lat="42.9988" lon="-0.20872">
        <ele>1390.6</ele>
        <time>2020-09-03T07:39:00Z</time>
      </trkpt>
      <trkpt lat="42.99881" lon="-0.20879">
        <ele>1390.6</ele>
        <time>2020-09-03T07:39:02Z</time>
      </trkpt>
      <trkpt lat="42.99882" lon="-0.20884">
        <ele>1390.8</ele>
        <time>2020-09-03T07:39:03Z</time>
      </trkpt>
      <trkpt lat="42.99882" lon="-0.20887">
        <ele>1391</ele>
        <time>2020-09-03T07:39:04Z</time>
      </trkpt>
      <trkpt lat="42.99882" lon="-0.2089">
        <ele>1391.4</ele>
        <time>2020-09-03T07:39:05Z</time>
      </trkpt>
      <trkpt lat="42.99883" lon="-0.20894">
        <ele>1391.6</ele>
        <time>2020-09-03T07:39:06Z</time>
      </trkpt>
      <trkpt lat="42.99883" lon="-0.20897">
        <ele>1392</ele>
        <time>2020-09-03T07:39:07Z</time>
      </trkpt>
      <trkpt lat="42.99883" lon="-0.209">
        <ele>1392</ele>
        <time>2020-09-03T07:39:08Z</time>
      </trkpt>
      <trkpt lat="42.99884" lon="-0.20902">
        <ele>1392.2</ele>
        <time>2020-09-03T07:39:09Z</time>
      </trkpt>
      <trkpt lat="42.99885" lon="-0.20905">
        <ele>1392.4</ele>
        <time>2020-09-03T07:39:10Z</time>
      </trkpt>
      <trkpt lat="42.99886" lon="-0.20908">
        <ele>1393</ele>
        <time>2020-09-03T07:39:11Z</time>
      </trkpt>
      <trkpt lat="42.99886" lon="-0.20911">
        <ele>1393.4</ele>
        <time>2020-09-03T07:39:12Z</time>
      </trkpt>
      <trkpt lat="42.99887" lon="-0.20913">
        <ele>1393.8</ele>
        <time>2020-09-03T07:39:13Z</time>
      </trkpt>
      <trkpt lat="42.99888" lon="-0.20916">
        <ele>1393.8</ele>
        <time>2020-09-03T07:39:14Z</time>
      </trkpt>
      <trkpt lat="42.99889" lon="-0.20919">
        <ele>1394</ele>
        <time>2020-09-03T07:39:15Z</time>
      </trkpt>
      <trkpt lat="42.9989" lon="-0.20921">
        <ele>1394</ele>
        <time>2020-09-03T07:39:16Z</time>
      </trkpt>
      <trkpt lat="42.99891" lon="-0.20923">
        <ele>1394.2</ele>
        <time>2020-09-03T07:39:17Z</time>
      </trkpt>
      <trkpt lat="42.99892" lon="-0.20926">
        <ele>1394.4</ele>
        <time>2020-09-03T07:39:18Z</time>
      </trkpt>
      <trkpt lat="42.99893" lon="-0.20928">
        <ele>1395</ele>
        <time>2020-09-03T07:39:19Z</time>
      </trkpt>
      <trkpt lat="42.99894" lon="-0.2093">
        <ele>1395.4</ele>
        <time>2020-09-03T07:39:20Z</time>
      </trkpt>
      <trkpt lat="42.99895" lon="-0.20932">
        <ele>1395.6</ele>
        <time>2020-09-03T07:39:21Z</time>
      </trkpt>
      <trkpt lat="42.99895" lon="-0.20935">
        <ele>1395.8</ele>
        <time>2020-09-03T07:39:22Z</time>
      </trkpt>
      <trkpt lat="42.99896" lon="-0.20937">
        <ele>1395.8</ele>
        <time>2020-09-03T07:39:23Z</time>
      </trkpt>
      <trkpt lat="42.99897" lon="-0.20938">
        <ele>1396.2</ele>
        <time>2020-09-03T07:39:24Z</time>
      </trkpt>
      <trkpt lat="42.99897" lon="-0.2094">
        <ele>1396.2</ele>
        <time>2020-09-03T07:39:25Z</time>
      </trkpt>
      <trkpt lat="42.99898" lon="-0.20942">
        <ele>1396.6</ele>
        <time>2020-09-03T07:39:26Z</time>
      </trkpt>
      <trkpt lat="42.99898" lon="-0.20944">
        <ele>1396.8</ele>
        <time>2020-09-03T07:39:27Z</time>
      </trkpt>
      <trkpt lat="42.99899" lon="-0.20946">
        <ele>1397.2</ele>
        <time>2020-09-03T07:39:28Z</time>
      </trkpt>
      <trkpt lat="42.99899" lon="-0.20948">
        <ele>1397.4</ele>
        <time>2020-09-03T07:39:29Z</time>
      </trkpt>
      <trkpt lat="42.99899" lon="-0.20949">
        <ele>1397.8</ele>
        <time>2020-09-03T07:39:30Z</time>
      </trkpt>
      <trkpt lat="42.99899" lon="-0.20951">
        <ele>1398</ele>
        <time>2020-09-03T07:39:31Z</time>
      </trkpt>
      <trkpt lat="42.99899" lon="-0.20954">
        <ele>1398.2</ele>
        <time>2020-09-03T07:39:32Z</time>
      </trkpt>
      <trkpt lat="42.99898" lon="-0.20956">
        <ele>1398.2</ele>
        <time>2020-09-03T07:39:33Z</time>
      </trkpt>
      <trkpt lat="42.99897" lon="-0.20959">
        <ele>1398.4</ele>
        <time>2020-09-03T07:39:34Z</time>
      </trkpt>
      <trkpt lat="42.99896" lon="-0.20961">
        <ele>1398.4</ele>
        <time>2020-09-03T07:39:35Z</time>
      </trkpt>
      <trkpt lat="42.99895" lon="-0.20964">
        <ele>1398.6</ele>
        <time>2020-09-03T07:39:36Z</time>
      </trkpt>
      <trkpt lat="42.99894" lon="-0.20966">
        <ele>1398.6</ele>
        <time>2020-09-03T07:39:37Z</time>
      </trkpt>
      <trkpt lat="42.99893" lon="-0.20968">
        <ele>1398.8</ele>
        <time>2020-09-03T07:39:38Z</time>
      </trkpt>
      <trkpt lat="42.99891" lon="-0.20971">
        <ele>1399</ele>
        <time>2020-09-03T07:39:39Z</time>
      </trkpt>
      <trkpt lat="42.9989" lon="-0.20973">
        <ele>1399</ele>
        <time>2020-09-03T07:39:40Z</time>
      </trkpt>
      <trkpt lat="42.99889" lon="-0.20975">
        <ele>1399</ele>
        <time>2020-09-03T07:39:41Z</time>
      </trkpt>
      <trkpt lat="42.99887" lon="-0.20978">
        <ele>1399</ele>
        <time>2020-09-03T07:39:42Z</time>
      </trkpt>
      <trkpt lat="42.99885" lon="-0.2098">
        <ele>1399.2</ele>
        <time>2020-09-03T07:39:43Z</time>
      </trkpt>
      <trkpt lat="42.99883" lon="-0.20982">
        <ele>1399.2</ele>
        <time>2020-09-03T07:39:44Z</time>
      </trkpt>
      <trkpt lat="42.99881" lon="-0.20984">
        <ele>1399.4</ele>
        <time>2020-09-03T07:39:45Z</time>
      </trkpt>
      <trkpt lat="42.9988" lon="-0.20987">
        <ele>1399.4</ele>
        <time>2020-09-03T07:39:46Z</time>
      </trkpt>
      <trkpt lat="42.99878" lon="-0.20989">
        <ele>1399.4</ele>
        <time>2020-09-03T07:39:47Z</time>
      </trkpt>
      <trkpt lat="42.99876" lon="-0.20992">
        <ele>1399.6</ele>
        <time>2020-09-03T07:39:48Z</time>
      </trkpt>
      <trkpt lat="42.99875" lon="-0.20994">
        <ele>1399.6</ele>
        <time>2020-09-03T07:39:49Z</time>
      </trkpt>
      <trkpt lat="42.99873" lon="-0.20997">
        <ele>1399.6</ele>
        <time>2020-09-03T07:39:50Z</time>
      </trkpt>
      <trkpt lat="42.99871" lon="-0.21">
        <ele>1399.6</ele>
        <time>2020-09-03T07:39:51Z</time>
      </trkpt>
      <trkpt lat="42.99868" lon="-0.21003">
        <ele>1399.8</ele>
        <time>2020-09-03T07:39:52Z</time>
      </trkpt>
      <trkpt lat="42.99866" lon="-0.21006">
        <ele>1399.8</ele>
        <time>2020-09-03T07:39:53Z</time>
      </trkpt>
      <trkpt lat="42.99863" lon="-0.21008">
        <ele>1399.8</ele>
        <time>2020-09-03T07:39:54Z</time>
      </trkpt>
      <trkpt lat="42.99861" lon="-0.2101">
        <ele>1399.8</ele>
        <time>2020-09-03T07:39:55Z</time>
      </trkpt>
      <trkpt lat="42.99858" lon="-0.21014">
        <ele>1399.8</ele>
        <time>2020-09-03T07:39:56Z</time>
      </trkpt>
      <trkpt lat="42.99856" lon="-0.21016">
        <ele>1399.8</ele>
        <time>2020-09-03T07:39:57Z</time>
      </trkpt>
      <trkpt lat="42.99853" lon="-0.21019">
        <ele>1399.8</ele>
        <time>2020-09-03T07:39:58Z</time>
      </trkpt>
      <trkpt lat="42.99851" lon="-0.21021">
        <ele>1399.8</ele>
        <time>2020-09-03T07:39:59Z</time>
      </trkpt>
      <trkpt lat="42.99848" lon="-0.21023">
        <ele>1399.8</ele>
        <time>2020-09-03T07:40:00Z</time>
      </trkpt>
      <trkpt lat="42.99827" lon="-0.21038">
        <ele>1399.6</ele>
        <time>2020-09-03T07:40:08Z</time>
      </trkpt>
      <trkpt lat="42.99807" lon="-0.21048">
        <ele>1399.6</ele>
        <time>2020-09-03T07:40:14Z</time>
      </trkpt>
      <trkpt lat="42.99804" lon="-0.2105">
        <ele>1399.4</ele>
        <time>2020-09-03T07:40:15Z</time>
      </trkpt>
      <trkpt lat="42.99801" lon="-0.21051">
        <ele>1399.4</ele>
        <time>2020-09-03T07:40:16Z</time>
      </trkpt>
      <trkpt lat="42.99798" lon="-0.21052">
        <ele>1399.4</ele>
        <time>2020-09-03T07:40:17Z</time>
      </trkpt>
      <trkpt lat="42.99793" lon="-0.21054">
        <ele>1399.6</ele>
        <time>2020-09-03T07:40:19Z</time>
      </trkpt>
      <trkpt lat="42.99788" lon="-0.21057">
        <ele>1399.6</ele>
        <time>2020-09-03T07:40:21Z</time>
      </trkpt>
      <trkpt lat="42.99785" lon="-0.21058">
        <ele>1399.4</ele>
        <time>2020-09-03T07:40:22Z</time>
      </trkpt>
      <trkpt lat="42.99783" lon="-0.21059">
        <ele>1399.6</ele>
        <time>2020-09-03T07:40:23Z</time>
      </trkpt>
      <trkpt lat="42.99781" lon="-0.21059">
        <ele>1399.6</ele>
        <time>2020-09-03T07:40:24Z</time>
      </trkpt>
      <trkpt lat="42.99778" lon="-0.21061">
        <ele>1399.8</ele>
        <time>2020-09-03T07:40:25Z</time>
      </trkpt>
      <trkpt lat="42.99775" lon="-0.21063">
        <ele>1400</ele>
        <time>2020-09-03T07:40:26Z</time>
      </trkpt>
      <trkpt lat="42.99763" lon="-0.21068">
        <ele>1401.2</ele>
        <time>2020-09-03T07:40:30Z</time>
      </trkpt>
      <trkpt lat="42.99758" lon="-0.21069">
        <ele>1401.4</ele>
        <time>2020-09-03T07:40:32Z</time>
      </trkpt>
      <trkpt lat="42.99756" lon="-0.2107">
        <ele>1401.6</ele>
        <time>2020-09-03T07:40:33Z</time>
      </trkpt>
      <trkpt lat="42.99754" lon="-0.21071">
        <ele>1401.8</ele>
        <time>2020-09-03T07:40:34Z</time>
      </trkpt>
      <trkpt lat="42.99751" lon="-0.21072">
        <ele>1401.8</ele>
        <time>2020-09-03T07:40:35Z</time>
      </trkpt>
      <trkpt lat="42.99748" lon="-0.21074">
        <ele>1402.2</ele>
        <time>2020-09-03T07:40:37Z</time>
      </trkpt>
      <trkpt lat="42.99746" lon="-0.21075">
        <ele>1402.2</ele>
        <time>2020-09-03T07:40:38Z</time>
      </trkpt>
      <trkpt lat="42.99743" lon="-0.21076">
        <ele>1402.4</ele>
        <time>2020-09-03T07:40:39Z</time>
      </trkpt>
      <trkpt lat="42.99741" lon="-0.21077">
        <ele>1402.8</ele>
        <time>2020-09-03T07:40:40Z</time>
      </trkpt>
      <trkpt lat="42.99739" lon="-0.21078">
        <ele>1402.8</ele>
        <time>2020-09-03T07:40:41Z</time>
      </trkpt>
      <trkpt lat="42.99738" lon="-0.21078">
        <ele>1403</ele>
        <time>2020-09-03T07:40:42Z</time>
      </trkpt>
      <trkpt lat="42.99736" lon="-0.21079">
        <ele>1403.4</ele>
        <time>2020-09-03T07:40:43Z</time>
      </trkpt>
      <trkpt lat="42.99735" lon="-0.21081">
        <ele>1403.6</ele>
        <time>2020-09-03T07:40:44Z</time>
      </trkpt>
      <trkpt lat="42.99733" lon="-0.21082">
        <ele>1403.8</ele>
        <time>2020-09-03T07:40:45Z</time>
      </trkpt>
      <trkpt lat="42.99731" lon="-0.21084">
        <ele>1404</ele>
        <time>2020-09-03T07:40:46Z</time>
      </trkpt>
      <trkpt lat="42.99729" lon="-0.21085">
        <ele>1404</ele>
        <time>2020-09-03T07:40:47Z</time>
      </trkpt>
      <trkpt lat="42.99727" lon="-0.21086">
        <ele>1404.2</ele>
        <time>2020-09-03T07:40:48Z</time>
      </trkpt>
      <trkpt lat="42.99726" lon="-0.21088">
        <ele>1404.2</ele>
        <time>2020-09-03T07:40:49Z</time>
      </trkpt>
      <trkpt lat="42.99724" lon="-0.2109">
        <ele>1404.4</ele>
        <time>2020-09-03T07:40:50Z</time>
      </trkpt>
      <trkpt lat="42.99722" lon="-0.21092">
        <ele>1404.8</ele>
        <time>2020-09-03T07:40:51Z</time>
      </trkpt>
      <trkpt lat="42.9972" lon="-0.21094">
        <ele>1404.8</ele>
        <time>2020-09-03T07:40:52Z</time>
      </trkpt>
      <trkpt lat="42.99719" lon="-0.21097">
        <ele>1405</ele>
        <time>2020-09-03T07:40:53Z</time>
      </trkpt>
      <trkpt lat="42.99717" lon="-0.21099">
        <ele>1405</ele>
        <time>2020-09-03T07:40:54Z</time>
      </trkpt>
      <trkpt lat="42.99715" lon="-0.21101">
        <ele>1405</ele>
        <time>2020-09-03T07:40:55Z</time>
      </trkpt>
      <trkpt lat="42.99713" lon="-0.21103">
        <ele>1405.2</ele>
        <time>2020-09-03T07:40:56Z</time>
      </trkpt>
      <trkpt lat="42.99711" lon="-0.21105">
        <ele>1405.2</ele>
        <time>2020-09-03T07:40:57Z</time>
      </trkpt>
      <trkpt lat="42.99709" lon="-0.21108">
        <ele>1405.2</ele>
        <time>2020-09-03T07:40:58Z</time>
      </trkpt>
      <trkpt lat="42.99706" lon="-0.2111">
        <ele>1405.4</ele>
        <time>2020-09-03T07:40:59Z</time>
      </trkpt>
      <trkpt lat="42.99704" lon="-0.21112">
        <ele>1405.6</ele>
        <time>2020-09-03T07:41:00Z</time>
      </trkpt>
      <trkpt lat="42.99701" lon="-0.21115">
        <ele>1405.6</ele>
        <time>2020-09-03T07:41:01Z</time>
      </trkpt>
      <trkpt lat="42.99699" lon="-0.21117">
        <ele>1405.8</ele>
        <time>2020-09-03T07:41:02Z</time>
      </trkpt>
      <trkpt lat="42.99696" lon="-0.2112">
        <ele>1405.8</ele>
        <time>2020-09-03T07:41:03Z</time>
      </trkpt>
      <trkpt lat="42.99694" lon="-0.21122">
        <ele>1406</ele>
        <time>2020-09-03T07:41:04Z</time>
      </trkpt>
      <trkpt lat="42.99693" lon="-0.21125">
        <ele>1406</ele>
        <time>2020-09-03T07:41:05Z</time>
      </trkpt>
      <trkpt lat="42.99691" lon="-0.21129">
        <ele>1406.2</ele>
        <time>2020-09-03T07:41:06Z</time>
      </trkpt>
      <trkpt lat="42.9969" lon="-0.21132">
        <ele>1406.2</ele>
        <time>2020-09-03T07:41:07Z</time>
      </trkpt>
      <trkpt lat="42.99688" lon="-0.21136">
        <ele>1406.2</ele>
        <time>2020-09-03T07:41:08Z</time>
      </trkpt>
      <trkpt lat="42.99685" lon="-0.2114">
        <ele>1406.2</ele>
        <time>2020-09-03T07:41:09Z</time>
      </trkpt>
      <trkpt lat="42.99682" lon="-0.21144">
        <ele>1406.2</ele>
        <time>2020-09-03T07:41:10Z</time>
      </trkpt>
      <trkpt lat="42.9968" lon="-0.21148">
        <ele>1406.2</ele>
        <time>2020-09-03T07:41:11Z</time>
      </trkpt>
      <trkpt lat="42.99677" lon="-0.21152">
        <ele>1406.2</ele>
        <time>2020-09-03T07:41:12Z</time>
      </trkpt>
      <trkpt lat="42.99674" lon="-0.21156">
        <ele>1406.2</ele>
        <time>2020-09-03T07:41:13Z</time>
      </trkpt>
      <trkpt lat="42.99672" lon="-0.21159">
        <ele>1406.2</ele>
        <time>2020-09-03T07:41:14Z</time>
      </trkpt>
      <trkpt lat="42.99671" lon="-0.21162">
        <ele>1406.2</ele>
        <time>2020-09-03T07:41:15Z</time>
      </trkpt>
      <trkpt lat="42.99669" lon="-0.21165">
        <ele>1406.2</ele>
        <time>2020-09-03T07:41:16Z</time>
      </trkpt>
      <trkpt lat="42.99664" lon="-0.2117">
        <ele>1406.2</ele>
        <time>2020-09-03T07:41:18Z</time>
      </trkpt>
      <trkpt lat="42.99662" lon="-0.21172">
        <ele>1406.4</ele>
        <time>2020-09-03T07:41:19Z</time>
      </trkpt>
      <trkpt lat="42.99659" lon="-0.21173">
        <ele>1406.4</ele>
        <time>2020-09-03T07:41:20Z</time>
      </trkpt>
      <trkpt lat="42.99657" lon="-0.21175">
        <ele>1406.6</ele>
        <time>2020-09-03T07:41:21Z</time>
      </trkpt>
      <trkpt lat="42.99654" lon="-0.21176">
        <ele>1406.6</ele>
        <time>2020-09-03T07:41:22Z</time>
      </trkpt>
      <trkpt lat="42.99652" lon="-0.21177">
        <ele>1406.8</ele>
        <time>2020-09-03T07:41:23Z</time>
      </trkpt>
      <trkpt lat="42.99649" lon="-0.21178">
        <ele>1406.8</ele>
        <time>2020-09-03T07:41:24Z</time>
      </trkpt>
      <trkpt lat="42.99647" lon="-0.21179">
        <ele>1407</ele>
        <time>2020-09-03T07:41:25Z</time>
      </trkpt>
      <trkpt lat="42.99644" lon="-0.2118">
        <ele>1407</ele>
        <time>2020-09-03T07:41:26Z</time>
      </trkpt>
      <trkpt lat="42.99632" lon="-0.21183">
        <ele>1407.4</ele>
        <time>2020-09-03T07:41:31Z</time>
      </trkpt>
      <trkpt lat="42.99629" lon="-0.21183">
        <ele>1407.6</ele>
        <time>2020-09-03T07:41:32Z</time>
      </trkpt>
      <trkpt lat="42.99624" lon="-0.21184">
        <ele>1407.8</ele>
        <time>2020-09-03T07:41:34Z</time>
      </trkpt>
      <trkpt lat="42.99619" lon="-0.21184">
        <ele>1408</ele>
        <time>2020-09-03T07:41:36Z</time>
      </trkpt>
      <trkpt lat="42.99616" lon="-0.21184">
        <ele>1408</ele>
        <time>2020-09-03T07:41:37Z</time>
      </trkpt>
      <trkpt lat="42.99614" lon="-0.21184">
        <ele>1408.2</ele>
        <time>2020-09-03T07:41:38Z</time>
      </trkpt>
      <trkpt lat="42.99611" lon="-0.21184">
        <ele>1408.4</ele>
        <time>2020-09-03T07:41:39Z</time>
      </trkpt>
      <trkpt lat="42.99609" lon="-0.21184">
        <ele>1408.6</ele>
        <time>2020-09-03T07:41:40Z</time>
      </trkpt>
      <trkpt lat="42.99607" lon="-0.21183">
        <ele>1408.8</ele>
        <time>2020-09-03T07:41:41Z</time>
      </trkpt>
      <trkpt lat="42.99605" lon="-0.21183">
        <ele>1409</ele>
        <time>2020-09-03T07:41:42Z</time>
      </trkpt>
      <trkpt lat="42.99603" lon="-0.21183">
        <ele>1409</ele>
        <time>2020-09-03T07:41:43Z</time>
      </trkpt>
      <trkpt lat="42.996" lon="-0.21182">
        <ele>1409.2</ele>
        <time>2020-09-03T07:41:44Z</time>
      </trkpt>
      <trkpt lat="42.99599" lon="-0.21182">
        <ele>1409.2</ele>
        <time>2020-09-03T07:41:45Z</time>
      </trkpt>
      <trkpt lat="42.99596" lon="-0.21181">
        <ele>1409.4</ele>
        <time>2020-09-03T07:41:46Z</time>
      </trkpt>
      <trkpt lat="42.99594" lon="-0.21181">
        <ele>1409.6</ele>
        <time>2020-09-03T07:41:47Z</time>
      </trkpt>
      <trkpt lat="42.99592" lon="-0.2118">
        <ele>1409.8</ele>
        <time>2020-09-03T07:41:48Z</time>
      </trkpt>
      <trkpt lat="42.99589" lon="-0.2118">
        <ele>1410</ele>
        <time>2020-09-03T07:41:49Z</time>
      </trkpt>
      <trkpt lat="42.99588" lon="-0.2118">
        <ele>1410.2</ele>
        <time>2020-09-03T07:41:50Z</time>
      </trkpt>
      <trkpt lat="42.99585" lon="-0.21179">
        <ele>1410.4</ele>
        <time>2020-09-03T07:41:51Z</time>
      </trkpt>
      <trkpt lat="42.99583" lon="-0.21178">
        <ele>1410.6</ele>
        <time>2020-09-03T07:41:52Z</time>
      </trkpt>
      <trkpt lat="42.99581" lon="-0.21178">
        <ele>1411</ele>
        <time>2020-09-03T07:41:53Z</time>
      </trkpt>
      <trkpt lat="42.99578" lon="-0.21177">
        <ele>1411</ele>
        <time>2020-09-03T07:41:54Z</time>
      </trkpt>
      <trkpt lat="42.99576" lon="-0.21177">
        <ele>1411.4</ele>
        <time>2020-09-03T07:41:55Z</time>
      </trkpt>
      <trkpt lat="42.99574" lon="-0.21176">
        <ele>1411.4</ele>
        <time>2020-09-03T07:41:56Z</time>
      </trkpt>
      <trkpt lat="42.99572" lon="-0.21176">
        <ele>1411.8</ele>
        <time>2020-09-03T07:41:57Z</time>
      </trkpt>
      <trkpt lat="42.99569" lon="-0.21175">
        <ele>1411.8</ele>
        <time>2020-09-03T07:41:58Z</time>
      </trkpt>
      <trkpt lat="42.99567" lon="-0.21175">
        <ele>1412</ele>
        <time>2020-09-03T07:41:59Z</time>
      </trkpt>
      <trkpt lat="42.99564" lon="-0.21174">
        <ele>1412</ele>
        <time>2020-09-03T07:42:00Z</time>
      </trkpt>
      <trkpt lat="42.99562" lon="-0.21174">
        <ele>1412</ele>
        <time>2020-09-03T07:42:01Z</time>
      </trkpt>
      <trkpt lat="42.9956" lon="-0.21173">
        <ele>1412</ele>
        <time>2020-09-03T07:42:02Z</time>
      </trkpt>
      <trkpt lat="42.99557" lon="-0.21172">
        <ele>1412.4</ele>
        <time>2020-09-03T07:42:03Z</time>
      </trkpt>
      <trkpt lat="42.99555" lon="-0.21171">
        <ele>1412.6</ele>
        <time>2020-09-03T07:42:04Z</time>
      </trkpt>
      <trkpt lat="42.99553" lon="-0.2117">
        <ele>1412.8</ele>
        <time>2020-09-03T07:42:05Z</time>
      </trkpt>
      <trkpt lat="42.99551" lon="-0.2117">
        <ele>1412.8</ele>
        <time>2020-09-03T07:42:06Z</time>
      </trkpt>
      <trkpt lat="42.99548" lon="-0.2117">
        <ele>1413</ele>
        <time>2020-09-03T07:42:07Z</time>
      </trkpt>
      <trkpt lat="42.99546" lon="-0.21169">
        <ele>1413.2</ele>
        <time>2020-09-03T07:42:08Z</time>
      </trkpt>
      <trkpt lat="42.99544" lon="-0.21168">
        <ele>1413.2</ele>
        <time>2020-09-03T07:42:09Z</time>
      </trkpt>
      <trkpt lat="42.99541" lon="-0.21168">
        <ele>1413.4</ele>
        <time>2020-09-03T07:42:10Z</time>
      </trkpt>
      <trkpt lat="42.99539" lon="-0.21168">
        <ele>1413.4</ele>
        <time>2020-09-03T07:42:11Z</time>
      </trkpt>
      <trkpt lat="42.99537" lon="-0.21167">
        <ele>1413.6</ele>
        <time>2020-09-03T07:42:12Z</time>
      </trkpt>
      <trkpt lat="42.99535" lon="-0.21166">
        <ele>1413.6</ele>
        <time>2020-09-03T07:42:13Z</time>
      </trkpt>
      <trkpt lat="42.99533" lon="-0.21166">
        <ele>1413.8</ele>
        <time>2020-09-03T07:42:14Z</time>
      </trkpt>
      <trkpt lat="42.9953" lon="-0.21165">
        <ele>1413.8</ele>
        <time>2020-09-03T07:42:15Z</time>
      </trkpt>
      <trkpt lat="42.99528" lon="-0.21164">
        <ele>1414</ele>
        <time>2020-09-03T07:42:16Z</time>
      </trkpt>
      <trkpt lat="42.99527" lon="-0.21163">
        <ele>1414</ele>
        <time>2020-09-03T07:42:17Z</time>
      </trkpt>
      <trkpt lat="42.99524" lon="-0.21162">
        <ele>1414.2</ele>
        <time>2020-09-03T07:42:18Z</time>
      </trkpt>
      <trkpt lat="42.99522" lon="-0.21162">
        <ele>1414.2</ele>
        <time>2020-09-03T07:42:19Z</time>
      </trkpt>
      <trkpt lat="42.9952" lon="-0.21161">
        <ele>1414.4</ele>
        <time>2020-09-03T07:42:20Z</time>
      </trkpt>
      <trkpt lat="42.99518" lon="-0.2116">
        <ele>1414.6</ele>
        <time>2020-09-03T07:42:21Z</time>
      </trkpt>
      <trkpt lat="42.99516" lon="-0.21159">
        <ele>1414.8</ele>
        <time>2020-09-03T07:42:22Z</time>
      </trkpt>
      <trkpt lat="42.99514" lon="-0.21158">
        <ele>1414.8</ele>
        <time>2020-09-03T07:42:23Z</time>
      </trkpt>
      <trkpt lat="42.99512" lon="-0.21157">
        <ele>1415</ele>
        <time>2020-09-03T07:42:24Z</time>
      </trkpt>
      <trkpt lat="42.9951" lon="-0.21157">
        <ele>1415.2</ele>
        <time>2020-09-03T07:42:25Z</time>
      </trkpt>
      <trkpt lat="42.99507" lon="-0.21156">
        <ele>1415.4</ele>
        <time>2020-09-03T07:42:26Z</time>
      </trkpt>
      <trkpt lat="42.99505" lon="-0.21155">
        <ele>1415.8</ele>
        <time>2020-09-03T07:42:27Z</time>
      </trkpt>
      <trkpt lat="42.99503" lon="-0.21153">
        <ele>1415.8</ele>
        <time>2020-09-03T07:42:28Z</time>
      </trkpt>
      <trkpt lat="42.99501" lon="-0.21153">
        <ele>1416</ele>
        <time>2020-09-03T07:42:29Z</time>
      </trkpt>
      <trkpt lat="42.99499" lon="-0.21152">
        <ele>1416.2</ele>
        <time>2020-09-03T07:42:30Z</time>
      </trkpt>
      <trkpt lat="42.99497" lon="-0.21151">
        <ele>1416.6</ele>
        <time>2020-09-03T07:42:31Z</time>
      </trkpt>
      <trkpt lat="42.99496" lon="-0.2115">
        <ele>1417</ele>
        <time>2020-09-03T07:42:32Z</time>
      </trkpt>
      <trkpt lat="42.99494" lon="-0.21149">
        <ele>1417.4</ele>
        <time>2020-09-03T07:42:33Z</time>
      </trkpt>
      <trkpt lat="42.99492" lon="-0.21148">
        <ele>1417.4</ele>
        <time>2020-09-03T07:42:34Z</time>
      </trkpt>
      <trkpt lat="42.99489" lon="-0.21147">
        <ele>1417.6</ele>
        <time>2020-09-03T07:42:35Z</time>
      </trkpt>
      <trkpt lat="42.99488" lon="-0.21146">
        <ele>1417.8</ele>
        <time>2020-09-03T07:42:36Z</time>
      </trkpt>
      <trkpt lat="42.99486" lon="-0.21144">
        <ele>1418.2</ele>
        <time>2020-09-03T07:42:37Z</time>
      </trkpt>
      <trkpt lat="42.99484" lon="-0.21143">
        <ele>1418.2</ele>
        <time>2020-09-03T07:42:38Z</time>
      </trkpt>
      <trkpt lat="42.99482" lon="-0.21141">
        <ele>1418.6</ele>
        <time>2020-09-03T07:42:39Z</time>
      </trkpt>
      <trkpt lat="42.9948" lon="-0.2114">
        <ele>1418.8</ele>
        <time>2020-09-03T07:42:40Z</time>
      </trkpt>
      <trkpt lat="42.99479" lon="-0.21139">
        <ele>1419.2</ele>
        <time>2020-09-03T07:42:41Z</time>
      </trkpt>
      <trkpt lat="42.99477" lon="-0.21138">
        <ele>1419.2</ele>
        <time>2020-09-03T07:42:42Z</time>
      </trkpt>
      <trkpt lat="42.99475" lon="-0.21137">
        <ele>1419.6</ele>
        <time>2020-09-03T07:42:43Z</time>
      </trkpt>
      <trkpt lat="42.99473" lon="-0.21135">
        <ele>1420</ele>
        <time>2020-09-03T07:42:44Z</time>
      </trkpt>
      <trkpt lat="42.99471" lon="-0.21135">
        <ele>1420</ele>
        <time>2020-09-03T07:42:45Z</time>
      </trkpt>
      <trkpt lat="42.99469" lon="-0.21134">
        <ele>1420.4</ele>
        <time>2020-09-03T07:42:46Z</time>
      </trkpt>
      <trkpt lat="42.99468" lon="-0.21132">
        <ele>1420.6</ele>
        <time>2020-09-03T07:42:47Z</time>
      </trkpt>
      <trkpt lat="42.99466" lon="-0.21132">
        <ele>1421</ele>
        <time>2020-09-03T07:42:48Z</time>
      </trkpt>
      <trkpt lat="42.99464" lon="-0.21131">
        <ele>1421.2</ele>
        <time>2020-09-03T07:42:49Z</time>
      </trkpt>
      <trkpt lat="42.99462" lon="-0.21131">
        <ele>1421.4</ele>
        <time>2020-09-03T07:42:50Z</time>
      </trkpt>
      <trkpt lat="42.9946" lon="-0.21131">
        <ele>1421.4</ele>
        <time>2020-09-03T07:42:51Z</time>
      </trkpt>
      <trkpt lat="42.99459" lon="-0.2113">
        <ele>1421.4</ele>
        <time>2020-09-03T07:42:52Z</time>
      </trkpt>
      <trkpt lat="42.99457" lon="-0.21131">
        <ele>1421.8</ele>
        <time>2020-09-03T07:42:53Z</time>
      </trkpt>
      <trkpt lat="42.99456" lon="-0.21131">
        <ele>1422</ele>
        <time>2020-09-03T07:42:54Z</time>
      </trkpt>
      <trkpt lat="42.99454" lon="-0.21132">
        <ele>1421.8</ele>
        <time>2020-09-03T07:42:55Z</time>
      </trkpt>
      <trkpt lat="42.99452" lon="-0.21132">
        <ele>1422</ele>
        <time>2020-09-03T07:42:56Z</time>
      </trkpt>
      <trkpt lat="42.99451" lon="-0.21133">
        <ele>1422.2</ele>
        <time>2020-09-03T07:42:57Z</time>
      </trkpt>
      <trkpt lat="42.99449" lon="-0.21134">
        <ele>1422.2</ele>
        <time>2020-09-03T07:42:58Z</time>
      </trkpt>
      <trkpt lat="42.99447" lon="-0.21134">
        <ele>1422.4</ele>
        <time>2020-09-03T07:42:59Z</time>
      </trkpt>
      <trkpt lat="42.99446" lon="-0.21135">
        <ele>1422.6</ele>
        <time>2020-09-03T07:43:00Z</time>
      </trkpt>
      <trkpt lat="42.99444" lon="-0.21135">
        <ele>1422.6</ele>
        <time>2020-09-03T07:43:01Z</time>
      </trkpt>
      <trkpt lat="42.99443" lon="-0.21135">
        <ele>1422.8</ele>
        <time>2020-09-03T07:43:02Z</time>
      </trkpt>
      <trkpt lat="42.99442" lon="-0.21134">
        <ele>1422.8</ele>
        <time>2020-09-03T07:43:03Z</time>
      </trkpt>
      <trkpt lat="42.99442" lon="-0.21134">
        <ele>1422.8</ele>
        <time>2020-09-03T07:43:04Z</time>
      </trkpt>
      <trkpt lat="42.99442" lon="-0.21134">
        <ele>1422.8</ele>
        <time>2020-09-03T07:43:06Z</time>
      </trkpt>
      <trkpt lat="42.99442" lon="-0.21134">
        <ele>1423</ele>
        <time>2020-09-03T07:43:17Z</time>
      </trkpt>
      <trkpt lat="42.99442" lon="-0.21134">
        <ele>1422.8</ele>
        <time>2020-09-03T07:43:32Z</time>
      </trkpt>
      <trkpt lat="42.99442" lon="-0.21134">
        <ele>1422.8</ele>
        <time>2020-09-03T07:43:33Z</time>
      </trkpt>
      <trkpt lat="42.99442" lon="-0.21134">
        <ele>1422.8</ele>
        <time>2020-09-03T07:43:34Z</time>
      </trkpt>
      <trkpt lat="42.99441" lon="-0.21135">
        <ele>1423</ele>
        <time>2020-09-03T07:43:49Z</time>
      </trkpt>
      <trkpt lat="42.9944" lon="-0.21134">
        <ele>1423</ele>
        <time>2020-09-03T07:43:50Z</time>
      </trkpt>
      <trkpt lat="42.99439" lon="-0.21134">
        <ele>1423</ele>
        <time>2020-09-03T07:43:51Z</time>
      </trkpt>
      <trkpt lat="42.99438" lon="-0.21134">
        <ele>1423</ele>
        <time>2020-09-03T07:43:52Z</time>
      </trkpt>
      <trkpt lat="42.99435" lon="-0.21134">
        <ele>1423</ele>
        <time>2020-09-03T07:43:54Z</time>
      </trkpt>
      <trkpt lat="42.99427" lon="-0.21135">
        <ele>1423</ele>
        <time>2020-09-03T07:43:59Z</time>
      </trkpt>
      <trkpt lat="42.99423" lon="-0.21135">
        <ele>1423</ele>
        <time>2020-09-03T07:44:01Z</time>
      </trkpt>
      <trkpt lat="42.99412" lon="-0.21135">
        <ele>1423</ele>
        <time>2020-09-03T07:44:05Z</time>
      </trkpt>
      <trkpt lat="42.994" lon="-0.21134">
        <ele>1422.6</ele>
        <time>2020-09-03T07:44:08Z</time>
      </trkpt>
      <trkpt lat="42.99389" lon="-0.21133">
        <ele>1422.4</ele>
        <time>2020-09-03T07:44:10Z</time>
      </trkpt>
      <trkpt lat="42.99366" lon="-0.21132">
        <ele>1421.4</ele>
        <time>2020-09-03T07:44:14Z</time>
      </trkpt>
      <trkpt lat="42.99361" lon="-0.21131">
        <ele>1421</ele>
        <time>2020-09-03T07:44:15Z</time>
      </trkpt>
      <trkpt lat="42.99357" lon="-0.21131">
        <ele>1420.6</ele>
        <time>2020-09-03T07:44:16Z</time>
      </trkpt>
      <trkpt lat="42.99352" lon="-0.2113">
        <ele>1420</ele>
        <time>2020-09-03T07:44:17Z</time>
      </trkpt>
      <trkpt lat="42.99348" lon="-0.2113">
        <ele>1419.8</ele>
        <time>2020-09-03T07:44:18Z</time>
      </trkpt>
      <trkpt lat="42.99344" lon="-0.21129">
        <ele>1418.6</ele>
        <time>2020-09-03T07:44:19Z</time>
      </trkpt>
      <trkpt lat="42.9934" lon="-0.21129">
        <ele>1418.2</ele>
        <time>2020-09-03T07:44:20Z</time>
      </trkpt>
      <trkpt lat="42.99336" lon="-0.21129">
        <ele>1417.4</ele>
        <time>2020-09-03T07:44:21Z</time>
      </trkpt>
      <trkpt lat="42.99332" lon="-0.21129">
        <ele>1417.2</ele>
        <time>2020-09-03T07:44:22Z</time>
      </trkpt>
      <trkpt lat="42.99328" lon="-0.21129">
        <ele>1417</ele>
        <time>2020-09-03T07:44:23Z</time>
      </trkpt>
      <trkpt lat="42.99322" lon="-0.21128">
        <ele>1416.8</ele>
        <time>2020-09-03T07:44:25Z</time>
      </trkpt>
      <trkpt lat="42.99318" lon="-0.21128">
        <ele>1416.6</ele>
        <time>2020-09-03T07:44:26Z</time>
      </trkpt>
      <trkpt lat="42.99315" lon="-0.21128">
        <ele>1416.4</ele>
        <time>2020-09-03T07:44:27Z</time>
      </trkpt>
      <trkpt lat="42.99312" lon="-0.21128">
        <ele>1416.2</ele>
        <time>2020-09-03T07:44:28Z</time>
      </trkpt>
      <trkpt lat="42.99309" lon="-0.21127">
        <ele>1416</ele>
        <time>2020-09-03T07:44:29Z</time>
      </trkpt>
      <trkpt lat="42.99302" lon="-0.21126">
        <ele>1415.8</ele>
        <time>2020-09-03T07:44:31Z</time>
      </trkpt>
      <trkpt lat="42.99282" lon="-0.21128">
        <ele>1415.4</ele>
        <time>2020-09-03T07:44:36Z</time>
      </trkpt>
      <trkpt lat="42.99273" lon="-0.2113">
        <ele>1415.4</ele>
        <time>2020-09-03T07:44:38Z</time>
      </trkpt>
      <trkpt lat="42.99263" lon="-0.2113">
        <ele>1415</ele>
        <time>2020-09-03T07:44:40Z</time>
      </trkpt>
      <trkpt lat="42.99259" lon="-0.21131">
        <ele>1414.8</ele>
        <time>2020-09-03T07:44:41Z</time>
      </trkpt>
      <trkpt lat="42.99255" lon="-0.2113">
        <ele>1414.2</ele>
        <time>2020-09-03T07:44:42Z</time>
      </trkpt>
      <trkpt lat="42.99252" lon="-0.2113">
        <ele>1414.2</ele>
        <time>2020-09-03T07:44:43Z</time>
      </trkpt>
      <trkpt lat="42.99248" lon="-0.2113">
        <ele>1414</ele>
        <time>2020-09-03T07:44:44Z</time>
      </trkpt>
      <trkpt lat="42.99245" lon="-0.2113">
        <ele>1413.8</ele>
        <time>2020-09-03T07:44:45Z</time>
      </trkpt>
      <trkpt lat="42.99242" lon="-0.21131">
        <ele>1413.8</ele>
        <time>2020-09-03T07:44:46Z</time>
      </trkpt>
      <trkpt lat="42.9924" lon="-0.21131">
        <ele>1413.8</ele>
        <time>2020-09-03T07:44:47Z</time>
      </trkpt>
      <trkpt lat="42.99239" lon="-0.21132">
        <ele>1413.8</ele>
        <time>2020-09-03T07:44:48Z</time>
      </trkpt>
      <trkpt lat="42.99237" lon="-0.21133">
        <ele>1414</ele>
        <time>2020-09-03T07:44:49Z</time>
      </trkpt>
      <trkpt lat="42.99236" lon="-0.21136">
        <ele>1414</ele>
        <time>2020-09-03T07:44:50Z</time>
      </trkpt>
      <trkpt lat="42.99235" lon="-0.21138">
        <ele>1414.2</ele>
        <time>2020-09-03T07:44:51Z</time>
      </trkpt>
      <trkpt lat="42.99233" lon="-0.2114">
        <ele>1414.2</ele>
        <time>2020-09-03T07:44:52Z</time>
      </trkpt>
      <trkpt lat="42.99231" lon="-0.21143">
        <ele>1414.4</ele>
        <time>2020-09-03T07:44:53Z</time>
      </trkpt>
      <trkpt lat="42.99226" lon="-0.2115">
        <ele>1414.8</ele>
        <time>2020-09-03T07:44:55Z</time>
      </trkpt>
      <trkpt lat="42.99222" lon="-0.21155">
        <ele>1414.8</ele>
        <time>2020-09-03T07:44:57Z</time>
      </trkpt>
      <trkpt lat="42.99221" lon="-0.21158">
        <ele>1414.8</ele>
        <time>2020-09-03T07:44:58Z</time>
      </trkpt>
      <trkpt lat="42.9922" lon="-0.2116">
        <ele>1415</ele>
        <time>2020-09-03T07:44:59Z</time>
      </trkpt>
      <trkpt lat="42.99219" lon="-0.21162">
        <ele>1415</ele>
        <time>2020-09-03T07:45:00Z</time>
      </trkpt>
      <trkpt lat="42.99218" lon="-0.21165">
        <ele>1415.2</ele>
        <time>2020-09-03T07:45:01Z</time>
      </trkpt>
      <trkpt lat="42.99218" lon="-0.21167">
        <ele>1415.2</ele>
        <time>2020-09-03T07:45:02Z</time>
      </trkpt>
      <trkpt lat="42.99217" lon="-0.2117">
        <ele>1415.4</ele>
        <time>2020-09-03T07:45:03Z</time>
      </trkpt>
      <trkpt lat="42.99213" lon="-0.21176">
        <ele>1416</ele>
        <time>2020-09-03T07:45:06Z</time>
      </trkpt>
      <trkpt lat="42.99212" lon="-0.21179">
        <ele>1416.2</ele>
        <time>2020-09-03T07:45:07Z</time>
      </trkpt>
      <trkpt lat="42.9921" lon="-0.21181">
        <ele>1416.2</ele>
        <time>2020-09-03T07:45:08Z</time>
      </trkpt>
      <trkpt lat="42.99209" lon="-0.21184">
        <ele>1416.4</ele>
        <time>2020-09-03T07:45:09Z</time>
      </trkpt>
      <trkpt lat="42.99205" lon="-0.21188">
        <ele>1416.8</ele>
        <time>2020-09-03T07:45:11Z</time>
      </trkpt>
      <trkpt lat="42.99203" lon="-0.2119">
        <ele>1417</ele>
        <time>2020-09-03T07:45:12Z</time>
      </trkpt>
      <trkpt lat="42.99201" lon="-0.21191">
        <ele>1417.2</ele>
        <time>2020-09-03T07:45:13Z</time>
      </trkpt>
      <trkpt lat="42.99197" lon="-0.21195">
        <ele>1417.4</ele>
        <time>2020-09-03T07:45:15Z</time>
      </trkpt>
      <trkpt lat="42.99196" lon="-0.21196">
        <ele>1417.6</ele>
        <time>2020-09-03T07:45:16Z</time>
      </trkpt>
      <trkpt lat="42.99195" lon="-0.21197">
        <ele>1417.6</ele>
        <time>2020-09-03T07:45:17Z</time>
      </trkpt>
      <trkpt lat="42.99194" lon="-0.21198">
        <ele>1417.8</ele>
        <time>2020-09-03T07:45:18Z</time>
      </trkpt>
      <trkpt lat="42.99193" lon="-0.212">
        <ele>1417.8</ele>
        <time>2020-09-03T07:45:19Z</time>
      </trkpt>
      <trkpt lat="42.99192" lon="-0.21202">
        <ele>1417.8</ele>
        <time>2020-09-03T07:45:20Z</time>
      </trkpt>
      <trkpt lat="42.99191" lon="-0.21204">
        <ele>1417.8</ele>
        <time>2020-09-03T07:45:21Z</time>
      </trkpt>
      <trkpt lat="42.99189" lon="-0.21206">
        <ele>1418</ele>
        <time>2020-09-03T07:45:22Z</time>
      </trkpt>
      <trkpt lat="42.99187" lon="-0.21208">
        <ele>1417.8</ele>
        <time>2020-09-03T07:45:23Z</time>
      </trkpt>
      <trkpt lat="42.99185" lon="-0.2121">
        <ele>1418</ele>
        <time>2020-09-03T07:45:24Z</time>
      </trkpt>
      <trkpt lat="42.99184" lon="-0.21212">
        <ele>1418</ele>
        <time>2020-09-03T07:45:25Z</time>
      </trkpt>
      <trkpt lat="42.99183" lon="-0.21214">
        <ele>1418</ele>
        <time>2020-09-03T07:45:26Z</time>
      </trkpt>
      <trkpt lat="42.99181" lon="-0.21216">
        <ele>1418.2</ele>
        <time>2020-09-03T07:45:27Z</time>
      </trkpt>
      <trkpt lat="42.99179" lon="-0.21218">
        <ele>1418.4</ele>
        <time>2020-09-03T07:45:28Z</time>
      </trkpt>
      <trkpt lat="42.99177" lon="-0.2122">
        <ele>1418.6</ele>
        <time>2020-09-03T07:45:29Z</time>
      </trkpt>
      <trkpt lat="42.99176" lon="-0.21223">
        <ele>1418.8</ele>
        <time>2020-09-03T07:45:30Z</time>
      </trkpt>
      <trkpt lat="42.99175" lon="-0.21226">
        <ele>1418.8</ele>
        <time>2020-09-03T07:45:31Z</time>
      </trkpt>
      <trkpt lat="42.99174" lon="-0.21228">
        <ele>1419</ele>
        <time>2020-09-03T07:45:32Z</time>
      </trkpt>
      <trkpt lat="42.99173" lon="-0.21231">
        <ele>1419</ele>
        <time>2020-09-03T07:45:33Z</time>
      </trkpt>
      <trkpt lat="42.99171" lon="-0.21234">
        <ele>1419.2</ele>
        <time>2020-09-03T07:45:34Z</time>
      </trkpt>
      <trkpt lat="42.9917" lon="-0.21236">
        <ele>1419.4</ele>
        <time>2020-09-03T07:45:35Z</time>
      </trkpt>
      <trkpt lat="42.99169" lon="-0.21238">
        <ele>1419.6</ele>
        <time>2020-09-03T07:45:36Z</time>
      </trkpt>
      <trkpt lat="42.99167" lon="-0.2124">
        <ele>1419.8</ele>
        <time>2020-09-03T07:45:37Z</time>
      </trkpt>
      <trkpt lat="42.99166" lon="-0.21243">
        <ele>1420</ele>
        <time>2020-09-03T07:45:38Z</time>
      </trkpt>
      <trkpt lat="42.99164" lon="-0.21245">
        <ele>1420</ele>
        <time>2020-09-03T07:45:39Z</time>
      </trkpt>
      <trkpt lat="42.99163" lon="-0.21248">
        <ele>1420.2</ele>
        <time>2020-09-03T07:45:40Z</time>
      </trkpt>
      <trkpt lat="42.99162" lon="-0.2125">
        <ele>1420.2</ele>
        <time>2020-09-03T07:45:41Z</time>
      </trkpt>
      <trkpt lat="42.9916" lon="-0.21252">
        <ele>1420.4</ele>
        <time>2020-09-03T07:45:42Z</time>
      </trkpt>
      <trkpt lat="42.99158" lon="-0.21254">
        <ele>1420.6</ele>
        <time>2020-09-03T07:45:43Z</time>
      </trkpt>
      <trkpt lat="42.99156" lon="-0.21257">
        <ele>1420.6</ele>
        <time>2020-09-03T07:45:44Z</time>
      </trkpt>
      <trkpt lat="42.99154" lon="-0.21259">
        <ele>1420.8</ele>
        <time>2020-09-03T07:45:45Z</time>
      </trkpt>
      <trkpt lat="42.99153" lon="-0.21261">
        <ele>1420.8</ele>
        <time>2020-09-03T07:45:46Z</time>
      </trkpt>
      <trkpt lat="42.99151" lon="-0.21264">
        <ele>1420.8</ele>
        <time>2020-09-03T07:45:47Z</time>
      </trkpt>
      <trkpt lat="42.9915" lon="-0.21266">
        <ele>1421.2</ele>
        <time>2020-09-03T07:45:48Z</time>
      </trkpt>
      <trkpt lat="42.99148" lon="-0.21268">
        <ele>1421.2</ele>
        <time>2020-09-03T07:45:49Z</time>
      </trkpt>
      <trkpt lat="42.99147" lon="-0.2127">
        <ele>1421.4</ele>
        <time>2020-09-03T07:45:50Z</time>
      </trkpt>
      <trkpt lat="42.99145" lon="-0.21273">
        <ele>1421.6</ele>
        <time>2020-09-03T07:45:51Z</time>
      </trkpt>
      <trkpt lat="42.99144" lon="-0.21275">
        <ele>1421.6</ele>
        <time>2020-09-03T07:45:52Z</time>
      </trkpt>
      <trkpt lat="42.99142" lon="-0.21277">
        <ele>1421.8</ele>
        <time>2020-09-03T07:45:53Z</time>
      </trkpt>
      <trkpt lat="42.9914" lon="-0.2128">
        <ele>1421.8</ele>
        <time>2020-09-03T07:45:54Z</time>
      </trkpt>
      <trkpt lat="42.99139" lon="-0.21282">
        <ele>1421.8</ele>
        <time>2020-09-03T07:45:55Z</time>
      </trkpt>
      <trkpt lat="42.99138" lon="-0.21285">
        <ele>1422</ele>
        <time>2020-09-03T07:45:56Z</time>
      </trkpt>
      <trkpt lat="42.99137" lon="-0.21288">
        <ele>1422</ele>
        <time>2020-09-03T07:45:57Z</time>
      </trkpt>
      <trkpt lat="42.99135" lon="-0.21291">
        <ele>1422</ele>
        <time>2020-09-03T07:45:58Z</time>
      </trkpt>
      <trkpt lat="42.99134" lon="-0.21295">
        <ele>1422</ele>
        <time>2020-09-03T07:45:59Z</time>
      </trkpt>
      <trkpt lat="42.99133" lon="-0.21299">
        <ele>1422</ele>
        <time>2020-09-03T07:46:00Z</time>
      </trkpt>
      <trkpt lat="42.99132" lon="-0.21303">
        <ele>1422</ele>
        <time>2020-09-03T07:46:01Z</time>
      </trkpt>
      <trkpt lat="42.99131" lon="-0.21308">
        <ele>1422</ele>
        <time>2020-09-03T07:46:02Z</time>
      </trkpt>
      <trkpt lat="42.99129" lon="-0.21313">
        <ele>1422</ele>
        <time>2020-09-03T07:46:03Z</time>
      </trkpt>
      <trkpt lat="42.99128" lon="-0.21318">
        <ele>1422</ele>
        <time>2020-09-03T07:46:04Z</time>
      </trkpt>
      <trkpt lat="42.99127" lon="-0.21324">
        <ele>1421.8</ele>
        <time>2020-09-03T07:46:05Z</time>
      </trkpt>
      <trkpt lat="42.99121" lon="-0.21356">
        <ele>1420.8</ele>
        <time>2020-09-03T07:46:10Z</time>
      </trkpt>
      <trkpt lat="42.99121" lon="-0.21364">
        <ele>1420.6</ele>
        <time>2020-09-03T07:46:11Z</time>
      </trkpt>
      <trkpt lat="42.9912" lon="-0.21371">
        <ele>1420.6</ele>
        <time>2020-09-03T07:46:12Z</time>
      </trkpt>
      <trkpt lat="42.99115" lon="-0.21395">
        <ele>1419.4</ele>
        <time>2020-09-03T07:46:15Z</time>
      </trkpt>
      <trkpt lat="42.99109" lon="-0.21421">
        <ele>1418.6</ele>
        <time>2020-09-03T07:46:18Z</time>
      </trkpt>
      <trkpt lat="42.99107" lon="-0.21431">
        <ele>1418.2</ele>
        <time>2020-09-03T07:46:19Z</time>
      </trkpt>
      <trkpt lat="42.99099" lon="-0.2146">
        <ele>1416.4</ele>
        <time>2020-09-03T07:46:22Z</time>
      </trkpt>
      <trkpt lat="42.99093" lon="-0.2148">
        <ele>1415.6</ele>
        <time>2020-09-03T07:46:24Z</time>
      </trkpt>
      <trkpt lat="42.9909" lon="-0.21489">
        <ele>1415.4</ele>
        <time>2020-09-03T07:46:25Z</time>
      </trkpt>
      <trkpt lat="42.99088" lon="-0.215">
        <ele>1415</ele>
        <time>2020-09-03T07:46:26Z</time>
      </trkpt>
      <trkpt lat="42.99086" lon="-0.21522">
        <ele>1414.4</ele>
        <time>2020-09-03T07:46:28Z</time>
      </trkpt>
      <trkpt lat="42.99086" lon="-0.21533">
        <ele>1414.2</ele>
        <time>2020-09-03T07:46:29Z</time>
      </trkpt>
      <trkpt lat="42.99084" lon="-0.21556">
        <ele>1413.2</ele>
        <time>2020-09-03T07:46:31Z</time>
      </trkpt>
      <trkpt lat="42.99082" lon="-0.21579">
        <ele>1411.8</ele>
        <time>2020-09-03T07:46:33Z</time>
      </trkpt>
      <trkpt lat="42.99082" lon="-0.21591">
        <ele>1411</ele>
        <time>2020-09-03T07:46:34Z</time>
      </trkpt>
      <trkpt lat="42.99082" lon="-0.21602">
        <ele>1410.8</ele>
        <time>2020-09-03T07:46:35Z</time>
      </trkpt>
      <trkpt lat="42.99083" lon="-0.21613">
        <ele>1409.8</ele>
        <time>2020-09-03T07:46:36Z</time>
      </trkpt>
      <trkpt lat="42.99084" lon="-0.21637">
        <ele>1409</ele>
        <time>2020-09-03T07:46:38Z</time>
      </trkpt>
      <trkpt lat="42.99085" lon="-0.21649">
        <ele>1408.8</ele>
        <time>2020-09-03T07:46:39Z</time>
      </trkpt>
      <trkpt lat="42.99085" lon="-0.21672">
        <ele>1407</ele>
        <time>2020-09-03T07:46:41Z</time>
      </trkpt>
      <trkpt lat="42.99086" lon="-0.21688">
        <ele>1406.2</ele>
        <time>2020-09-03T07:46:43Z</time>
      </trkpt>
      <trkpt lat="42.99086" lon="-0.21694">
        <ele>1405.8</ele>
        <time>2020-09-03T07:46:44Z</time>
      </trkpt>
      <trkpt lat="42.99087" lon="-0.21696">
        <ele>1404.8</ele>
        <time>2020-09-03T07:46:45Z</time>
      </trkpt>
      <trkpt lat="42.9909" lon="-0.21696">
        <ele>1404.4</ele>
        <time>2020-09-03T07:46:46Z</time>
      </trkpt>
      <trkpt lat="42.99091" lon="-0.21695">
        <ele>1403.6</ele>
        <time>2020-09-03T07:46:47Z</time>
      </trkpt>
      <trkpt lat="42.99092" lon="-0.21694">
        <ele>1403</ele>
        <time>2020-09-03T07:46:48Z</time>
      </trkpt>
      <trkpt lat="42.99092" lon="-0.21694">
        <ele>1402</ele>
        <time>2020-09-03T07:46:49Z</time>
      </trkpt>
      <trkpt lat="42.99092" lon="-0.21694">
        <ele>1401.6</ele>
        <time>2020-09-03T07:46:50Z</time>
      </trkpt>
      <trkpt lat="42.99092" lon="-0.21694">
        <ele>1400.4</ele>
        <time>2020-09-03T07:46:53Z</time>
      </trkpt>
      <trkpt lat="42.99092" lon="-0.21694">
        <ele>1400.2</ele>
        <time>2020-09-03T07:46:54Z</time>
      </trkpt>
      <trkpt lat="42.99092" lon="-0.21694">
        <ele>1399.2</ele>
        <time>2020-09-03T07:47:09Z</time>
      </trkpt>
      <trkpt lat="42.99092" lon="-0.21689">
        <ele>1399.2</ele>
        <time>2020-09-03T07:47:11Z</time>
      </trkpt>
      <trkpt lat="42.99092" lon="-0.21686">
        <ele>1399</ele>
        <time>2020-09-03T07:47:12Z</time>
      </trkpt>
      <trkpt lat="42.99093" lon="-0.21678">
        <ele>1399</ele>
        <time>2020-09-03T07:47:15Z</time>
      </trkpt>
      <trkpt lat="42.99094" lon="-0.21665">
        <ele>1398.4</ele>
        <time>2020-09-03T07:47:18Z</time>
      </trkpt>
      <trkpt lat="42.99096" lon="-0.21648">
        <ele>1397.8</ele>
        <time>2020-09-03T07:47:21Z</time>
      </trkpt>
      <trkpt lat="42.99097" lon="-0.21641">
        <ele>1397.8</ele>
        <time>2020-09-03T07:47:22Z</time>
      </trkpt>
      <trkpt lat="42.99105" lon="-0.216">
        <ele>1396.6</ele>
        <time>2020-09-03T07:47:28Z</time>
      </trkpt>
      <trkpt lat="42.99107" lon="-0.21597">
        <ele>1396.2</ele>
        <time>2020-09-03T07:47:29Z</time>
      </trkpt>
      <trkpt lat="42.99109" lon="-0.21596">
        <ele>1396</ele>
        <time>2020-09-03T07:47:30Z</time>
      </trkpt>
      <trkpt lat="42.9911" lon="-0.21597">
        <ele>1395.6</ele>
        <time>2020-09-03T07:47:31Z</time>
      </trkpt>
      <trkpt lat="42.99111" lon="-0.21599">
        <ele>1395.2</ele>
        <time>2020-09-03T07:47:32Z</time>
      </trkpt>
      <trkpt lat="42.99111" lon="-0.21602">
        <ele>1394.6</ele>
        <time>2020-09-03T07:47:33Z</time>
      </trkpt>
      <trkpt lat="42.99111" lon="-0.21605">
        <ele>1394.4</ele>
        <time>2020-09-03T07:47:34Z</time>
      </trkpt>
      <trkpt lat="42.99112" lon="-0.21613">
        <ele>1394</ele>
        <time>2020-09-03T07:47:36Z</time>
      </trkpt>
      <trkpt lat="42.99111" lon="-0.21619">
        <ele>1393.8</ele>
        <time>2020-09-03T07:47:37Z</time>
      </trkpt>
      <trkpt lat="42.99111" lon="-0.21625">
        <ele>1393.6</ele>
        <time>2020-09-03T07:47:38Z</time>
      </trkpt>
      <trkpt lat="42.99111" lon="-0.21632">
        <ele>1393.4</ele>
        <time>2020-09-03T07:47:39Z</time>
      </trkpt>
      <trkpt lat="42.99112" lon="-0.21647">
        <ele>1393.2</ele>
        <time>2020-09-03T07:47:41Z</time>
      </trkpt>
      <trkpt lat="42.99112" lon="-0.21655">
        <ele>1392.6</ele>
        <time>2020-09-03T07:47:42Z</time>
      </trkpt>
      <trkpt lat="42.99112" lon="-0.21672">
        <ele>1391.8</ele>
        <time>2020-09-03T07:47:44Z</time>
      </trkpt>
      <trkpt lat="42.99111" lon="-0.21687">
        <ele>1391.2</ele>
        <time>2020-09-03T07:47:46Z</time>
      </trkpt>
      <trkpt lat="42.99111" lon="-0.21694">
        <ele>1391</ele>
        <time>2020-09-03T07:47:47Z</time>
      </trkpt>
      <trkpt lat="42.9911" lon="-0.21702">
        <ele>1390.4</ele>
        <time>2020-09-03T07:47:48Z</time>
      </trkpt>
      <trkpt lat="42.9911" lon="-0.21709">
        <ele>1390.2</ele>
        <time>2020-09-03T07:47:49Z</time>
      </trkpt>
      <trkpt lat="42.99109" lon="-0.21722">
        <ele>1389.6</ele>
        <time>2020-09-03T07:47:51Z</time>
      </trkpt>
      <trkpt lat="42.99109" lon="-0.21728">
        <ele>1389.2</ele>
        <time>2020-09-03T07:47:52Z</time>
      </trkpt>
      <trkpt lat="42.99108" lon="-0.21734">
        <ele>1389</ele>
        <time>2020-09-03T07:47:53Z</time>
      </trkpt>
      <trkpt lat="42.99108" lon="-0.2174">
        <ele>1388.8</ele>
        <time>2020-09-03T07:47:54Z</time>
      </trkpt>
      <trkpt lat="42.99108" lon="-0.21746">
        <ele>1388.8</ele>
        <time>2020-09-03T07:47:55Z</time>
      </trkpt>
      <trkpt lat="42.99109" lon="-0.21757">
        <ele>1388.6</ele>
        <time>2020-09-03T07:47:57Z</time>
      </trkpt>
      <trkpt lat="42.99112" lon="-0.21761">
        <ele>1388.6</ele>
        <time>2020-09-03T07:47:58Z</time>
      </trkpt>
      <trkpt lat="42.99115" lon="-0.21764">
        <ele>1388.6</ele>
        <time>2020-09-03T07:47:59Z</time>
      </trkpt>
      <trkpt lat="42.99118" lon="-0.21766">
        <ele>1388.4</ele>
        <time>2020-09-03T07:48:00Z</time>
      </trkpt>
      <trkpt lat="42.99121" lon="-0.21765">
        <ele>1388.4</ele>
        <time>2020-09-03T07:48:01Z</time>
      </trkpt>
      <trkpt lat="42.99124" lon="-0.21763">
        <ele>1388.4</ele>
        <time>2020-09-03T07:48:02Z</time>
      </trkpt>
      <trkpt lat="42.99127" lon="-0.21762">
        <ele>1388.4</ele>
        <time>2020-09-03T07:48:03Z</time>
      </trkpt>
      <trkpt lat="42.99129" lon="-0.21759">
        <ele>1388.4</ele>
        <time>2020-09-03T07:48:04Z</time>
      </trkpt>
      <trkpt lat="42.99132" lon="-0.21757">
        <ele>1388.4</ele>
        <time>2020-09-03T07:48:05Z</time>
      </trkpt>
      <trkpt lat="42.99134" lon="-0.21755">
        <ele>1388.4</ele>
        <time>2020-09-03T07:48:06Z</time>
      </trkpt>
      <trkpt lat="42.9914" lon="-0.21749">
        <ele>1388.4</ele>
        <time>2020-09-03T07:48:08Z</time>
      </trkpt>
      <trkpt lat="42.99145" lon="-0.21744">
        <ele>1388.4</ele>
        <time>2020-09-03T07:48:10Z</time>
      </trkpt>
      <trkpt lat="42.99148" lon="-0.21743">
        <ele>1388.4</ele>
        <time>2020-09-03T07:48:11Z</time>
      </trkpt>
      <trkpt lat="42.99151" lon="-0.21742">
        <ele>1388.4</ele>
        <time>2020-09-03T07:48:12Z</time>
      </trkpt>
      <trkpt lat="42.99153" lon="-0.2174">
        <ele>1388.4</ele>
        <time>2020-09-03T07:48:13Z</time>
      </trkpt>
      <trkpt lat="42.99156" lon="-0.21739">
        <ele>1388.6</ele>
        <time>2020-09-03T07:48:14Z</time>
      </trkpt>
      <trkpt lat="42.99159" lon="-0.21737">
        <ele>1388.6</ele>
        <time>2020-09-03T07:48:15Z</time>
      </trkpt>
      <trkpt lat="42.99161" lon="-0.21736">
        <ele>1388.8</ele>
        <time>2020-09-03T07:48:16Z</time>
      </trkpt>
      <trkpt lat="42.99163" lon="-0.21735">
        <ele>1389</ele>
        <time>2020-09-03T07:48:17Z</time>
      </trkpt>
      <trkpt lat="42.99165" lon="-0.21734">
        <ele>1389</ele>
        <time>2020-09-03T07:48:18Z</time>
      </trkpt>
      <trkpt lat="42.99168" lon="-0.21734">
        <ele>1389.2</ele>
        <time>2020-09-03T07:48:19Z</time>
      </trkpt>
      <trkpt lat="42.99172" lon="-0.21733">
        <ele>1389.4</ele>
        <time>2020-09-03T07:48:21Z</time>
      </trkpt>
      <trkpt lat="42.99176" lon="-0.21732">
        <ele>1389.4</ele>
        <time>2020-09-03T07:48:23Z</time>
      </trkpt>
      <trkpt lat="42.99178" lon="-0.21731">
        <ele>1389.8</ele>
        <time>2020-09-03T07:48:24Z</time>
      </trkpt>
      <trkpt lat="42.9918" lon="-0.21731">
        <ele>1389.8</ele>
        <time>2020-09-03T07:48:25Z</time>
      </trkpt>
      <trkpt lat="42.99182" lon="-0.2173">
        <ele>1390.2</ele>
        <time>2020-09-03T07:48:26Z</time>
      </trkpt>
      <trkpt lat="42.99184" lon="-0.2173">
        <ele>1390.2</ele>
        <time>2020-09-03T07:48:27Z</time>
      </trkpt>
      <trkpt lat="42.99185" lon="-0.2173">
        <ele>1390.6</ele>
        <time>2020-09-03T07:48:28Z</time>
      </trkpt>
      <trkpt lat="42.99187" lon="-0.21729">
        <ele>1390.8</ele>
        <time>2020-09-03T07:48:29Z</time>
      </trkpt>
      <trkpt lat="42.99189" lon="-0.21729">
        <ele>1391.2</ele>
        <time>2020-09-03T07:48:30Z</time>
      </trkpt>
      <trkpt lat="42.99191" lon="-0.2173">
        <ele>1391.2</ele>
        <time>2020-09-03T07:48:31Z</time>
      </trkpt>
      <trkpt lat="42.99193" lon="-0.2173">
        <ele>1391.4</ele>
        <time>2020-09-03T07:48:32Z</time>
      </trkpt>
      <trkpt lat="42.99195" lon="-0.2173">
        <ele>1391.8</ele>
        <time>2020-09-03T07:48:33Z</time>
      </trkpt>
      <trkpt lat="42.99197" lon="-0.2173">
        <ele>1392</ele>
        <time>2020-09-03T07:48:34Z</time>
      </trkpt>
      <trkpt lat="42.992" lon="-0.21732">
        <ele>1392.4</ele>
        <time>2020-09-03T07:48:35Z</time>
      </trkpt>
      <trkpt lat="42.99201" lon="-0.21733">
        <ele>1392.6</ele>
        <time>2020-09-03T07:48:36Z</time>
      </trkpt>
      <trkpt lat="42.99203" lon="-0.21734">
        <ele>1392.8</ele>
        <time>2020-09-03T07:48:37Z</time>
      </trkpt>
      <trkpt lat="42.99205" lon="-0.21736">
        <ele>1392.8</ele>
        <time>2020-09-03T07:48:38Z</time>
      </trkpt>
      <trkpt lat="42.99207" lon="-0.21738">
        <ele>1393.4</ele>
        <time>2020-09-03T07:48:39Z</time>
      </trkpt>
      <trkpt lat="42.99209" lon="-0.21739">
        <ele>1393.8</ele>
        <time>2020-09-03T07:48:40Z</time>
      </trkpt>
      <trkpt lat="42.9921" lon="-0.21741">
        <ele>1394.2</ele>
        <time>2020-09-03T07:48:41Z</time>
      </trkpt>
      <trkpt lat="42.99212" lon="-0.21743">
        <ele>1394.4</ele>
        <time>2020-09-03T07:48:42Z</time>
      </trkpt>
      <trkpt lat="42.99214" lon="-0.21746">
        <ele>1394.8</ele>
        <time>2020-09-03T07:48:43Z</time>
      </trkpt>
      <trkpt lat="42.99215" lon="-0.21748">
        <ele>1395</ele>
        <time>2020-09-03T07:48:44Z</time>
      </trkpt>
      <trkpt lat="42.99216" lon="-0.2175">
        <ele>1395.2</ele>
        <time>2020-09-03T07:48:45Z</time>
      </trkpt>
      <trkpt lat="42.99217" lon="-0.21752">
        <ele>1395.4</ele>
        <time>2020-09-03T07:48:46Z</time>
      </trkpt>
      <trkpt lat="42.99218" lon="-0.21755">
        <ele>1395.6</ele>
        <time>2020-09-03T07:48:47Z</time>
      </trkpt>
      <trkpt lat="42.9922" lon="-0.21757">
        <ele>1395.8</ele>
        <time>2020-09-03T07:48:48Z</time>
      </trkpt>
      <trkpt lat="42.99222" lon="-0.2176">
        <ele>1395.8</ele>
        <time>2020-09-03T07:48:49Z</time>
      </trkpt>
      <trkpt lat="42.99224" lon="-0.21762">
        <ele>1396</ele>
        <time>2020-09-03T07:48:50Z</time>
      </trkpt>
      <trkpt lat="42.99226" lon="-0.21764">
        <ele>1396</ele>
        <time>2020-09-03T07:48:51Z</time>
      </trkpt>
      <trkpt lat="42.99229" lon="-0.21765">
        <ele>1396</ele>
        <time>2020-09-03T07:48:52Z</time>
      </trkpt>
      <trkpt lat="42.99232" lon="-0.21765">
        <ele>1396</ele>
        <time>2020-09-03T07:48:53Z</time>
      </trkpt>
      <trkpt lat="42.99235" lon="-0.21765">
        <ele>1396.2</ele>
        <time>2020-09-03T07:48:54Z</time>
      </trkpt>
      <trkpt lat="42.99237" lon="-0.21766">
        <ele>1396.2</ele>
        <time>2020-09-03T07:48:55Z</time>
      </trkpt>
      <trkpt lat="42.9924" lon="-0.21766">
        <ele>1396.2</ele>
        <time>2020-09-03T07:48:56Z</time>
      </trkpt>
      <trkpt lat="42.99243" lon="-0.21766">
        <ele>1396.2</ele>
        <time>2020-09-03T07:48:57Z</time>
      </trkpt>
      <trkpt lat="42.99245" lon="-0.21766">
        <ele>1396.2</ele>
        <time>2020-09-03T07:48:58Z</time>
      </trkpt>
      <trkpt lat="42.99248" lon="-0.21766">
        <ele>1396.2</ele>
        <time>2020-09-03T07:48:59Z</time>
      </trkpt>
      <trkpt lat="42.9925" lon="-0.21767">
        <ele>1396.2</ele>
        <time>2020-09-03T07:49:00Z</time>
      </trkpt>
      <trkpt lat="42.99253" lon="-0.21767">
        <ele>1396.2</ele>
        <time>2020-09-03T07:49:01Z</time>
      </trkpt>
      <trkpt lat="42.99255" lon="-0.21767">
        <ele>1396.2</ele>
        <time>2020-09-03T07:49:02Z</time>
      </trkpt>
      <trkpt lat="42.99257" lon="-0.21767">
        <ele>1396.2</ele>
        <time>2020-09-03T07:49:03Z</time>
      </trkpt>
      <trkpt lat="42.99259" lon="-0.21767">
        <ele>1396.2</ele>
        <time>2020-09-03T07:49:04Z</time>
      </trkpt>
      <trkpt lat="42.99261" lon="-0.21767">
        <ele>1396.2</ele>
        <time>2020-09-03T07:49:05Z</time>
      </trkpt>
      <trkpt lat="42.99264" lon="-0.21767">
        <ele>1396.4</ele>
        <time>2020-09-03T07:49:06Z</time>
      </trkpt>
      <trkpt lat="42.99266" lon="-0.21767">
        <ele>1396.4</ele>
        <time>2020-09-03T07:49:07Z</time>
      </trkpt>
      <trkpt lat="42.99268" lon="-0.21767">
        <ele>1396.4</ele>
        <time>2020-09-03T07:49:08Z</time>
      </trkpt>
      <trkpt lat="42.99271" lon="-0.21767">
        <ele>1396.4</ele>
        <time>2020-09-03T07:49:09Z</time>
      </trkpt>
      <trkpt lat="42.99273" lon="-0.21767">
        <ele>1396.6</ele>
        <time>2020-09-03T07:49:10Z</time>
      </trkpt>
      <trkpt lat="42.99275" lon="-0.21767">
        <ele>1396.6</ele>
        <time>2020-09-03T07:49:11Z</time>
      </trkpt>
      <trkpt lat="42.99276" lon="-0.21767">
        <ele>1396.6</ele>
        <time>2020-09-03T07:49:12Z</time>
      </trkpt>
      <trkpt lat="42.99278" lon="-0.21766">
        <ele>1397</ele>
        <time>2020-09-03T07:49:13Z</time>
      </trkpt>
      <trkpt lat="42.9928" lon="-0.21766">
        <ele>1397</ele>
        <time>2020-09-03T07:49:14Z</time>
      </trkpt>
      <trkpt lat="42.99283" lon="-0.21765">
        <ele>1397.4</ele>
        <time>2020-09-03T07:49:16Z</time>
      </trkpt>
      <trkpt lat="42.99285" lon="-0.21765">
        <ele>1397.6</ele>
        <time>2020-09-03T07:49:17Z</time>
      </trkpt>
      <trkpt lat="42.99287" lon="-0.21764">
        <ele>1397.6</ele>
        <time>2020-09-03T07:49:18Z</time>
      </trkpt>
      <trkpt lat="42.9929" lon="-0.21765">
        <ele>1397.6</ele>
        <time>2020-09-03T07:49:20Z</time>
      </trkpt>
      <trkpt lat="42.99292" lon="-0.21765">
        <ele>1397.8</ele>
        <time>2020-09-03T07:49:21Z</time>
      </trkpt>
      <trkpt lat="42.99294" lon="-0.21766">
        <ele>1397.8</ele>
        <time>2020-09-03T07:49:22Z</time>
      </trkpt>
      <trkpt lat="42.99296" lon="-0.21767">
        <ele>1398</ele>
        <time>2020-09-03T07:49:23Z</time>
      </trkpt>
      <trkpt lat="42.99298" lon="-0.21768">
        <ele>1398</ele>
        <time>2020-09-03T07:49:24Z</time>
      </trkpt>
      <trkpt lat="42.993" lon="-0.21769">
        <ele>1398.4</ele>
        <time>2020-09-03T07:49:25Z</time>
      </trkpt>
      <trkpt lat="42.99301" lon="-0.21771">
        <ele>1398.4</ele>
        <time>2020-09-03T07:49:26Z</time>
      </trkpt>
      <trkpt lat="42.99303" lon="-0.21774">
        <ele>1398.6</ele>
        <time>2020-09-03T07:49:27Z</time>
      </trkpt>
      <trkpt lat="42.99305" lon="-0.21776">
        <ele>1399</ele>
        <time>2020-09-03T07:49:28Z</time>
      </trkpt>
      <trkpt lat="42.99307" lon="-0.21779">
        <ele>1399</ele>
        <time>2020-09-03T07:49:29Z</time>
      </trkpt>
      <trkpt lat="42.99309" lon="-0.2178">
        <ele>1399.2</ele>
        <time>2020-09-03T07:49:30Z</time>
      </trkpt>
      <trkpt lat="42.99311" lon="-0.21781">
        <ele>1399.4</ele>
        <time>2020-09-03T07:49:31Z</time>
      </trkpt>
      <trkpt lat="42.99311" lon="-0.21782">
        <ele>1399.6</ele>
        <time>2020-09-03T07:49:32Z</time>
      </trkpt>
      <trkpt lat="42.99312" lon="-0.21783">
        <ele>1399.8</ele>
        <time>2020-09-03T07:49:33Z</time>
      </trkpt>
      <trkpt lat="42.99314" lon="-0.21784">
        <ele>1400</ele>
        <time>2020-09-03T07:49:34Z</time>
      </trkpt>
      <trkpt lat="42.99315" lon="-0.21786">
        <ele>1400.2</ele>
        <time>2020-09-03T07:49:35Z</time>
      </trkpt>
      <trkpt lat="42.99317" lon="-0.21787">
        <ele>1400.4</ele>
        <time>2020-09-03T07:49:36Z</time>
      </trkpt>
      <trkpt lat="42.99319" lon="-0.21789">
        <ele>1400.6</ele>
        <time>2020-09-03T07:49:37Z</time>
      </trkpt>
      <trkpt lat="42.99321" lon="-0.2179">
        <ele>1401</ele>
        <time>2020-09-03T07:49:38Z</time>
      </trkpt>
      <trkpt lat="42.99323" lon="-0.2179">
        <ele>1401</ele>
        <time>2020-09-03T07:49:39Z</time>
      </trkpt>
      <trkpt lat="42.99325" lon="-0.21792">
        <ele>1401.2</ele>
        <time>2020-09-03T07:49:40Z</time>
      </trkpt>
      <trkpt lat="42.99326" lon="-0.21793">
        <ele>1401.2</ele>
        <time>2020-09-03T07:49:41Z</time>
      </trkpt>
      <trkpt lat="42.99329" lon="-0.21794">
        <ele>1401.4</ele>
        <time>2020-09-03T07:49:42Z</time>
      </trkpt>
      <trkpt lat="42.9933" lon="-0.21797">
        <ele>1401.4</ele>
        <time>2020-09-03T07:49:43Z</time>
      </trkpt>
      <trkpt lat="42.99333" lon="-0.21798">
        <ele>1401.8</ele>
        <time>2020-09-03T07:49:44Z</time>
      </trkpt>
      <trkpt lat="42.99335" lon="-0.218">
        <ele>1402</ele>
        <time>2020-09-03T07:49:45Z</time>
      </trkpt>
      <trkpt lat="42.99337" lon="-0.21801">
        <ele>1402.4</ele>
        <time>2020-09-03T07:49:46Z</time>
      </trkpt>
      <trkpt lat="42.99339" lon="-0.21803">
        <ele>1402.6</ele>
        <time>2020-09-03T07:49:47Z</time>
      </trkpt>
      <trkpt lat="42.99341" lon="-0.21804">
        <ele>1402.6</ele>
        <time>2020-09-03T07:49:48Z</time>
      </trkpt>
      <trkpt lat="42.99343" lon="-0.21805">
        <ele>1403</ele>
        <time>2020-09-03T07:49:49Z</time>
      </trkpt>
      <trkpt lat="42.99345" lon="-0.21806">
        <ele>1403.4</ele>
        <time>2020-09-03T07:49:50Z</time>
      </trkpt>
      <trkpt lat="42.99347" lon="-0.21808">
        <ele>1403.6</ele>
        <time>2020-09-03T07:49:51Z</time>
      </trkpt>
      <trkpt lat="42.99348" lon="-0.2181">
        <ele>1403.8</ele>
        <time>2020-09-03T07:49:52Z</time>
      </trkpt>
      <trkpt lat="42.9935" lon="-0.21812">
        <ele>1403.8</ele>
        <time>2020-09-03T07:49:53Z</time>
      </trkpt>
      <trkpt lat="42.99351" lon="-0.21815">
        <ele>1404</ele>
        <time>2020-09-03T07:49:54Z</time>
      </trkpt>
      <trkpt lat="42.99351" lon="-0.21817">
        <ele>1404</ele>
        <time>2020-09-03T07:49:55Z</time>
      </trkpt>
      <trkpt lat="42.99351" lon="-0.2182">
        <ele>1404.2</ele>
        <time>2020-09-03T07:49:56Z</time>
      </trkpt>
      <trkpt lat="42.99351" lon="-0.21823">
        <ele>1404.4</ele>
        <time>2020-09-03T07:49:57Z</time>
      </trkpt>
      <trkpt lat="42.99351" lon="-0.21825">
        <ele>1404.4</ele>
        <time>2020-09-03T07:49:58Z</time>
      </trkpt>
      <trkpt lat="42.99352" lon="-0.21828">
        <ele>1404.6</ele>
        <time>2020-09-03T07:49:59Z</time>
      </trkpt>
      <trkpt lat="42.99351" lon="-0.2183">
        <ele>1404.6</ele>
        <time>2020-09-03T07:50:00Z</time>
      </trkpt>
      <trkpt lat="42.99351" lon="-0.21832">
        <ele>1404.6</ele>
        <time>2020-09-03T07:50:01Z</time>
      </trkpt>
      <trkpt lat="42.9935" lon="-0.21835">
        <ele>1404.6</ele>
        <time>2020-09-03T07:50:02Z</time>
      </trkpt>
      <trkpt lat="42.9935" lon="-0.21838">
        <ele>1404.8</ele>
        <time>2020-09-03T07:50:03Z</time>
      </trkpt>
      <trkpt lat="42.99349" lon="-0.2184">
        <ele>1404.8</ele>
        <time>2020-09-03T07:50:04Z</time>
      </trkpt>
      <trkpt lat="42.99348" lon="-0.21843">
        <ele>1405</ele>
        <time>2020-09-03T07:50:05Z</time>
      </trkpt>
      <trkpt lat="42.99347" lon="-0.21845">
        <ele>1405.2</ele>
        <time>2020-09-03T07:50:06Z</time>
      </trkpt>
      <trkpt lat="42.99346" lon="-0.21847">
        <ele>1405.4</ele>
        <time>2020-09-03T07:50:07Z</time>
      </trkpt>
      <trkpt lat="42.99345" lon="-0.2185">
        <ele>1405.6</ele>
        <time>2020-09-03T07:50:08Z</time>
      </trkpt>
      <trkpt lat="42.99344" lon="-0.21852">
        <ele>1405.8</ele>
        <time>2020-09-03T07:50:09Z</time>
      </trkpt>
      <trkpt lat="42.99343" lon="-0.21855">
        <ele>1406</ele>
        <time>2020-09-03T07:50:10Z</time>
      </trkpt>
      <trkpt lat="42.99343" lon="-0.21857">
        <ele>1406</ele>
        <time>2020-09-03T07:50:11Z</time>
      </trkpt>
      <trkpt lat="42.99343" lon="-0.2186">
        <ele>1406.4</ele>
        <time>2020-09-03T07:50:12Z</time>
      </trkpt>
      <trkpt lat="42.99343" lon="-0.21862">
        <ele>1406.6</ele>
        <time>2020-09-03T07:50:13Z</time>
      </trkpt>
      <trkpt lat="42.99342" lon="-0.21864">
        <ele>1406.8</ele>
        <time>2020-09-03T07:50:14Z</time>
      </trkpt>
      <trkpt lat="42.99341" lon="-0.21867">
        <ele>1407</ele>
        <time>2020-09-03T07:50:15Z</time>
      </trkpt>
      <trkpt lat="42.9934" lon="-0.21869">
        <ele>1407.2</ele>
        <time>2020-09-03T07:50:16Z</time>
      </trkpt>
      <trkpt lat="42.9934" lon="-0.21872">
        <ele>1407.2</ele>
        <time>2020-09-03T07:50:17Z</time>
      </trkpt>
      <trkpt lat="42.99339" lon="-0.21874">
        <ele>1407.4</ele>
        <time>2020-09-03T07:50:18Z</time>
      </trkpt>
      <trkpt lat="42.99339" lon="-0.21876">
        <ele>1407.4</ele>
        <time>2020-09-03T07:50:19Z</time>
      </trkpt>
      <trkpt lat="42.99338" lon="-0.21879">
        <ele>1407.4</ele>
        <time>2020-09-03T07:50:20Z</time>
      </trkpt>
      <trkpt lat="42.99337" lon="-0.21881">
        <ele>1407.6</ele>
        <time>2020-09-03T07:50:21Z</time>
      </trkpt>
      <trkpt lat="42.99336" lon="-0.21884">
        <ele>1407.8</ele>
        <time>2020-09-03T07:50:22Z</time>
      </trkpt>
      <trkpt lat="42.99336" lon="-0.21886">
        <ele>1407.8</ele>
        <time>2020-09-03T07:50:23Z</time>
      </trkpt>
      <trkpt lat="42.99335" lon="-0.21888">
        <ele>1408.2</ele>
        <time>2020-09-03T07:50:24Z</time>
      </trkpt>
      <trkpt lat="42.99335" lon="-0.2189">
        <ele>1408.4</ele>
        <time>2020-09-03T07:50:25Z</time>
      </trkpt>
      <trkpt lat="42.99334" lon="-0.21893">
        <ele>1408.4</ele>
        <time>2020-09-03T07:50:26Z</time>
      </trkpt>
      <trkpt lat="42.99334" lon="-0.21896">
        <ele>1408.6</ele>
        <time>2020-09-03T07:50:27Z</time>
      </trkpt>
      <trkpt lat="42.99333" lon="-0.21898">
        <ele>1408.8</ele>
        <time>2020-09-03T07:50:28Z</time>
      </trkpt>
      <trkpt lat="42.99333" lon="-0.21901">
        <ele>1409</ele>
        <time>2020-09-03T07:50:29Z</time>
      </trkpt>
      <trkpt lat="42.99332" lon="-0.21903">
        <ele>1409.2</ele>
        <time>2020-09-03T07:50:30Z</time>
      </trkpt>
      <trkpt lat="42.99332" lon="-0.21906">
        <ele>1409.4</ele>
        <time>2020-09-03T07:50:31Z</time>
      </trkpt>
      <trkpt lat="42.99331" lon="-0.21908">
        <ele>1409.6</ele>
        <time>2020-09-03T07:50:32Z</time>
      </trkpt>
      <trkpt lat="42.99331" lon="-0.2191">
        <ele>1409.6</ele>
        <time>2020-09-03T07:50:33Z</time>
      </trkpt>
      <trkpt lat="42.99331" lon="-0.21913">
        <ele>1409.8</ele>
        <time>2020-09-03T07:50:34Z</time>
      </trkpt>
      <trkpt lat="42.9933" lon="-0.21915">
        <ele>1410</ele>
        <time>2020-09-03T07:50:35Z</time>
      </trkpt>
      <trkpt lat="42.99329" lon="-0.21918">
        <ele>1410</ele>
        <time>2020-09-03T07:50:36Z</time>
      </trkpt>
      <trkpt lat="42.99329" lon="-0.2192">
        <ele>1410.2</ele>
        <time>2020-09-03T07:50:37Z</time>
      </trkpt>
      <trkpt lat="42.99328" lon="-0.21922">
        <ele>1410.4</ele>
        <time>2020-09-03T07:50:38Z</time>
      </trkpt>
      <trkpt lat="42.99327" lon="-0.21925">
        <ele>1410.8</ele>
        <time>2020-09-03T07:50:39Z</time>
      </trkpt>
      <trkpt lat="42.99327" lon="-0.21927">
        <ele>1410.8</ele>
        <time>2020-09-03T07:50:40Z</time>
      </trkpt>
      <trkpt lat="42.99326" lon="-0.2193">
        <ele>1411.2</ele>
        <time>2020-09-03T07:50:41Z</time>
      </trkpt>
      <trkpt lat="42.99325" lon="-0.21932">
        <ele>1411.4</ele>
        <time>2020-09-03T07:50:42Z</time>
      </trkpt>
      <trkpt lat="42.99324" lon="-0.21935">
        <ele>1411.6</ele>
        <time>2020-09-03T07:50:43Z</time>
      </trkpt>
      <trkpt lat="42.99324" lon="-0.21937">
        <ele>1411.8</ele>
        <time>2020-09-03T07:50:44Z</time>
      </trkpt>
      <trkpt lat="42.99323" lon="-0.2194">
        <ele>1411.8</ele>
        <time>2020-09-03T07:50:45Z</time>
      </trkpt>
      <trkpt lat="42.99323" lon="-0.21943">
        <ele>1412</ele>
        <time>2020-09-03T07:50:46Z</time>
      </trkpt>
      <trkpt lat="42.99322" lon="-0.21945">
        <ele>1412</ele>
        <time>2020-09-03T07:50:47Z</time>
      </trkpt>
      <trkpt lat="42.99321" lon="-0.21948">
        <ele>1412.4</ele>
        <time>2020-09-03T07:50:48Z</time>
      </trkpt>
      <trkpt lat="42.9932" lon="-0.2195">
        <ele>1412.4</ele>
        <time>2020-09-03T07:50:49Z</time>
      </trkpt>
      <trkpt lat="42.99319" lon="-0.21953">
        <ele>1412.6</ele>
        <time>2020-09-03T07:50:50Z</time>
      </trkpt>
      <trkpt lat="42.99319" lon="-0.21955">
        <ele>1412.8</ele>
        <time>2020-09-03T07:50:51Z</time>
      </trkpt>
      <trkpt lat="42.99318" lon="-0.21958">
        <ele>1412.8</ele>
        <time>2020-09-03T07:50:52Z</time>
      </trkpt>
      <trkpt lat="42.99317" lon="-0.2196">
        <ele>1412.8</ele>
        <time>2020-09-03T07:50:53Z</time>
      </trkpt>
      <trkpt lat="42.99316" lon="-0.21962">
        <ele>1413.2</ele>
        <time>2020-09-03T07:50:54Z</time>
      </trkpt>
      <trkpt lat="42.99315" lon="-0.21965">
        <ele>1413.2</ele>
        <time>2020-09-03T07:50:55Z</time>
      </trkpt>
      <trkpt lat="42.99315" lon="-0.21967">
        <ele>1413.6</ele>
        <time>2020-09-03T07:50:56Z</time>
      </trkpt>
      <trkpt lat="42.99314" lon="-0.21969">
        <ele>1413.6</ele>
        <time>2020-09-03T07:50:57Z</time>
      </trkpt>
      <trkpt lat="42.99313" lon="-0.21972">
        <ele>1413.8</ele>
        <time>2020-09-03T07:50:58Z</time>
      </trkpt>
      <trkpt lat="42.99313" lon="-0.21974">
        <ele>1414</ele>
        <time>2020-09-03T07:50:59Z</time>
      </trkpt>
      <trkpt lat="42.99312" lon="-0.21976">
        <ele>1414.2</ele>
        <time>2020-09-03T07:51:00Z</time>
      </trkpt>
      <trkpt lat="42.99312" lon="-0.21978">
        <ele>1414.2</ele>
        <time>2020-09-03T07:51:01Z</time>
      </trkpt>
      <trkpt lat="42.99311" lon="-0.2198">
        <ele>1414.4</ele>
        <time>2020-09-03T07:51:02Z</time>
      </trkpt>
      <trkpt lat="42.9931" lon="-0.21983">
        <ele>1414.6</ele>
        <time>2020-09-03T07:51:03Z</time>
      </trkpt>
      <trkpt lat="42.99309" lon="-0.21985">
        <ele>1414.8</ele>
        <time>2020-09-03T07:51:04Z</time>
      </trkpt>
      <trkpt lat="42.99309" lon="-0.21986">
        <ele>1415</ele>
        <time>2020-09-03T07:51:05Z</time>
      </trkpt>
      <trkpt lat="42.99308" lon="-0.21989">
        <ele>1415</ele>
        <time>2020-09-03T07:51:06Z</time>
      </trkpt>
      <trkpt lat="42.99307" lon="-0.21991">
        <ele>1415.2</ele>
        <time>2020-09-03T07:51:07Z</time>
      </trkpt>
      <trkpt lat="42.99306" lon="-0.21993">
        <ele>1415.4</ele>
        <time>2020-09-03T07:51:08Z</time>
      </trkpt>
      <trkpt lat="42.99305" lon="-0.21995">
        <ele>1415.8</ele>
        <time>2020-09-03T07:51:09Z</time>
      </trkpt>
      <trkpt lat="42.99304" lon="-0.21998">
        <ele>1416</ele>
        <time>2020-09-03T07:51:10Z</time>
      </trkpt>
      <trkpt lat="42.99304" lon="-0.22">
        <ele>1416.2</ele>
        <time>2020-09-03T07:51:11Z</time>
      </trkpt>
      <trkpt lat="42.99303" lon="-0.22002">
        <ele>1416.2</ele>
        <time>2020-09-03T07:51:12Z</time>
      </trkpt>
      <trkpt lat="42.99302" lon="-0.22004">
        <ele>1416.4</ele>
        <time>2020-09-03T07:51:13Z</time>
      </trkpt>
      <trkpt lat="42.99302" lon="-0.22006">
        <ele>1416.4</ele>
        <time>2020-09-03T07:51:14Z</time>
      </trkpt>
      <trkpt lat="42.99302" lon="-0.22008">
        <ele>1416.6</ele>
        <time>2020-09-03T07:51:15Z</time>
      </trkpt>
      <trkpt lat="42.99301" lon="-0.2201">
        <ele>1416.8</ele>
        <time>2020-09-03T07:51:16Z</time>
      </trkpt>
      <trkpt lat="42.99301" lon="-0.22012">
        <ele>1417</ele>
        <time>2020-09-03T07:51:17Z</time>
      </trkpt>
      <trkpt lat="42.993" lon="-0.22015">
        <ele>1417.4</ele>
        <time>2020-09-03T07:51:18Z</time>
      </trkpt>
      <trkpt lat="42.993" lon="-0.22016">
        <ele>1417.4</ele>
        <time>2020-09-03T07:51:19Z</time>
      </trkpt>
      <trkpt lat="42.99299" lon="-0.22018">
        <ele>1417.6</ele>
        <time>2020-09-03T07:51:20Z</time>
      </trkpt>
      <trkpt lat="42.99299" lon="-0.2202">
        <ele>1417.8</ele>
        <time>2020-09-03T07:51:21Z</time>
      </trkpt>
      <trkpt lat="42.99298" lon="-0.22022">
        <ele>1418</ele>
        <time>2020-09-03T07:51:22Z</time>
      </trkpt>
      <trkpt lat="42.99298" lon="-0.22025">
        <ele>1418.2</ele>
        <time>2020-09-03T07:51:23Z</time>
      </trkpt>
      <trkpt lat="42.99297" lon="-0.22027">
        <ele>1418.4</ele>
        <time>2020-09-03T07:51:24Z</time>
      </trkpt>
      <trkpt lat="42.99296" lon="-0.22029">
        <ele>1418.6</ele>
        <time>2020-09-03T07:51:25Z</time>
      </trkpt>
      <trkpt lat="42.99295" lon="-0.22031">
        <ele>1418.8</ele>
        <time>2020-09-03T07:51:26Z</time>
      </trkpt>
      <trkpt lat="42.99294" lon="-0.22032">
        <ele>1419</ele>
        <time>2020-09-03T07:51:27Z</time>
      </trkpt>
      <trkpt lat="42.99293" lon="-0.22033">
        <ele>1419.2</ele>
        <time>2020-09-03T07:51:28Z</time>
      </trkpt>
      <trkpt lat="42.99291" lon="-0.22033">
        <ele>1419.2</ele>
        <time>2020-09-03T07:51:29Z</time>
      </trkpt>
      <trkpt lat="42.9929" lon="-0.22032">
        <ele>1419.2</ele>
        <time>2020-09-03T07:51:30Z</time>
      </trkpt>
      <trkpt lat="42.99289" lon="-0.22031">
        <ele>1419.4</ele>
        <time>2020-09-03T07:51:31Z</time>
      </trkpt>
      <trkpt lat="42.99289" lon="-0.22029">
        <ele>1419.6</ele>
        <time>2020-09-03T07:51:32Z</time>
      </trkpt>
      <trkpt lat="42.99288" lon="-0.22027">
        <ele>1419.6</ele>
        <time>2020-09-03T07:51:33Z</time>
      </trkpt>
      <trkpt lat="42.99288" lon="-0.22025">
        <ele>1420.2</ele>
        <time>2020-09-03T07:51:34Z</time>
      </trkpt>
      <trkpt lat="42.99288" lon="-0.22023">
        <ele>1420.4</ele>
        <time>2020-09-03T07:51:35Z</time>
      </trkpt>
      <trkpt lat="42.99289" lon="-0.22021">
        <ele>1420.8</ele>
        <time>2020-09-03T07:51:36Z</time>
      </trkpt>
      <trkpt lat="42.99289" lon="-0.22018">
        <ele>1420.8</ele>
        <time>2020-09-03T07:51:37Z</time>
      </trkpt>
      <trkpt lat="42.99289" lon="-0.22016">
        <ele>1421</ele>
        <time>2020-09-03T07:51:38Z</time>
      </trkpt>
      <trkpt lat="42.99289" lon="-0.22014">
        <ele>1421</ele>
        <time>2020-09-03T07:51:39Z</time>
      </trkpt>
      <trkpt lat="42.9929" lon="-0.22012">
        <ele>1421.2</ele>
        <time>2020-09-03T07:51:40Z</time>
      </trkpt>
      <trkpt lat="42.9929" lon="-0.2201">
        <ele>1421.2</ele>
        <time>2020-09-03T07:51:41Z</time>
      </trkpt>
      <trkpt lat="42.9929" lon="-0.22007">
        <ele>1421.2</ele>
        <time>2020-09-03T07:51:42Z</time>
      </trkpt>
      <trkpt lat="42.9929" lon="-0.22005">
        <ele>1421.2</ele>
        <time>2020-09-03T07:51:43Z</time>
      </trkpt>
      <trkpt lat="42.99291" lon="-0.22002">
        <ele>1421.2</ele>
        <time>2020-09-03T07:51:44Z</time>
      </trkpt>
      <trkpt lat="42.9929" lon="-0.21999">
        <ele>1421.4</ele>
        <time>2020-09-03T07:51:45Z</time>
      </trkpt>
      <trkpt lat="42.9929" lon="-0.21997">
        <ele>1421.4</ele>
        <time>2020-09-03T07:51:46Z</time>
      </trkpt>
      <trkpt lat="42.9929" lon="-0.21994">
        <ele>1421.8</ele>
        <time>2020-09-03T07:51:47Z</time>
      </trkpt>
      <trkpt lat="42.9929" lon="-0.21992">
        <ele>1421.8</ele>
        <time>2020-09-03T07:51:48Z</time>
      </trkpt>
      <trkpt lat="42.9929" lon="-0.21989">
        <ele>1422</ele>
        <time>2020-09-03T07:51:49Z</time>
      </trkpt>
      <trkpt lat="42.9929" lon="-0.21987">
        <ele>1422</ele>
        <time>2020-09-03T07:51:50Z</time>
      </trkpt>
      <trkpt lat="42.9929" lon="-0.21984">
        <ele>1422</ele>
        <time>2020-09-03T07:51:51Z</time>
      </trkpt>
      <trkpt lat="42.9929" lon="-0.21982">
        <ele>1422</ele>
        <time>2020-09-03T07:51:52Z</time>
      </trkpt>
      <trkpt lat="42.9929" lon="-0.21979">
        <ele>1422.2</ele>
        <time>2020-09-03T07:51:53Z</time>
      </trkpt>
      <trkpt lat="42.9929" lon="-0.21976">
        <ele>1422.2</ele>
        <time>2020-09-03T07:51:54Z</time>
      </trkpt>
      <trkpt lat="42.9929" lon="-0.21974">
        <ele>1422.4</ele>
        <time>2020-09-03T07:51:55Z</time>
      </trkpt>
      <trkpt lat="42.9929" lon="-0.21971">
        <ele>1422.6</ele>
        <time>2020-09-03T07:51:56Z</time>
      </trkpt>
      <trkpt lat="42.9929" lon="-0.21968">
        <ele>1422.6</ele>
        <time>2020-09-03T07:51:57Z</time>
      </trkpt>
      <trkpt lat="42.9929" lon="-0.21965">
        <ele>1422.6</ele>
        <time>2020-09-03T07:51:58Z</time>
      </trkpt>
      <trkpt lat="42.9929" lon="-0.21963">
        <ele>1422.6</ele>
        <time>2020-09-03T07:51:59Z</time>
      </trkpt>
      <trkpt lat="42.9929" lon="-0.2196">
        <ele>1422.6</ele>
        <time>2020-09-03T07:52:00Z</time>
      </trkpt>
      <trkpt lat="42.9929" lon="-0.21958">
        <ele>1422.8</ele>
        <time>2020-09-03T07:52:01Z</time>
      </trkpt>
      <trkpt lat="42.9929" lon="-0.21955">
        <ele>1422.8</ele>
        <time>2020-09-03T07:52:02Z</time>
      </trkpt>
      <trkpt lat="42.9929" lon="-0.21953">
        <ele>1422.8</ele>
        <time>2020-09-03T07:52:03Z</time>
      </trkpt>
      <trkpt lat="42.9929" lon="-0.21951">
        <ele>1422.8</ele>
        <time>2020-09-03T07:52:04Z</time>
      </trkpt>
      <trkpt lat="42.9929" lon="-0.21949">
        <ele>1423</ele>
        <time>2020-09-03T07:52:05Z</time>
      </trkpt>
      <trkpt lat="42.9929" lon="-0.21942">
        <ele>1423.4</ele>
        <time>2020-09-03T07:52:08Z</time>
      </trkpt>
      <trkpt lat="42.9929" lon="-0.21939">
        <ele>1423.4</ele>
        <time>2020-09-03T07:52:09Z</time>
      </trkpt>
      <trkpt lat="42.9929" lon="-0.21937">
        <ele>1423.6</ele>
        <time>2020-09-03T07:52:10Z</time>
      </trkpt>
      <trkpt lat="42.9929" lon="-0.21934">
        <ele>1423.8</ele>
        <time>2020-09-03T07:52:11Z</time>
      </trkpt>
      <trkpt lat="42.9929" lon="-0.21927">
        <ele>1424</ele>
        <time>2020-09-03T07:52:14Z</time>
      </trkpt>
      <trkpt lat="42.9929" lon="-0.21925">
        <ele>1424.2</ele>
        <time>2020-09-03T07:52:15Z</time>
      </trkpt>
      <trkpt lat="42.9929" lon="-0.21923">
        <ele>1424.2</ele>
        <time>2020-09-03T07:52:16Z</time>
      </trkpt>
      <trkpt lat="42.9929" lon="-0.21918">
        <ele>1424.4</ele>
        <time>2020-09-03T07:52:18Z</time>
      </trkpt>
      <trkpt lat="42.99288" lon="-0.21915">
        <ele>1424.4</ele>
        <time>2020-09-03T07:52:20Z</time>
      </trkpt>
      <trkpt lat="42.99287" lon="-0.21913">
        <ele>1424.6</ele>
        <time>2020-09-03T07:52:21Z</time>
      </trkpt>
      <trkpt lat="42.99285" lon="-0.21911">
        <ele>1424.6</ele>
        <time>2020-09-03T07:52:22Z</time>
      </trkpt>
      <trkpt lat="42.99285" lon="-0.21909">
        <ele>1424.8</ele>
        <time>2020-09-03T07:52:23Z</time>
      </trkpt>
      <trkpt lat="42.99284" lon="-0.21907">
        <ele>1424.8</ele>
        <time>2020-09-03T07:52:24Z</time>
      </trkpt>
      <trkpt lat="42.99278" lon="-0.21901">
        <ele>1425.2</ele>
        <time>2020-09-03T07:52:28Z</time>
      </trkpt>
      <trkpt lat="42.99277" lon="-0.21901">
        <ele>1425.2</ele>
        <time>2020-09-03T07:52:29Z</time>
      </trkpt>
      <trkpt lat="42.99275" lon="-0.21901">
        <ele>1425.2</ele>
        <time>2020-09-03T07:52:30Z</time>
      </trkpt>
      <trkpt lat="42.99274" lon="-0.21902">
        <ele>1425.4</ele>
        <time>2020-09-03T07:52:31Z</time>
      </trkpt>
      <trkpt lat="42.99273" lon="-0.21903">
        <ele>1425.6</ele>
        <time>2020-09-03T07:52:32Z</time>
      </trkpt>
      <trkpt lat="42.99272" lon="-0.21905">
        <ele>1425.8</ele>
        <time>2020-09-03T07:52:33Z</time>
      </trkpt>
      <trkpt lat="42.99271" lon="-0.21907">
        <ele>1426</ele>
        <time>2020-09-03T07:52:34Z</time>
      </trkpt>
      <trkpt lat="42.99271" lon="-0.21912">
        <ele>1426.2</ele>
        <time>2020-09-03T07:52:36Z</time>
      </trkpt>
      <trkpt lat="42.99271" lon="-0.21914">
        <ele>1426.2</ele>
        <time>2020-09-03T07:52:37Z</time>
      </trkpt>
      <trkpt lat="42.99271" lon="-0.21916">
        <ele>1426.4</ele>
        <time>2020-09-03T07:52:38Z</time>
      </trkpt>
      <trkpt lat="42.99271" lon="-0.21918">
        <ele>1426.4</ele>
        <time>2020-09-03T07:52:39Z</time>
      </trkpt>
      <trkpt lat="42.99271" lon="-0.2192">
        <ele>1426.6</ele>
        <time>2020-09-03T07:52:40Z</time>
      </trkpt>
      <trkpt lat="42.99269" lon="-0.21925">
        <ele>1426.8</ele>
        <time>2020-09-03T07:52:43Z</time>
      </trkpt>
      <trkpt lat="42.99268" lon="-0.21927">
        <ele>1427</ele>
        <time>2020-09-03T07:52:44Z</time>
      </trkpt>
      <trkpt lat="42.99268" lon="-0.21929">
        <ele>1427.2</ele>
        <time>2020-09-03T07:52:45Z</time>
      </trkpt>
      <trkpt lat="42.99268" lon="-0.2193">
        <ele>1427.4</ele>
        <time>2020-09-03T07:52:46Z</time>
      </trkpt>
      <trkpt lat="42.99267" lon="-0.21932">
        <ele>1427.4</ele>
        <time>2020-09-03T07:52:47Z</time>
      </trkpt>
      <trkpt lat="42.99266" lon="-0.21934">
        <ele>1427.6</ele>
        <time>2020-09-03T07:52:48Z</time>
      </trkpt>
      <trkpt lat="42.99266" lon="-0.21936">
        <ele>1427.6</ele>
        <time>2020-09-03T07:52:49Z</time>
      </trkpt>
      <trkpt lat="42.99265" lon="-0.21937">
        <ele>1427.8</ele>
        <time>2020-09-03T07:52:50Z</time>
      </trkpt>
      <trkpt lat="42.99264" lon="-0.21939">
        <ele>1428.2</ele>
        <time>2020-09-03T07:52:51Z</time>
      </trkpt>
      <trkpt lat="42.99263" lon="-0.21941">
        <ele>1428.2</ele>
        <time>2020-09-03T07:52:52Z</time>
      </trkpt>
      <trkpt lat="42.99262" lon="-0.21943">
        <ele>1428.6</ele>
        <time>2020-09-03T07:52:53Z</time>
      </trkpt>
      <trkpt lat="42.99262" lon="-0.21945">
        <ele>1428.6</ele>
        <time>2020-09-03T07:52:54Z</time>
      </trkpt>
      <trkpt lat="42.99261" lon="-0.21948">
        <ele>1428.8</ele>
        <time>2020-09-03T07:52:55Z</time>
      </trkpt>
      <trkpt lat="42.99261" lon="-0.2195">
        <ele>1429</ele>
        <time>2020-09-03T07:52:56Z</time>
      </trkpt>
      <trkpt lat="42.9926" lon="-0.21952">
        <ele>1429</ele>
        <time>2020-09-03T07:52:57Z</time>
      </trkpt>
      <trkpt lat="42.99259" lon="-0.21954">
        <ele>1429</ele>
        <time>2020-09-03T07:52:58Z</time>
      </trkpt>
      <trkpt lat="42.99259" lon="-0.21955">
        <ele>1429.2</ele>
        <time>2020-09-03T07:52:59Z</time>
      </trkpt>
      <trkpt lat="42.99259" lon="-0.21957">
        <ele>1429.2</ele>
        <time>2020-09-03T07:53:00Z</time>
      </trkpt>
      <trkpt lat="42.99258" lon="-0.21958">
        <ele>1429.4</ele>
        <time>2020-09-03T07:53:01Z</time>
      </trkpt>
      <trkpt lat="42.99257" lon="-0.2196">
        <ele>1429.6</ele>
        <time>2020-09-03T07:53:02Z</time>
      </trkpt>
      <trkpt lat="42.99256" lon="-0.21962">
        <ele>1429.6</ele>
        <time>2020-09-03T07:53:03Z</time>
      </trkpt>
      <trkpt lat="42.99256" lon="-0.21963">
        <ele>1429.6</ele>
        <time>2020-09-03T07:53:04Z</time>
      </trkpt>
      <trkpt lat="42.99256" lon="-0.21965">
        <ele>1429.8</ele>
        <time>2020-09-03T07:53:05Z</time>
      </trkpt>
      <trkpt lat="42.99256" lon="-0.21968">
        <ele>1429.8</ele>
        <time>2020-09-03T07:53:06Z</time>
      </trkpt>
      <trkpt lat="42.99256" lon="-0.21969">
        <ele>1430</ele>
        <time>2020-09-03T07:53:07Z</time>
      </trkpt>
      <trkpt lat="42.99255" lon="-0.21971">
        <ele>1430.2</ele>
        <time>2020-09-03T07:53:08Z</time>
      </trkpt>
      <trkpt lat="42.99254" lon="-0.21973">
        <ele>1430.4</ele>
        <time>2020-09-03T07:53:09Z</time>
      </trkpt>
      <trkpt lat="42.99253" lon="-0.21975">
        <ele>1430.6</ele>
        <time>2020-09-03T07:53:10Z</time>
      </trkpt>
      <trkpt lat="42.99253" lon="-0.21977">
        <ele>1430.6</ele>
        <time>2020-09-03T07:53:11Z</time>
      </trkpt>
      <trkpt lat="42.99252" lon="-0.21979">
        <ele>1431</ele>
        <time>2020-09-03T07:53:12Z</time>
      </trkpt>
      <trkpt lat="42.99251" lon="-0.21981">
        <ele>1431.2</ele>
        <time>2020-09-03T07:53:13Z</time>
      </trkpt>
      <trkpt lat="42.9925" lon="-0.21983">
        <ele>1431.2</ele>
        <time>2020-09-03T07:53:14Z</time>
      </trkpt>
      <trkpt lat="42.99249" lon="-0.21986">
        <ele>1431.2</ele>
        <time>2020-09-03T07:53:15Z</time>
      </trkpt>
      <trkpt lat="42.99248" lon="-0.21988">
        <ele>1431.4</ele>
        <time>2020-09-03T07:53:16Z</time>
      </trkpt>
      <trkpt lat="42.99247" lon="-0.21991">
        <ele>1431.4</ele>
        <time>2020-09-03T07:53:17Z</time>
      </trkpt>
      <trkpt lat="42.99245" lon="-0.21993">
        <ele>1431.6</ele>
        <time>2020-09-03T07:53:18Z</time>
      </trkpt>
      <trkpt lat="42.99244" lon="-0.21994">
        <ele>1431.6</ele>
        <time>2020-09-03T07:53:19Z</time>
      </trkpt>
      <trkpt lat="42.99242" lon="-0.21996">
        <ele>1431.6</ele>
        <time>2020-09-03T07:53:20Z</time>
      </trkpt>
      <trkpt lat="42.99241" lon="-0.21997">
        <ele>1431.6</ele>
        <time>2020-09-03T07:53:21Z</time>
      </trkpt>
      <trkpt lat="42.9924" lon="-0.21999">
        <ele>1431.8</ele>
        <time>2020-09-03T07:53:22Z</time>
      </trkpt>
      <trkpt lat="42.99239" lon="-0.22001">
        <ele>1432</ele>
        <time>2020-09-03T07:53:23Z</time>
      </trkpt>
      <trkpt lat="42.99238" lon="-0.22003">
        <ele>1432.2</ele>
        <time>2020-09-03T07:53:24Z</time>
      </trkpt>
      <trkpt lat="42.99237" lon="-0.22005">
        <ele>1432.2</ele>
        <time>2020-09-03T07:53:25Z</time>
      </trkpt>
      <trkpt lat="42.99236" lon="-0.22006">
        <ele>1432.2</ele>
        <time>2020-09-03T07:53:26Z</time>
      </trkpt>
      <trkpt lat="42.99235" lon="-0.22008">
        <ele>1432.4</ele>
        <time>2020-09-03T07:53:27Z</time>
      </trkpt>
      <trkpt lat="42.99234" lon="-0.2201">
        <ele>1432.4</ele>
        <time>2020-09-03T07:53:28Z</time>
      </trkpt>
      <trkpt lat="42.99233" lon="-0.22012">
        <ele>1432.6</ele>
        <time>2020-09-03T07:53:29Z</time>
      </trkpt>
      <trkpt lat="42.99232" lon="-0.22015">
        <ele>1432.8</ele>
        <time>2020-09-03T07:53:30Z</time>
      </trkpt>
      <trkpt lat="42.9923" lon="-0.22017">
        <ele>1433</ele>
        <time>2020-09-03T07:53:31Z</time>
      </trkpt>
      <trkpt lat="42.99229" lon="-0.22019">
        <ele>1433</ele>
        <time>2020-09-03T07:53:32Z</time>
      </trkpt>
      <trkpt lat="42.99228" lon="-0.22021">
        <ele>1433</ele>
        <time>2020-09-03T07:53:33Z</time>
      </trkpt>
      <trkpt lat="42.99226" lon="-0.22023">
        <ele>1433.4</ele>
        <time>2020-09-03T07:53:34Z</time>
      </trkpt>
      <trkpt lat="42.99225" lon="-0.22026">
        <ele>1433.4</ele>
        <time>2020-09-03T07:53:35Z</time>
      </trkpt>
      <trkpt lat="42.99224" lon="-0.22028">
        <ele>1433.4</ele>
        <time>2020-09-03T07:53:36Z</time>
      </trkpt>
      <trkpt lat="42.99223" lon="-0.2203">
        <ele>1433.6</ele>
        <time>2020-09-03T07:53:37Z</time>
      </trkpt>
      <trkpt lat="42.99222" lon="-0.22032">
        <ele>1433.8</ele>
        <time>2020-09-03T07:53:38Z</time>
      </trkpt>
      <trkpt lat="42.99221" lon="-0.22034">
        <ele>1434</ele>
        <time>2020-09-03T07:53:39Z</time>
      </trkpt>
      <trkpt lat="42.9922" lon="-0.22037">
        <ele>1434</ele>
        <time>2020-09-03T07:53:40Z</time>
      </trkpt>
      <trkpt lat="42.9922" lon="-0.22039">
        <ele>1434.4</ele>
        <time>2020-09-03T07:53:41Z</time>
      </trkpt>
      <trkpt lat="42.99219" lon="-0.22041">
        <ele>1434.4</ele>
        <time>2020-09-03T07:53:42Z</time>
      </trkpt>
      <trkpt lat="42.99218" lon="-0.22043">
        <ele>1434.6</ele>
        <time>2020-09-03T07:53:43Z</time>
      </trkpt>
      <trkpt lat="42.99217" lon="-0.22046">
        <ele>1435</ele>
        <time>2020-09-03T07:53:44Z</time>
      </trkpt>
      <trkpt lat="42.99216" lon="-0.22048">
        <ele>1435</ele>
        <time>2020-09-03T07:53:45Z</time>
      </trkpt>
      <trkpt lat="42.99214" lon="-0.2205">
        <ele>1435.4</ele>
        <time>2020-09-03T07:53:46Z</time>
      </trkpt>
      <trkpt lat="42.99213" lon="-0.22053">
        <ele>1435.4</ele>
        <time>2020-09-03T07:53:47Z</time>
      </trkpt>
      <trkpt lat="42.99212" lon="-0.22055">
        <ele>1435.6</ele>
        <time>2020-09-03T07:53:48Z</time>
      </trkpt>
      <trkpt lat="42.99211" lon="-0.22058">
        <ele>1435.6</ele>
        <time>2020-09-03T07:53:49Z</time>
      </trkpt>
      <trkpt lat="42.99211" lon="-0.22059">
        <ele>1435.8</ele>
        <time>2020-09-03T07:53:50Z</time>
      </trkpt>
      <trkpt lat="42.99211" lon="-0.22061">
        <ele>1436</ele>
        <time>2020-09-03T07:53:51Z</time>
      </trkpt>
      <trkpt lat="42.99211" lon="-0.22063">
        <ele>1436.2</ele>
        <time>2020-09-03T07:53:52Z</time>
      </trkpt>
      <trkpt lat="42.99211" lon="-0.22065">
        <ele>1436.4</ele>
        <time>2020-09-03T07:53:53Z</time>
      </trkpt>
      <trkpt lat="42.9921" lon="-0.22067">
        <ele>1436.8</ele>
        <time>2020-09-03T07:53:54Z</time>
      </trkpt>
      <trkpt lat="42.9921" lon="-0.22069">
        <ele>1436.8</ele>
        <time>2020-09-03T07:53:55Z</time>
      </trkpt>
      <trkpt lat="42.9921" lon="-0.22071">
        <ele>1437.2</ele>
        <time>2020-09-03T07:53:56Z</time>
      </trkpt>
      <trkpt lat="42.9921" lon="-0.22074">
        <ele>1437.4</ele>
        <time>2020-09-03T07:53:57Z</time>
      </trkpt>
      <trkpt lat="42.99211" lon="-0.22077">
        <ele>1437.8</ele>
        <time>2020-09-03T07:53:58Z</time>
      </trkpt>
      <trkpt lat="42.99211" lon="-0.22079">
        <ele>1437.8</ele>
        <time>2020-09-03T07:53:59Z</time>
      </trkpt>
      <trkpt lat="42.99212" lon="-0.22082">
        <ele>1438.2</ele>
        <time>2020-09-03T07:54:00Z</time>
      </trkpt>
      <trkpt lat="42.99213" lon="-0.22084">
        <ele>1438.4</ele>
        <time>2020-09-03T07:54:01Z</time>
      </trkpt>
      <trkpt lat="42.99213" lon="-0.22086">
        <ele>1438.4</ele>
        <time>2020-09-03T07:54:02Z</time>
      </trkpt>
      <trkpt lat="42.99214" lon="-0.22089">
        <ele>1438.6</ele>
        <time>2020-09-03T07:54:03Z</time>
      </trkpt>
      <trkpt lat="42.99215" lon="-0.22091">
        <ele>1438.8</ele>
        <time>2020-09-03T07:54:04Z</time>
      </trkpt>
      <trkpt lat="42.99215" lon="-0.22093">
        <ele>1439</ele>
        <time>2020-09-03T07:54:05Z</time>
      </trkpt>
      <trkpt lat="42.99215" lon="-0.22096">
        <ele>1439.2</ele>
        <time>2020-09-03T07:54:06Z</time>
      </trkpt>
      <trkpt lat="42.99216" lon="-0.22099">
        <ele>1439.6</ele>
        <time>2020-09-03T07:54:07Z</time>
      </trkpt>
      <trkpt lat="42.99216" lon="-0.22102">
        <ele>1439.8</ele>
        <time>2020-09-03T07:54:08Z</time>
      </trkpt>
      <trkpt lat="42.99217" lon="-0.22104">
        <ele>1440</ele>
        <time>2020-09-03T07:54:09Z</time>
      </trkpt>
      <trkpt lat="42.99217" lon="-0.22106">
        <ele>1440.2</ele>
        <time>2020-09-03T07:54:10Z</time>
      </trkpt>
      <trkpt lat="42.99217" lon="-0.22109">
        <ele>1440.4</ele>
        <time>2020-09-03T07:54:11Z</time>
      </trkpt>
      <trkpt lat="42.99218" lon="-0.22111">
        <ele>1440.6</ele>
        <time>2020-09-03T07:54:12Z</time>
      </trkpt>
      <trkpt lat="42.99219" lon="-0.22113">
        <ele>1440.8</ele>
        <time>2020-09-03T07:54:13Z</time>
      </trkpt>
      <trkpt lat="42.9922" lon="-0.22114">
        <ele>1440.8</ele>
        <time>2020-09-03T07:54:14Z</time>
      </trkpt>
      <trkpt lat="42.99221" lon="-0.22117">
        <ele>1441</ele>
        <time>2020-09-03T07:54:15Z</time>
      </trkpt>
      <trkpt lat="42.99221" lon="-0.22119">
        <ele>1441</ele>
        <time>2020-09-03T07:54:16Z</time>
      </trkpt>
      <trkpt lat="42.99221" lon="-0.22122">
        <ele>1441.2</ele>
        <time>2020-09-03T07:54:17Z</time>
      </trkpt>
      <trkpt lat="42.99222" lon="-0.22124">
        <ele>1441.2</ele>
        <time>2020-09-03T07:54:18Z</time>
      </trkpt>
      <trkpt lat="42.99222" lon="-0.22127">
        <ele>1441.2</ele>
        <time>2020-09-03T07:54:19Z</time>
      </trkpt>
      <trkpt lat="42.99222" lon="-0.22129">
        <ele>1441.4</ele>
        <time>2020-09-03T07:54:20Z</time>
      </trkpt>
      <trkpt lat="42.99223" lon="-0.22131">
        <ele>1441.4</ele>
        <time>2020-09-03T07:54:21Z</time>
      </trkpt>
      <trkpt lat="42.99223" lon="-0.22134">
        <ele>1441.6</ele>
        <time>2020-09-03T07:54:22Z</time>
      </trkpt>
      <trkpt lat="42.99224" lon="-0.22136">
        <ele>1441.6</ele>
        <time>2020-09-03T07:54:23Z</time>
      </trkpt>
      <trkpt lat="42.99224" lon="-0.22138">
        <ele>1441.8</ele>
        <time>2020-09-03T07:54:24Z</time>
      </trkpt>
      <trkpt lat="42.99225" lon="-0.2214">
        <ele>1442</ele>
        <time>2020-09-03T07:54:25Z</time>
      </trkpt>
      <trkpt lat="42.99225" lon="-0.22142">
        <ele>1442.2</ele>
        <time>2020-09-03T07:54:26Z</time>
      </trkpt>
      <trkpt lat="42.99226" lon="-0.22145">
        <ele>1442.2</ele>
        <time>2020-09-03T07:54:27Z</time>
      </trkpt>
      <trkpt lat="42.99225" lon="-0.22147">
        <ele>1442.2</ele>
        <time>2020-09-03T07:54:28Z</time>
      </trkpt>
      <trkpt lat="42.99225" lon="-0.22149">
        <ele>1442.4</ele>
        <time>2020-09-03T07:54:29Z</time>
      </trkpt>
      <trkpt lat="42.99224" lon="-0.22151">
        <ele>1442.4</ele>
        <time>2020-09-03T07:54:30Z</time>
      </trkpt>
      <trkpt lat="42.99223" lon="-0.22154">
        <ele>1442.6</ele>
        <time>2020-09-03T07:54:31Z</time>
      </trkpt>
      <trkpt lat="42.99222" lon="-0.22155">
        <ele>1442.8</ele>
        <time>2020-09-03T07:54:32Z</time>
      </trkpt>
      <trkpt lat="42.9922" lon="-0.22156">
        <ele>1442.8</ele>
        <time>2020-09-03T07:54:33Z</time>
      </trkpt>
      <trkpt lat="42.99218" lon="-0.22156">
        <ele>1442.8</ele>
        <time>2020-09-03T07:54:34Z</time>
      </trkpt>
      <trkpt lat="42.99216" lon="-0.22155">
        <ele>1442.8</ele>
        <time>2020-09-03T07:54:35Z</time>
      </trkpt>
      <trkpt lat="42.99215" lon="-0.22153">
        <ele>1443</ele>
        <time>2020-09-03T07:54:36Z</time>
      </trkpt>
      <trkpt lat="42.99214" lon="-0.22151">
        <ele>1443.2</ele>
        <time>2020-09-03T07:54:37Z</time>
      </trkpt>
      <trkpt lat="42.99213" lon="-0.22149">
        <ele>1443.2</ele>
        <time>2020-09-03T07:54:38Z</time>
      </trkpt>
      <trkpt lat="42.99213" lon="-0.22147">
        <ele>1443.4</ele>
        <time>2020-09-03T07:54:39Z</time>
      </trkpt>
      <trkpt lat="42.99212" lon="-0.22145">
        <ele>1443.4</ele>
        <time>2020-09-03T07:54:40Z</time>
      </trkpt>
      <trkpt lat="42.99212" lon="-0.22142">
        <ele>1443.6</ele>
        <time>2020-09-03T07:54:41Z</time>
      </trkpt>
      <trkpt lat="42.99211" lon="-0.2214">
        <ele>1443.6</ele>
        <time>2020-09-03T07:54:42Z</time>
      </trkpt>
      <trkpt lat="42.99211" lon="-0.22138">
        <ele>1443.8</ele>
        <time>2020-09-03T07:54:43Z</time>
      </trkpt>
      <trkpt lat="42.9921" lon="-0.22136">
        <ele>1443.8</ele>
        <time>2020-09-03T07:54:44Z</time>
      </trkpt>
      <trkpt lat="42.9921" lon="-0.22133">
        <ele>1444</ele>
        <time>2020-09-03T07:54:45Z</time>
      </trkpt>
      <trkpt lat="42.99209" lon="-0.22131">
        <ele>1444</ele>
        <time>2020-09-03T07:54:46Z</time>
      </trkpt>
      <trkpt lat="42.99209" lon="-0.22129">
        <ele>1444</ele>
        <time>2020-09-03T07:54:47Z</time>
      </trkpt>
      <trkpt lat="42.99209" lon="-0.22126">
        <ele>1444</ele>
        <time>2020-09-03T07:54:48Z</time>
      </trkpt>
      <trkpt lat="42.99208" lon="-0.22124">
        <ele>1444.2</ele>
        <time>2020-09-03T07:54:49Z</time>
      </trkpt>
      <trkpt lat="42.99206" lon="-0.22123">
        <ele>1444.2</ele>
        <time>2020-09-03T07:54:50Z</time>
      </trkpt>
      <trkpt lat="42.99205" lon="-0.22121">
        <ele>1444.2</ele>
        <time>2020-09-03T07:54:51Z</time>
      </trkpt>
      <trkpt lat="42.99204" lon="-0.2212">
        <ele>1444.4</ele>
        <time>2020-09-03T07:54:52Z</time>
      </trkpt>
      <trkpt lat="42.99202" lon="-0.22117">
        <ele>1444.4</ele>
        <time>2020-09-03T07:54:53Z</time>
      </trkpt>
      <trkpt lat="42.99201" lon="-0.22115">
        <ele>1444.6</ele>
        <time>2020-09-03T07:54:54Z</time>
      </trkpt>
      <trkpt lat="42.992" lon="-0.22113">
        <ele>1444.6</ele>
        <time>2020-09-03T07:54:55Z</time>
      </trkpt>
      <trkpt lat="42.99195" lon="-0.22105">
        <ele>1445</ele>
        <time>2020-09-03T07:54:59Z</time>
      </trkpt>
      <trkpt lat="42.99185" lon="-0.22094">
        <ele>1445.6</ele>
        <time>2020-09-03T07:55:05Z</time>
      </trkpt>
      <trkpt lat="42.99174" lon="-0.22082">
        <ele>1446</ele>
        <time>2020-09-03T07:55:12Z</time>
      </trkpt>
      <trkpt lat="42.99159" lon="-0.22062">
        <ele>1446.2</ele>
        <time>2020-09-03T07:55:21Z</time>
      </trkpt>
      <trkpt lat="42.99149" lon="-0.22053">
        <ele>1446.2</ele>
        <time>2020-09-03T07:55:27Z</time>
      </trkpt>
      <trkpt lat="42.99147" lon="-0.22051">
        <ele>1446.4</ele>
        <time>2020-09-03T07:55:28Z</time>
      </trkpt>
      <trkpt lat="42.99146" lon="-0.2205">
        <ele>1446.4</ele>
        <time>2020-09-03T07:55:29Z</time>
      </trkpt>
      <trkpt lat="42.99144" lon="-0.22048">
        <ele>1446.6</ele>
        <time>2020-09-03T07:55:30Z</time>
      </trkpt>
      <trkpt lat="42.99143" lon="-0.22047">
        <ele>1446.6</ele>
        <time>2020-09-03T07:55:31Z</time>
      </trkpt>
      <trkpt lat="42.99141" lon="-0.22046">
        <ele>1446.8</ele>
        <time>2020-09-03T07:55:32Z</time>
      </trkpt>
      <trkpt lat="42.99139" lon="-0.22045">
        <ele>1447</ele>
        <time>2020-09-03T07:55:33Z</time>
      </trkpt>
      <trkpt lat="42.99138" lon="-0.22044">
        <ele>1447.2</ele>
        <time>2020-09-03T07:55:34Z</time>
      </trkpt>
      <trkpt lat="42.99136" lon="-0.22043">
        <ele>1447.2</ele>
        <time>2020-09-03T07:55:35Z</time>
      </trkpt>
      <trkpt lat="42.99135" lon="-0.22042">
        <ele>1447.4</ele>
        <time>2020-09-03T07:55:36Z</time>
      </trkpt>
      <trkpt lat="42.99134" lon="-0.2204">
        <ele>1447.6</ele>
        <time>2020-09-03T07:55:37Z</time>
      </trkpt>
      <trkpt lat="42.99133" lon="-0.2204">
        <ele>1447.8</ele>
        <time>2020-09-03T07:55:38Z</time>
      </trkpt>
      <trkpt lat="42.99132" lon="-0.22039">
        <ele>1447.8</ele>
        <time>2020-09-03T07:55:39Z</time>
      </trkpt>
      <trkpt lat="42.99132" lon="-0.22039">
        <ele>1447.8</ele>
        <time>2020-09-03T07:55:40Z</time>
      </trkpt>
      <trkpt lat="42.99132" lon="-0.22039">
        <ele>1448</ele>
        <time>2020-09-03T07:55:41Z</time>
      </trkpt>
      <trkpt lat="42.99132" lon="-0.22039">
        <ele>1448</ele>
        <time>2020-09-03T07:55:42Z</time>
      </trkpt>
      <trkpt lat="42.99132" lon="-0.22039">
        <ele>1447.8</ele>
        <time>2020-09-03T07:55:52Z</time>
      </trkpt>
      <trkpt lat="42.99132" lon="-0.22039">
        <ele>1447.4</ele>
        <time>2020-09-03T07:56:01Z</time>
      </trkpt>
      <trkpt lat="42.99132" lon="-0.22039">
        <ele>1447.4</ele>
        <time>2020-09-03T07:56:21Z</time>
      </trkpt>
      <trkpt lat="42.99132" lon="-0.22039">
        <ele>1447.2</ele>
        <time>2020-09-03T07:56:40Z</time>
      </trkpt>
      <trkpt lat="42.99132" lon="-0.22039">
        <ele>1447</ele>
        <time>2020-09-03T07:56:59Z</time>
      </trkpt>
      <trkpt lat="42.99132" lon="-0.22039">
        <ele>1447.2</ele>
        <time>2020-09-03T07:57:18Z</time>
      </trkpt>
      <trkpt lat="42.99132" lon="-0.22039">
        <ele>1447.4</ele>
        <time>2020-09-03T07:57:35Z</time>
      </trkpt>
      <trkpt lat="42.99132" lon="-0.22039">
        <ele>1447.8</ele>
        <time>2020-09-03T07:57:53Z</time>
      </trkpt>
      <trkpt lat="42.99132" lon="-0.22039">
        <ele>1447.8</ele>
        <time>2020-09-03T07:57:54Z</time>
      </trkpt>
      <trkpt lat="42.99132" lon="-0.22039">
        <ele>1448</ele>
        <time>2020-09-03T07:58:11Z</time>
      </trkpt>
      <trkpt lat="42.99132" lon="-0.22039">
        <ele>1448</ele>
        <time>2020-09-03T07:58:29Z</time>
      </trkpt>
      <trkpt lat="42.99132" lon="-0.22039">
        <ele>1448.2</ele>
        <time>2020-09-03T07:58:51Z</time>
      </trkpt>
      <trkpt lat="42.99132" lon="-0.22039">
        <ele>1448.6</ele>
        <time>2020-09-03T07:59:16Z</time>
      </trkpt>
      <trkpt lat="42.99132" lon="-0.22039">
        <ele>1448.6</ele>
        <time>2020-09-03T07:59:42Z</time>
      </trkpt>
      <trkpt lat="42.99132" lon="-0.22039">
        <ele>1448.8</ele>
        <time>2020-09-03T07:59:50Z</time>
      </trkpt>
      <trkpt lat="42.99132" lon="-0.22039">
        <ele>1448.4</ele>
        <time>2020-09-03T08:00:22Z</time>
      </trkpt>
      <trkpt lat="42.99129" lon="-0.22039">
        <ele>1448.4</ele>
        <time>2020-09-03T08:00:46Z</time>
      </trkpt>
      <trkpt lat="42.99128" lon="-0.22037">
        <ele>1448.4</ele>
        <time>2020-09-03T08:00:47Z</time>
      </trkpt>
      <trkpt lat="42.99124" lon="-0.22036">
        <ele>1448.4</ele>
        <time>2020-09-03T08:00:49Z</time>
      </trkpt>
      <trkpt lat="42.99115" lon="-0.22034">
        <ele>1448.2</ele>
        <time>2020-09-03T08:00:52Z</time>
      </trkpt>
      <trkpt lat="42.99098" lon="-0.2203">
        <ele>1447.8</ele>
        <time>2020-09-03T08:00:58Z</time>
      </trkpt>
      <trkpt lat="42.99097" lon="-0.2203">
        <ele>1447.8</ele>
        <time>2020-09-03T08:00:59Z</time>
      </trkpt>
      <trkpt lat="42.99095" lon="-0.2203">
        <ele>1447.8</ele>
        <time>2020-09-03T08:01:00Z</time>
      </trkpt>
      <trkpt lat="42.99093" lon="-0.2203">
        <ele>1447.8</ele>
        <time>2020-09-03T08:01:01Z</time>
      </trkpt>
      <trkpt lat="42.99091" lon="-0.22031">
        <ele>1447.8</ele>
        <time>2020-09-03T08:01:02Z</time>
      </trkpt>
      <trkpt lat="42.9909" lon="-0.22032">
        <ele>1447.8</ele>
        <time>2020-09-03T08:01:03Z</time>
      </trkpt>
      <trkpt lat="42.99089" lon="-0.22033">
        <ele>1448</ele>
        <time>2020-09-03T08:01:04Z</time>
      </trkpt>
      <trkpt lat="42.99088" lon="-0.22035">
        <ele>1448</ele>
        <time>2020-09-03T08:01:05Z</time>
      </trkpt>
      <trkpt lat="42.99087" lon="-0.22037">
        <ele>1448.2</ele>
        <time>2020-09-03T08:01:06Z</time>
      </trkpt>
      <trkpt lat="42.99087" lon="-0.2204">
        <ele>1448.4</ele>
        <time>2020-09-03T08:01:07Z</time>
      </trkpt>
      <trkpt lat="42.99087" lon="-0.22042">
        <ele>1449.2</ele>
        <time>2020-09-03T08:01:08Z</time>
      </trkpt>
      <trkpt lat="42.99088" lon="-0.22044">
        <ele>1449.4</ele>
        <time>2020-09-03T08:01:09Z</time>
      </trkpt>
      <trkpt lat="42.99088" lon="-0.22047">
        <ele>1449.8</ele>
        <time>2020-09-03T08:01:10Z</time>
      </trkpt>
      <trkpt lat="42.99089" lon="-0.22049">
        <ele>1450</ele>
        <time>2020-09-03T08:01:11Z</time>
      </trkpt>
      <trkpt lat="42.9909" lon="-0.2205">
        <ele>1450.2</ele>
        <time>2020-09-03T08:01:12Z</time>
      </trkpt>
      <trkpt lat="42.99091" lon="-0.22052">
        <ele>1450.4</ele>
        <time>2020-09-03T08:01:13Z</time>
      </trkpt>
      <trkpt lat="42.99092" lon="-0.22054">
        <ele>1450.8</ele>
        <time>2020-09-03T08:01:14Z</time>
      </trkpt>
      <trkpt lat="42.99093" lon="-0.22055">
        <ele>1451</ele>
        <time>2020-09-03T08:01:15Z</time>
      </trkpt>
      <trkpt lat="42.99094" lon="-0.22057">
        <ele>1451.2</ele>
        <time>2020-09-03T08:01:16Z</time>
      </trkpt>
      <trkpt lat="42.99095" lon="-0.22059">
        <ele>1451.4</ele>
        <time>2020-09-03T08:01:17Z</time>
      </trkpt>
      <trkpt lat="42.99096" lon="-0.22061">
        <ele>1451.6</ele>
        <time>2020-09-03T08:01:18Z</time>
      </trkpt>
      <trkpt lat="42.99096" lon="-0.22063">
        <ele>1452</ele>
        <time>2020-09-03T08:01:19Z</time>
      </trkpt>
      <trkpt lat="42.99097" lon="-0.22065">
        <ele>1452.4</ele>
        <time>2020-09-03T08:01:20Z</time>
      </trkpt>
      <trkpt lat="42.99098" lon="-0.22067">
        <ele>1452.8</ele>
        <time>2020-09-03T08:01:21Z</time>
      </trkpt>
      <trkpt lat="42.99098" lon="-0.2207">
        <ele>1453.2</ele>
        <time>2020-09-03T08:01:22Z</time>
      </trkpt>
      <trkpt lat="42.99099" lon="-0.22072">
        <ele>1453.4</ele>
        <time>2020-09-03T08:01:23Z</time>
      </trkpt>
      <trkpt lat="42.991" lon="-0.22074">
        <ele>1453.6</ele>
        <time>2020-09-03T08:01:24Z</time>
      </trkpt>
      <trkpt lat="42.99101" lon="-0.22077">
        <ele>1454</ele>
        <time>2020-09-03T08:01:25Z</time>
      </trkpt>
      <trkpt lat="42.99102" lon="-0.22079">
        <ele>1454.2</ele>
        <time>2020-09-03T08:01:26Z</time>
      </trkpt>
      <trkpt lat="42.99103" lon="-0.22081">
        <ele>1454.4</ele>
        <time>2020-09-03T08:01:27Z</time>
      </trkpt>
      <trkpt lat="42.99103" lon="-0.22083">
        <ele>1454.6</ele>
        <time>2020-09-03T08:01:28Z</time>
      </trkpt>
      <trkpt lat="42.99104" lon="-0.22086">
        <ele>1454.6</ele>
        <time>2020-09-03T08:01:29Z</time>
      </trkpt>
      <trkpt lat="42.99105" lon="-0.22088">
        <ele>1455</ele>
        <time>2020-09-03T08:01:30Z</time>
      </trkpt>
      <trkpt lat="42.99105" lon="-0.22091">
        <ele>1455.2</ele>
        <time>2020-09-03T08:01:31Z</time>
      </trkpt>
      <trkpt lat="42.99105" lon="-0.22093">
        <ele>1455.2</ele>
        <time>2020-09-03T08:01:32Z</time>
      </trkpt>
      <trkpt lat="42.99105" lon="-0.22095">
        <ele>1455.6</ele>
        <time>2020-09-03T08:01:33Z</time>
      </trkpt>
      <trkpt lat="42.99106" lon="-0.22098">
        <ele>1455.8</ele>
        <time>2020-09-03T08:01:34Z</time>
      </trkpt>
      <trkpt lat="42.99106" lon="-0.221">
        <ele>1456</ele>
        <time>2020-09-03T08:01:35Z</time>
      </trkpt>
      <trkpt lat="42.99106" lon="-0.22102">
        <ele>1456.2</ele>
        <time>2020-09-03T08:01:36Z</time>
      </trkpt>
      <trkpt lat="42.99106" lon="-0.22105">
        <ele>1456.4</ele>
        <time>2020-09-03T08:01:37Z</time>
      </trkpt>
      <trkpt lat="42.99106" lon="-0.22107">
        <ele>1456.6</ele>
        <time>2020-09-03T08:01:38Z</time>
      </trkpt>
      <trkpt lat="42.99107" lon="-0.2211">
        <ele>1456.8</ele>
        <time>2020-09-03T08:01:39Z</time>
      </trkpt>
      <trkpt lat="42.99107" lon="-0.22112">
        <ele>1457.2</ele>
        <time>2020-09-03T08:01:40Z</time>
      </trkpt>
      <trkpt lat="42.99107" lon="-0.22114">
        <ele>1457.2</ele>
        <time>2020-09-03T08:01:41Z</time>
      </trkpt>
      <trkpt lat="42.99107" lon="-0.22116">
        <ele>1457.4</ele>
        <time>2020-09-03T08:01:42Z</time>
      </trkpt>
      <trkpt lat="42.99108" lon="-0.22119">
        <ele>1457.6</ele>
        <time>2020-09-03T08:01:43Z</time>
      </trkpt>
      <trkpt lat="42.99108" lon="-0.22122">
        <ele>1458</ele>
        <time>2020-09-03T08:01:44Z</time>
      </trkpt>
      <trkpt lat="42.99108" lon="-0.22124">
        <ele>1458</ele>
        <time>2020-09-03T08:01:45Z</time>
      </trkpt>
      <trkpt lat="42.99109" lon="-0.22127">
        <ele>1458.2</ele>
        <time>2020-09-03T08:01:46Z</time>
      </trkpt>
      <trkpt lat="42.9911" lon="-0.22129">
        <ele>1458.2</ele>
        <time>2020-09-03T08:01:47Z</time>
      </trkpt>
      <trkpt lat="42.9911" lon="-0.22131">
        <ele>1458.4</ele>
        <time>2020-09-03T08:01:48Z</time>
      </trkpt>
      <trkpt lat="42.99111" lon="-0.22134">
        <ele>1459</ele>
        <time>2020-09-03T08:01:49Z</time>
      </trkpt>
      <trkpt lat="42.99112" lon="-0.22136">
        <ele>1459</ele>
        <time>2020-09-03T08:01:50Z</time>
      </trkpt>
      <trkpt lat="42.99113" lon="-0.22138">
        <ele>1459.4</ele>
        <time>2020-09-03T08:01:51Z</time>
      </trkpt>
      <trkpt lat="42.99114" lon="-0.2214">
        <ele>1459.6</ele>
        <time>2020-09-03T08:01:52Z</time>
      </trkpt>
      <trkpt lat="42.99116" lon="-0.22141">
        <ele>1459.6</ele>
        <time>2020-09-03T08:01:53Z</time>
      </trkpt>
      <trkpt lat="42.99117" lon="-0.22143">
        <ele>1459.8</ele>
        <time>2020-09-03T08:01:54Z</time>
      </trkpt>
      <trkpt lat="42.99118" lon="-0.22145">
        <ele>1460</ele>
        <time>2020-09-03T08:01:55Z</time>
      </trkpt>
      <trkpt lat="42.99119" lon="-0.22147">
        <ele>1460.2</ele>
        <time>2020-09-03T08:01:56Z</time>
      </trkpt>
      <trkpt lat="42.9912" lon="-0.22149">
        <ele>1460.4</ele>
        <time>2020-09-03T08:01:57Z</time>
      </trkpt>
      <trkpt lat="42.99121" lon="-0.2215">
        <ele>1460.4</ele>
        <time>2020-09-03T08:01:58Z</time>
      </trkpt>
      <trkpt lat="42.99122" lon="-0.22152">
        <ele>1460.8</ele>
        <time>2020-09-03T08:01:59Z</time>
      </trkpt>
      <trkpt lat="42.99123" lon="-0.22154">
        <ele>1460.8</ele>
        <time>2020-09-03T08:02:00Z</time>
      </trkpt>
      <trkpt lat="42.99124" lon="-0.22156">
        <ele>1461</ele>
        <time>2020-09-03T08:02:01Z</time>
      </trkpt>
      <trkpt lat="42.99124" lon="-0.22158">
        <ele>1461.4</ele>
        <time>2020-09-03T08:02:02Z</time>
      </trkpt>
      <trkpt lat="42.99125" lon="-0.2216">
        <ele>1461.6</ele>
        <time>2020-09-03T08:02:03Z</time>
      </trkpt>
      <trkpt lat="42.99126" lon="-0.22162">
        <ele>1462</ele>
        <time>2020-09-03T08:02:04Z</time>
      </trkpt>
      <trkpt lat="42.99127" lon="-0.22164">
        <ele>1462</ele>
        <time>2020-09-03T08:02:05Z</time>
      </trkpt>
      <trkpt lat="42.99127" lon="-0.22166">
        <ele>1462.4</ele>
        <time>2020-09-03T08:02:06Z</time>
      </trkpt>
      <trkpt lat="42.99128" lon="-0.22167">
        <ele>1462.6</ele>
        <time>2020-09-03T08:02:07Z</time>
      </trkpt>
      <trkpt lat="42.99129" lon="-0.22169">
        <ele>1463</ele>
        <time>2020-09-03T08:02:08Z</time>
      </trkpt>
      <trkpt lat="42.9913" lon="-0.2217">
        <ele>1463.4</ele>
        <time>2020-09-03T08:02:09Z</time>
      </trkpt>
      <trkpt lat="42.99131" lon="-0.22172">
        <ele>1463.8</ele>
        <time>2020-09-03T08:02:10Z</time>
      </trkpt>
      <trkpt lat="42.99132" lon="-0.22174">
        <ele>1464</ele>
        <time>2020-09-03T08:02:11Z</time>
      </trkpt>
      <trkpt lat="42.99133" lon="-0.22175">
        <ele>1464.2</ele>
        <time>2020-09-03T08:02:12Z</time>
      </trkpt>
      <trkpt lat="42.99134" lon="-0.22177">
        <ele>1464.4</ele>
        <time>2020-09-03T08:02:13Z</time>
      </trkpt>
      <trkpt lat="42.99134" lon="-0.22179">
        <ele>1464.8</ele>
        <time>2020-09-03T08:02:14Z</time>
      </trkpt>
      <trkpt lat="42.99135" lon="-0.22181">
        <ele>1465</ele>
        <time>2020-09-03T08:02:15Z</time>
      </trkpt>
      <trkpt lat="42.99135" lon="-0.22182">
        <ele>1465.2</ele>
        <time>2020-09-03T08:02:16Z</time>
      </trkpt>
      <trkpt lat="42.99136" lon="-0.22184">
        <ele>1465.4</ele>
        <time>2020-09-03T08:02:17Z</time>
      </trkpt>
      <trkpt lat="42.99137" lon="-0.22186">
        <ele>1465.6</ele>
        <time>2020-09-03T08:02:18Z</time>
      </trkpt>
      <trkpt lat="42.99137" lon="-0.22188">
        <ele>1465.6</ele>
        <time>2020-09-03T08:02:19Z</time>
      </trkpt>
      <trkpt lat="42.99137" lon="-0.2219">
        <ele>1465.8</ele>
        <time>2020-09-03T08:02:20Z</time>
      </trkpt>
      <trkpt lat="42.99138" lon="-0.22192">
        <ele>1466</ele>
        <time>2020-09-03T08:02:21Z</time>
      </trkpt>
      <trkpt lat="42.99138" lon="-0.22195">
        <ele>1466.2</ele>
        <time>2020-09-03T08:02:22Z</time>
      </trkpt>
      <trkpt lat="42.99139" lon="-0.22197">
        <ele>1466.6</ele>
        <time>2020-09-03T08:02:23Z</time>
      </trkpt>
      <trkpt lat="42.99139" lon="-0.22199">
        <ele>1466.8</ele>
        <time>2020-09-03T08:02:24Z</time>
      </trkpt>
      <trkpt lat="42.9914" lon="-0.22201">
        <ele>1467</ele>
        <time>2020-09-03T08:02:25Z</time>
      </trkpt>
      <trkpt lat="42.9914" lon="-0.22203">
        <ele>1467</ele>
        <time>2020-09-03T08:02:26Z</time>
      </trkpt>
      <trkpt lat="42.9914" lon="-0.22205">
        <ele>1467.2</ele>
        <time>2020-09-03T08:02:27Z</time>
      </trkpt>
      <trkpt lat="42.9914" lon="-0.22207">
        <ele>1467.4</ele>
        <time>2020-09-03T08:02:28Z</time>
      </trkpt>
      <trkpt lat="42.99141" lon="-0.22209">
        <ele>1467.6</ele>
        <time>2020-09-03T08:02:29Z</time>
      </trkpt>
      <trkpt lat="42.99141" lon="-0.22211">
        <ele>1467.6</ele>
        <time>2020-09-03T08:02:30Z</time>
      </trkpt>
      <trkpt lat="42.99141" lon="-0.22213">
        <ele>1468</ele>
        <time>2020-09-03T08:02:31Z</time>
      </trkpt>
      <trkpt lat="42.99142" lon="-0.22215">
        <ele>1468.2</ele>
        <time>2020-09-03T08:02:32Z</time>
      </trkpt>
      <trkpt lat="42.99142" lon="-0.22217">
        <ele>1468.4</ele>
        <time>2020-09-03T08:02:33Z</time>
      </trkpt>
      <trkpt lat="42.99143" lon="-0.2222">
        <ele>1468.6</ele>
        <time>2020-09-03T08:02:34Z</time>
      </trkpt>
      <trkpt lat="42.99143" lon="-0.22222">
        <ele>1468.6</ele>
        <time>2020-09-03T08:02:35Z</time>
      </trkpt>
      <trkpt lat="42.99143" lon="-0.22224">
        <ele>1469</ele>
        <time>2020-09-03T08:02:36Z</time>
      </trkpt>
      <trkpt lat="42.99143" lon="-0.22226">
        <ele>1469</ele>
        <time>2020-09-03T08:02:37Z</time>
      </trkpt>
      <trkpt lat="42.99142" lon="-0.22228">
        <ele>1469.2</ele>
        <time>2020-09-03T08:02:38Z</time>
      </trkpt>
      <trkpt lat="42.99142" lon="-0.2223">
        <ele>1469.4</ele>
        <time>2020-09-03T08:02:39Z</time>
      </trkpt>
      <trkpt lat="42.99141" lon="-0.22232">
        <ele>1469.8</ele>
        <time>2020-09-03T08:02:40Z</time>
      </trkpt>
      <trkpt lat="42.9914" lon="-0.22234">
        <ele>1470</ele>
        <time>2020-09-03T08:02:41Z</time>
      </trkpt>
      <trkpt lat="42.99139" lon="-0.22235">
        <ele>1470.2</ele>
        <time>2020-09-03T08:02:42Z</time>
      </trkpt>
      <trkpt lat="42.99138" lon="-0.22236">
        <ele>1470.4</ele>
        <time>2020-09-03T08:02:43Z</time>
      </trkpt>
      <trkpt lat="42.99136" lon="-0.22235">
        <ele>1470.6</ele>
        <time>2020-09-03T08:02:44Z</time>
      </trkpt>
      <trkpt lat="42.99135" lon="-0.22235">
        <ele>1470.6</ele>
        <time>2020-09-03T08:02:45Z</time>
      </trkpt>
      <trkpt lat="42.99134" lon="-0.22233">
        <ele>1470.8</ele>
        <time>2020-09-03T08:02:46Z</time>
      </trkpt>
      <trkpt lat="42.99132" lon="-0.22232">
        <ele>1471.2</ele>
        <time>2020-09-03T08:02:47Z</time>
      </trkpt>
      <trkpt lat="42.99131" lon="-0.2223">
        <ele>1471.2</ele>
        <time>2020-09-03T08:02:48Z</time>
      </trkpt>
      <trkpt lat="42.99129" lon="-0.22229">
        <ele>1471.2</ele>
        <time>2020-09-03T08:02:49Z</time>
      </trkpt>
      <trkpt lat="42.99128" lon="-0.22227">
        <ele>1471.4</ele>
        <time>2020-09-03T08:02:50Z</time>
      </trkpt>
      <trkpt lat="42.99126" lon="-0.22226">
        <ele>1471.6</ele>
        <time>2020-09-03T08:02:51Z</time>
      </trkpt>
      <trkpt lat="42.99125" lon="-0.22225">
        <ele>1471.8</ele>
        <time>2020-09-03T08:02:52Z</time>
      </trkpt>
      <trkpt lat="42.99123" lon="-0.22224">
        <ele>1471.8</ele>
        <time>2020-09-03T08:02:53Z</time>
      </trkpt>
      <trkpt lat="42.99121" lon="-0.22222">
        <ele>1472</ele>
        <time>2020-09-03T08:02:54Z</time>
      </trkpt>
      <trkpt lat="42.99119" lon="-0.22221">
        <ele>1472</ele>
        <time>2020-09-03T08:02:55Z</time>
      </trkpt>
      <trkpt lat="42.99117" lon="-0.2222">
        <ele>1472.2</ele>
        <time>2020-09-03T08:02:56Z</time>
      </trkpt>
      <trkpt lat="42.99116" lon="-0.22219">
        <ele>1472.2</ele>
        <time>2020-09-03T08:02:57Z</time>
      </trkpt>
      <trkpt lat="42.99114" lon="-0.22218">
        <ele>1472.4</ele>
        <time>2020-09-03T08:02:58Z</time>
      </trkpt>
      <trkpt lat="42.99112" lon="-0.22217">
        <ele>1472.4</ele>
        <time>2020-09-03T08:02:59Z</time>
      </trkpt>
      <trkpt lat="42.99111" lon="-0.22216">
        <ele>1472.4</ele>
        <time>2020-09-03T08:03:00Z</time>
      </trkpt>
      <trkpt lat="42.99109" lon="-0.22215">
        <ele>1472.6</ele>
        <time>2020-09-03T08:03:01Z</time>
      </trkpt>
      <trkpt lat="42.99107" lon="-0.22214">
        <ele>1472.6</ele>
        <time>2020-09-03T08:03:02Z</time>
      </trkpt>
      <trkpt lat="42.99106" lon="-0.22213">
        <ele>1472.6</ele>
        <time>2020-09-03T08:03:03Z</time>
      </trkpt>
      <trkpt lat="42.99104" lon="-0.22211">
        <ele>1472.8</ele>
        <time>2020-09-03T08:03:04Z</time>
      </trkpt>
      <trkpt lat="42.99103" lon="-0.22209">
        <ele>1472.8</ele>
        <time>2020-09-03T08:03:05Z</time>
      </trkpt>
      <trkpt lat="42.99101" lon="-0.22208">
        <ele>1473</ele>
        <time>2020-09-03T08:03:06Z</time>
      </trkpt>
      <trkpt lat="42.991" lon="-0.22206">
        <ele>1473.2</ele>
        <time>2020-09-03T08:03:07Z</time>
      </trkpt>
      <trkpt lat="42.99099" lon="-0.22204">
        <ele>1473.2</ele>
        <time>2020-09-03T08:03:08Z</time>
      </trkpt>
      <trkpt lat="42.99098" lon="-0.22203">
        <ele>1473.4</ele>
        <time>2020-09-03T08:03:09Z</time>
      </trkpt>
      <trkpt lat="42.99097" lon="-0.22202">
        <ele>1473.6</ele>
        <time>2020-09-03T08:03:10Z</time>
      </trkpt>
      <trkpt lat="42.99095" lon="-0.22201">
        <ele>1473.8</ele>
        <time>2020-09-03T08:03:11Z</time>
      </trkpt>
      <trkpt lat="42.99093" lon="-0.22201">
        <ele>1474</ele>
        <time>2020-09-03T08:03:12Z</time>
      </trkpt>
      <trkpt lat="42.99091" lon="-0.22202">
        <ele>1474.2</ele>
        <time>2020-09-03T08:03:13Z</time>
      </trkpt>
      <trkpt lat="42.9909" lon="-0.22204">
        <ele>1474.4</ele>
        <time>2020-09-03T08:03:14Z</time>
      </trkpt>
      <trkpt lat="42.9909" lon="-0.22206">
        <ele>1474.6</ele>
        <time>2020-09-03T08:03:15Z</time>
      </trkpt>
      <trkpt lat="42.9909" lon="-0.22208">
        <ele>1474.8</ele>
        <time>2020-09-03T08:03:16Z</time>
      </trkpt>
      <trkpt lat="42.99091" lon="-0.2221">
        <ele>1475</ele>
        <time>2020-09-03T08:03:17Z</time>
      </trkpt>
      <trkpt lat="42.99092" lon="-0.22212">
        <ele>1475</ele>
        <time>2020-09-03T08:03:18Z</time>
      </trkpt>
      <trkpt lat="42.99093" lon="-0.22214">
        <ele>1475.4</ele>
        <time>2020-09-03T08:03:19Z</time>
      </trkpt>
      <trkpt lat="42.99094" lon="-0.22216">
        <ele>1475.4</ele>
        <time>2020-09-03T08:03:20Z</time>
      </trkpt>
      <trkpt lat="42.99095" lon="-0.22217">
        <ele>1475.6</ele>
        <time>2020-09-03T08:03:21Z</time>
      </trkpt>
      <trkpt lat="42.99096" lon="-0.2222">
        <ele>1475.6</ele>
        <time>2020-09-03T08:03:22Z</time>
      </trkpt>
      <trkpt lat="42.99096" lon="-0.22222">
        <ele>1476</ele>
        <time>2020-09-03T08:03:23Z</time>
      </trkpt>
      <trkpt lat="42.99097" lon="-0.22224">
        <ele>1476.2</ele>
        <time>2020-09-03T08:03:24Z</time>
      </trkpt>
      <trkpt lat="42.99097" lon="-0.22226">
        <ele>1476.6</ele>
        <time>2020-09-03T08:03:25Z</time>
      </trkpt>
      <trkpt lat="42.99098" lon="-0.22228">
        <ele>1476.8</ele>
        <time>2020-09-03T08:03:26Z</time>
      </trkpt>
      <trkpt lat="42.99098" lon="-0.2223">
        <ele>1477</ele>
        <time>2020-09-03T08:03:27Z</time>
      </trkpt>
      <trkpt lat="42.99099" lon="-0.22232">
        <ele>1477.2</ele>
        <time>2020-09-03T08:03:28Z</time>
      </trkpt>
      <trkpt lat="42.99099" lon="-0.22234">
        <ele>1477.6</ele>
        <time>2020-09-03T08:03:29Z</time>
      </trkpt>
      <trkpt lat="42.991" lon="-0.22236">
        <ele>1477.8</ele>
        <time>2020-09-03T08:03:30Z</time>
      </trkpt>
      <trkpt lat="42.99101" lon="-0.22238">
        <ele>1478</ele>
        <time>2020-09-03T08:03:31Z</time>
      </trkpt>
      <trkpt lat="42.99101" lon="-0.2224">
        <ele>1478</ele>
        <time>2020-09-03T08:03:32Z</time>
      </trkpt>
      <trkpt lat="42.99102" lon="-0.22242">
        <ele>1478.2</ele>
        <time>2020-09-03T08:03:33Z</time>
      </trkpt>
      <trkpt lat="42.99103" lon="-0.22244">
        <ele>1478.4</ele>
        <time>2020-09-03T08:03:34Z</time>
      </trkpt>
      <trkpt lat="42.99104" lon="-0.22245">
        <ele>1478.6</ele>
        <time>2020-09-03T08:03:35Z</time>
      </trkpt>
      <trkpt lat="42.99104" lon="-0.22247">
        <ele>1478.8</ele>
        <time>2020-09-03T08:03:36Z</time>
      </trkpt>
      <trkpt lat="42.99105" lon="-0.22249">
        <ele>1479.2</ele>
        <time>2020-09-03T08:03:37Z</time>
      </trkpt>
      <trkpt lat="42.99105" lon="-0.22252">
        <ele>1479.4</ele>
        <time>2020-09-03T08:03:38Z</time>
      </trkpt>
      <trkpt lat="42.99105" lon="-0.22254">
        <ele>1479.6</ele>
        <time>2020-09-03T08:03:39Z</time>
      </trkpt>
      <trkpt lat="42.99106" lon="-0.22256">
        <ele>1479.8</ele>
        <time>2020-09-03T08:03:40Z</time>
      </trkpt>
      <trkpt lat="42.99106" lon="-0.22258">
        <ele>1479.8</ele>
        <time>2020-09-03T08:03:41Z</time>
      </trkpt>
      <trkpt lat="42.99107" lon="-0.2226">
        <ele>1480</ele>
        <time>2020-09-03T08:03:42Z</time>
      </trkpt>
      <trkpt lat="42.99107" lon="-0.22262">
        <ele>1480.4</ele>
        <time>2020-09-03T08:03:43Z</time>
      </trkpt>
      <trkpt lat="42.99108" lon="-0.22264">
        <ele>1480.6</ele>
        <time>2020-09-03T08:03:44Z</time>
      </trkpt>
      <trkpt lat="42.99108" lon="-0.22266">
        <ele>1480.6</ele>
        <time>2020-09-03T08:03:45Z</time>
      </trkpt>
      <trkpt lat="42.99109" lon="-0.22269">
        <ele>1481</ele>
        <time>2020-09-03T08:03:46Z</time>
      </trkpt>
      <trkpt lat="42.9911" lon="-0.22271">
        <ele>1481.2</ele>
        <time>2020-09-03T08:03:47Z</time>
      </trkpt>
      <trkpt lat="42.99111" lon="-0.22273">
        <ele>1481.2</ele>
        <time>2020-09-03T08:03:48Z</time>
      </trkpt>
      <trkpt lat="42.99111" lon="-0.22275">
        <ele>1481.6</ele>
        <time>2020-09-03T08:03:49Z</time>
      </trkpt>
      <trkpt lat="42.99112" lon="-0.22276">
        <ele>1481.6</ele>
        <time>2020-09-03T08:03:50Z</time>
      </trkpt>
      <trkpt lat="42.99113" lon="-0.22278">
        <ele>1482</ele>
        <time>2020-09-03T08:03:51Z</time>
      </trkpt>
      <trkpt lat="42.99113" lon="-0.22281">
        <ele>1482.2</ele>
        <time>2020-09-03T08:03:52Z</time>
      </trkpt>
      <trkpt lat="42.99114" lon="-0.22283">
        <ele>1482.6</ele>
        <time>2020-09-03T08:03:53Z</time>
      </trkpt>
      <trkpt lat="42.99114" lon="-0.22285">
        <ele>1482.8</ele>
        <time>2020-09-03T08:03:54Z</time>
      </trkpt>
      <trkpt lat="42.99115" lon="-0.22286">
        <ele>1483.2</ele>
        <time>2020-09-03T08:03:55Z</time>
      </trkpt>
      <trkpt lat="42.99116" lon="-0.22288">
        <ele>1483.2</ele>
        <time>2020-09-03T08:03:56Z</time>
      </trkpt>
      <trkpt lat="42.99117" lon="-0.2229">
        <ele>1483.4</ele>
        <time>2020-09-03T08:03:57Z</time>
      </trkpt>
      <trkpt lat="42.99117" lon="-0.22292">
        <ele>1483.8</ele>
        <time>2020-09-03T08:03:58Z</time>
      </trkpt>
      <trkpt lat="42.99118" lon="-0.22294">
        <ele>1484.2</ele>
        <time>2020-09-03T08:03:59Z</time>
      </trkpt>
      <trkpt lat="42.99119" lon="-0.22296">
        <ele>1484.4</ele>
        <time>2020-09-03T08:04:00Z</time>
      </trkpt>
      <trkpt lat="42.99119" lon="-0.22298">
        <ele>1484.6</ele>
        <time>2020-09-03T08:04:01Z</time>
      </trkpt>
      <trkpt lat="42.9912" lon="-0.223">
        <ele>1484.8</ele>
        <time>2020-09-03T08:04:02Z</time>
      </trkpt>
      <trkpt lat="42.9912" lon="-0.22302">
        <ele>1484.8</ele>
        <time>2020-09-03T08:04:03Z</time>
      </trkpt>
      <trkpt lat="42.9912" lon="-0.22303">
        <ele>1485.2</ele>
        <time>2020-09-03T08:04:04Z</time>
      </trkpt>
      <trkpt lat="42.99121" lon="-0.22305">
        <ele>1485.4</ele>
        <time>2020-09-03T08:04:05Z</time>
      </trkpt>
      <trkpt lat="42.99121" lon="-0.22307">
        <ele>1485.6</ele>
        <time>2020-09-03T08:04:06Z</time>
      </trkpt>
      <trkpt lat="42.99121" lon="-0.22309">
        <ele>1485.8</ele>
        <time>2020-09-03T08:04:07Z</time>
      </trkpt>
      <trkpt lat="42.99121" lon="-0.22311">
        <ele>1486</ele>
        <time>2020-09-03T08:04:08Z</time>
      </trkpt>
      <trkpt lat="42.99122" lon="-0.22313">
        <ele>1486</ele>
        <time>2020-09-03T08:04:09Z</time>
      </trkpt>
      <trkpt lat="42.99122" lon="-0.22315">
        <ele>1486.2</ele>
        <time>2020-09-03T08:04:10Z</time>
      </trkpt>
      <trkpt lat="42.99122" lon="-0.22317">
        <ele>1486.4</ele>
        <time>2020-09-03T08:04:11Z</time>
      </trkpt>
      <trkpt lat="42.99122" lon="-0.22319">
        <ele>1486.6</ele>
        <time>2020-09-03T08:04:12Z</time>
      </trkpt>
      <trkpt lat="42.99122" lon="-0.22321">
        <ele>1486.8</ele>
        <time>2020-09-03T08:04:13Z</time>
      </trkpt>
      <trkpt lat="42.99123" lon="-0.22323">
        <ele>1487.2</ele>
        <time>2020-09-03T08:04:14Z</time>
      </trkpt>
      <trkpt lat="42.99123" lon="-0.22325">
        <ele>1487.4</ele>
        <time>2020-09-03T08:04:15Z</time>
      </trkpt>
      <trkpt lat="42.99124" lon="-0.22326">
        <ele>1487.8</ele>
        <time>2020-09-03T08:04:16Z</time>
      </trkpt>
      <trkpt lat="42.99124" lon="-0.22329">
        <ele>1488.2</ele>
        <time>2020-09-03T08:04:17Z</time>
      </trkpt>
      <trkpt lat="42.99124" lon="-0.22331">
        <ele>1488.2</ele>
        <time>2020-09-03T08:04:18Z</time>
      </trkpt>
      <trkpt lat="42.99124" lon="-0.22333">
        <ele>1488.4</ele>
        <time>2020-09-03T08:04:19Z</time>
      </trkpt>
      <trkpt lat="42.99124" lon="-0.22335">
        <ele>1488.4</ele>
        <time>2020-09-03T08:04:20Z</time>
      </trkpt>
      <trkpt lat="42.99124" lon="-0.22337">
        <ele>1488.8</ele>
        <time>2020-09-03T08:04:21Z</time>
      </trkpt>
      <trkpt lat="42.99124" lon="-0.22339">
        <ele>1488.8</ele>
        <time>2020-09-03T08:04:22Z</time>
      </trkpt>
      <trkpt lat="42.99124" lon="-0.22341">
        <ele>1489.2</ele>
        <time>2020-09-03T08:04:23Z</time>
      </trkpt>
      <trkpt lat="42.99124" lon="-0.22343">
        <ele>1489.4</ele>
        <time>2020-09-03T08:04:24Z</time>
      </trkpt>
      <trkpt lat="42.99124" lon="-0.22344">
        <ele>1489.6</ele>
        <time>2020-09-03T08:04:25Z</time>
      </trkpt>
      <trkpt lat="42.99124" lon="-0.22346">
        <ele>1489.6</ele>
        <time>2020-09-03T08:04:26Z</time>
      </trkpt>
      <trkpt lat="42.99124" lon="-0.22348">
        <ele>1489.8</ele>
        <time>2020-09-03T08:04:27Z</time>
      </trkpt>
      <trkpt lat="42.99125" lon="-0.2235">
        <ele>1489.8</ele>
        <time>2020-09-03T08:04:28Z</time>
      </trkpt>
      <trkpt lat="42.99125" lon="-0.22352">
        <ele>1490</ele>
        <time>2020-09-03T08:04:29Z</time>
      </trkpt>
      <trkpt lat="42.99126" lon="-0.22353">
        <ele>1490</ele>
        <time>2020-09-03T08:04:30Z</time>
      </trkpt>
      <trkpt lat="42.99125" lon="-0.22355">
        <ele>1490.2</ele>
        <time>2020-09-03T08:04:31Z</time>
      </trkpt>
      <trkpt lat="42.99125" lon="-0.22357">
        <ele>1490.6</ele>
        <time>2020-09-03T08:04:32Z</time>
      </trkpt>
      <trkpt lat="42.99126" lon="-0.22359">
        <ele>1490.8</ele>
        <time>2020-09-03T08:04:33Z</time>
      </trkpt>
      <trkpt lat="42.99126" lon="-0.22361">
        <ele>1491</ele>
        <time>2020-09-03T08:04:34Z</time>
      </trkpt>
      <trkpt lat="42.99126" lon="-0.22363">
        <ele>1491.2</ele>
        <time>2020-09-03T08:04:35Z</time>
      </trkpt>
      <trkpt lat="42.99127" lon="-0.22365">
        <ele>1491.4</ele>
        <time>2020-09-03T08:04:36Z</time>
      </trkpt>
      <trkpt lat="42.99128" lon="-0.22368">
        <ele>1491.4</ele>
        <time>2020-09-03T08:04:37Z</time>
      </trkpt>
      <trkpt lat="42.99128" lon="-0.2237">
        <ele>1491.6</ele>
        <time>2020-09-03T08:04:38Z</time>
      </trkpt>
      <trkpt lat="42.99128" lon="-0.22372">
        <ele>1491.6</ele>
        <time>2020-09-03T08:04:39Z</time>
      </trkpt>
      <trkpt lat="42.99129" lon="-0.22374">
        <ele>1491.8</ele>
        <time>2020-09-03T08:04:40Z</time>
      </trkpt>
      <trkpt lat="42.99129" lon="-0.22377">
        <ele>1491.8</ele>
        <time>2020-09-03T08:04:41Z</time>
      </trkpt>
      <trkpt lat="42.99129" lon="-0.22379">
        <ele>1492</ele>
        <time>2020-09-03T08:04:42Z</time>
      </trkpt>
      <trkpt lat="42.9913" lon="-0.2238">
        <ele>1492</ele>
        <time>2020-09-03T08:04:43Z</time>
      </trkpt>
      <trkpt lat="42.9913" lon="-0.22382">
        <ele>1492.4</ele>
        <time>2020-09-03T08:04:44Z</time>
      </trkpt>
      <trkpt lat="42.99131" lon="-0.22384">
        <ele>1492.6</ele>
        <time>2020-09-03T08:04:45Z</time>
      </trkpt>
      <trkpt lat="42.99131" lon="-0.22386">
        <ele>1492.8</ele>
        <time>2020-09-03T08:04:46Z</time>
      </trkpt>
      <trkpt lat="42.99131" lon="-0.22388">
        <ele>1493.2</ele>
        <time>2020-09-03T08:04:47Z</time>
      </trkpt>
      <trkpt lat="42.99131" lon="-0.2239">
        <ele>1493.2</ele>
        <time>2020-09-03T08:04:48Z</time>
      </trkpt>
      <trkpt lat="42.99131" lon="-0.22392">
        <ele>1493.8</ele>
        <time>2020-09-03T08:04:49Z</time>
      </trkpt>
      <trkpt lat="42.99131" lon="-0.22394">
        <ele>1493.8</ele>
        <time>2020-09-03T08:04:50Z</time>
      </trkpt>
      <trkpt lat="42.99132" lon="-0.22396">
        <ele>1494</ele>
        <time>2020-09-03T08:04:51Z</time>
      </trkpt>
      <trkpt lat="42.99132" lon="-0.22397">
        <ele>1494.2</ele>
        <time>2020-09-03T08:04:52Z</time>
      </trkpt>
      <trkpt lat="42.99132" lon="-0.22399">
        <ele>1494.6</ele>
        <time>2020-09-03T08:04:53Z</time>
      </trkpt>
      <trkpt lat="42.99132" lon="-0.22401">
        <ele>1494.8</ele>
        <time>2020-09-03T08:04:54Z</time>
      </trkpt>
      <trkpt lat="42.99132" lon="-0.22403">
        <ele>1495.2</ele>
        <time>2020-09-03T08:04:55Z</time>
      </trkpt>
      <trkpt lat="42.99132" lon="-0.22406">
        <ele>1495.2</ele>
        <time>2020-09-03T08:04:56Z</time>
      </trkpt>
      <trkpt lat="42.99131" lon="-0.22408">
        <ele>1495.4</ele>
        <time>2020-09-03T08:04:57Z</time>
      </trkpt>
      <trkpt lat="42.99131" lon="-0.22409">
        <ele>1495.6</ele>
        <time>2020-09-03T08:04:58Z</time>
      </trkpt>
      <trkpt lat="42.99131" lon="-0.22411">
        <ele>1496</ele>
        <time>2020-09-03T08:04:59Z</time>
      </trkpt>
      <trkpt lat="42.99131" lon="-0.22413">
        <ele>1496.2</ele>
        <time>2020-09-03T08:05:00Z</time>
      </trkpt>
      <trkpt lat="42.99131" lon="-0.22415">
        <ele>1496.6</ele>
        <time>2020-09-03T08:05:01Z</time>
      </trkpt>
      <trkpt lat="42.99131" lon="-0.22417">
        <ele>1496.8</ele>
        <time>2020-09-03T08:05:02Z</time>
      </trkpt>
      <trkpt lat="42.99131" lon="-0.22419">
        <ele>1497</ele>
        <time>2020-09-03T08:05:03Z</time>
      </trkpt>
      <trkpt lat="42.99131" lon="-0.22422">
        <ele>1497.2</ele>
        <time>2020-09-03T08:05:04Z</time>
      </trkpt>
      <trkpt lat="42.99131" lon="-0.22424">
        <ele>1497.4</ele>
        <time>2020-09-03T08:05:05Z</time>
      </trkpt>
      <trkpt lat="42.99132" lon="-0.22426">
        <ele>1497.6</ele>
        <time>2020-09-03T08:05:06Z</time>
      </trkpt>
      <trkpt lat="42.99132" lon="-0.22427">
        <ele>1497.8</ele>
        <time>2020-09-03T08:05:07Z</time>
      </trkpt>
      <trkpt lat="42.99132" lon="-0.22429">
        <ele>1498</ele>
        <time>2020-09-03T08:05:08Z</time>
      </trkpt>
      <trkpt lat="42.99132" lon="-0.22431">
        <ele>1498</ele>
        <time>2020-09-03T08:05:09Z</time>
      </trkpt>
      <trkpt lat="42.99133" lon="-0.22433">
        <ele>1498</ele>
        <time>2020-09-03T08:05:10Z</time>
      </trkpt>
      <trkpt lat="42.99133" lon="-0.22435">
        <ele>1498</ele>
        <time>2020-09-03T08:05:11Z</time>
      </trkpt>
      <trkpt lat="42.99133" lon="-0.22437">
        <ele>1498.4</ele>
        <time>2020-09-03T08:05:12Z</time>
      </trkpt>
      <trkpt lat="42.99133" lon="-0.22439">
        <ele>1498.6</ele>
        <time>2020-09-03T08:05:13Z</time>
      </trkpt>
      <trkpt lat="42.99133" lon="-0.22441">
        <ele>1499</ele>
        <time>2020-09-03T08:05:14Z</time>
      </trkpt>
      <trkpt lat="42.99134" lon="-0.22443">
        <ele>1499.2</ele>
        <time>2020-09-03T08:05:15Z</time>
      </trkpt>
      <trkpt lat="42.99134" lon="-0.22445">
        <ele>1499.4</ele>
        <time>2020-09-03T08:05:16Z</time>
      </trkpt>
      <trkpt lat="42.99135" lon="-0.22447">
        <ele>1499.6</ele>
        <time>2020-09-03T08:05:17Z</time>
      </trkpt>
      <trkpt lat="42.99135" lon="-0.22449">
        <ele>1499.6</ele>
        <time>2020-09-03T08:05:18Z</time>
      </trkpt>
      <trkpt lat="42.99135" lon="-0.22451">
        <ele>1500</ele>
        <time>2020-09-03T08:05:19Z</time>
      </trkpt>
      <trkpt lat="42.99135" lon="-0.22453">
        <ele>1500</ele>
        <time>2020-09-03T08:05:20Z</time>
      </trkpt>
      <trkpt lat="42.99136" lon="-0.22455">
        <ele>1500.4</ele>
        <time>2020-09-03T08:05:21Z</time>
      </trkpt>
      <trkpt lat="42.99137" lon="-0.22457">
        <ele>1500.4</ele>
        <time>2020-09-03T08:05:22Z</time>
      </trkpt>
      <trkpt lat="42.99137" lon="-0.22459">
        <ele>1500.8</ele>
        <time>2020-09-03T08:05:23Z</time>
      </trkpt>
      <trkpt lat="42.99137" lon="-0.22461">
        <ele>1500.8</ele>
        <time>2020-09-03T08:05:24Z</time>
      </trkpt>
      <trkpt lat="42.99137" lon="-0.22463">
        <ele>1501</ele>
        <time>2020-09-03T08:05:25Z</time>
      </trkpt>
      <trkpt lat="42.99138" lon="-0.22465">
        <ele>1501</ele>
        <time>2020-09-03T08:05:26Z</time>
      </trkpt>
      <trkpt lat="42.99138" lon="-0.22467">
        <ele>1501.4</ele>
        <time>2020-09-03T08:05:27Z</time>
      </trkpt>
      <trkpt lat="42.99138" lon="-0.22469">
        <ele>1501.4</ele>
        <time>2020-09-03T08:05:28Z</time>
      </trkpt>
      <trkpt lat="42.99138" lon="-0.22471">
        <ele>1501.8</ele>
        <time>2020-09-03T08:05:29Z</time>
      </trkpt>
      <trkpt lat="42.99138" lon="-0.22474">
        <ele>1502</ele>
        <time>2020-09-03T08:05:30Z</time>
      </trkpt>
      <trkpt lat="42.99138" lon="-0.22476">
        <ele>1502.2</ele>
        <time>2020-09-03T08:05:31Z</time>
      </trkpt>
      <trkpt lat="42.99139" lon="-0.22478">
        <ele>1502.6</ele>
        <time>2020-09-03T08:05:32Z</time>
      </trkpt>
      <trkpt lat="42.99139" lon="-0.2248">
        <ele>1502.6</ele>
        <time>2020-09-03T08:05:33Z</time>
      </trkpt>
      <trkpt lat="42.9914" lon="-0.22482">
        <ele>1502.8</ele>
        <time>2020-09-03T08:05:34Z</time>
      </trkpt>
      <trkpt lat="42.9914" lon="-0.22484">
        <ele>1503</ele>
        <time>2020-09-03T08:05:35Z</time>
      </trkpt>
      <trkpt lat="42.9914" lon="-0.22486">
        <ele>1503.2</ele>
        <time>2020-09-03T08:05:36Z</time>
      </trkpt>
      <trkpt lat="42.9914" lon="-0.22488">
        <ele>1503.4</ele>
        <time>2020-09-03T08:05:37Z</time>
      </trkpt>
      <trkpt lat="42.9914" lon="-0.2249">
        <ele>1503.6</ele>
        <time>2020-09-03T08:05:38Z</time>
      </trkpt>
      <trkpt lat="42.9914" lon="-0.22492">
        <ele>1503.6</ele>
        <time>2020-09-03T08:05:39Z</time>
      </trkpt>
      <trkpt lat="42.99141" lon="-0.22494">
        <ele>1503.8</ele>
        <time>2020-09-03T08:05:40Z</time>
      </trkpt>
      <trkpt lat="42.99141" lon="-0.22496">
        <ele>1503.8</ele>
        <time>2020-09-03T08:05:41Z</time>
      </trkpt>
      <trkpt lat="42.99141" lon="-0.22498">
        <ele>1504</ele>
        <time>2020-09-03T08:05:42Z</time>
      </trkpt>
      <trkpt lat="42.99142" lon="-0.225">
        <ele>1504</ele>
        <time>2020-09-03T08:05:43Z</time>
      </trkpt>
      <trkpt lat="42.99142" lon="-0.22502">
        <ele>1504.2</ele>
        <time>2020-09-03T08:05:44Z</time>
      </trkpt>
      <trkpt lat="42.99143" lon="-0.22504">
        <ele>1504.4</ele>
        <time>2020-09-03T08:05:45Z</time>
      </trkpt>
      <trkpt lat="42.99143" lon="-0.22506">
        <ele>1504.4</ele>
        <time>2020-09-03T08:05:46Z</time>
      </trkpt>
      <trkpt lat="42.99143" lon="-0.22508">
        <ele>1504.8</ele>
        <time>2020-09-03T08:05:47Z</time>
      </trkpt>
      <trkpt lat="42.99144" lon="-0.2251">
        <ele>1505</ele>
        <time>2020-09-03T08:05:48Z</time>
      </trkpt>
      <trkpt lat="42.99144" lon="-0.22513">
        <ele>1505.4</ele>
        <time>2020-09-03T08:05:49Z</time>
      </trkpt>
      <trkpt lat="42.99144" lon="-0.22515">
        <ele>1505.4</ele>
        <time>2020-09-03T08:05:50Z</time>
      </trkpt>
      <trkpt lat="42.99144" lon="-0.22517">
        <ele>1505.6</ele>
        <time>2020-09-03T08:05:51Z</time>
      </trkpt>
      <trkpt lat="42.99145" lon="-0.22519">
        <ele>1506</ele>
        <time>2020-09-03T08:05:52Z</time>
      </trkpt>
      <trkpt lat="42.99146" lon="-0.22521">
        <ele>1506.4</ele>
        <time>2020-09-03T08:05:53Z</time>
      </trkpt>
      <trkpt lat="42.99146" lon="-0.22523">
        <ele>1506.4</ele>
        <time>2020-09-03T08:05:54Z</time>
      </trkpt>
      <trkpt lat="42.99147" lon="-0.22525">
        <ele>1506.8</ele>
        <time>2020-09-03T08:05:55Z</time>
      </trkpt>
      <trkpt lat="42.99147" lon="-0.22527">
        <ele>1507</ele>
        <time>2020-09-03T08:05:56Z</time>
      </trkpt>
      <trkpt lat="42.99148" lon="-0.22529">
        <ele>1507.2</ele>
        <time>2020-09-03T08:05:57Z</time>
      </trkpt>
      <trkpt lat="42.99148" lon="-0.22531">
        <ele>1507.6</ele>
        <time>2020-09-03T08:05:58Z</time>
      </trkpt>
      <trkpt lat="42.99148" lon="-0.22533">
        <ele>1507.8</ele>
        <time>2020-09-03T08:05:59Z</time>
      </trkpt>
      <trkpt lat="42.99149" lon="-0.22535">
        <ele>1508</ele>
        <time>2020-09-03T08:06:00Z</time>
      </trkpt>
      <trkpt lat="42.9915" lon="-0.22536">
        <ele>1508.2</ele>
        <time>2020-09-03T08:06:01Z</time>
      </trkpt>
      <trkpt lat="42.9915" lon="-0.22538">
        <ele>1508.8</ele>
        <time>2020-09-03T08:06:02Z</time>
      </trkpt>
      <trkpt lat="42.99151" lon="-0.2254">
        <ele>1509</ele>
        <time>2020-09-03T08:06:03Z</time>
      </trkpt>
      <trkpt lat="42.99151" lon="-0.22543">
        <ele>1509.2</ele>
        <time>2020-09-03T08:06:04Z</time>
      </trkpt>
      <trkpt lat="42.99152" lon="-0.22544">
        <ele>1509.2</ele>
        <time>2020-09-03T08:06:05Z</time>
      </trkpt>
      <trkpt lat="42.99153" lon="-0.22546">
        <ele>1509.4</ele>
        <time>2020-09-03T08:06:06Z</time>
      </trkpt>
      <trkpt lat="42.99153" lon="-0.22548">
        <ele>1509.6</ele>
        <time>2020-09-03T08:06:07Z</time>
      </trkpt>
      <trkpt lat="42.99154" lon="-0.2255">
        <ele>1509.6</ele>
        <time>2020-09-03T08:06:08Z</time>
      </trkpt>
      <trkpt lat="42.99155" lon="-0.22551">
        <ele>1509.6</ele>
        <time>2020-09-03T08:06:09Z</time>
      </trkpt>
      <trkpt lat="42.99156" lon="-0.22553">
        <ele>1509.8</ele>
        <time>2020-09-03T08:06:10Z</time>
      </trkpt>
      <trkpt lat="42.99157" lon="-0.22555">
        <ele>1510</ele>
        <time>2020-09-03T08:06:11Z</time>
      </trkpt>
      <trkpt lat="42.99158" lon="-0.22557">
        <ele>1510.2</ele>
        <time>2020-09-03T08:06:12Z</time>
      </trkpt>
      <trkpt lat="42.99159" lon="-0.22559">
        <ele>1510.4</ele>
        <time>2020-09-03T08:06:13Z</time>
      </trkpt>
      <trkpt lat="42.9916" lon="-0.22561">
        <ele>1510.8</ele>
        <time>2020-09-03T08:06:14Z</time>
      </trkpt>
      <trkpt lat="42.99161" lon="-0.22563">
        <ele>1511</ele>
        <time>2020-09-03T08:06:15Z</time>
      </trkpt>
      <trkpt lat="42.99162" lon="-0.22564">
        <ele>1511</ele>
        <time>2020-09-03T08:06:16Z</time>
      </trkpt>
      <trkpt lat="42.99163" lon="-0.22566">
        <ele>1511.4</ele>
        <time>2020-09-03T08:06:17Z</time>
      </trkpt>
      <trkpt lat="42.99164" lon="-0.22568">
        <ele>1511.4</ele>
        <time>2020-09-03T08:06:18Z</time>
      </trkpt>
      <trkpt lat="42.99165" lon="-0.2257">
        <ele>1511.6</ele>
        <time>2020-09-03T08:06:19Z</time>
      </trkpt>
      <trkpt lat="42.99166" lon="-0.22571">
        <ele>1511.6</ele>
        <time>2020-09-03T08:06:20Z</time>
      </trkpt>
      <trkpt lat="42.99166" lon="-0.22573">
        <ele>1512</ele>
        <time>2020-09-03T08:06:21Z</time>
      </trkpt>
      <trkpt lat="42.99166" lon="-0.22575">
        <ele>1512</ele>
        <time>2020-09-03T08:06:22Z</time>
      </trkpt>
      <trkpt lat="42.99167" lon="-0.22577">
        <ele>1512.4</ele>
        <time>2020-09-03T08:06:23Z</time>
      </trkpt>
      <trkpt lat="42.99167" lon="-0.22579">
        <ele>1512.4</ele>
        <time>2020-09-03T08:06:24Z</time>
      </trkpt>
      <trkpt lat="42.99167" lon="-0.22581">
        <ele>1513.2</ele>
        <time>2020-09-03T08:06:25Z</time>
      </trkpt>
      <trkpt lat="42.99168" lon="-0.22582">
        <ele>1513.4</ele>
        <time>2020-09-03T08:06:26Z</time>
      </trkpt>
      <trkpt lat="42.99168" lon="-0.22584">
        <ele>1513.8</ele>
        <time>2020-09-03T08:06:27Z</time>
      </trkpt>
      <trkpt lat="42.99168" lon="-0.22587">
        <ele>1514.2</ele>
        <time>2020-09-03T08:06:28Z</time>
      </trkpt>
      <trkpt lat="42.99168" lon="-0.22589">
        <ele>1514.6</ele>
        <time>2020-09-03T08:06:29Z</time>
      </trkpt>
      <trkpt lat="42.99168" lon="-0.22591">
        <ele>1515</ele>
        <time>2020-09-03T08:06:30Z</time>
      </trkpt>
      <trkpt lat="42.99168" lon="-0.22593">
        <ele>1515.2</ele>
        <time>2020-09-03T08:06:31Z</time>
      </trkpt>
      <trkpt lat="42.99167" lon="-0.22595">
        <ele>1515.6</ele>
        <time>2020-09-03T08:06:32Z</time>
      </trkpt>
      <trkpt lat="42.99167" lon="-0.22597">
        <ele>1515.8</ele>
        <time>2020-09-03T08:06:33Z</time>
      </trkpt>
      <trkpt lat="42.99166" lon="-0.22598">
        <ele>1516.2</ele>
        <time>2020-09-03T08:06:34Z</time>
      </trkpt>
      <trkpt lat="42.99166" lon="-0.22601">
        <ele>1516.2</ele>
        <time>2020-09-03T08:06:35Z</time>
      </trkpt>
      <trkpt lat="42.99165" lon="-0.22603">
        <ele>1516.6</ele>
        <time>2020-09-03T08:06:36Z</time>
      </trkpt>
      <trkpt lat="42.99164" lon="-0.22605">
        <ele>1516.8</ele>
        <time>2020-09-03T08:06:37Z</time>
      </trkpt>
      <trkpt lat="42.99164" lon="-0.22608">
        <ele>1517</ele>
        <time>2020-09-03T08:06:38Z</time>
      </trkpt>
      <trkpt lat="42.99163" lon="-0.2261">
        <ele>1517</ele>
        <time>2020-09-03T08:06:39Z</time>
      </trkpt>
      <trkpt lat="42.99162" lon="-0.22612">
        <ele>1517.2</ele>
        <time>2020-09-03T08:06:40Z</time>
      </trkpt>
      <trkpt lat="42.99161" lon="-0.22613">
        <ele>1517.2</ele>
        <time>2020-09-03T08:06:41Z</time>
      </trkpt>
      <trkpt lat="42.9916" lon="-0.22615">
        <ele>1517.4</ele>
        <time>2020-09-03T08:06:42Z</time>
      </trkpt>
      <trkpt lat="42.99159" lon="-0.22617">
        <ele>1517.4</ele>
        <time>2020-09-03T08:06:43Z</time>
      </trkpt>
      <trkpt lat="42.99158" lon="-0.22619">
        <ele>1517.6</ele>
        <time>2020-09-03T08:06:44Z</time>
      </trkpt>
      <trkpt lat="42.99157" lon="-0.2262">
        <ele>1517.6</ele>
        <time>2020-09-03T08:06:45Z</time>
      </trkpt>
      <trkpt lat="42.99156" lon="-0.22622">
        <ele>1517.8</ele>
        <time>2020-09-03T08:06:46Z</time>
      </trkpt>
      <trkpt lat="42.99155" lon="-0.22624">
        <ele>1517.8</ele>
        <time>2020-09-03T08:06:47Z</time>
      </trkpt>
      <trkpt lat="42.99153" lon="-0.22625">
        <ele>1517.8</ele>
        <time>2020-09-03T08:06:48Z</time>
      </trkpt>
      <trkpt lat="42.99152" lon="-0.22626">
        <ele>1518</ele>
        <time>2020-09-03T08:06:49Z</time>
      </trkpt>
      <trkpt lat="42.99151" lon="-0.22626">
        <ele>1518</ele>
        <time>2020-09-03T08:06:50Z</time>
      </trkpt>
      <trkpt lat="42.9915" lon="-0.22627">
        <ele>1518.2</ele>
        <time>2020-09-03T08:06:51Z</time>
      </trkpt>
      <trkpt lat="42.99149" lon="-0.22628">
        <ele>1518.2</ele>
        <time>2020-09-03T08:06:52Z</time>
      </trkpt>
      <trkpt lat="42.99148" lon="-0.22628">
        <ele>1518.6</ele>
        <time>2020-09-03T08:06:53Z</time>
      </trkpt>
      <trkpt lat="42.99147" lon="-0.22629">
        <ele>1518.6</ele>
        <time>2020-09-03T08:06:54Z</time>
      </trkpt>
      <trkpt lat="42.99146" lon="-0.2263">
        <ele>1518.8</ele>
        <time>2020-09-03T08:06:55Z</time>
      </trkpt>
      <trkpt lat="42.99145" lon="-0.22631">
        <ele>1518.8</ele>
        <time>2020-09-03T08:06:56Z</time>
      </trkpt>
      <trkpt lat="42.99143" lon="-0.22632">
        <ele>1518.8</ele>
        <time>2020-09-03T08:06:57Z</time>
      </trkpt>
      <trkpt lat="42.99143" lon="-0.22633">
        <ele>1518.8</ele>
        <time>2020-09-03T08:06:58Z</time>
      </trkpt>
      <trkpt lat="42.99142" lon="-0.22634">
        <ele>1519</ele>
        <time>2020-09-03T08:06:59Z</time>
      </trkpt>
      <trkpt lat="42.99142" lon="-0.22634">
        <ele>1519</ele>
        <time>2020-09-03T08:07:00Z</time>
      </trkpt>
      <trkpt lat="42.99142" lon="-0.22634">
        <ele>1519</ele>
        <time>2020-09-03T08:07:05Z</time>
      </trkpt>
      <trkpt lat="42.99142" lon="-0.22634">
        <ele>1518.2</ele>
        <time>2020-09-03T08:08:01Z</time>
      </trkpt>
      <trkpt lat="42.99142" lon="-0.22634">
        <ele>1518</ele>
        <time>2020-09-03T08:08:25Z</time>
      </trkpt>
      <trkpt lat="42.99142" lon="-0.22634">
        <ele>1517.8</ele>
        <time>2020-09-03T08:08:52Z</time>
      </trkpt>
      <trkpt lat="42.99142" lon="-0.22634">
        <ele>1517.8</ele>
        <time>2020-09-03T08:09:15Z</time>
      </trkpt>
      <trkpt lat="42.99142" lon="-0.22634">
        <ele>1518</ele>
        <time>2020-09-03T08:09:38Z</time>
      </trkpt>
      <trkpt lat="42.99142" lon="-0.22634">
        <ele>1517.8</ele>
        <time>2020-09-03T08:10:01Z</time>
      </trkpt>
      <trkpt lat="42.99142" lon="-0.22634">
        <ele>1517.8</ele>
        <time>2020-09-03T08:10:23Z</time>
      </trkpt>
      <trkpt lat="42.99142" lon="-0.22634">
        <ele>1518</ele>
        <time>2020-09-03T08:10:45Z</time>
      </trkpt>
      <trkpt lat="42.99142" lon="-0.22634">
        <ele>1517.8</ele>
        <time>2020-09-03T08:11:12Z</time>
      </trkpt>
      <trkpt lat="42.99142" lon="-0.22634">
        <ele>1518</ele>
        <time>2020-09-03T08:11:39Z</time>
      </trkpt>
      <trkpt lat="42.99142" lon="-0.22634">
        <ele>1518</ele>
        <time>2020-09-03T08:12:04Z</time>
      </trkpt>
      <trkpt lat="42.99142" lon="-0.22634">
        <ele>1518</ele>
        <time>2020-09-03T08:12:34Z</time>
      </trkpt>
      <trkpt lat="42.99143" lon="-0.22634">
        <ele>1518.8</ele>
        <time>2020-09-03T08:13:03Z</time>
      </trkpt>
      <trkpt lat="42.99139" lon="-0.2264">
        <ele>1518.8</ele>
        <time>2020-09-03T08:13:55Z</time>
      </trkpt>
      <trkpt lat="42.99128" lon="-0.22653">
        <ele>1518.8</ele>
        <time>2020-09-03T08:14:00Z</time>
      </trkpt>
      <trkpt lat="42.99119" lon="-0.22664">
        <ele>1518.6</ele>
        <time>2020-09-03T08:14:03Z</time>
      </trkpt>
      <trkpt lat="42.99108" lon="-0.22674">
        <ele>1518.2</ele>
        <time>2020-09-03T08:14:06Z</time>
      </trkpt>
      <trkpt lat="42.99101" lon="-0.22681">
        <ele>1518</ele>
        <time>2020-09-03T08:14:08Z</time>
      </trkpt>
      <trkpt lat="42.99098" lon="-0.22685">
        <ele>1517.8</ele>
        <time>2020-09-03T08:14:09Z</time>
      </trkpt>
      <trkpt lat="42.99079" lon="-0.227">
        <ele>1517.6</ele>
        <time>2020-09-03T08:14:14Z</time>
      </trkpt>
      <trkpt lat="42.99071" lon="-0.22706">
        <ele>1517.8</ele>
        <time>2020-09-03T08:14:16Z</time>
      </trkpt>
      <trkpt lat="42.99055" lon="-0.22714">
        <ele>1517.8</ele>
        <time>2020-09-03T08:14:20Z</time>
      </trkpt>
      <trkpt lat="42.99051" lon="-0.22715">
        <ele>1517.8</ele>
        <time>2020-09-03T08:14:21Z</time>
      </trkpt>
      <trkpt lat="42.9903" lon="-0.22713">
        <ele>1518.2</ele>
        <time>2020-09-03T08:14:26Z</time>
      </trkpt>
      <trkpt lat="42.99026" lon="-0.22712">
        <ele>1518.2</ele>
        <time>2020-09-03T08:14:27Z</time>
      </trkpt>
      <trkpt lat="42.99023" lon="-0.2271">
        <ele>1518.2</ele>
        <time>2020-09-03T08:14:28Z</time>
      </trkpt>
      <trkpt lat="42.9902" lon="-0.22708">
        <ele>1518.2</ele>
        <time>2020-09-03T08:14:29Z</time>
      </trkpt>
      <trkpt lat="42.99017" lon="-0.22706">
        <ele>1518.4</ele>
        <time>2020-09-03T08:14:30Z</time>
      </trkpt>
      <trkpt lat="42.99013" lon="-0.22705">
        <ele>1518.4</ele>
        <time>2020-09-03T08:14:31Z</time>
      </trkpt>
      <trkpt lat="42.99003" lon="-0.22698">
        <ele>1518.6</ele>
        <time>2020-09-03T08:14:34Z</time>
      </trkpt>
      <trkpt lat="42.99" lon="-0.22696">
        <ele>1518.8</ele>
        <time>2020-09-03T08:14:35Z</time>
      </trkpt>
      <trkpt lat="42.98997" lon="-0.22694">
        <ele>1519</ele>
        <time>2020-09-03T08:14:36Z</time>
      </trkpt>
      <trkpt lat="42.98994" lon="-0.22691">
        <ele>1519.2</ele>
        <time>2020-09-03T08:14:37Z</time>
      </trkpt>
      <trkpt lat="42.98992" lon="-0.22689">
        <ele>1519.4</ele>
        <time>2020-09-03T08:14:38Z</time>
      </trkpt>
      <trkpt lat="42.98988" lon="-0.22687">
        <ele>1519.6</ele>
        <time>2020-09-03T08:14:39Z</time>
      </trkpt>
      <trkpt lat="42.9898" lon="-0.22681">
        <ele>1520.6</ele>
        <time>2020-09-03T08:14:42Z</time>
      </trkpt>
      <trkpt lat="42.98977" lon="-0.2268">
        <ele>1520.8</ele>
        <time>2020-09-03T08:14:43Z</time>
      </trkpt>
      <trkpt lat="42.98974" lon="-0.22679">
        <ele>1521</ele>
        <time>2020-09-03T08:14:44Z</time>
      </trkpt>
      <trkpt lat="42.98971" lon="-0.22678">
        <ele>1521.4</ele>
        <time>2020-09-03T08:14:45Z</time>
      </trkpt>
      <trkpt lat="42.98968" lon="-0.22677">
        <ele>1521.4</ele>
        <time>2020-09-03T08:14:46Z</time>
      </trkpt>
      <trkpt lat="42.98965" lon="-0.22676">
        <ele>1521.8</ele>
        <time>2020-09-03T08:14:47Z</time>
      </trkpt>
      <trkpt lat="42.98962" lon="-0.22676">
        <ele>1521.8</ele>
        <time>2020-09-03T08:14:48Z</time>
      </trkpt>
      <trkpt lat="42.98959" lon="-0.22675">
        <ele>1522</ele>
        <time>2020-09-03T08:14:49Z</time>
      </trkpt>
      <trkpt lat="42.98956" lon="-0.22674">
        <ele>1522</ele>
        <time>2020-09-03T08:14:50Z</time>
      </trkpt>
      <trkpt lat="42.98952" lon="-0.22673">
        <ele>1522</ele>
        <time>2020-09-03T08:14:51Z</time>
      </trkpt>
      <trkpt lat="42.98949" lon="-0.22673">
        <ele>1522.2</ele>
        <time>2020-09-03T08:14:52Z</time>
      </trkpt>
      <trkpt lat="42.98945" lon="-0.22672">
        <ele>1522.4</ele>
        <time>2020-09-03T08:14:53Z</time>
      </trkpt>
      <trkpt lat="42.98942" lon="-0.22672">
        <ele>1522.6</ele>
        <time>2020-09-03T08:14:54Z</time>
      </trkpt>
      <trkpt lat="42.98938" lon="-0.22672">
        <ele>1522.8</ele>
        <time>2020-09-03T08:14:55Z</time>
      </trkpt>
      <trkpt lat="42.98935" lon="-0.22673">
        <ele>1523</ele>
        <time>2020-09-03T08:14:56Z</time>
      </trkpt>
      <trkpt lat="42.98931" lon="-0.22674">
        <ele>1523.2</ele>
        <time>2020-09-03T08:14:57Z</time>
      </trkpt>
      <trkpt lat="42.98928" lon="-0.22675">
        <ele>1523.2</ele>
        <time>2020-09-03T08:14:58Z</time>
      </trkpt>
      <trkpt lat="42.98924" lon="-0.22677">
        <ele>1523.2</ele>
        <time>2020-09-03T08:14:59Z</time>
      </trkpt>
      <trkpt lat="42.9892" lon="-0.22678">
        <ele>1523.4</ele>
        <time>2020-09-03T08:15:00Z</time>
      </trkpt>
      <trkpt lat="42.98917" lon="-0.2268">
        <ele>1523.6</ele>
        <time>2020-09-03T08:15:01Z</time>
      </trkpt>
      <trkpt lat="42.98913" lon="-0.22682">
        <ele>1523.6</ele>
        <time>2020-09-03T08:15:02Z</time>
      </trkpt>
      <trkpt lat="42.98909" lon="-0.22684">
        <ele>1523.8</ele>
        <time>2020-09-03T08:15:03Z</time>
      </trkpt>
      <trkpt lat="42.98905" lon="-0.22686">
        <ele>1523.8</ele>
        <time>2020-09-03T08:15:04Z</time>
      </trkpt>
      <trkpt lat="42.98901" lon="-0.22688">
        <ele>1523.8</ele>
        <time>2020-09-03T08:15:05Z</time>
      </trkpt>
      <trkpt lat="42.98898" lon="-0.22689">
        <ele>1524</ele>
        <time>2020-09-03T08:15:06Z</time>
      </trkpt>
      <trkpt lat="42.98894" lon="-0.2269">
        <ele>1524</ele>
        <time>2020-09-03T08:15:07Z</time>
      </trkpt>
      <trkpt lat="42.9889" lon="-0.22691">
        <ele>1524.2</ele>
        <time>2020-09-03T08:15:08Z</time>
      </trkpt>
      <trkpt lat="42.98887" lon="-0.22692">
        <ele>1524.2</ele>
        <time>2020-09-03T08:15:09Z</time>
      </trkpt>
      <trkpt lat="42.98883" lon="-0.22693">
        <ele>1524.4</ele>
        <time>2020-09-03T08:15:10Z</time>
      </trkpt>
      <trkpt lat="42.9888" lon="-0.22695">
        <ele>1524.6</ele>
        <time>2020-09-03T08:15:11Z</time>
      </trkpt>
      <trkpt lat="42.98876" lon="-0.22696">
        <ele>1524.6</ele>
        <time>2020-09-03T08:15:12Z</time>
      </trkpt>
      <trkpt lat="42.98873" lon="-0.22697">
        <ele>1524.8</ele>
        <time>2020-09-03T08:15:13Z</time>
      </trkpt>
      <trkpt lat="42.9887" lon="-0.22698">
        <ele>1525</ele>
        <time>2020-09-03T08:15:14Z</time>
      </trkpt>
      <trkpt lat="42.98866" lon="-0.227">
        <ele>1525</ele>
        <time>2020-09-03T08:15:15Z</time>
      </trkpt>
      <trkpt lat="42.98863" lon="-0.22701">
        <ele>1525.2</ele>
        <time>2020-09-03T08:15:16Z</time>
      </trkpt>
      <trkpt lat="42.98859" lon="-0.22702">
        <ele>1525.4</ele>
        <time>2020-09-03T08:15:17Z</time>
      </trkpt>
      <trkpt lat="42.98856" lon="-0.22703">
        <ele>1525.6</ele>
        <time>2020-09-03T08:15:18Z</time>
      </trkpt>
      <trkpt lat="42.98852" lon="-0.22704">
        <ele>1525.6</ele>
        <time>2020-09-03T08:15:19Z</time>
      </trkpt>
      <trkpt lat="42.98849" lon="-0.22705">
        <ele>1525.8</ele>
        <time>2020-09-03T08:15:20Z</time>
      </trkpt>
      <trkpt lat="42.98845" lon="-0.22706">
        <ele>1525.8</ele>
        <time>2020-09-03T08:15:21Z</time>
      </trkpt>
      <trkpt lat="42.98842" lon="-0.22707">
        <ele>1526</ele>
        <time>2020-09-03T08:15:22Z</time>
      </trkpt>
      <trkpt lat="42.98838" lon="-0.22709">
        <ele>1526</ele>
        <time>2020-09-03T08:15:23Z</time>
      </trkpt>
      <trkpt lat="42.98834" lon="-0.22712">
        <ele>1526.2</ele>
        <time>2020-09-03T08:15:24Z</time>
      </trkpt>
      <trkpt lat="42.98831" lon="-0.22714">
        <ele>1526.2</ele>
        <time>2020-09-03T08:15:25Z</time>
      </trkpt>
      <trkpt lat="42.98827" lon="-0.22717">
        <ele>1526.2</ele>
        <time>2020-09-03T08:15:26Z</time>
      </trkpt>
      <trkpt lat="42.98823" lon="-0.22719">
        <ele>1526.4</ele>
        <time>2020-09-03T08:15:27Z</time>
      </trkpt>
      <trkpt lat="42.9882" lon="-0.22721">
        <ele>1526.4</ele>
        <time>2020-09-03T08:15:28Z</time>
      </trkpt>
      <trkpt lat="42.98816" lon="-0.22722">
        <ele>1526.4</ele>
        <time>2020-09-03T08:15:29Z</time>
      </trkpt>
      <trkpt lat="42.98812" lon="-0.22724">
        <ele>1526.4</ele>
        <time>2020-09-03T08:15:30Z</time>
      </trkpt>
      <trkpt lat="42.98808" lon="-0.22726">
        <ele>1526.6</ele>
        <time>2020-09-03T08:15:31Z</time>
      </trkpt>
      <trkpt lat="42.98804" lon="-0.22728">
        <ele>1526.6</ele>
        <time>2020-09-03T08:15:32Z</time>
      </trkpt>
      <trkpt lat="42.98801" lon="-0.2273">
        <ele>1526.6</ele>
        <time>2020-09-03T08:15:33Z</time>
      </trkpt>
      <trkpt lat="42.98797" lon="-0.22732">
        <ele>1526.8</ele>
        <time>2020-09-03T08:15:34Z</time>
      </trkpt>
      <trkpt lat="42.98794" lon="-0.22735">
        <ele>1526.8</ele>
        <time>2020-09-03T08:15:35Z</time>
      </trkpt>
      <trkpt lat="42.98791" lon="-0.22737">
        <ele>1526.8</ele>
        <time>2020-09-03T08:15:36Z</time>
      </trkpt>
      <trkpt lat="42.98788" lon="-0.2274">
        <ele>1526.8</ele>
        <time>2020-09-03T08:15:37Z</time>
      </trkpt>
      <trkpt lat="42.98784" lon="-0.22742">
        <ele>1526.8</ele>
        <time>2020-09-03T08:15:38Z</time>
      </trkpt>
      <trkpt lat="42.98769" lon="-0.22748">
        <ele>1527</ele>
        <time>2020-09-03T08:15:42Z</time>
      </trkpt>
      <trkpt lat="42.98753" lon="-0.22754">
        <ele>1527.2</ele>
        <time>2020-09-03T08:15:46Z</time>
      </trkpt>
      <trkpt lat="42.98744" lon="-0.22755">
        <ele>1527.2</ele>
        <time>2020-09-03T08:15:48Z</time>
      </trkpt>
      <trkpt lat="42.98731" lon="-0.2276">
        <ele>1527.2</ele>
        <time>2020-09-03T08:15:51Z</time>
      </trkpt>
      <trkpt lat="42.9871" lon="-0.22775">
        <ele>1527.4</ele>
        <time>2020-09-03T08:15:57Z</time>
      </trkpt>
      <trkpt lat="42.98707" lon="-0.22778">
        <ele>1527.4</ele>
        <time>2020-09-03T08:15:58Z</time>
      </trkpt>
      <trkpt lat="42.98704" lon="-0.22783">
        <ele>1527.6</ele>
        <time>2020-09-03T08:15:59Z</time>
      </trkpt>
      <trkpt lat="42.98702" lon="-0.22787">
        <ele>1527.6</ele>
        <time>2020-09-03T08:16:00Z</time>
      </trkpt>
      <trkpt lat="42.987" lon="-0.22792">
        <ele>1527.8</ele>
        <time>2020-09-03T08:16:01Z</time>
      </trkpt>
      <trkpt lat="42.98699" lon="-0.22797">
        <ele>1527.8</ele>
        <time>2020-09-03T08:16:02Z</time>
      </trkpt>
      <trkpt lat="42.98697" lon="-0.22803">
        <ele>1528</ele>
        <time>2020-09-03T08:16:03Z</time>
      </trkpt>
      <trkpt lat="42.98693" lon="-0.22813">
        <ele>1528</ele>
        <time>2020-09-03T08:16:05Z</time>
      </trkpt>
      <trkpt lat="42.9869" lon="-0.22817">
        <ele>1528</ele>
        <time>2020-09-03T08:16:06Z</time>
      </trkpt>
      <trkpt lat="42.98686" lon="-0.2282">
        <ele>1528</ele>
        <time>2020-09-03T08:16:07Z</time>
      </trkpt>
      <trkpt lat="42.98683" lon="-0.22823">
        <ele>1527.8</ele>
        <time>2020-09-03T08:16:08Z</time>
      </trkpt>
      <trkpt lat="42.9868" lon="-0.22824">
        <ele>1527.8</ele>
        <time>2020-09-03T08:16:09Z</time>
      </trkpt>
      <trkpt lat="42.98677" lon="-0.22825">
        <ele>1527.8</ele>
        <time>2020-09-03T08:16:10Z</time>
      </trkpt>
      <trkpt lat="42.98673" lon="-0.22826">
        <ele>1527.8</ele>
        <time>2020-09-03T08:16:11Z</time>
      </trkpt>
      <trkpt lat="42.9867" lon="-0.22826">
        <ele>1527.8</ele>
        <time>2020-09-03T08:16:12Z</time>
      </trkpt>
      <trkpt lat="42.98667" lon="-0.22826">
        <ele>1527.8</ele>
        <time>2020-09-03T08:16:13Z</time>
      </trkpt>
      <trkpt lat="42.98664" lon="-0.22826">
        <ele>1527.8</ele>
        <time>2020-09-03T08:16:14Z</time>
      </trkpt>
      <trkpt lat="42.98656" lon="-0.22827">
        <ele>1527.6</ele>
        <time>2020-09-03T08:16:16Z</time>
      </trkpt>
      <trkpt lat="42.98651" lon="-0.22827">
        <ele>1527.4</ele>
        <time>2020-09-03T08:16:17Z</time>
      </trkpt>
      <trkpt lat="42.98647" lon="-0.22826">
        <ele>1527.4</ele>
        <time>2020-09-03T08:16:18Z</time>
      </trkpt>
      <trkpt lat="42.98632" lon="-0.22825">
        <ele>1527</ele>
        <time>2020-09-03T08:16:21Z</time>
      </trkpt>
      <trkpt lat="42.98621" lon="-0.22827">
        <ele>1526.8</ele>
        <time>2020-09-03T08:16:23Z</time>
      </trkpt>
      <trkpt lat="42.98616" lon="-0.22828">
        <ele>1526.8</ele>
        <time>2020-09-03T08:16:24Z</time>
      </trkpt>
      <trkpt lat="42.98599" lon="-0.22833">
        <ele>1526.2</ele>
        <time>2020-09-03T08:16:27Z</time>
      </trkpt>
      <trkpt lat="42.98588" lon="-0.22837">
        <ele>1525.8</ele>
        <time>2020-09-03T08:16:29Z</time>
      </trkpt>
      <trkpt lat="42.98584" lon="-0.22839">
        <ele>1525.8</ele>
        <time>2020-09-03T08:16:30Z</time>
      </trkpt>
      <trkpt lat="42.98571" lon="-0.22845">
        <ele>1525.4</ele>
        <time>2020-09-03T08:16:33Z</time>
      </trkpt>
      <trkpt lat="42.98568" lon="-0.22846">
        <ele>1525.2</ele>
        <time>2020-09-03T08:16:34Z</time>
      </trkpt>
      <trkpt lat="42.98566" lon="-0.22848">
        <ele>1525.2</ele>
        <time>2020-09-03T08:16:35Z</time>
      </trkpt>
      <trkpt lat="42.98563" lon="-0.2285">
        <ele>1525</ele>
        <time>2020-09-03T08:16:36Z</time>
      </trkpt>
      <trkpt lat="42.98562" lon="-0.22851">
        <ele>1524.8</ele>
        <time>2020-09-03T08:16:37Z</time>
      </trkpt>
      <trkpt lat="42.98561" lon="-0.22851">
        <ele>1524.6</ele>
        <time>2020-09-03T08:16:38Z</time>
      </trkpt>
      <trkpt lat="42.98561" lon="-0.22851">
        <ele>1524.4</ele>
        <time>2020-09-03T08:16:39Z</time>
      </trkpt>
      <trkpt lat="42.98561" lon="-0.22851">
        <ele>1523.4</ele>
        <time>2020-09-03T08:16:43Z</time>
      </trkpt>
      <trkpt lat="42.98561" lon="-0.22851">
        <ele>1523.2</ele>
        <time>2020-09-03T08:17:01Z</time>
      </trkpt>
      <trkpt lat="42.98559" lon="-0.22854">
        <ele>1523.2</ele>
        <time>2020-09-03T08:17:03Z</time>
      </trkpt>
      <trkpt lat="42.98551" lon="-0.22861">
        <ele>1523.2</ele>
        <time>2020-09-03T08:17:09Z</time>
      </trkpt>
      <trkpt lat="42.98536" lon="-0.22874">
        <ele>1522.6</ele>
        <time>2020-09-03T08:17:15Z</time>
      </trkpt>
      <trkpt lat="42.98527" lon="-0.22889">
        <ele>1522.4</ele>
        <time>2020-09-03T08:17:19Z</time>
      </trkpt>
      <trkpt lat="42.98523" lon="-0.229">
        <ele>1522.4</ele>
        <time>2020-09-03T08:17:21Z</time>
      </trkpt>
      <trkpt lat="42.98519" lon="-0.22928">
        <ele>1522.2</ele>
        <time>2020-09-03T08:17:25Z</time>
      </trkpt>
      <trkpt lat="42.98519" lon="-0.22936">
        <ele>1522</ele>
        <time>2020-09-03T08:17:26Z</time>
      </trkpt>
      <trkpt lat="42.98526" lon="-0.22981">
        <ele>1521.6</ele>
        <time>2020-09-03T08:17:31Z</time>
      </trkpt>
      <trkpt lat="42.98535" lon="-0.23">
        <ele>1520.6</ele>
        <time>2020-09-03T08:17:33Z</time>
      </trkpt>
      <trkpt lat="42.9854" lon="-0.2301">
        <ele>1520</ele>
        <time>2020-09-03T08:17:34Z</time>
      </trkpt>
      <trkpt lat="42.98547" lon="-0.23018">
        <ele>1519.2</ele>
        <time>2020-09-03T08:17:35Z</time>
      </trkpt>
      <trkpt lat="42.98558" lon="-0.23036">
        <ele>1518.4</ele>
        <time>2020-09-03T08:17:37Z</time>
      </trkpt>
      <trkpt lat="42.98562" lon="-0.23046">
        <ele>1518</ele>
        <time>2020-09-03T08:17:38Z</time>
      </trkpt>
      <trkpt lat="42.98566" lon="-0.23057">
        <ele>1517.2</ele>
        <time>2020-09-03T08:17:39Z</time>
      </trkpt>
      <trkpt lat="42.98569" lon="-0.23066">
        <ele>1516.8</ele>
        <time>2020-09-03T08:17:40Z</time>
      </trkpt>
      <trkpt lat="42.98572" lon="-0.23079">
        <ele>1516.2</ele>
        <time>2020-09-03T08:17:41Z</time>
      </trkpt>
      <trkpt lat="42.98575" lon="-0.23091">
        <ele>1515.8</ele>
        <time>2020-09-03T08:17:42Z</time>
      </trkpt>
      <trkpt lat="42.98579" lon="-0.23115">
        <ele>1514.8</ele>
        <time>2020-09-03T08:17:44Z</time>
      </trkpt>
      <trkpt lat="42.98581" lon="-0.23126">
        <ele>1513.8</ele>
        <time>2020-09-03T08:17:45Z</time>
      </trkpt>
      <trkpt lat="42.98583" lon="-0.23149">
        <ele>1512.8</ele>
        <time>2020-09-03T08:17:47Z</time>
      </trkpt>
      <trkpt lat="42.98583" lon="-0.23159">
        <ele>1511.2</ele>
        <time>2020-09-03T08:17:48Z</time>
      </trkpt>
      <trkpt lat="42.98583" lon="-0.23183">
        <ele>1509</ele>
        <time>2020-09-03T08:17:50Z</time>
      </trkpt>
      <trkpt lat="42.98583" lon="-0.23207">
        <ele>1507.4</ele>
        <time>2020-09-03T08:17:52Z</time>
      </trkpt>
      <trkpt lat="42.9858" lon="-0.23231">
        <ele>1506.2</ele>
        <time>2020-09-03T08:17:54Z</time>
      </trkpt>
      <trkpt lat="42.98577" lon="-0.23251">
        <ele>1504.8</ele>
        <time>2020-09-03T08:17:56Z</time>
      </trkpt>
      <trkpt lat="42.98576" lon="-0.23263">
        <ele>1504.4</ele>
        <time>2020-09-03T08:17:57Z</time>
      </trkpt>
      <trkpt lat="42.98575" lon="-0.23271">
        <ele>1504.4</ele>
        <time>2020-09-03T08:17:58Z</time>
      </trkpt>
      <trkpt lat="42.98574" lon="-0.23279">
        <ele>1504.2</ele>
        <time>2020-09-03T08:17:59Z</time>
      </trkpt>
      <trkpt lat="42.98572" lon="-0.23285">
        <ele>1504.2</ele>
        <time>2020-09-03T08:18:00Z</time>
      </trkpt>
      <trkpt lat="42.98571" lon="-0.23291">
        <ele>1504.2</ele>
        <time>2020-09-03T08:18:01Z</time>
      </trkpt>
      <trkpt lat="42.98571" lon="-0.23297">
        <ele>1504.2</ele>
        <time>2020-09-03T08:18:02Z</time>
      </trkpt>
      <trkpt lat="42.9857" lon="-0.23301">
        <ele>1504.2</ele>
        <time>2020-09-03T08:18:03Z</time>
      </trkpt>
      <trkpt lat="42.9857" lon="-0.23304">
        <ele>1504.2</ele>
        <time>2020-09-03T08:18:04Z</time>
      </trkpt>
      <trkpt lat="42.98569" lon="-0.23308">
        <ele>1504.2</ele>
        <time>2020-09-03T08:18:05Z</time>
      </trkpt>
      <trkpt lat="42.98569" lon="-0.23312">
        <ele>1504.2</ele>
        <time>2020-09-03T08:18:06Z</time>
      </trkpt>
      <trkpt lat="42.9857" lon="-0.23316">
        <ele>1504.2</ele>
        <time>2020-09-03T08:18:07Z</time>
      </trkpt>
      <trkpt lat="42.98571" lon="-0.23319">
        <ele>1504.2</ele>
        <time>2020-09-03T08:18:08Z</time>
      </trkpt>
      <trkpt lat="42.98572" lon="-0.23322">
        <ele>1504.2</ele>
        <time>2020-09-03T08:18:09Z</time>
      </trkpt>
      <trkpt lat="42.98573" lon="-0.23325">
        <ele>1504</ele>
        <time>2020-09-03T08:18:10Z</time>
      </trkpt>
      <trkpt lat="42.98574" lon="-0.23328">
        <ele>1504</ele>
        <time>2020-09-03T08:18:11Z</time>
      </trkpt>
      <trkpt lat="42.98576" lon="-0.2333">
        <ele>1504</ele>
        <time>2020-09-03T08:18:12Z</time>
      </trkpt>
      <trkpt lat="42.98578" lon="-0.23333">
        <ele>1504</ele>
        <time>2020-09-03T08:18:13Z</time>
      </trkpt>
      <trkpt lat="42.9858" lon="-0.23335">
        <ele>1503.8</ele>
        <time>2020-09-03T08:18:14Z</time>
      </trkpt>
      <trkpt lat="42.98582" lon="-0.23336">
        <ele>1503.8</ele>
        <time>2020-09-03T08:18:15Z</time>
      </trkpt>
      <trkpt lat="42.98583" lon="-0.23336">
        <ele>1503.6</ele>
        <time>2020-09-03T08:18:16Z</time>
      </trkpt>
      <trkpt lat="42.98583" lon="-0.23336">
        <ele>1503.6</ele>
        <time>2020-09-03T08:18:17Z</time>
      </trkpt>
      <trkpt lat="42.98583" lon="-0.23336">
        <ele>1503.4</ele>
        <time>2020-09-03T08:18:18Z</time>
      </trkpt>
      <trkpt lat="42.98583" lon="-0.23338">
        <ele>1502.6</ele>
        <time>2020-09-03T08:18:23Z</time>
      </trkpt>
      <trkpt lat="42.98584" lon="-0.23339">
        <ele>1502.4</ele>
        <time>2020-09-03T08:18:25Z</time>
      </trkpt>
      <trkpt lat="42.98584" lon="-0.2334">
        <ele>1502</ele>
        <time>2020-09-03T08:18:36Z</time>
      </trkpt>
      <trkpt lat="42.98585" lon="-0.23341">
        <ele>1502</ele>
        <time>2020-09-03T08:18:38Z</time>
      </trkpt>
      <trkpt lat="42.98585" lon="-0.23342">
        <ele>1502</ele>
        <time>2020-09-03T08:18:43Z</time>
      </trkpt>
      <trkpt lat="42.98587" lon="-0.23345">
        <ele>1501.8</ele>
        <time>2020-09-03T08:19:10Z</time>
      </trkpt>
      <trkpt lat="42.98589" lon="-0.23353">
        <ele>1501.8</ele>
        <time>2020-09-03T08:19:13Z</time>
      </trkpt>
      <trkpt lat="42.9859" lon="-0.23374">
        <ele>1501.6</ele>
        <time>2020-09-03T08:19:18Z</time>
      </trkpt>
      <trkpt lat="42.98589" lon="-0.2338">
        <ele>1501.6</ele>
        <time>2020-09-03T08:19:19Z</time>
      </trkpt>
      <trkpt lat="42.98589" lon="-0.23386">
        <ele>1501.4</ele>
        <time>2020-09-03T08:19:20Z</time>
      </trkpt>
      <trkpt lat="42.98587" lon="-0.23407">
        <ele>1500.8</ele>
        <time>2020-09-03T08:19:23Z</time>
      </trkpt>
      <trkpt lat="42.98586" lon="-0.23422">
        <ele>1500.6</ele>
        <time>2020-09-03T08:19:25Z</time>
      </trkpt>
      <trkpt lat="42.98586" lon="-0.2343">
        <ele>1500.4</ele>
        <time>2020-09-03T08:19:26Z</time>
      </trkpt>
      <trkpt lat="42.98583" lon="-0.23447">
        <ele>1500</ele>
        <time>2020-09-03T08:19:28Z</time>
      </trkpt>
      <trkpt lat="42.98574" lon="-0.23475">
        <ele>1499</ele>
        <time>2020-09-03T08:19:31Z</time>
      </trkpt>
      <trkpt lat="42.98571" lon="-0.23484">
        <ele>1498.4</ele>
        <time>2020-09-03T08:19:32Z</time>
      </trkpt>
      <trkpt lat="42.98568" lon="-0.23493">
        <ele>1498</ele>
        <time>2020-09-03T08:19:33Z</time>
      </trkpt>
      <trkpt lat="42.98564" lon="-0.23502">
        <ele>1497.6</ele>
        <time>2020-09-03T08:19:34Z</time>
      </trkpt>
      <trkpt lat="42.98555" lon="-0.2352">
        <ele>1497</ele>
        <time>2020-09-03T08:19:36Z</time>
      </trkpt>
      <trkpt lat="42.98552" lon="-0.2353">
        <ele>1496.6</ele>
        <time>2020-09-03T08:19:37Z</time>
      </trkpt>
      <trkpt lat="42.98552" lon="-0.2354">
        <ele>1495.8</ele>
        <time>2020-09-03T08:19:38Z</time>
      </trkpt>
      <trkpt lat="42.98553" lon="-0.23551">
        <ele>1495.2</ele>
        <time>2020-09-03T08:19:39Z</time>
      </trkpt>
      <trkpt lat="42.98553" lon="-0.23562">
        <ele>1494.4</ele>
        <time>2020-09-03T08:19:40Z</time>
      </trkpt>
      <trkpt lat="42.98552" lon="-0.23573">
        <ele>1494</ele>
        <time>2020-09-03T08:19:41Z</time>
      </trkpt>
      <trkpt lat="42.98551" lon="-0.23597">
        <ele>1492.6</ele>
        <time>2020-09-03T08:19:43Z</time>
      </trkpt>
      <trkpt lat="42.98552" lon="-0.23609">
        <ele>1492.2</ele>
        <time>2020-09-03T08:19:44Z</time>
      </trkpt>
      <trkpt lat="42.98553" lon="-0.2362">
        <ele>1491.4</ele>
        <time>2020-09-03T08:19:45Z</time>
      </trkpt>
      <trkpt lat="42.98556" lon="-0.23631">
        <ele>1491.2</ele>
        <time>2020-09-03T08:19:46Z</time>
      </trkpt>
      <trkpt lat="42.98559" lon="-0.2365">
        <ele>1490</ele>
        <time>2020-09-03T08:19:48Z</time>
      </trkpt>
      <trkpt lat="42.98559" lon="-0.2366">
        <ele>1489.2</ele>
        <time>2020-09-03T08:19:49Z</time>
      </trkpt>
      <trkpt lat="42.98559" lon="-0.23671">
        <ele>1488.8</ele>
        <time>2020-09-03T08:19:50Z</time>
      </trkpt>
      <trkpt lat="42.9856" lon="-0.23682">
        <ele>1487.8</ele>
        <time>2020-09-03T08:19:51Z</time>
      </trkpt>
      <trkpt lat="42.98561" lon="-0.23695">
        <ele>1487.4</ele>
        <time>2020-09-03T08:19:52Z</time>
      </trkpt>
      <trkpt lat="42.98562" lon="-0.23708">
        <ele>1486.4</ele>
        <time>2020-09-03T08:19:53Z</time>
      </trkpt>
      <trkpt lat="42.98566" lon="-0.23735">
        <ele>1485</ele>
        <time>2020-09-03T08:19:55Z</time>
      </trkpt>
      <trkpt lat="42.98569" lon="-0.23747">
        <ele>1484.6</ele>
        <time>2020-09-03T08:19:56Z</time>
      </trkpt>
      <trkpt lat="42.98575" lon="-0.23772">
        <ele>1483.8</ele>
        <time>2020-09-03T08:19:58Z</time>
      </trkpt>
      <trkpt lat="42.98578" lon="-0.23785">
        <ele>1483.6</ele>
        <time>2020-09-03T08:19:59Z</time>
      </trkpt>
      <trkpt lat="42.98585" lon="-0.23811">
        <ele>1483.4</ele>
        <time>2020-09-03T08:20:01Z</time>
      </trkpt>
      <trkpt lat="42.98589" lon="-0.23823">
        <ele>1482.4</ele>
        <time>2020-09-03T08:20:02Z</time>
      </trkpt>
      <trkpt lat="42.98594" lon="-0.23834">
        <ele>1482</ele>
        <time>2020-09-03T08:20:03Z</time>
      </trkpt>
      <trkpt lat="42.986" lon="-0.23844">
        <ele>1480.4</ele>
        <time>2020-09-03T08:20:04Z</time>
      </trkpt>
      <trkpt lat="42.98606" lon="-0.23853">
        <ele>1479.6</ele>
        <time>2020-09-03T08:20:05Z</time>
      </trkpt>
      <trkpt lat="42.98613" lon="-0.23861">
        <ele>1478.4</ele>
        <time>2020-09-03T08:20:06Z</time>
      </trkpt>
      <trkpt lat="42.9862" lon="-0.23868">
        <ele>1478</ele>
        <time>2020-09-03T08:20:07Z</time>
      </trkpt>
      <trkpt lat="42.98628" lon="-0.23875">
        <ele>1477.2</ele>
        <time>2020-09-03T08:20:08Z</time>
      </trkpt>
      <trkpt lat="42.98636" lon="-0.23882">
        <ele>1476.8</ele>
        <time>2020-09-03T08:20:09Z</time>
      </trkpt>
      <trkpt lat="42.98644" lon="-0.2389">
        <ele>1475.4</ele>
        <time>2020-09-03T08:20:10Z</time>
      </trkpt>
      <trkpt lat="42.9865" lon="-0.23898">
        <ele>1475.2</ele>
        <time>2020-09-03T08:20:11Z</time>
      </trkpt>
      <trkpt lat="42.98656" lon="-0.23908">
        <ele>1474.6</ele>
        <time>2020-09-03T08:20:12Z</time>
      </trkpt>
      <trkpt lat="42.9866" lon="-0.23917">
        <ele>1474.4</ele>
        <time>2020-09-03T08:20:13Z</time>
      </trkpt>
      <trkpt lat="42.98661" lon="-0.23927">
        <ele>1474.2</ele>
        <time>2020-09-03T08:20:14Z</time>
      </trkpt>
      <trkpt lat="42.98662" lon="-0.23937">
        <ele>1473.2</ele>
        <time>2020-09-03T08:20:15Z</time>
      </trkpt>
      <trkpt lat="42.98663" lon="-0.23947">
        <ele>1472.6</ele>
        <time>2020-09-03T08:20:16Z</time>
      </trkpt>
      <trkpt lat="42.98663" lon="-0.23955">
        <ele>1472.2</ele>
        <time>2020-09-03T08:20:17Z</time>
      </trkpt>
      <trkpt lat="42.98664" lon="-0.23967">
        <ele>1471.8</ele>
        <time>2020-09-03T08:20:18Z</time>
      </trkpt>
      <trkpt lat="42.98663" lon="-0.23987">
        <ele>1471.2</ele>
        <time>2020-09-03T08:20:20Z</time>
      </trkpt>
      <trkpt lat="42.98662" lon="-0.23997">
        <ele>1471</ele>
        <time>2020-09-03T08:20:21Z</time>
      </trkpt>
      <trkpt lat="42.98661" lon="-0.24007">
        <ele>1471</ele>
        <time>2020-09-03T08:20:22Z</time>
      </trkpt>
      <trkpt lat="42.98656" lon="-0.24038">
        <ele>1470</ele>
        <time>2020-09-03T08:20:25Z</time>
      </trkpt>
      <trkpt lat="42.9865" lon="-0.24068">
        <ele>1469.2</ele>
        <time>2020-09-03T08:20:28Z</time>
      </trkpt>
      <trkpt lat="42.98644" lon="-0.24088">
        <ele>1468.8</ele>
        <time>2020-09-03T08:20:30Z</time>
      </trkpt>
      <trkpt lat="42.9864" lon="-0.2411">
        <ele>1467.2</ele>
        <time>2020-09-03T08:20:32Z</time>
      </trkpt>
      <trkpt lat="42.98638" lon="-0.24133">
        <ele>1465.8</ele>
        <time>2020-09-03T08:20:34Z</time>
      </trkpt>
      <trkpt lat="42.98637" lon="-0.24168">
        <ele>1464.4</ele>
        <time>2020-09-03T08:20:37Z</time>
      </trkpt>
      <trkpt lat="42.98636" lon="-0.24179">
        <ele>1464.2</ele>
        <time>2020-09-03T08:20:38Z</time>
      </trkpt>
      <trkpt lat="42.98634" lon="-0.2419">
        <ele>1463.4</ele>
        <time>2020-09-03T08:20:39Z</time>
      </trkpt>
      <trkpt lat="42.98632" lon="-0.24211">
        <ele>1461.6</ele>
        <time>2020-09-03T08:20:41Z</time>
      </trkpt>
      <trkpt lat="42.98631" lon="-0.2422">
        <ele>1461</ele>
        <time>2020-09-03T08:20:42Z</time>
      </trkpt>
      <trkpt lat="42.9863" lon="-0.2423">
        <ele>1460</ele>
        <time>2020-09-03T08:20:43Z</time>
      </trkpt>
      <trkpt lat="42.9863" lon="-0.2424">
        <ele>1459.2</ele>
        <time>2020-09-03T08:20:44Z</time>
      </trkpt>
      <trkpt lat="42.98631" lon="-0.2425">
        <ele>1458</ele>
        <time>2020-09-03T08:20:45Z</time>
      </trkpt>
      <trkpt lat="42.98631" lon="-0.24261">
        <ele>1457.2</ele>
        <time>2020-09-03T08:20:46Z</time>
      </trkpt>
      <trkpt lat="42.98631" lon="-0.24271">
        <ele>1456</ele>
        <time>2020-09-03T08:20:47Z</time>
      </trkpt>
      <trkpt lat="42.98632" lon="-0.24293">
        <ele>1455.2</ele>
        <time>2020-09-03T08:20:49Z</time>
      </trkpt>
      <trkpt lat="42.98631" lon="-0.24303">
        <ele>1455</ele>
        <time>2020-09-03T08:20:50Z</time>
      </trkpt>
      <trkpt lat="42.98629" lon="-0.24336">
        <ele>1453.4</ele>
        <time>2020-09-03T08:20:53Z</time>
      </trkpt>
      <trkpt lat="42.98629" lon="-0.24348">
        <ele>1453</ele>
        <time>2020-09-03T08:20:54Z</time>
      </trkpt>
      <trkpt lat="42.98628" lon="-0.24359">
        <ele>1452.6</ele>
        <time>2020-09-03T08:20:55Z</time>
      </trkpt>
      <trkpt lat="42.98627" lon="-0.2437">
        <ele>1451.8</ele>
        <time>2020-09-03T08:20:56Z</time>
      </trkpt>
      <trkpt lat="42.98626" lon="-0.24381">
        <ele>1451</ele>
        <time>2020-09-03T08:20:57Z</time>
      </trkpt>
      <trkpt lat="42.98625" lon="-0.24392">
        <ele>1450</ele>
        <time>2020-09-03T08:20:58Z</time>
      </trkpt>
      <trkpt lat="42.98625" lon="-0.24402">
        <ele>1449.6</ele>
        <time>2020-09-03T08:20:59Z</time>
      </trkpt>
      <trkpt lat="42.98624" lon="-0.24412">
        <ele>1449</ele>
        <time>2020-09-03T08:21:00Z</time>
      </trkpt>
      <trkpt lat="42.98624" lon="-0.24421">
        <ele>1448.6</ele>
        <time>2020-09-03T08:21:01Z</time>
      </trkpt>
      <trkpt lat="42.98624" lon="-0.2443">
        <ele>1448.2</ele>
        <time>2020-09-03T08:21:02Z</time>
      </trkpt>
      <trkpt lat="42.98625" lon="-0.24438">
        <ele>1448</ele>
        <time>2020-09-03T08:21:03Z</time>
      </trkpt>
      <trkpt lat="42.98626" lon="-0.24445">
        <ele>1447.4</ele>
        <time>2020-09-03T08:21:04Z</time>
      </trkpt>
      <trkpt lat="42.98626" lon="-0.24452">
        <ele>1447</ele>
        <time>2020-09-03T08:21:05Z</time>
      </trkpt>
      <trkpt lat="42.98627" lon="-0.2446">
        <ele>1447</ele>
        <time>2020-09-03T08:21:06Z</time>
      </trkpt>
      <trkpt lat="42.98628" lon="-0.24466">
        <ele>1447</ele>
        <time>2020-09-03T08:21:07Z</time>
      </trkpt>
      <trkpt lat="42.98628" lon="-0.24473">
        <ele>1446.8</ele>
        <time>2020-09-03T08:21:08Z</time>
      </trkpt>
      <trkpt lat="42.98628" lon="-0.2448">
        <ele>1446.8</ele>
        <time>2020-09-03T08:21:09Z</time>
      </trkpt>
      <trkpt lat="42.98628" lon="-0.24494">
        <ele>1447</ele>
        <time>2020-09-03T08:21:11Z</time>
      </trkpt>
      <trkpt lat="42.98629" lon="-0.24508">
        <ele>1447.2</ele>
        <time>2020-09-03T08:21:13Z</time>
      </trkpt>
      <trkpt lat="42.98632" lon="-0.24526">
        <ele>1447.6</ele>
        <time>2020-09-03T08:21:16Z</time>
      </trkpt>
      <trkpt lat="42.98633" lon="-0.24533">
        <ele>1447.6</ele>
        <time>2020-09-03T08:21:17Z</time>
      </trkpt>
      <trkpt lat="42.98634" lon="-0.24545">
        <ele>1448</ele>
        <time>2020-09-03T08:21:19Z</time>
      </trkpt>
      <trkpt lat="42.98634" lon="-0.24551">
        <ele>1448.2</ele>
        <time>2020-09-03T08:21:20Z</time>
      </trkpt>
      <trkpt lat="42.98633" lon="-0.24556">
        <ele>1448.2</ele>
        <time>2020-09-03T08:21:21Z</time>
      </trkpt>
      <trkpt lat="42.98633" lon="-0.24562">
        <ele>1448.4</ele>
        <time>2020-09-03T08:21:22Z</time>
      </trkpt>
      <trkpt lat="42.98632" lon="-0.24567">
        <ele>1448.4</ele>
        <time>2020-09-03T08:21:23Z</time>
      </trkpt>
      <trkpt lat="42.98631" lon="-0.24572">
        <ele>1448.6</ele>
        <time>2020-09-03T08:21:24Z</time>
      </trkpt>
      <trkpt lat="42.98631" lon="-0.24575">
        <ele>1449</ele>
        <time>2020-09-03T08:21:25Z</time>
      </trkpt>
      <trkpt lat="42.98626" lon="-0.24588">
        <ele>1449.6</ele>
        <time>2020-09-03T08:21:28Z</time>
      </trkpt>
      <trkpt lat="42.98624" lon="-0.2459">
        <ele>1449.8</ele>
        <time>2020-09-03T08:21:29Z</time>
      </trkpt>
      <trkpt lat="42.98621" lon="-0.24593">
        <ele>1450.2</ele>
        <time>2020-09-03T08:21:30Z</time>
      </trkpt>
      <trkpt lat="42.98618" lon="-0.24594">
        <ele>1450.4</ele>
        <time>2020-09-03T08:21:31Z</time>
      </trkpt>
      <trkpt lat="42.98615" lon="-0.24596">
        <ele>1450.6</ele>
        <time>2020-09-03T08:21:32Z</time>
      </trkpt>
      <trkpt lat="42.98611" lon="-0.24597">
        <ele>1450.6</ele>
        <time>2020-09-03T08:21:33Z</time>
      </trkpt>
      <trkpt lat="42.98608" lon="-0.24598">
        <ele>1450.8</ele>
        <time>2020-09-03T08:21:34Z</time>
      </trkpt>
      <trkpt lat="42.98605" lon="-0.24599">
        <ele>1451</ele>
        <time>2020-09-03T08:21:35Z</time>
      </trkpt>
      <trkpt lat="42.98602" lon="-0.24599">
        <ele>1451</ele>
        <time>2020-09-03T08:21:36Z</time>
      </trkpt>
      <trkpt lat="42.98599" lon="-0.246">
        <ele>1451.2</ele>
        <time>2020-09-03T08:21:37Z</time>
      </trkpt>
      <trkpt lat="42.98597" lon="-0.24601">
        <ele>1451.4</ele>
        <time>2020-09-03T08:21:38Z</time>
      </trkpt>
      <trkpt lat="42.98594" lon="-0.24601">
        <ele>1451.4</ele>
        <time>2020-09-03T08:21:39Z</time>
      </trkpt>
      <trkpt lat="42.98588" lon="-0.24602">
        <ele>1452</ele>
        <time>2020-09-03T08:21:41Z</time>
      </trkpt>
      <trkpt lat="42.98586" lon="-0.24603">
        <ele>1452.2</ele>
        <time>2020-09-03T08:21:42Z</time>
      </trkpt>
      <trkpt lat="42.98583" lon="-0.24604">
        <ele>1452.4</ele>
        <time>2020-09-03T08:21:43Z</time>
      </trkpt>
      <trkpt lat="42.98581" lon="-0.24604">
        <ele>1452.4</ele>
        <time>2020-09-03T08:21:44Z</time>
      </trkpt>
      <trkpt lat="42.98578" lon="-0.24604">
        <ele>1452.8</ele>
        <time>2020-09-03T08:21:45Z</time>
      </trkpt>
      <trkpt lat="42.98576" lon="-0.24605">
        <ele>1452.8</ele>
        <time>2020-09-03T08:21:46Z</time>
      </trkpt>
      <trkpt lat="42.98573" lon="-0.24605">
        <ele>1453</ele>
        <time>2020-09-03T08:21:47Z</time>
      </trkpt>
      <trkpt lat="42.98571" lon="-0.24606">
        <ele>1453</ele>
        <time>2020-09-03T08:21:48Z</time>
      </trkpt>
      <trkpt lat="42.98568" lon="-0.24606">
        <ele>1453.2</ele>
        <time>2020-09-03T08:21:49Z</time>
      </trkpt>
      <trkpt lat="42.98565" lon="-0.24606">
        <ele>1453.4</ele>
        <time>2020-09-03T08:21:50Z</time>
      </trkpt>
      <trkpt lat="42.98562" lon="-0.24606">
        <ele>1453.6</ele>
        <time>2020-09-03T08:21:51Z</time>
      </trkpt>
      <trkpt lat="42.98559" lon="-0.24606">
        <ele>1453.6</ele>
        <time>2020-09-03T08:21:52Z</time>
      </trkpt>
      <trkpt lat="42.98556" lon="-0.24605">
        <ele>1453.8</ele>
        <time>2020-09-03T08:21:53Z</time>
      </trkpt>
      <trkpt lat="42.98553" lon="-0.24605">
        <ele>1453.8</ele>
        <time>2020-09-03T08:21:54Z</time>
      </trkpt>
      <trkpt lat="42.9855" lon="-0.24605">
        <ele>1454</ele>
        <time>2020-09-03T08:21:55Z</time>
      </trkpt>
      <trkpt lat="42.98548" lon="-0.24604">
        <ele>1454.2</ele>
        <time>2020-09-03T08:21:56Z</time>
      </trkpt>
      <trkpt lat="42.98546" lon="-0.24603">
        <ele>1454.4</ele>
        <time>2020-09-03T08:21:57Z</time>
      </trkpt>
      <trkpt lat="42.98543" lon="-0.24602">
        <ele>1454.6</ele>
        <time>2020-09-03T08:21:58Z</time>
      </trkpt>
      <trkpt lat="42.98541" lon="-0.24601">
        <ele>1454.6</ele>
        <time>2020-09-03T08:21:59Z</time>
      </trkpt>
      <trkpt lat="42.98539" lon="-0.24599">
        <ele>1455</ele>
        <time>2020-09-03T08:22:00Z</time>
      </trkpt>
      <trkpt lat="42.98537" lon="-0.24598">
        <ele>1455</ele>
        <time>2020-09-03T08:22:01Z</time>
      </trkpt>
      <trkpt lat="42.98535" lon="-0.24597">
        <ele>1455.2</ele>
        <time>2020-09-03T08:22:02Z</time>
      </trkpt>
      <trkpt lat="42.98532" lon="-0.24596">
        <ele>1455.4</ele>
        <time>2020-09-03T08:22:03Z</time>
      </trkpt>
      <trkpt lat="42.98531" lon="-0.24594">
        <ele>1455.4</ele>
        <time>2020-09-03T08:22:04Z</time>
      </trkpt>
      <trkpt lat="42.98529" lon="-0.24593">
        <ele>1455.4</ele>
        <time>2020-09-03T08:22:05Z</time>
      </trkpt>
      <trkpt lat="42.98528" lon="-0.24591">
        <ele>1455.6</ele>
        <time>2020-09-03T08:22:06Z</time>
      </trkpt>
      <trkpt lat="42.98526" lon="-0.24589">
        <ele>1456</ele>
        <time>2020-09-03T08:22:07Z</time>
      </trkpt>
      <trkpt lat="42.98524" lon="-0.24587">
        <ele>1456.2</ele>
        <time>2020-09-03T08:22:08Z</time>
      </trkpt>
      <trkpt lat="42.98523" lon="-0.24585">
        <ele>1456.2</ele>
        <time>2020-09-03T08:22:09Z</time>
      </trkpt>
      <trkpt lat="42.98521" lon="-0.24583">
        <ele>1456.4</ele>
        <time>2020-09-03T08:22:10Z</time>
      </trkpt>
      <trkpt lat="42.9852" lon="-0.2458">
        <ele>1456.6</ele>
        <time>2020-09-03T08:22:11Z</time>
      </trkpt>
      <trkpt lat="42.98519" lon="-0.24577">
        <ele>1456.8</ele>
        <time>2020-09-03T08:22:12Z</time>
      </trkpt>
      <trkpt lat="42.98517" lon="-0.24575">
        <ele>1456.8</ele>
        <time>2020-09-03T08:22:13Z</time>
      </trkpt>
      <trkpt lat="42.98516" lon="-0.24572">
        <ele>1457</ele>
        <time>2020-09-03T08:22:14Z</time>
      </trkpt>
      <trkpt lat="42.98514" lon="-0.2457">
        <ele>1457.2</ele>
        <time>2020-09-03T08:22:15Z</time>
      </trkpt>
      <trkpt lat="42.98513" lon="-0.24568">
        <ele>1457.4</ele>
        <time>2020-09-03T08:22:16Z</time>
      </trkpt>
      <trkpt lat="42.98511" lon="-0.24565">
        <ele>1457.8</ele>
        <time>2020-09-03T08:22:17Z</time>
      </trkpt>
      <trkpt lat="42.9851" lon="-0.24563">
        <ele>1458</ele>
        <time>2020-09-03T08:22:18Z</time>
      </trkpt>
      <trkpt lat="42.98508" lon="-0.24561">
        <ele>1458.2</ele>
        <time>2020-09-03T08:22:19Z</time>
      </trkpt>
      <trkpt lat="42.98507" lon="-0.24558">
        <ele>1458.6</ele>
        <time>2020-09-03T08:22:20Z</time>
      </trkpt>
      <trkpt lat="42.98506" lon="-0.24556">
        <ele>1458.8</ele>
        <time>2020-09-03T08:22:21Z</time>
      </trkpt>
      <trkpt lat="42.98504" lon="-0.24554">
        <ele>1459</ele>
        <time>2020-09-03T08:22:22Z</time>
      </trkpt>
      <trkpt lat="42.98503" lon="-0.24552">
        <ele>1459.2</ele>
        <time>2020-09-03T08:22:23Z</time>
      </trkpt>
      <trkpt lat="42.98501" lon="-0.24549">
        <ele>1459.4</ele>
        <time>2020-09-03T08:22:24Z</time>
      </trkpt>
      <trkpt lat="42.985" lon="-0.24547">
        <ele>1459.8</ele>
        <time>2020-09-03T08:22:25Z</time>
      </trkpt>
      <trkpt lat="42.98498" lon="-0.24545">
        <ele>1460</ele>
        <time>2020-09-03T08:22:26Z</time>
      </trkpt>
      <trkpt lat="42.98497" lon="-0.24543">
        <ele>1460.2</ele>
        <time>2020-09-03T08:22:27Z</time>
      </trkpt>
      <trkpt lat="42.98495" lon="-0.24541">
        <ele>1460.4</ele>
        <time>2020-09-03T08:22:28Z</time>
      </trkpt>
      <trkpt lat="42.98494" lon="-0.24539">
        <ele>1460.6</ele>
        <time>2020-09-03T08:22:29Z</time>
      </trkpt>
      <trkpt lat="42.98492" lon="-0.24537">
        <ele>1460.8</ele>
        <time>2020-09-03T08:22:30Z</time>
      </trkpt>
      <trkpt lat="42.9849" lon="-0.24535">
        <ele>1460.8</ele>
        <time>2020-09-03T08:22:31Z</time>
      </trkpt>
      <trkpt lat="42.98489" lon="-0.24534">
        <ele>1461</ele>
        <time>2020-09-03T08:22:32Z</time>
      </trkpt>
      <trkpt lat="42.98488" lon="-0.24532">
        <ele>1461.2</ele>
        <time>2020-09-03T08:22:33Z</time>
      </trkpt>
      <trkpt lat="42.98486" lon="-0.2453">
        <ele>1461.2</ele>
        <time>2020-09-03T08:22:34Z</time>
      </trkpt>
      <trkpt lat="42.98485" lon="-0.24528">
        <ele>1461.4</ele>
        <time>2020-09-03T08:22:35Z</time>
      </trkpt>
      <trkpt lat="42.98483" lon="-0.24527">
        <ele>1461.8</ele>
        <time>2020-09-03T08:22:36Z</time>
      </trkpt>
      <trkpt lat="42.98482" lon="-0.24525">
        <ele>1462</ele>
        <time>2020-09-03T08:22:37Z</time>
      </trkpt>
      <trkpt lat="42.9848" lon="-0.24523">
        <ele>1462.2</ele>
        <time>2020-09-03T08:22:38Z</time>
      </trkpt>
      <trkpt lat="42.98479" lon="-0.24521">
        <ele>1462.4</ele>
        <time>2020-09-03T08:22:39Z</time>
      </trkpt>
      <trkpt lat="42.98477" lon="-0.2452">
        <ele>1462.6</ele>
        <time>2020-09-03T08:22:40Z</time>
      </trkpt>
      <trkpt lat="42.98476" lon="-0.24518">
        <ele>1462.6</ele>
        <time>2020-09-03T08:22:41Z</time>
      </trkpt>
      <trkpt lat="42.98474" lon="-0.24516">
        <ele>1463</ele>
        <time>2020-09-03T08:22:42Z</time>
      </trkpt>
      <trkpt lat="42.98473" lon="-0.24515">
        <ele>1463.2</ele>
        <time>2020-09-03T08:22:43Z</time>
      </trkpt>
      <trkpt lat="42.98471" lon="-0.24513">
        <ele>1463.2</ele>
        <time>2020-09-03T08:22:44Z</time>
      </trkpt>
      <trkpt lat="42.98469" lon="-0.24511">
        <ele>1463.6</ele>
        <time>2020-09-03T08:22:45Z</time>
      </trkpt>
      <trkpt lat="42.98467" lon="-0.2451">
        <ele>1463.6</ele>
        <time>2020-09-03T08:22:46Z</time>
      </trkpt>
      <trkpt lat="42.98466" lon="-0.24508">
        <ele>1463.6</ele>
        <time>2020-09-03T08:22:47Z</time>
      </trkpt>
      <trkpt lat="42.98463" lon="-0.24506">
        <ele>1463.8</ele>
        <time>2020-09-03T08:22:48Z</time>
      </trkpt>
      <trkpt lat="42.98461" lon="-0.24505">
        <ele>1463.8</ele>
        <time>2020-09-03T08:22:49Z</time>
      </trkpt>
      <trkpt lat="42.9846" lon="-0.24503">
        <ele>1463.8</ele>
        <time>2020-09-03T08:22:50Z</time>
      </trkpt>
      <trkpt lat="42.98458" lon="-0.24502">
        <ele>1464</ele>
        <time>2020-09-03T08:22:51Z</time>
      </trkpt>
      <trkpt lat="42.98456" lon="-0.245">
        <ele>1464</ele>
        <time>2020-09-03T08:22:52Z</time>
      </trkpt>
      <trkpt lat="42.98454" lon="-0.24499">
        <ele>1464.2</ele>
        <time>2020-09-03T08:22:53Z</time>
      </trkpt>
      <trkpt lat="42.98452" lon="-0.24497">
        <ele>1464.2</ele>
        <time>2020-09-03T08:22:54Z</time>
      </trkpt>
      <trkpt lat="42.98451" lon="-0.24495">
        <ele>1464.4</ele>
        <time>2020-09-03T08:22:55Z</time>
      </trkpt>
      <trkpt lat="42.98449" lon="-0.24493">
        <ele>1464.4</ele>
        <time>2020-09-03T08:22:56Z</time>
      </trkpt>
      <trkpt lat="42.98447" lon="-0.24492">
        <ele>1464.6</ele>
        <time>2020-09-03T08:22:57Z</time>
      </trkpt>
      <trkpt lat="42.98446" lon="-0.2449">
        <ele>1464.6</ele>
        <time>2020-09-03T08:22:58Z</time>
      </trkpt>
      <trkpt lat="42.98444" lon="-0.24488">
        <ele>1464.8</ele>
        <time>2020-09-03T08:22:59Z</time>
      </trkpt>
      <trkpt lat="42.98442" lon="-0.24487">
        <ele>1464.8</ele>
        <time>2020-09-03T08:23:00Z</time>
      </trkpt>
      <trkpt lat="42.9844" lon="-0.24485">
        <ele>1465</ele>
        <time>2020-09-03T08:23:01Z</time>
      </trkpt>
      <trkpt lat="42.98439" lon="-0.24483">
        <ele>1465</ele>
        <time>2020-09-03T08:23:02Z</time>
      </trkpt>
      <trkpt lat="42.98437" lon="-0.24481">
        <ele>1465.2</ele>
        <time>2020-09-03T08:23:03Z</time>
      </trkpt>
      <trkpt lat="42.98435" lon="-0.24479">
        <ele>1465.2</ele>
        <time>2020-09-03T08:23:04Z</time>
      </trkpt>
      <trkpt lat="42.98433" lon="-0.24478">
        <ele>1465.2</ele>
        <time>2020-09-03T08:23:05Z</time>
      </trkpt>
      <trkpt lat="42.98431" lon="-0.24476">
        <ele>1465.2</ele>
        <time>2020-09-03T08:23:06Z</time>
      </trkpt>
      <trkpt lat="42.98429" lon="-0.24475">
        <ele>1465.2</ele>
        <time>2020-09-03T08:23:07Z</time>
      </trkpt>
      <trkpt lat="42.98427" lon="-0.24474">
        <ele>1465.2</ele>
        <time>2020-09-03T08:23:08Z</time>
      </trkpt>
      <trkpt lat="42.98426" lon="-0.24473">
        <ele>1465.2</ele>
        <time>2020-09-03T08:23:09Z</time>
      </trkpt>
      <trkpt lat="42.98424" lon="-0.24472">
        <ele>1465.2</ele>
        <time>2020-09-03T08:23:10Z</time>
      </trkpt>
      <trkpt lat="42.98423" lon="-0.24472">
        <ele>1465.2</ele>
        <time>2020-09-03T08:23:11Z</time>
      </trkpt>
      <trkpt lat="42.98423" lon="-0.24472">
        <ele>1465.2</ele>
        <time>2020-09-03T08:23:12Z</time>
      </trkpt>
      <trkpt lat="42.98423" lon="-0.24472">
        <ele>1465.4</ele>
        <time>2020-09-03T08:23:13Z</time>
      </trkpt>
      <trkpt lat="42.98423" lon="-0.24472">
        <ele>1465.4</ele>
        <time>2020-09-03T08:23:14Z</time>
      </trkpt>
      <trkpt lat="42.98423" lon="-0.24472">
        <ele>1465.6</ele>
        <time>2020-09-03T08:23:19Z</time>
      </trkpt>
      <trkpt lat="42.98422" lon="-0.24472">
        <ele>1465.6</ele>
        <time>2020-09-03T08:23:22Z</time>
      </trkpt>
      <trkpt lat="42.98422" lon="-0.24472">
        <ele>1465.8</ele>
        <time>2020-09-03T08:23:38Z</time>
      </trkpt>
      <trkpt lat="42.98422" lon="-0.24472">
        <ele>1465.8</ele>
        <time>2020-09-03T08:23:43Z</time>
      </trkpt>
      <trkpt lat="42.98419" lon="-0.24472">
        <ele>1465.6</ele>
        <time>2020-09-03T08:23:51Z</time>
      </trkpt>
      <trkpt lat="42.98417" lon="-0.24472">
        <ele>1465.6</ele>
        <time>2020-09-03T08:23:52Z</time>
      </trkpt>
      <trkpt lat="42.98409" lon="-0.24468">
        <ele>1465.6</ele>
        <time>2020-09-03T08:23:55Z</time>
      </trkpt>
      <trkpt lat="42.98406" lon="-0.24466">
        <ele>1465.6</ele>
        <time>2020-09-03T08:23:56Z</time>
      </trkpt>
      <trkpt lat="42.98398" lon="-0.24462">
        <ele>1466</ele>
        <time>2020-09-03T08:23:59Z</time>
      </trkpt>
      <trkpt lat="42.9839" lon="-0.24458">
        <ele>1466.2</ele>
        <time>2020-09-03T08:24:02Z</time>
      </trkpt>
      <trkpt lat="42.98372" lon="-0.24453">
        <ele>1467.2</ele>
        <time>2020-09-03T08:24:08Z</time>
      </trkpt>
      <trkpt lat="42.98366" lon="-0.2445">
        <ele>1467.4</ele>
        <time>2020-09-03T08:24:10Z</time>
      </trkpt>
      <trkpt lat="42.98352" lon="-0.24447">
        <ele>1467.8</ele>
        <time>2020-09-03T08:24:15Z</time>
      </trkpt>
      <trkpt lat="42.98344" lon="-0.24448">
        <ele>1468</ele>
        <time>2020-09-03T08:24:18Z</time>
      </trkpt>
      <trkpt lat="42.98341" lon="-0.24448">
        <ele>1468.2</ele>
        <time>2020-09-03T08:24:19Z</time>
      </trkpt>
      <trkpt lat="42.98339" lon="-0.24448">
        <ele>1468.2</ele>
        <time>2020-09-03T08:24:20Z</time>
      </trkpt>
      <trkpt lat="42.98336" lon="-0.24449">
        <ele>1468.2</ele>
        <time>2020-09-03T08:24:21Z</time>
      </trkpt>
      <trkpt lat="42.98334" lon="-0.24449">
        <ele>1468.2</ele>
        <time>2020-09-03T08:24:22Z</time>
      </trkpt>
      <trkpt lat="42.98331" lon="-0.2445">
        <ele>1468.4</ele>
        <time>2020-09-03T08:24:23Z</time>
      </trkpt>
      <trkpt lat="42.98329" lon="-0.2445">
        <ele>1468.6</ele>
        <time>2020-09-03T08:24:24Z</time>
      </trkpt>
      <trkpt lat="42.98327" lon="-0.24449">
        <ele>1468.8</ele>
        <time>2020-09-03T08:24:25Z</time>
      </trkpt>
      <trkpt lat="42.98325" lon="-0.24448">
        <ele>1468.8</ele>
        <time>2020-09-03T08:24:26Z</time>
      </trkpt>
      <trkpt lat="42.98323" lon="-0.24447">
        <ele>1468.8</ele>
        <time>2020-09-03T08:24:27Z</time>
      </trkpt>
      <trkpt lat="42.98321" lon="-0.24446">
        <ele>1468.8</ele>
        <time>2020-09-03T08:24:28Z</time>
      </trkpt>
      <trkpt lat="42.98314" lon="-0.2444">
        <ele>1469</ele>
        <time>2020-09-03T08:24:31Z</time>
      </trkpt>
      <trkpt lat="42.98309" lon="-0.24434">
        <ele>1469.2</ele>
        <time>2020-09-03T08:24:33Z</time>
      </trkpt>
      <trkpt lat="42.983" lon="-0.24423">
        <ele>1469</ele>
        <time>2020-09-03T08:24:36Z</time>
      </trkpt>
      <trkpt lat="42.98293" lon="-0.24419">
        <ele>1469</ele>
        <time>2020-09-03T08:24:38Z</time>
      </trkpt>
      <trkpt lat="42.9829" lon="-0.24418">
        <ele>1469</ele>
        <time>2020-09-03T08:24:39Z</time>
      </trkpt>
      <trkpt lat="42.98287" lon="-0.24418">
        <ele>1469</ele>
        <time>2020-09-03T08:24:40Z</time>
      </trkpt>
      <trkpt lat="42.98284" lon="-0.24419">
        <ele>1469</ele>
        <time>2020-09-03T08:24:41Z</time>
      </trkpt>
      <trkpt lat="42.98282" lon="-0.24421">
        <ele>1469</ele>
        <time>2020-09-03T08:24:42Z</time>
      </trkpt>
      <trkpt lat="42.9828" lon="-0.24423">
        <ele>1469</ele>
        <time>2020-09-03T08:24:43Z</time>
      </trkpt>
      <trkpt lat="42.98278" lon="-0.24426">
        <ele>1469.2</ele>
        <time>2020-09-03T08:24:44Z</time>
      </trkpt>
      <trkpt lat="42.98277" lon="-0.24429">
        <ele>1469.2</ele>
        <time>2020-09-03T08:24:45Z</time>
      </trkpt>
      <trkpt lat="42.98276" lon="-0.24432">
        <ele>1469.4</ele>
        <time>2020-09-03T08:24:46Z</time>
      </trkpt>
      <trkpt lat="42.98274" lon="-0.24435">
        <ele>1469.4</ele>
        <time>2020-09-03T08:24:47Z</time>
      </trkpt>
      <trkpt lat="42.98273" lon="-0.24439">
        <ele>1469.6</ele>
        <time>2020-09-03T08:24:48Z</time>
      </trkpt>
      <trkpt lat="42.98271" lon="-0.24442">
        <ele>1470</ele>
        <time>2020-09-03T08:24:49Z</time>
      </trkpt>
      <trkpt lat="42.98269" lon="-0.24445">
        <ele>1470.2</ele>
        <time>2020-09-03T08:24:50Z</time>
      </trkpt>
      <trkpt lat="42.98268" lon="-0.24448">
        <ele>1470.4</ele>
        <time>2020-09-03T08:24:51Z</time>
      </trkpt>
      <trkpt lat="42.9826" lon="-0.24457">
        <ele>1470.6</ele>
        <time>2020-09-03T08:24:54Z</time>
      </trkpt>
      <trkpt lat="42.98251" lon="-0.24468">
        <ele>1471.2</ele>
        <time>2020-09-03T08:24:58Z</time>
      </trkpt>
      <trkpt lat="42.98248" lon="-0.24473">
        <ele>1471.4</ele>
        <time>2020-09-03T08:25:00Z</time>
      </trkpt>
      <trkpt lat="42.98246" lon="-0.24475">
        <ele>1471.4</ele>
        <time>2020-09-03T08:25:01Z</time>
      </trkpt>
      <trkpt lat="42.98241" lon="-0.24477">
        <ele>1471.4</ele>
        <time>2020-09-03T08:25:03Z</time>
      </trkpt>
      <trkpt lat="42.98238" lon="-0.24477">
        <ele>1471.8</ele>
        <time>2020-09-03T08:25:04Z</time>
      </trkpt>
      <trkpt lat="42.98235" lon="-0.24477">
        <ele>1472</ele>
        <time>2020-09-03T08:25:05Z</time>
      </trkpt>
      <trkpt lat="42.98232" lon="-0.24476">
        <ele>1472.4</ele>
        <time>2020-09-03T08:25:06Z</time>
      </trkpt>
      <trkpt lat="42.98229" lon="-0.24476">
        <ele>1472.4</ele>
        <time>2020-09-03T08:25:07Z</time>
      </trkpt>
      <trkpt lat="42.98226" lon="-0.24476">
        <ele>1472.6</ele>
        <time>2020-09-03T08:25:08Z</time>
      </trkpt>
      <trkpt lat="42.98223" lon="-0.24476">
        <ele>1472.8</ele>
        <time>2020-09-03T08:25:09Z</time>
      </trkpt>
      <trkpt lat="42.98221" lon="-0.24476">
        <ele>1472.8</ele>
        <time>2020-09-03T08:25:10Z</time>
      </trkpt>
      <trkpt lat="42.98218" lon="-0.24476">
        <ele>1473</ele>
        <time>2020-09-03T08:25:11Z</time>
      </trkpt>
      <trkpt lat="42.98215" lon="-0.24476">
        <ele>1473.2</ele>
        <time>2020-09-03T08:25:12Z</time>
      </trkpt>
      <trkpt lat="42.98212" lon="-0.24477">
        <ele>1473.4</ele>
        <time>2020-09-03T08:25:13Z</time>
      </trkpt>
      <trkpt lat="42.9821" lon="-0.24478">
        <ele>1473.6</ele>
        <time>2020-09-03T08:25:14Z</time>
      </trkpt>
      <trkpt lat="42.98207" lon="-0.24479">
        <ele>1474</ele>
        <time>2020-09-03T08:25:15Z</time>
      </trkpt>
      <trkpt lat="42.98205" lon="-0.24481">
        <ele>1474</ele>
        <time>2020-09-03T08:25:16Z</time>
      </trkpt>
      <trkpt lat="42.98202" lon="-0.24482">
        <ele>1474.2</ele>
        <time>2020-09-03T08:25:17Z</time>
      </trkpt>
      <trkpt lat="42.98199" lon="-0.24483">
        <ele>1474.4</ele>
        <time>2020-09-03T08:25:18Z</time>
      </trkpt>
      <trkpt lat="42.98196" lon="-0.24484">
        <ele>1474.8</ele>
        <time>2020-09-03T08:25:19Z</time>
      </trkpt>
      <trkpt lat="42.98194" lon="-0.24486">
        <ele>1475</ele>
        <time>2020-09-03T08:25:20Z</time>
      </trkpt>
      <trkpt lat="42.98191" lon="-0.24487">
        <ele>1475.2</ele>
        <time>2020-09-03T08:25:21Z</time>
      </trkpt>
      <trkpt lat="42.98188" lon="-0.24488">
        <ele>1475.2</ele>
        <time>2020-09-03T08:25:22Z</time>
      </trkpt>
      <trkpt lat="42.98185" lon="-0.24489">
        <ele>1475.4</ele>
        <time>2020-09-03T08:25:23Z</time>
      </trkpt>
      <trkpt lat="42.98183" lon="-0.2449">
        <ele>1475.4</ele>
        <time>2020-09-03T08:25:24Z</time>
      </trkpt>
      <trkpt lat="42.9818" lon="-0.24492">
        <ele>1475.6</ele>
        <time>2020-09-03T08:25:25Z</time>
      </trkpt>
      <trkpt lat="42.98178" lon="-0.24494">
        <ele>1475.8</ele>
        <time>2020-09-03T08:25:26Z</time>
      </trkpt>
      <trkpt lat="42.98175" lon="-0.24495">
        <ele>1476</ele>
        <time>2020-09-03T08:25:27Z</time>
      </trkpt>
      <trkpt lat="42.98173" lon="-0.24497">
        <ele>1476</ele>
        <time>2020-09-03T08:25:28Z</time>
      </trkpt>
      <trkpt lat="42.9817" lon="-0.24498">
        <ele>1476.2</ele>
        <time>2020-09-03T08:25:29Z</time>
      </trkpt>
      <trkpt lat="42.98168" lon="-0.24499">
        <ele>1476.4</ele>
        <time>2020-09-03T08:25:30Z</time>
      </trkpt>
      <trkpt lat="42.98165" lon="-0.245">
        <ele>1476.4</ele>
        <time>2020-09-03T08:25:31Z</time>
      </trkpt>
      <trkpt lat="42.98163" lon="-0.24502">
        <ele>1476.8</ele>
        <time>2020-09-03T08:25:32Z</time>
      </trkpt>
      <trkpt lat="42.9816" lon="-0.24503">
        <ele>1477</ele>
        <time>2020-09-03T08:25:33Z</time>
      </trkpt>
      <trkpt lat="42.98158" lon="-0.24504">
        <ele>1477.2</ele>
        <time>2020-09-03T08:25:34Z</time>
      </trkpt>
      <trkpt lat="42.98155" lon="-0.24505">
        <ele>1477.4</ele>
        <time>2020-09-03T08:25:35Z</time>
      </trkpt>
      <trkpt lat="42.98152" lon="-0.24507">
        <ele>1477.2</ele>
        <time>2020-09-03T08:25:36Z</time>
      </trkpt>
      <trkpt lat="42.9815" lon="-0.24508">
        <ele>1477.4</ele>
        <time>2020-09-03T08:25:37Z</time>
      </trkpt>
      <trkpt lat="42.98148" lon="-0.2451">
        <ele>1477.4</ele>
        <time>2020-09-03T08:25:38Z</time>
      </trkpt>
      <trkpt lat="42.98146" lon="-0.24511">
        <ele>1477.4</ele>
        <time>2020-09-03T08:25:39Z</time>
      </trkpt>
      <trkpt lat="42.98144" lon="-0.24513">
        <ele>1477.6</ele>
        <time>2020-09-03T08:25:40Z</time>
      </trkpt>
      <trkpt lat="42.98142" lon="-0.24515">
        <ele>1477.8</ele>
        <time>2020-09-03T08:25:41Z</time>
      </trkpt>
      <trkpt lat="42.98139" lon="-0.24516">
        <ele>1478</ele>
        <time>2020-09-03T08:25:42Z</time>
      </trkpt>
      <trkpt lat="42.98137" lon="-0.24518">
        <ele>1478</ele>
        <time>2020-09-03T08:25:43Z</time>
      </trkpt>
      <trkpt lat="42.98135" lon="-0.24521">
        <ele>1478.2</ele>
        <time>2020-09-03T08:25:44Z</time>
      </trkpt>
      <trkpt lat="42.98134" lon="-0.24523">
        <ele>1478.4</ele>
        <time>2020-09-03T08:25:45Z</time>
      </trkpt>
      <trkpt lat="42.98132" lon="-0.24525">
        <ele>1478.4</ele>
        <time>2020-09-03T08:25:46Z</time>
      </trkpt>
      <trkpt lat="42.9813" lon="-0.24527">
        <ele>1478.6</ele>
        <time>2020-09-03T08:25:47Z</time>
      </trkpt>
      <trkpt lat="42.98128" lon="-0.2453">
        <ele>1478.8</ele>
        <time>2020-09-03T08:25:48Z</time>
      </trkpt>
      <trkpt lat="42.98126" lon="-0.24532">
        <ele>1479</ele>
        <time>2020-09-03T08:25:49Z</time>
      </trkpt>
      <trkpt lat="42.98125" lon="-0.24535">
        <ele>1479.2</ele>
        <time>2020-09-03T08:25:50Z</time>
      </trkpt>
      <trkpt lat="42.98123" lon="-0.24537">
        <ele>1479.4</ele>
        <time>2020-09-03T08:25:51Z</time>
      </trkpt>
      <trkpt lat="42.98122" lon="-0.2454">
        <ele>1479.6</ele>
        <time>2020-09-03T08:25:52Z</time>
      </trkpt>
      <trkpt lat="42.9812" lon="-0.24542">
        <ele>1479.8</ele>
        <time>2020-09-03T08:25:53Z</time>
      </trkpt>
      <trkpt lat="42.98119" lon="-0.24544">
        <ele>1479.8</ele>
        <time>2020-09-03T08:25:54Z</time>
      </trkpt>
      <trkpt lat="42.98118" lon="-0.24546">
        <ele>1480.2</ele>
        <time>2020-09-03T08:25:55Z</time>
      </trkpt>
      <trkpt lat="42.98116" lon="-0.24548">
        <ele>1480.2</ele>
        <time>2020-09-03T08:25:56Z</time>
      </trkpt>
      <trkpt lat="42.98114" lon="-0.2455">
        <ele>1480.4</ele>
        <time>2020-09-03T08:25:57Z</time>
      </trkpt>
      <trkpt lat="42.98113" lon="-0.24552">
        <ele>1480.6</ele>
        <time>2020-09-03T08:25:58Z</time>
      </trkpt>
      <trkpt lat="42.98111" lon="-0.24556">
        <ele>1480.6</ele>
        <time>2020-09-03T08:25:59Z</time>
      </trkpt>
      <trkpt lat="42.9811" lon="-0.24558">
        <ele>1480.8</ele>
        <time>2020-09-03T08:26:00Z</time>
      </trkpt>
      <trkpt lat="42.98109" lon="-0.24561">
        <ele>1481</ele>
        <time>2020-09-03T08:26:01Z</time>
      </trkpt>
      <trkpt lat="42.98108" lon="-0.24563">
        <ele>1481.2</ele>
        <time>2020-09-03T08:26:02Z</time>
      </trkpt>
      <trkpt lat="42.98106" lon="-0.24566">
        <ele>1481.4</ele>
        <time>2020-09-03T08:26:03Z</time>
      </trkpt>
      <trkpt lat="42.98105" lon="-0.24569">
        <ele>1481.6</ele>
        <time>2020-09-03T08:26:04Z</time>
      </trkpt>
      <trkpt lat="42.98103" lon="-0.24572">
        <ele>1481.6</ele>
        <time>2020-09-03T08:26:05Z</time>
      </trkpt>
      <trkpt lat="42.98102" lon="-0.24574">
        <ele>1481.8</ele>
        <time>2020-09-03T08:26:06Z</time>
      </trkpt>
      <trkpt lat="42.981" lon="-0.24576">
        <ele>1481.8</ele>
        <time>2020-09-03T08:26:07Z</time>
      </trkpt>
      <trkpt lat="42.98099" lon="-0.24579">
        <ele>1482</ele>
        <time>2020-09-03T08:26:08Z</time>
      </trkpt>
      <trkpt lat="42.98097" lon="-0.24582">
        <ele>1482</ele>
        <time>2020-09-03T08:26:09Z</time>
      </trkpt>
      <trkpt lat="42.98095" lon="-0.24584">
        <ele>1482.4</ele>
        <time>2020-09-03T08:26:10Z</time>
      </trkpt>
      <trkpt lat="42.98093" lon="-0.24587">
        <ele>1482.4</ele>
        <time>2020-09-03T08:26:11Z</time>
      </trkpt>
      <trkpt lat="42.98091" lon="-0.24589">
        <ele>1482.6</ele>
        <time>2020-09-03T08:26:12Z</time>
      </trkpt>
      <trkpt lat="42.98089" lon="-0.24592">
        <ele>1482.8</ele>
        <time>2020-09-03T08:26:13Z</time>
      </trkpt>
      <trkpt lat="42.98087" lon="-0.24595">
        <ele>1482.8</ele>
        <time>2020-09-03T08:26:14Z</time>
      </trkpt>
      <trkpt lat="42.98085" lon="-0.24598">
        <ele>1483</ele>
        <time>2020-09-03T08:26:15Z</time>
      </trkpt>
      <trkpt lat="42.98083" lon="-0.246">
        <ele>1483.2</ele>
        <time>2020-09-03T08:26:16Z</time>
      </trkpt>
      <trkpt lat="42.98081" lon="-0.24603">
        <ele>1483.4</ele>
        <time>2020-09-03T08:26:17Z</time>
      </trkpt>
      <trkpt lat="42.9808" lon="-0.24606">
        <ele>1483.6</ele>
        <time>2020-09-03T08:26:18Z</time>
      </trkpt>
      <trkpt lat="42.98078" lon="-0.24609">
        <ele>1483.8</ele>
        <time>2020-09-03T08:26:19Z</time>
      </trkpt>
      <trkpt lat="42.98076" lon="-0.24612">
        <ele>1484</ele>
        <time>2020-09-03T08:26:20Z</time>
      </trkpt>
      <trkpt lat="42.98075" lon="-0.24615">
        <ele>1484</ele>
        <time>2020-09-03T08:26:21Z</time>
      </trkpt>
      <trkpt lat="42.98074" lon="-0.24619">
        <ele>1484</ele>
        <time>2020-09-03T08:26:22Z</time>
      </trkpt>
      <trkpt lat="42.98073" lon="-0.24622">
        <ele>1484.2</ele>
        <time>2020-09-03T08:26:23Z</time>
      </trkpt>
      <trkpt lat="42.98072" lon="-0.24626">
        <ele>1484.2</ele>
        <time>2020-09-03T08:26:24Z</time>
      </trkpt>
      <trkpt lat="42.98071" lon="-0.24629">
        <ele>1484.4</ele>
        <time>2020-09-03T08:26:25Z</time>
      </trkpt>
      <trkpt lat="42.9807" lon="-0.24632">
        <ele>1484.6</ele>
        <time>2020-09-03T08:26:26Z</time>
      </trkpt>
      <trkpt lat="42.98069" lon="-0.24636">
        <ele>1484.8</ele>
        <time>2020-09-03T08:26:27Z</time>
      </trkpt>
      <trkpt lat="42.98069" lon="-0.2464">
        <ele>1485</ele>
        <time>2020-09-03T08:26:28Z</time>
      </trkpt>
      <trkpt lat="42.98069" lon="-0.24644">
        <ele>1485.2</ele>
        <time>2020-09-03T08:26:29Z</time>
      </trkpt>
      <trkpt lat="42.98069" lon="-0.24647">
        <ele>1485.4</ele>
        <time>2020-09-03T08:26:30Z</time>
      </trkpt>
      <trkpt lat="42.98068" lon="-0.24651">
        <ele>1485.6</ele>
        <time>2020-09-03T08:26:31Z</time>
      </trkpt>
      <trkpt lat="42.98068" lon="-0.24655">
        <ele>1485.6</ele>
        <time>2020-09-03T08:26:32Z</time>
      </trkpt>
      <trkpt lat="42.98067" lon="-0.24658">
        <ele>1485.8</ele>
        <time>2020-09-03T08:26:33Z</time>
      </trkpt>
      <trkpt lat="42.98067" lon="-0.2466">
        <ele>1486.2</ele>
        <time>2020-09-03T08:26:34Z</time>
      </trkpt>
      <trkpt lat="42.98068" lon="-0.24663">
        <ele>1486.4</ele>
        <time>2020-09-03T08:26:35Z</time>
      </trkpt>
      <trkpt lat="42.98068" lon="-0.24665">
        <ele>1486.8</ele>
        <time>2020-09-03T08:26:36Z</time>
      </trkpt>
      <trkpt lat="42.98068" lon="-0.24667">
        <ele>1487</ele>
        <time>2020-09-03T08:26:37Z</time>
      </trkpt>
      <trkpt lat="42.98067" lon="-0.2467">
        <ele>1487.4</ele>
        <time>2020-09-03T08:26:38Z</time>
      </trkpt>
      <trkpt lat="42.98067" lon="-0.24672">
        <ele>1487.6</ele>
        <time>2020-09-03T08:26:39Z</time>
      </trkpt>
      <trkpt lat="42.98067" lon="-0.24675">
        <ele>1488</ele>
        <time>2020-09-03T08:26:40Z</time>
      </trkpt>
      <trkpt lat="42.98067" lon="-0.24678">
        <ele>1488.2</ele>
        <time>2020-09-03T08:26:41Z</time>
      </trkpt>
      <trkpt lat="42.98067" lon="-0.2468">
        <ele>1488.4</ele>
        <time>2020-09-03T08:26:42Z</time>
      </trkpt>
      <trkpt lat="42.98066" lon="-0.24683">
        <ele>1488.6</ele>
        <time>2020-09-03T08:26:43Z</time>
      </trkpt>
      <trkpt lat="42.98066" lon="-0.24686">
        <ele>1488.8</ele>
        <time>2020-09-03T08:26:44Z</time>
      </trkpt>
      <trkpt lat="42.98067" lon="-0.24689">
        <ele>1489.2</ele>
        <time>2020-09-03T08:26:45Z</time>
      </trkpt>
      <trkpt lat="42.98067" lon="-0.24692">
        <ele>1489.4</ele>
        <time>2020-09-03T08:26:46Z</time>
      </trkpt>
      <trkpt lat="42.98067" lon="-0.24695">
        <ele>1489.8</ele>
        <time>2020-09-03T08:26:47Z</time>
      </trkpt>
      <trkpt lat="42.98066" lon="-0.24697">
        <ele>1490</ele>
        <time>2020-09-03T08:26:48Z</time>
      </trkpt>
      <trkpt lat="42.98066" lon="-0.247">
        <ele>1490.2</ele>
        <time>2020-09-03T08:26:49Z</time>
      </trkpt>
      <trkpt lat="42.98066" lon="-0.24702">
        <ele>1490.4</ele>
        <time>2020-09-03T08:26:50Z</time>
      </trkpt>
      <trkpt lat="42.98065" lon="-0.24704">
        <ele>1490.8</ele>
        <time>2020-09-03T08:26:51Z</time>
      </trkpt>
      <trkpt lat="42.98064" lon="-0.24705">
        <ele>1491</ele>
        <time>2020-09-03T08:26:52Z</time>
      </trkpt>
      <trkpt lat="42.98062" lon="-0.24705">
        <ele>1491.2</ele>
        <time>2020-09-03T08:26:53Z</time>
      </trkpt>
      <trkpt lat="42.98061" lon="-0.24705">
        <ele>1491.2</ele>
        <time>2020-09-03T08:26:54Z</time>
      </trkpt>
      <trkpt lat="42.9806" lon="-0.24704">
        <ele>1491.6</ele>
        <time>2020-09-03T08:26:55Z</time>
      </trkpt>
      <trkpt lat="42.98058" lon="-0.24702">
        <ele>1491.8</ele>
        <time>2020-09-03T08:26:56Z</time>
      </trkpt>
      <trkpt lat="42.98058" lon="-0.247">
        <ele>1491.8</ele>
        <time>2020-09-03T08:26:57Z</time>
      </trkpt>
      <trkpt lat="42.98058" lon="-0.24699">
        <ele>1492</ele>
        <time>2020-09-03T08:26:58Z</time>
      </trkpt>
      <trkpt lat="42.98058" lon="-0.24697">
        <ele>1492.2</ele>
        <time>2020-09-03T08:26:59Z</time>
      </trkpt>
      <trkpt lat="42.98057" lon="-0.24695">
        <ele>1492.4</ele>
        <time>2020-09-03T08:27:00Z</time>
      </trkpt>
      <trkpt lat="42.98057" lon="-0.24693">
        <ele>1492.6</ele>
        <time>2020-09-03T08:27:01Z</time>
      </trkpt>
      <trkpt lat="42.98058" lon="-0.24693">
        <ele>1493</ele>
        <time>2020-09-03T08:27:02Z</time>
      </trkpt>
      <trkpt lat="42.98058" lon="-0.24693">
        <ele>1493</ele>
        <time>2020-09-03T08:27:03Z</time>
      </trkpt>
      <trkpt lat="42.98058" lon="-0.24693">
        <ele>1493.2</ele>
        <time>2020-09-03T08:27:04Z</time>
      </trkpt>
      <trkpt lat="42.98058" lon="-0.24693">
        <ele>1493.2</ele>
        <time>2020-09-03T08:27:05Z</time>
      </trkpt>
      <trkpt lat="42.98058" lon="-0.24693">
        <ele>1493.4</ele>
        <time>2020-09-03T08:27:22Z</time>
      </trkpt>
      <trkpt lat="42.98059" lon="-0.24692">
        <ele>1492.6</ele>
        <time>2020-09-03T08:28:42Z</time>
      </trkpt>
      <trkpt lat="42.98059" lon="-0.24692">
        <ele>1492.2</ele>
        <time>2020-09-03T08:29:09Z</time>
      </trkpt>
      <trkpt lat="42.98059" lon="-0.24692">
        <ele>1492</ele>
        <time>2020-09-03T08:29:58Z</time>
      </trkpt>
      <trkpt lat="42.98059" lon="-0.24692">
        <ele>1492.2</ele>
        <time>2020-09-03T08:30:06Z</time>
      </trkpt>
      <trkpt lat="42.98059" lon="-0.24692">
        <ele>1493.2</ele>
        <time>2020-09-03T08:30:46Z</time>
      </trkpt>
      <trkpt lat="42.98058" lon="-0.24683">
        <ele>1493.4</ele>
        <time>2020-09-03T08:30:56Z</time>
      </trkpt>
      <trkpt lat="42.98057" lon="-0.24676">
        <ele>1493.6</ele>
        <time>2020-09-03T08:30:59Z</time>
      </trkpt>
      <trkpt lat="42.98056" lon="-0.24672">
        <ele>1493.8</ele>
        <time>2020-09-03T08:31:01Z</time>
      </trkpt>
      <trkpt lat="42.98054" lon="-0.24665">
        <ele>1494</ele>
        <time>2020-09-03T08:31:04Z</time>
      </trkpt>
      <trkpt lat="42.98053" lon="-0.24657">
        <ele>1494.6</ele>
        <time>2020-09-03T08:31:08Z</time>
      </trkpt>
      <trkpt lat="42.98052" lon="-0.24655">
        <ele>1494.8</ele>
        <time>2020-09-03T08:31:09Z</time>
      </trkpt>
      <trkpt lat="42.98051" lon="-0.2465">
        <ele>1495.2</ele>
        <time>2020-09-03T08:31:11Z</time>
      </trkpt>
      <trkpt lat="42.98051" lon="-0.24647">
        <ele>1495.4</ele>
        <time>2020-09-03T08:31:12Z</time>
      </trkpt>
      <trkpt lat="42.98051" lon="-0.2464">
        <ele>1495.8</ele>
        <time>2020-09-03T08:31:15Z</time>
      </trkpt>
      <trkpt lat="42.98051" lon="-0.24638">
        <ele>1496</ele>
        <time>2020-09-03T08:31:16Z</time>
      </trkpt>
      <trkpt lat="42.98051" lon="-0.24632">
        <ele>1496.2</ele>
        <time>2020-09-03T08:31:19Z</time>
      </trkpt>
      <trkpt lat="42.98051" lon="-0.24629">
        <ele>1496.6</ele>
        <time>2020-09-03T08:31:20Z</time>
      </trkpt>
      <trkpt lat="42.98051" lon="-0.24627">
        <ele>1496.6</ele>
        <time>2020-09-03T08:31:21Z</time>
      </trkpt>
      <trkpt lat="42.98051" lon="-0.24625">
        <ele>1496.8</ele>
        <time>2020-09-03T08:31:22Z</time>
      </trkpt>
      <trkpt lat="42.98051" lon="-0.24622">
        <ele>1496.8</ele>
        <time>2020-09-03T08:31:23Z</time>
      </trkpt>
      <trkpt lat="42.98051" lon="-0.2462">
        <ele>1497.2</ele>
        <time>2020-09-03T08:31:24Z</time>
      </trkpt>
      <trkpt lat="42.98051" lon="-0.24617">
        <ele>1497.2</ele>
        <time>2020-09-03T08:31:25Z</time>
      </trkpt>
      <trkpt lat="42.98051" lon="-0.24614">
        <ele>1497.4</ele>
        <time>2020-09-03T08:31:26Z</time>
      </trkpt>
      <trkpt lat="42.98051" lon="-0.24612">
        <ele>1497.6</ele>
        <time>2020-09-03T08:31:27Z</time>
      </trkpt>
      <trkpt lat="42.98051" lon="-0.24609">
        <ele>1497.8</ele>
        <time>2020-09-03T08:31:28Z</time>
      </trkpt>
      <trkpt lat="42.98052" lon="-0.24606">
        <ele>1498</ele>
        <time>2020-09-03T08:31:29Z</time>
      </trkpt>
      <trkpt lat="42.98052" lon="-0.24603">
        <ele>1498.2</ele>
        <time>2020-09-03T08:31:30Z</time>
      </trkpt>
      <trkpt lat="42.98052" lon="-0.24601">
        <ele>1498.2</ele>
        <time>2020-09-03T08:31:31Z</time>
      </trkpt>
      <trkpt lat="42.98053" lon="-0.24598">
        <ele>1498.4</ele>
        <time>2020-09-03T08:31:32Z</time>
      </trkpt>
      <trkpt lat="42.98053" lon="-0.24596">
        <ele>1498.6</ele>
        <time>2020-09-03T08:31:33Z</time>
      </trkpt>
      <trkpt lat="42.98053" lon="-0.24594">
        <ele>1498.6</ele>
        <time>2020-09-03T08:31:34Z</time>
      </trkpt>
      <trkpt lat="42.98054" lon="-0.24591">
        <ele>1498.8</ele>
        <time>2020-09-03T08:31:35Z</time>
      </trkpt>
      <trkpt lat="42.98055" lon="-0.24589">
        <ele>1498.8</ele>
        <time>2020-09-03T08:31:36Z</time>
      </trkpt>
      <trkpt lat="42.98055" lon="-0.24586">
        <ele>1499</ele>
        <time>2020-09-03T08:31:37Z</time>
      </trkpt>
      <trkpt lat="42.98056" lon="-0.24583">
        <ele>1499</ele>
        <time>2020-09-03T08:31:38Z</time>
      </trkpt>
      <trkpt lat="42.98056" lon="-0.24581">
        <ele>1499.2</ele>
        <time>2020-09-03T08:31:39Z</time>
      </trkpt>
      <trkpt lat="42.98057" lon="-0.24577">
        <ele>1499.2</ele>
        <time>2020-09-03T08:31:40Z</time>
      </trkpt>
      <trkpt lat="42.98058" lon="-0.24575">
        <ele>1499.2</ele>
        <time>2020-09-03T08:31:41Z</time>
      </trkpt>
      <trkpt lat="42.98059" lon="-0.24572">
        <ele>1499.4</ele>
        <time>2020-09-03T08:31:42Z</time>
      </trkpt>
      <trkpt lat="42.9806" lon="-0.2457">
        <ele>1499.4</ele>
        <time>2020-09-03T08:31:43Z</time>
      </trkpt>
      <trkpt lat="42.98061" lon="-0.24567">
        <ele>1499.4</ele>
        <time>2020-09-03T08:31:44Z</time>
      </trkpt>
      <trkpt lat="42.98061" lon="-0.24565">
        <ele>1499.6</ele>
        <time>2020-09-03T08:31:45Z</time>
      </trkpt>
      <trkpt lat="42.98062" lon="-0.24563">
        <ele>1499.8</ele>
        <time>2020-09-03T08:31:46Z</time>
      </trkpt>
      <trkpt lat="42.98064" lon="-0.2456">
        <ele>1499.8</ele>
        <time>2020-09-03T08:31:47Z</time>
      </trkpt>
      <trkpt lat="42.98065" lon="-0.24559">
        <ele>1500</ele>
        <time>2020-09-03T08:31:48Z</time>
      </trkpt>
      <trkpt lat="42.98066" lon="-0.24556">
        <ele>1500</ele>
        <time>2020-09-03T08:31:49Z</time>
      </trkpt>
      <trkpt lat="42.98067" lon="-0.24554">
        <ele>1500.2</ele>
        <time>2020-09-03T08:31:50Z</time>
      </trkpt>
      <trkpt lat="42.98068" lon="-0.24551">
        <ele>1500.4</ele>
        <time>2020-09-03T08:31:51Z</time>
      </trkpt>
      <trkpt lat="42.98069" lon="-0.24548">
        <ele>1500.6</ele>
        <time>2020-09-03T08:31:52Z</time>
      </trkpt>
      <trkpt lat="42.98069" lon="-0.24546">
        <ele>1500.6</ele>
        <time>2020-09-03T08:31:53Z</time>
      </trkpt>
      <trkpt lat="42.98069" lon="-0.24544">
        <ele>1501</ele>
        <time>2020-09-03T08:31:54Z</time>
      </trkpt>
      <trkpt lat="42.9807" lon="-0.24541">
        <ele>1501</ele>
        <time>2020-09-03T08:31:55Z</time>
      </trkpt>
      <trkpt lat="42.9807" lon="-0.24537">
        <ele>1501.2</ele>
        <time>2020-09-03T08:31:56Z</time>
      </trkpt>
      <trkpt lat="42.98071" lon="-0.24535">
        <ele>1501.8</ele>
        <time>2020-09-03T08:31:57Z</time>
      </trkpt>
      <trkpt lat="42.9807" lon="-0.24533">
        <ele>1501.8</ele>
        <time>2020-09-03T08:31:58Z</time>
      </trkpt>
      <trkpt lat="42.9807" lon="-0.2453">
        <ele>1502</ele>
        <time>2020-09-03T08:31:59Z</time>
      </trkpt>
      <trkpt lat="42.9807" lon="-0.24527">
        <ele>1502.2</ele>
        <time>2020-09-03T08:32:00Z</time>
      </trkpt>
      <trkpt lat="42.98069" lon="-0.24525">
        <ele>1502.2</ele>
        <time>2020-09-03T08:32:01Z</time>
      </trkpt>
      <trkpt lat="42.98068" lon="-0.24522">
        <ele>1502.4</ele>
        <time>2020-09-03T08:32:02Z</time>
      </trkpt>
      <trkpt lat="42.98067" lon="-0.24519">
        <ele>1502.6</ele>
        <time>2020-09-03T08:32:03Z</time>
      </trkpt>
      <trkpt lat="42.98066" lon="-0.24516">
        <ele>1502.6</ele>
        <time>2020-09-03T08:32:04Z</time>
      </trkpt>
      <trkpt lat="42.98065" lon="-0.24514">
        <ele>1503</ele>
        <time>2020-09-03T08:32:05Z</time>
      </trkpt>
      <trkpt lat="42.98064" lon="-0.24511">
        <ele>1503</ele>
        <time>2020-09-03T08:32:06Z</time>
      </trkpt>
      <trkpt lat="42.98063" lon="-0.24508">
        <ele>1503.2</ele>
        <time>2020-09-03T08:32:07Z</time>
      </trkpt>
      <trkpt lat="42.98062" lon="-0.24505">
        <ele>1503</ele>
        <time>2020-09-03T08:32:08Z</time>
      </trkpt>
      <trkpt lat="42.98061" lon="-0.24502">
        <ele>1503.4</ele>
        <time>2020-09-03T08:32:09Z</time>
      </trkpt>
      <trkpt lat="42.9806" lon="-0.24499">
        <ele>1503.4</ele>
        <time>2020-09-03T08:32:10Z</time>
      </trkpt>
      <trkpt lat="42.9806" lon="-0.24497">
        <ele>1503.6</ele>
        <time>2020-09-03T08:32:11Z</time>
      </trkpt>
      <trkpt lat="42.9806" lon="-0.24494">
        <ele>1503.8</ele>
        <time>2020-09-03T08:32:12Z</time>
      </trkpt>
      <trkpt lat="42.9806" lon="-0.24491">
        <ele>1503.8</ele>
        <time>2020-09-03T08:32:13Z</time>
      </trkpt>
      <trkpt lat="42.9806" lon="-0.24488">
        <ele>1503.8</ele>
        <time>2020-09-03T08:32:14Z</time>
      </trkpt>
      <trkpt lat="42.98061" lon="-0.24485">
        <ele>1504</ele>
        <time>2020-09-03T08:32:15Z</time>
      </trkpt>
      <trkpt lat="42.98062" lon="-0.24482">
        <ele>1504.2</ele>
        <time>2020-09-03T08:32:16Z</time>
      </trkpt>
      <trkpt lat="42.98063" lon="-0.24479">
        <ele>1504.4</ele>
        <time>2020-09-03T08:32:17Z</time>
      </trkpt>
      <trkpt lat="42.98065" lon="-0.24476">
        <ele>1504.6</ele>
        <time>2020-09-03T08:32:18Z</time>
      </trkpt>
      <trkpt lat="42.98066" lon="-0.24474">
        <ele>1504.6</ele>
        <time>2020-09-03T08:32:19Z</time>
      </trkpt>
      <trkpt lat="42.98068" lon="-0.24471">
        <ele>1504.8</ele>
        <time>2020-09-03T08:32:20Z</time>
      </trkpt>
      <trkpt lat="42.9807" lon="-0.24469">
        <ele>1504.8</ele>
        <time>2020-09-03T08:32:21Z</time>
      </trkpt>
      <trkpt lat="42.98072" lon="-0.24468">
        <ele>1505</ele>
        <time>2020-09-03T08:32:22Z</time>
      </trkpt>
      <trkpt lat="42.98074" lon="-0.24466">
        <ele>1505</ele>
        <time>2020-09-03T08:32:23Z</time>
      </trkpt>
      <trkpt lat="42.98076" lon="-0.24465">
        <ele>1505.4</ele>
        <time>2020-09-03T08:32:24Z</time>
      </trkpt>
      <trkpt lat="42.98078" lon="-0.24464">
        <ele>1505.6</ele>
        <time>2020-09-03T08:32:25Z</time>
      </trkpt>
      <trkpt lat="42.9808" lon="-0.24462">
        <ele>1505.8</ele>
        <time>2020-09-03T08:32:26Z</time>
      </trkpt>
      <trkpt lat="42.98082" lon="-0.24461">
        <ele>1505.8</ele>
        <time>2020-09-03T08:32:27Z</time>
      </trkpt>
      <trkpt lat="42.98085" lon="-0.2446">
        <ele>1506</ele>
        <time>2020-09-03T08:32:28Z</time>
      </trkpt>
      <trkpt lat="42.98087" lon="-0.24458">
        <ele>1506.2</ele>
        <time>2020-09-03T08:32:29Z</time>
      </trkpt>
      <trkpt lat="42.98089" lon="-0.24457">
        <ele>1506.2</ele>
        <time>2020-09-03T08:32:30Z</time>
      </trkpt>
      <trkpt lat="42.98092" lon="-0.24455">
        <ele>1506.4</ele>
        <time>2020-09-03T08:32:31Z</time>
      </trkpt>
      <trkpt lat="42.98094" lon="-0.24454">
        <ele>1506.6</ele>
        <time>2020-09-03T08:32:32Z</time>
      </trkpt>
      <trkpt lat="42.98096" lon="-0.24452">
        <ele>1506.8</ele>
        <time>2020-09-03T08:32:33Z</time>
      </trkpt>
      <trkpt lat="42.98098" lon="-0.24451">
        <ele>1507</ele>
        <time>2020-09-03T08:32:34Z</time>
      </trkpt>
      <trkpt lat="42.981" lon="-0.2445">
        <ele>1507</ele>
        <time>2020-09-03T08:32:35Z</time>
      </trkpt>
      <trkpt lat="42.98102" lon="-0.24448">
        <ele>1507.2</ele>
        <time>2020-09-03T08:32:36Z</time>
      </trkpt>
      <trkpt lat="42.98104" lon="-0.24447">
        <ele>1507.4</ele>
        <time>2020-09-03T08:32:37Z</time>
      </trkpt>
      <trkpt lat="42.98106" lon="-0.24446">
        <ele>1507.4</ele>
        <time>2020-09-03T08:32:38Z</time>
      </trkpt>
      <trkpt lat="42.98108" lon="-0.24445">
        <ele>1507.6</ele>
        <time>2020-09-03T08:32:39Z</time>
      </trkpt>
      <trkpt lat="42.9811" lon="-0.24444">
        <ele>1507.8</ele>
        <time>2020-09-03T08:32:40Z</time>
      </trkpt>
      <trkpt lat="42.98113" lon="-0.24443">
        <ele>1508</ele>
        <time>2020-09-03T08:32:41Z</time>
      </trkpt>
      <trkpt lat="42.98115" lon="-0.24442">
        <ele>1508.2</ele>
        <time>2020-09-03T08:32:42Z</time>
      </trkpt>
      <trkpt lat="42.98117" lon="-0.24441">
        <ele>1508.4</ele>
        <time>2020-09-03T08:32:43Z</time>
      </trkpt>
      <trkpt lat="42.98119" lon="-0.2444">
        <ele>1508.6</ele>
        <time>2020-09-03T08:32:44Z</time>
      </trkpt>
      <trkpt lat="42.98121" lon="-0.24439">
        <ele>1508.8</ele>
        <time>2020-09-03T08:32:45Z</time>
      </trkpt>
      <trkpt lat="42.98123" lon="-0.24438">
        <ele>1509</ele>
        <time>2020-09-03T08:32:46Z</time>
      </trkpt>
      <trkpt lat="42.98125" lon="-0.24437">
        <ele>1509.2</ele>
        <time>2020-09-03T08:32:47Z</time>
      </trkpt>
      <trkpt lat="42.98127" lon="-0.24436">
        <ele>1509.6</ele>
        <time>2020-09-03T08:32:48Z</time>
      </trkpt>
      <trkpt lat="42.98129" lon="-0.24435">
        <ele>1509.6</ele>
        <time>2020-09-03T08:32:49Z</time>
      </trkpt>
      <trkpt lat="42.98132" lon="-0.24433">
        <ele>1509.8</ele>
        <time>2020-09-03T08:32:50Z</time>
      </trkpt>
      <trkpt lat="42.98134" lon="-0.24432">
        <ele>1510</ele>
        <time>2020-09-03T08:32:51Z</time>
      </trkpt>
      <trkpt lat="42.98136" lon="-0.2443">
        <ele>1510.2</ele>
        <time>2020-09-03T08:32:52Z</time>
      </trkpt>
      <trkpt lat="42.98137" lon="-0.24428">
        <ele>1510.6</ele>
        <time>2020-09-03T08:32:53Z</time>
      </trkpt>
      <trkpt lat="42.98139" lon="-0.24426">
        <ele>1510.6</ele>
        <time>2020-09-03T08:32:54Z</time>
      </trkpt>
      <trkpt lat="42.98141" lon="-0.24424">
        <ele>1511</ele>
        <time>2020-09-03T08:32:55Z</time>
      </trkpt>
      <trkpt lat="42.98143" lon="-0.24421">
        <ele>1511.2</ele>
        <time>2020-09-03T08:32:56Z</time>
      </trkpt>
      <trkpt lat="42.98144" lon="-0.24418">
        <ele>1511.6</ele>
        <time>2020-09-03T08:32:57Z</time>
      </trkpt>
      <trkpt lat="42.98145" lon="-0.24414">
        <ele>1511.6</ele>
        <time>2020-09-03T08:32:58Z</time>
      </trkpt>
      <trkpt lat="42.98145" lon="-0.2441">
        <ele>1511.8</ele>
        <time>2020-09-03T08:32:59Z</time>
      </trkpt>
      <trkpt lat="42.98146" lon="-0.24406">
        <ele>1512</ele>
        <time>2020-09-03T08:33:00Z</time>
      </trkpt>
      <trkpt lat="42.98146" lon="-0.24403">
        <ele>1512.4</ele>
        <time>2020-09-03T08:33:01Z</time>
      </trkpt>
      <trkpt lat="42.98145" lon="-0.24399">
        <ele>1512.4</ele>
        <time>2020-09-03T08:33:02Z</time>
      </trkpt>
      <trkpt lat="42.98145" lon="-0.24396">
        <ele>1512.6</ele>
        <time>2020-09-03T08:33:03Z</time>
      </trkpt>
      <trkpt lat="42.98145" lon="-0.24392">
        <ele>1512.8</ele>
        <time>2020-09-03T08:33:04Z</time>
      </trkpt>
      <trkpt lat="42.98145" lon="-0.24389">
        <ele>1513</ele>
        <time>2020-09-03T08:33:05Z</time>
      </trkpt>
      <trkpt lat="42.98145" lon="-0.24386">
        <ele>1513.2</ele>
        <time>2020-09-03T08:33:06Z</time>
      </trkpt>
      <trkpt lat="42.98145" lon="-0.24382">
        <ele>1513.4</ele>
        <time>2020-09-03T08:33:07Z</time>
      </trkpt>
      <trkpt lat="42.98146" lon="-0.2438">
        <ele>1513.4</ele>
        <time>2020-09-03T08:33:08Z</time>
      </trkpt>
      <trkpt lat="42.98147" lon="-0.24377">
        <ele>1513.6</ele>
        <time>2020-09-03T08:33:09Z</time>
      </trkpt>
      <trkpt lat="42.98148" lon="-0.24374">
        <ele>1513.6</ele>
        <time>2020-09-03T08:33:10Z</time>
      </trkpt>
      <trkpt lat="42.98149" lon="-0.24372">
        <ele>1513.6</ele>
        <time>2020-09-03T08:33:11Z</time>
      </trkpt>
      <trkpt lat="42.9815" lon="-0.24369">
        <ele>1513.8</ele>
        <time>2020-09-03T08:33:12Z</time>
      </trkpt>
      <trkpt lat="42.98151" lon="-0.24367">
        <ele>1513.8</ele>
        <time>2020-09-03T08:33:13Z</time>
      </trkpt>
      <trkpt lat="42.98153" lon="-0.24365">
        <ele>1513.8</ele>
        <time>2020-09-03T08:33:14Z</time>
      </trkpt>
      <trkpt lat="42.98155" lon="-0.24363">
        <ele>1514</ele>
        <time>2020-09-03T08:33:15Z</time>
      </trkpt>
      <trkpt lat="42.98157" lon="-0.24361">
        <ele>1514.2</ele>
        <time>2020-09-03T08:33:16Z</time>
      </trkpt>
      <trkpt lat="42.98158" lon="-0.24359">
        <ele>1514.4</ele>
        <time>2020-09-03T08:33:17Z</time>
      </trkpt>
      <trkpt lat="42.9816" lon="-0.24357">
        <ele>1514.6</ele>
        <time>2020-09-03T08:33:18Z</time>
      </trkpt>
      <trkpt lat="42.98162" lon="-0.24355">
        <ele>1514.6</ele>
        <time>2020-09-03T08:33:19Z</time>
      </trkpt>
      <trkpt lat="42.98164" lon="-0.24352">
        <ele>1514.8</ele>
        <time>2020-09-03T08:33:20Z</time>
      </trkpt>
      <trkpt lat="42.98165" lon="-0.2435">
        <ele>1515</ele>
        <time>2020-09-03T08:33:21Z</time>
      </trkpt>
      <trkpt lat="42.98167" lon="-0.24348">
        <ele>1515</ele>
        <time>2020-09-03T08:33:22Z</time>
      </trkpt>
      <trkpt lat="42.98168" lon="-0.24345">
        <ele>1515.2</ele>
        <time>2020-09-03T08:33:23Z</time>
      </trkpt>
      <trkpt lat="42.9817" lon="-0.24343">
        <ele>1515</ele>
        <time>2020-09-03T08:33:24Z</time>
      </trkpt>
      <trkpt lat="42.98171" lon="-0.24341">
        <ele>1515.2</ele>
        <time>2020-09-03T08:33:25Z</time>
      </trkpt>
      <trkpt lat="42.98173" lon="-0.24339">
        <ele>1515.4</ele>
        <time>2020-09-03T08:33:26Z</time>
      </trkpt>
      <trkpt lat="42.98174" lon="-0.24337">
        <ele>1515.6</ele>
        <time>2020-09-03T08:33:27Z</time>
      </trkpt>
      <trkpt lat="42.98176" lon="-0.24335">
        <ele>1515.8</ele>
        <time>2020-09-03T08:33:28Z</time>
      </trkpt>
      <trkpt lat="42.98178" lon="-0.24333">
        <ele>1516</ele>
        <time>2020-09-03T08:33:29Z</time>
      </trkpt>
      <trkpt lat="42.98179" lon="-0.24332">
        <ele>1516.2</ele>
        <time>2020-09-03T08:33:30Z</time>
      </trkpt>
      <trkpt lat="42.98181" lon="-0.24331">
        <ele>1516.6</ele>
        <time>2020-09-03T08:33:31Z</time>
      </trkpt>
      <trkpt lat="42.98184" lon="-0.24329">
        <ele>1516.8</ele>
        <time>2020-09-03T08:33:32Z</time>
      </trkpt>
      <trkpt lat="42.98186" lon="-0.24328">
        <ele>1517</ele>
        <time>2020-09-03T08:33:33Z</time>
      </trkpt>
      <trkpt lat="42.98187" lon="-0.24327">
        <ele>1517</ele>
        <time>2020-09-03T08:33:34Z</time>
      </trkpt>
      <trkpt lat="42.98189" lon="-0.24325">
        <ele>1517.2</ele>
        <time>2020-09-03T08:33:35Z</time>
      </trkpt>
      <trkpt lat="42.98191" lon="-0.24324">
        <ele>1517.6</ele>
        <time>2020-09-03T08:33:36Z</time>
      </trkpt>
      <trkpt lat="42.98193" lon="-0.24322">
        <ele>1517.6</ele>
        <time>2020-09-03T08:33:37Z</time>
      </trkpt>
      <trkpt lat="42.98195" lon="-0.2432">
        <ele>1517.8</ele>
        <time>2020-09-03T08:33:38Z</time>
      </trkpt>
      <trkpt lat="42.98197" lon="-0.24318">
        <ele>1518</ele>
        <time>2020-09-03T08:33:39Z</time>
      </trkpt>
      <trkpt lat="42.98199" lon="-0.24316">
        <ele>1518.2</ele>
        <time>2020-09-03T08:33:40Z</time>
      </trkpt>
      <trkpt lat="42.982" lon="-0.24314">
        <ele>1518.2</ele>
        <time>2020-09-03T08:33:41Z</time>
      </trkpt>
      <trkpt lat="42.98202" lon="-0.24312">
        <ele>1518.2</ele>
        <time>2020-09-03T08:33:42Z</time>
      </trkpt>
      <trkpt lat="42.98205" lon="-0.2431">
        <ele>1518.4</ele>
        <time>2020-09-03T08:33:43Z</time>
      </trkpt>
      <trkpt lat="42.98207" lon="-0.24308">
        <ele>1518.6</ele>
        <time>2020-09-03T08:33:44Z</time>
      </trkpt>
      <trkpt lat="42.98209" lon="-0.24306">
        <ele>1518.8</ele>
        <time>2020-09-03T08:33:45Z</time>
      </trkpt>
      <trkpt lat="42.98211" lon="-0.24303">
        <ele>1519</ele>
        <time>2020-09-03T08:33:46Z</time>
      </trkpt>
      <trkpt lat="42.98213" lon="-0.24301">
        <ele>1519</ele>
        <time>2020-09-03T08:33:47Z</time>
      </trkpt>
      <trkpt lat="42.98215" lon="-0.24299">
        <ele>1519.2</ele>
        <time>2020-09-03T08:33:48Z</time>
      </trkpt>
      <trkpt lat="42.98217" lon="-0.24296">
        <ele>1519.4</ele>
        <time>2020-09-03T08:33:49Z</time>
      </trkpt>
      <trkpt lat="42.98219" lon="-0.24294">
        <ele>1519.6</ele>
        <time>2020-09-03T08:33:50Z</time>
      </trkpt>
      <trkpt lat="42.98221" lon="-0.24291">
        <ele>1519.6</ele>
        <time>2020-09-03T08:33:51Z</time>
      </trkpt>
      <trkpt lat="42.98222" lon="-0.24288">
        <ele>1519.6</ele>
        <time>2020-09-03T08:33:52Z</time>
      </trkpt>
      <trkpt lat="42.98224" lon="-0.24286">
        <ele>1519.8</ele>
        <time>2020-09-03T08:33:53Z</time>
      </trkpt>
      <trkpt lat="42.98225" lon="-0.24283">
        <ele>1520</ele>
        <time>2020-09-03T08:33:54Z</time>
      </trkpt>
      <trkpt lat="42.98227" lon="-0.2428">
        <ele>1520.4</ele>
        <time>2020-09-03T08:33:55Z</time>
      </trkpt>
      <trkpt lat="42.98228" lon="-0.24278">
        <ele>1520.4</ele>
        <time>2020-09-03T08:33:56Z</time>
      </trkpt>
      <trkpt lat="42.98229" lon="-0.24274">
        <ele>1520.6</ele>
        <time>2020-09-03T08:33:57Z</time>
      </trkpt>
      <trkpt lat="42.9823" lon="-0.24271">
        <ele>1520.6</ele>
        <time>2020-09-03T08:33:58Z</time>
      </trkpt>
      <trkpt lat="42.98231" lon="-0.24267">
        <ele>1520.8</ele>
        <time>2020-09-03T08:33:59Z</time>
      </trkpt>
      <trkpt lat="42.98232" lon="-0.24264">
        <ele>1521</ele>
        <time>2020-09-03T08:34:00Z</time>
      </trkpt>
      <trkpt lat="42.98232" lon="-0.24261">
        <ele>1521</ele>
        <time>2020-09-03T08:34:01Z</time>
      </trkpt>
      <trkpt lat="42.98233" lon="-0.24257">
        <ele>1521.2</ele>
        <time>2020-09-03T08:34:02Z</time>
      </trkpt>
      <trkpt lat="42.98234" lon="-0.24254">
        <ele>1521.2</ele>
        <time>2020-09-03T08:34:03Z</time>
      </trkpt>
      <trkpt lat="42.98234" lon="-0.24251">
        <ele>1521.4</ele>
        <time>2020-09-03T08:34:04Z</time>
      </trkpt>
      <trkpt lat="42.98234" lon="-0.24247">
        <ele>1521.6</ele>
        <time>2020-09-03T08:34:05Z</time>
      </trkpt>
      <trkpt lat="42.98235" lon="-0.24243">
        <ele>1521.8</ele>
        <time>2020-09-03T08:34:06Z</time>
      </trkpt>
      <trkpt lat="42.98236" lon="-0.2424">
        <ele>1522</ele>
        <time>2020-09-03T08:34:07Z</time>
      </trkpt>
      <trkpt lat="42.98237" lon="-0.24235">
        <ele>1522.2</ele>
        <time>2020-09-03T08:34:08Z</time>
      </trkpt>
      <trkpt lat="42.98237" lon="-0.24233">
        <ele>1522.2</ele>
        <time>2020-09-03T08:34:09Z</time>
      </trkpt>
      <trkpt lat="42.98238" lon="-0.24229">
        <ele>1522.4</ele>
        <time>2020-09-03T08:34:10Z</time>
      </trkpt>
      <trkpt lat="42.98239" lon="-0.24226">
        <ele>1522.4</ele>
        <time>2020-09-03T08:34:11Z</time>
      </trkpt>
      <trkpt lat="42.9824" lon="-0.24221">
        <ele>1522.6</ele>
        <time>2020-09-03T08:34:12Z</time>
      </trkpt>
      <trkpt lat="42.98241" lon="-0.24219">
        <ele>1522.8</ele>
        <time>2020-09-03T08:34:13Z</time>
      </trkpt>
      <trkpt lat="42.98241" lon="-0.24215">
        <ele>1523.2</ele>
        <time>2020-09-03T08:34:14Z</time>
      </trkpt>
      <trkpt lat="42.98243" lon="-0.24211">
        <ele>1523.4</ele>
        <time>2020-09-03T08:34:15Z</time>
      </trkpt>
      <trkpt lat="42.98244" lon="-0.24208">
        <ele>1523.6</ele>
        <time>2020-09-03T08:34:16Z</time>
      </trkpt>
      <trkpt lat="42.98246" lon="-0.24204">
        <ele>1523.8</ele>
        <time>2020-09-03T08:34:17Z</time>
      </trkpt>
      <trkpt lat="42.98248" lon="-0.24201">
        <ele>1524</ele>
        <time>2020-09-03T08:34:18Z</time>
      </trkpt>
      <trkpt lat="42.98249" lon="-0.24197">
        <ele>1524.4</ele>
        <time>2020-09-03T08:34:19Z</time>
      </trkpt>
      <trkpt lat="42.98251" lon="-0.24194">
        <ele>1524.6</ele>
        <time>2020-09-03T08:34:20Z</time>
      </trkpt>
      <trkpt lat="42.98252" lon="-0.24191">
        <ele>1524.6</ele>
        <time>2020-09-03T08:34:21Z</time>
      </trkpt>
      <trkpt lat="42.98254" lon="-0.24187">
        <ele>1524.8</ele>
        <time>2020-09-03T08:34:22Z</time>
      </trkpt>
      <trkpt lat="42.98256" lon="-0.24183">
        <ele>1525</ele>
        <time>2020-09-03T08:34:23Z</time>
      </trkpt>
      <trkpt lat="42.98257" lon="-0.24181">
        <ele>1525.2</ele>
        <time>2020-09-03T08:34:24Z</time>
      </trkpt>
      <trkpt lat="42.98258" lon="-0.24177">
        <ele>1525.2</ele>
        <time>2020-09-03T08:34:25Z</time>
      </trkpt>
      <trkpt lat="42.9826" lon="-0.24173">
        <ele>1525.4</ele>
        <time>2020-09-03T08:34:26Z</time>
      </trkpt>
      <trkpt lat="42.98261" lon="-0.24171">
        <ele>1525.6</ele>
        <time>2020-09-03T08:34:27Z</time>
      </trkpt>
      <trkpt lat="42.98262" lon="-0.24168">
        <ele>1525.8</ele>
        <time>2020-09-03T08:34:28Z</time>
      </trkpt>
      <trkpt lat="42.98263" lon="-0.24165">
        <ele>1526</ele>
        <time>2020-09-03T08:34:29Z</time>
      </trkpt>
      <trkpt lat="42.98265" lon="-0.24162">
        <ele>1526</ele>
        <time>2020-09-03T08:34:30Z</time>
      </trkpt>
      <trkpt lat="42.98266" lon="-0.24159">
        <ele>1526.8</ele>
        <time>2020-09-03T08:34:31Z</time>
      </trkpt>
      <trkpt lat="42.98267" lon="-0.24155">
        <ele>1527.4</ele>
        <time>2020-09-03T08:34:32Z</time>
      </trkpt>
      <trkpt lat="42.98268" lon="-0.24152">
        <ele>1527.8</ele>
        <time>2020-09-03T08:34:33Z</time>
      </trkpt>
      <trkpt lat="42.9827" lon="-0.2415">
        <ele>1528</ele>
        <time>2020-09-03T08:34:34Z</time>
      </trkpt>
      <trkpt lat="42.98271" lon="-0.24147">
        <ele>1528.2</ele>
        <time>2020-09-03T08:34:35Z</time>
      </trkpt>
      <trkpt lat="42.98273" lon="-0.24143">
        <ele>1528.6</ele>
        <time>2020-09-03T08:34:36Z</time>
      </trkpt>
      <trkpt lat="42.98274" lon="-0.24141">
        <ele>1528.6</ele>
        <time>2020-09-03T08:34:37Z</time>
      </trkpt>
      <trkpt lat="42.98275" lon="-0.24138">
        <ele>1529</ele>
        <time>2020-09-03T08:34:38Z</time>
      </trkpt>
      <trkpt lat="42.98276" lon="-0.24134">
        <ele>1529.2</ele>
        <time>2020-09-03T08:34:39Z</time>
      </trkpt>
      <trkpt lat="42.98278" lon="-0.24131">
        <ele>1529.6</ele>
        <time>2020-09-03T08:34:40Z</time>
      </trkpt>
      <trkpt lat="42.98279" lon="-0.24127">
        <ele>1529.8</ele>
        <time>2020-09-03T08:34:41Z</time>
      </trkpt>
      <trkpt lat="42.98279" lon="-0.24123">
        <ele>1530</ele>
        <time>2020-09-03T08:34:42Z</time>
      </trkpt>
      <trkpt lat="42.9828" lon="-0.24119">
        <ele>1530</ele>
        <time>2020-09-03T08:34:43Z</time>
      </trkpt>
      <trkpt lat="42.9828" lon="-0.24116">
        <ele>1530.4</ele>
        <time>2020-09-03T08:34:44Z</time>
      </trkpt>
      <trkpt lat="42.9828" lon="-0.24113">
        <ele>1530.8</ele>
        <time>2020-09-03T08:34:45Z</time>
      </trkpt>
      <trkpt lat="42.98281" lon="-0.24111">
        <ele>1531.2</ele>
        <time>2020-09-03T08:34:46Z</time>
      </trkpt>
      <trkpt lat="42.98281" lon="-0.24109">
        <ele>1531.4</ele>
        <time>2020-09-03T08:34:47Z</time>
      </trkpt>
      <trkpt lat="42.98281" lon="-0.24107">
        <ele>1531.6</ele>
        <time>2020-09-03T08:34:48Z</time>
      </trkpt>
      <trkpt lat="42.98281" lon="-0.24106">
        <ele>1532.2</ele>
        <time>2020-09-03T08:34:49Z</time>
      </trkpt>
      <trkpt lat="42.98281" lon="-0.24105">
        <ele>1532.2</ele>
        <time>2020-09-03T08:34:50Z</time>
      </trkpt>
      <trkpt lat="42.98281" lon="-0.24104">
        <ele>1532.4</ele>
        <time>2020-09-03T08:34:51Z</time>
      </trkpt>
      <trkpt lat="42.98281" lon="-0.24104">
        <ele>1532.4</ele>
        <time>2020-09-03T08:34:52Z</time>
      </trkpt>
      <trkpt lat="42.98281" lon="-0.24104">
        <ele>1532.4</ele>
        <time>2020-09-03T08:34:53Z</time>
      </trkpt>
      <trkpt lat="42.98281" lon="-0.24104">
        <ele>1532.4</ele>
        <time>2020-09-03T08:35:02Z</time>
      </trkpt>
      <trkpt lat="42.98281" lon="-0.24104">
        <ele>1532.4</ele>
        <time>2020-09-03T08:35:12Z</time>
      </trkpt>
      <trkpt lat="42.98279" lon="-0.24106">
        <ele>1531.8</ele>
        <time>2020-09-03T08:35:57Z</time>
      </trkpt>
      <trkpt lat="42.98278" lon="-0.24108">
        <ele>1531.8</ele>
        <time>2020-09-03T08:36:11Z</time>
      </trkpt>
      <trkpt lat="42.98277" lon="-0.24111">
        <ele>1531.8</ele>
        <time>2020-09-03T08:36:49Z</time>
      </trkpt>
      <trkpt lat="42.98276" lon="-0.24113">
        <ele>1531.6</ele>
        <time>2020-09-03T08:37:30Z</time>
      </trkpt>
      <trkpt lat="42.98276" lon="-0.24111">
        <ele>1531.4</ele>
        <time>2020-09-03T08:38:04Z</time>
      </trkpt>
      <trkpt lat="42.98276" lon="-0.24111">
        <ele>1531.2</ele>
        <time>2020-09-03T08:38:30Z</time>
      </trkpt>
      <trkpt lat="42.98276" lon="-0.24111">
        <ele>1531.4</ele>
        <time>2020-09-03T08:39:01Z</time>
      </trkpt>
      <trkpt lat="42.98276" lon="-0.24111">
        <ele>1531.2</ele>
        <time>2020-09-03T08:39:29Z</time>
      </trkpt>
      <trkpt lat="42.98276" lon="-0.24111">
        <ele>1531.6</ele>
        <time>2020-09-03T08:40:04Z</time>
      </trkpt>
      <trkpt lat="42.98273" lon="-0.24119">
        <ele>1531.6</ele>
        <time>2020-09-03T08:40:07Z</time>
      </trkpt>
      <trkpt lat="42.98271" lon="-0.24125">
        <ele>1531.6</ele>
        <time>2020-09-03T08:40:09Z</time>
      </trkpt>
      <trkpt lat="42.98264" lon="-0.24137">
        <ele>1531.6</ele>
        <time>2020-09-03T08:40:13Z</time>
      </trkpt>
      <trkpt lat="42.98261" lon="-0.24144">
        <ele>1531.4</ele>
        <time>2020-09-03T08:40:16Z</time>
      </trkpt>
      <trkpt lat="42.9826" lon="-0.24147">
        <ele>1531.4</ele>
        <time>2020-09-03T08:40:17Z</time>
      </trkpt>
      <trkpt lat="42.98259" lon="-0.24149">
        <ele>1531.4</ele>
        <time>2020-09-03T08:40:18Z</time>
      </trkpt>
      <trkpt lat="42.98258" lon="-0.2415">
        <ele>1531.2</ele>
        <time>2020-09-03T08:40:19Z</time>
      </trkpt>
      <trkpt lat="42.98258" lon="-0.24151">
        <ele>1531.2</ele>
        <time>2020-09-03T08:40:20Z</time>
      </trkpt>
      <trkpt lat="42.98257" lon="-0.24152">
        <ele>1531.2</ele>
        <time>2020-09-03T08:40:21Z</time>
      </trkpt>
      <trkpt lat="42.98256" lon="-0.24154">
        <ele>1531</ele>
        <time>2020-09-03T08:40:22Z</time>
      </trkpt>
      <trkpt lat="42.98254" lon="-0.2416">
        <ele>1531.2</ele>
        <time>2020-09-03T08:40:25Z</time>
      </trkpt>
      <trkpt lat="42.98253" lon="-0.24162">
        <ele>1531.2</ele>
        <time>2020-09-03T08:40:26Z</time>
      </trkpt>
      <trkpt lat="42.98246" lon="-0.24174">
        <ele>1531</ele>
        <time>2020-09-03T08:40:32Z</time>
      </trkpt>
      <trkpt lat="42.98235" lon="-0.24198">
        <ele>1530.6</ele>
        <time>2020-09-03T08:40:42Z</time>
      </trkpt>
      <trkpt lat="42.98226" lon="-0.24221">
        <ele>1530</ele>
        <time>2020-09-03T08:40:50Z</time>
      </trkpt>
      <trkpt lat="42.98224" lon="-0.24229">
        <ele>1529.8</ele>
        <time>2020-09-03T08:40:53Z</time>
      </trkpt>
      <trkpt lat="42.98222" lon="-0.24234">
        <ele>1529.8</ele>
        <time>2020-09-03T08:40:55Z</time>
      </trkpt>
      <trkpt lat="42.98222" lon="-0.24237">
        <ele>1529.6</ele>
        <time>2020-09-03T08:40:56Z</time>
      </trkpt>
      <trkpt lat="42.98214" lon="-0.24261">
        <ele>1529</ele>
        <time>2020-09-03T08:41:04Z</time>
      </trkpt>
      <trkpt lat="42.98211" lon="-0.24267">
        <ele>1528.8</ele>
        <time>2020-09-03T08:41:06Z</time>
      </trkpt>
      <trkpt lat="42.98198" lon="-0.24287">
        <ele>1527.6</ele>
        <time>2020-09-03T08:41:13Z</time>
      </trkpt>
      <trkpt lat="42.98181" lon="-0.24305">
        <ele>1526.8</ele>
        <time>2020-09-03T08:41:21Z</time>
      </trkpt>
      <trkpt lat="42.98158" lon="-0.24326">
        <ele>1526.6</ele>
        <time>2020-09-03T08:41:29Z</time>
      </trkpt>
      <trkpt lat="42.9815" lon="-0.24337">
        <ele>1526.4</ele>
        <time>2020-09-03T08:41:32Z</time>
      </trkpt>
      <trkpt lat="42.9814" lon="-0.24348">
        <ele>1526.2</ele>
        <time>2020-09-03T08:41:35Z</time>
      </trkpt>
      <trkpt lat="42.98113" lon="-0.24379">
        <ele>1525.4</ele>
        <time>2020-09-03T08:41:43Z</time>
      </trkpt>
      <trkpt lat="42.98109" lon="-0.24384">
        <ele>1525.2</ele>
        <time>2020-09-03T08:41:44Z</time>
      </trkpt>
      <trkpt lat="42.98101" lon="-0.24392">
        <ele>1525</ele>
        <time>2020-09-03T08:41:46Z</time>
      </trkpt>
      <trkpt lat="42.98088" lon="-0.24402">
        <ele>1524</ele>
        <time>2020-09-03T08:41:49Z</time>
      </trkpt>
      <trkpt lat="42.9808" lon="-0.24407">
        <ele>1523.6</ele>
        <time>2020-09-03T08:41:51Z</time>
      </trkpt>
      <trkpt lat="42.98065" lon="-0.24416">
        <ele>1523</ele>
        <time>2020-09-03T08:41:54Z</time>
      </trkpt>
      <trkpt lat="42.98055" lon="-0.24425">
        <ele>1523</ele>
        <time>2020-09-03T08:41:56Z</time>
      </trkpt>
      <trkpt lat="42.9805" lon="-0.2443">
        <ele>1523</ele>
        <time>2020-09-03T08:41:57Z</time>
      </trkpt>
      <trkpt lat="42.98038" lon="-0.24446">
        <ele>1522.6</ele>
        <time>2020-09-03T08:42:00Z</time>
      </trkpt>
      <trkpt lat="42.98034" lon="-0.24452">
        <ele>1522.2</ele>
        <time>2020-09-03T08:42:01Z</time>
      </trkpt>
      <trkpt lat="42.98031" lon="-0.24459">
        <ele>1521.8</ele>
        <time>2020-09-03T08:42:02Z</time>
      </trkpt>
      <trkpt lat="42.98025" lon="-0.24472">
        <ele>1521.4</ele>
        <time>2020-09-03T08:42:04Z</time>
      </trkpt>
      <trkpt lat="42.98022" lon="-0.24488">
        <ele>1521.4</ele>
        <time>2020-09-03T08:42:06Z</time>
      </trkpt>
      <trkpt lat="42.98022" lon="-0.24506">
        <ele>1521</ele>
        <time>2020-09-03T08:42:08Z</time>
      </trkpt>
      <trkpt lat="42.98022" lon="-0.24515">
        <ele>1520.8</ele>
        <time>2020-09-03T08:42:09Z</time>
      </trkpt>
      <trkpt lat="42.98024" lon="-0.24533">
        <ele>1520.4</ele>
        <time>2020-09-03T08:42:11Z</time>
      </trkpt>
      <trkpt lat="42.98022" lon="-0.24574">
        <ele>1520</ele>
        <time>2020-09-03T08:42:16Z</time>
      </trkpt>
      <trkpt lat="42.98021" lon="-0.24581">
        <ele>1519.8</ele>
        <time>2020-09-03T08:42:17Z</time>
      </trkpt>
      <trkpt lat="42.9802" lon="-0.24587">
        <ele>1519.6</ele>
        <time>2020-09-03T08:42:18Z</time>
      </trkpt>
      <trkpt lat="42.98019" lon="-0.24594">
        <ele>1519.4</ele>
        <time>2020-09-03T08:42:19Z</time>
      </trkpt>
      <trkpt lat="42.98019" lon="-0.246">
        <ele>1519.2</ele>
        <time>2020-09-03T08:42:20Z</time>
      </trkpt>
      <trkpt lat="42.98017" lon="-0.24605">
        <ele>1519</ele>
        <time>2020-09-03T08:42:21Z</time>
      </trkpt>
      <trkpt lat="42.98016" lon="-0.24613">
        <ele>1518.8</ele>
        <time>2020-09-03T08:42:22Z</time>
      </trkpt>
      <trkpt lat="42.98014" lon="-0.24633">
        <ele>1518.6</ele>
        <time>2020-09-03T08:42:25Z</time>
      </trkpt>
      <trkpt lat="42.98012" lon="-0.24641">
        <ele>1518.6</ele>
        <time>2020-09-03T08:42:26Z</time>
      </trkpt>
      <trkpt lat="42.98008" lon="-0.24655">
        <ele>1518.4</ele>
        <time>2020-09-03T08:42:28Z</time>
      </trkpt>
      <trkpt lat="42.98005" lon="-0.24661">
        <ele>1518.2</ele>
        <time>2020-09-03T08:42:29Z</time>
      </trkpt>
      <trkpt lat="42.97999" lon="-0.24669">
        <ele>1518</ele>
        <time>2020-09-03T08:42:31Z</time>
      </trkpt>
      <trkpt lat="42.97995" lon="-0.24672">
        <ele>1518</ele>
        <time>2020-09-03T08:42:32Z</time>
      </trkpt>
      <trkpt lat="42.97992" lon="-0.24675">
        <ele>1517.8</ele>
        <time>2020-09-03T08:42:33Z</time>
      </trkpt>
      <trkpt lat="42.97988" lon="-0.24677">
        <ele>1517.6</ele>
        <time>2020-09-03T08:42:34Z</time>
      </trkpt>
      <trkpt lat="42.97985" lon="-0.2468">
        <ele>1517.6</ele>
        <time>2020-09-03T08:42:35Z</time>
      </trkpt>
      <trkpt lat="42.97981" lon="-0.24683">
        <ele>1517.6</ele>
        <time>2020-09-03T08:42:36Z</time>
      </trkpt>
      <trkpt lat="42.97978" lon="-0.24686">
        <ele>1517.2</ele>
        <time>2020-09-03T08:42:37Z</time>
      </trkpt>
      <trkpt lat="42.97964" lon="-0.24695">
        <ele>1517.2</ele>
        <time>2020-09-03T08:42:40Z</time>
      </trkpt>
      <trkpt lat="42.97953" lon="-0.247">
        <ele>1517.2</ele>
        <time>2020-09-03T08:42:42Z</time>
      </trkpt>
      <trkpt lat="42.97942" lon="-0.24703">
        <ele>1517.2</ele>
        <time>2020-09-03T08:42:44Z</time>
      </trkpt>
      <trkpt lat="42.9793" lon="-0.24706">
        <ele>1517</ele>
        <time>2020-09-03T08:42:46Z</time>
      </trkpt>
      <trkpt lat="42.97925" lon="-0.24708">
        <ele>1516.8</ele>
        <time>2020-09-03T08:42:47Z</time>
      </trkpt>
      <trkpt lat="42.97919" lon="-0.2471">
        <ele>1516.8</ele>
        <time>2020-09-03T08:42:48Z</time>
      </trkpt>
      <trkpt lat="42.97902" lon="-0.24718">
        <ele>1516.6</ele>
        <time>2020-09-03T08:42:51Z</time>
      </trkpt>
      <trkpt lat="42.97898" lon="-0.24722">
        <ele>1516.2</ele>
        <time>2020-09-03T08:42:52Z</time>
      </trkpt>
      <trkpt lat="42.97894" lon="-0.24726">
        <ele>1516</ele>
        <time>2020-09-03T08:42:53Z</time>
      </trkpt>
      <trkpt lat="42.97886" lon="-0.24734">
        <ele>1515.8</ele>
        <time>2020-09-03T08:42:55Z</time>
      </trkpt>
      <trkpt lat="42.97882" lon="-0.24738">
        <ele>1515.6</ele>
        <time>2020-09-03T08:42:56Z</time>
      </trkpt>
      <trkpt lat="42.97878" lon="-0.24742">
        <ele>1515.6</ele>
        <time>2020-09-03T08:42:57Z</time>
      </trkpt>
      <trkpt lat="42.97869" lon="-0.2475">
        <ele>1515.4</ele>
        <time>2020-09-03T08:42:59Z</time>
      </trkpt>
      <trkpt lat="42.97843" lon="-0.24768">
        <ele>1515.4</ele>
        <time>2020-09-03T08:43:04Z</time>
      </trkpt>
      <trkpt lat="42.97837" lon="-0.2477">
        <ele>1515.4</ele>
        <time>2020-09-03T08:43:05Z</time>
      </trkpt>
      <trkpt lat="42.9783" lon="-0.24772">
        <ele>1515.4</ele>
        <time>2020-09-03T08:43:06Z</time>
      </trkpt>
      <trkpt lat="42.97817" lon="-0.24773">
        <ele>1515.2</ele>
        <time>2020-09-03T08:43:08Z</time>
      </trkpt>
      <trkpt lat="42.97811" lon="-0.24772">
        <ele>1514.8</ele>
        <time>2020-09-03T08:43:09Z</time>
      </trkpt>
      <trkpt lat="42.97797" lon="-0.24768">
        <ele>1514.2</ele>
        <time>2020-09-03T08:43:11Z</time>
      </trkpt>
      <trkpt lat="42.9779" lon="-0.24764">
        <ele>1513.8</ele>
        <time>2020-09-03T08:43:12Z</time>
      </trkpt>
      <trkpt lat="42.97778" lon="-0.24759">
        <ele>1513</ele>
        <time>2020-09-03T08:43:14Z</time>
      </trkpt>
      <trkpt lat="42.97764" lon="-0.24752">
        <ele>1512.8</ele>
        <time>2020-09-03T08:43:16Z</time>
      </trkpt>
      <trkpt lat="42.97755" lon="-0.2474">
        <ele>1512.6</ele>
        <time>2020-09-03T08:43:18Z</time>
      </trkpt>
      <trkpt lat="42.97752" lon="-0.24734">
        <ele>1512.2</ele>
        <time>2020-09-03T08:43:19Z</time>
      </trkpt>
      <trkpt lat="42.97748" lon="-0.24725">
        <ele>1511.8</ele>
        <time>2020-09-03T08:43:20Z</time>
      </trkpt>
      <trkpt lat="42.97744" lon="-0.24717">
        <ele>1511.6</ele>
        <time>2020-09-03T08:43:21Z</time>
      </trkpt>
      <trkpt lat="42.97739" lon="-0.24711">
        <ele>1511.2</ele>
        <time>2020-09-03T08:43:22Z</time>
      </trkpt>
      <trkpt lat="42.97735" lon="-0.24707">
        <ele>1510.8</ele>
        <time>2020-09-03T08:43:23Z</time>
      </trkpt>
      <trkpt lat="42.97728" lon="-0.24702">
        <ele>1510.6</ele>
        <time>2020-09-03T08:43:24Z</time>
      </trkpt>
      <trkpt lat="42.97719" lon="-0.24699">
        <ele>1510.6</ele>
        <time>2020-09-03T08:43:25Z</time>
      </trkpt>
      <trkpt lat="42.97711" lon="-0.24697">
        <ele>1510.4</ele>
        <time>2020-09-03T08:43:26Z</time>
      </trkpt>
      <trkpt lat="42.97706" lon="-0.24696">
        <ele>1510</ele>
        <time>2020-09-03T08:43:27Z</time>
      </trkpt>
      <trkpt lat="42.97683" lon="-0.24689">
        <ele>1509.6</ele>
        <time>2020-09-03T08:43:30Z</time>
      </trkpt>
      <trkpt lat="42.97661" lon="-0.24688">
        <ele>1509.4</ele>
        <time>2020-09-03T08:43:33Z</time>
      </trkpt>
      <trkpt lat="42.97646" lon="-0.2469">
        <ele>1509.2</ele>
        <time>2020-09-03T08:43:35Z</time>
      </trkpt>
      <trkpt lat="42.97632" lon="-0.24697">
        <ele>1509</ele>
        <time>2020-09-03T08:43:37Z</time>
      </trkpt>
      <trkpt lat="42.97626" lon="-0.24703">
        <ele>1508.8</ele>
        <time>2020-09-03T08:43:38Z</time>
      </trkpt>
      <trkpt lat="42.9762" lon="-0.24709">
        <ele>1508.6</ele>
        <time>2020-09-03T08:43:39Z</time>
      </trkpt>
      <trkpt lat="42.97614" lon="-0.24716">
        <ele>1508.6</ele>
        <time>2020-09-03T08:43:40Z</time>
      </trkpt>
      <trkpt lat="42.97609" lon="-0.24722">
        <ele>1508.2</ele>
        <time>2020-09-03T08:43:41Z</time>
      </trkpt>
      <trkpt lat="42.97604" lon="-0.24728">
        <ele>1508.2</ele>
        <time>2020-09-03T08:43:42Z</time>
      </trkpt>
      <trkpt lat="42.97598" lon="-0.24733">
        <ele>1507.6</ele>
        <time>2020-09-03T08:43:43Z</time>
      </trkpt>
      <trkpt lat="42.97592" lon="-0.24737">
        <ele>1507.6</ele>
        <time>2020-09-03T08:43:44Z</time>
      </trkpt>
      <trkpt lat="42.97587" lon="-0.24739">
        <ele>1507.4</ele>
        <time>2020-09-03T08:43:45Z</time>
      </trkpt>
      <trkpt lat="42.97582" lon="-0.24742">
        <ele>1507.2</ele>
        <time>2020-09-03T08:43:46Z</time>
      </trkpt>
      <trkpt lat="42.97578" lon="-0.24744">
        <ele>1507</ele>
        <time>2020-09-03T08:43:47Z</time>
      </trkpt>
      <trkpt lat="42.97574" lon="-0.24746">
        <ele>1507.2</ele>
        <time>2020-09-03T08:43:48Z</time>
      </trkpt>
      <trkpt lat="42.9757" lon="-0.24748">
        <ele>1507</ele>
        <time>2020-09-03T08:43:49Z</time>
      </trkpt>
      <trkpt lat="42.97566" lon="-0.24751">
        <ele>1507</ele>
        <time>2020-09-03T08:43:50Z</time>
      </trkpt>
      <trkpt lat="42.97561" lon="-0.24754">
        <ele>1507.2</ele>
        <time>2020-09-03T08:43:51Z</time>
      </trkpt>
      <trkpt lat="42.97552" lon="-0.24759">
        <ele>1507.4</ele>
        <time>2020-09-03T08:43:53Z</time>
      </trkpt>
      <trkpt lat="42.97547" lon="-0.24761">
        <ele>1507.2</ele>
        <time>2020-09-03T08:43:54Z</time>
      </trkpt>
      <trkpt lat="42.97538" lon="-0.2476">
        <ele>1507.2</ele>
        <time>2020-09-03T08:43:56Z</time>
      </trkpt>
      <trkpt lat="42.97534" lon="-0.24757">
        <ele>1507.2</ele>
        <time>2020-09-03T08:43:57Z</time>
      </trkpt>
      <trkpt lat="42.97531" lon="-0.24754">
        <ele>1507.2</ele>
        <time>2020-09-03T08:43:58Z</time>
      </trkpt>
      <trkpt lat="42.97528" lon="-0.2475">
        <ele>1507.2</ele>
        <time>2020-09-03T08:43:59Z</time>
      </trkpt>
      <trkpt lat="42.97526" lon="-0.24746">
        <ele>1507.2</ele>
        <time>2020-09-03T08:44:00Z</time>
      </trkpt>
      <trkpt lat="42.97524" lon="-0.24742">
        <ele>1507.2</ele>
        <time>2020-09-03T08:44:01Z</time>
      </trkpt>
      <trkpt lat="42.97522" lon="-0.24739">
        <ele>1507.4</ele>
        <time>2020-09-03T08:44:02Z</time>
      </trkpt>
      <trkpt lat="42.9752" lon="-0.24736">
        <ele>1507.4</ele>
        <time>2020-09-03T08:44:03Z</time>
      </trkpt>
      <trkpt lat="42.97518" lon="-0.24733">
        <ele>1507.4</ele>
        <time>2020-09-03T08:44:04Z</time>
      </trkpt>
      <trkpt lat="42.97516" lon="-0.24731">
        <ele>1507.4</ele>
        <time>2020-09-03T08:44:05Z</time>
      </trkpt>
      <trkpt lat="42.97513" lon="-0.24729">
        <ele>1507.4</ele>
        <time>2020-09-03T08:44:06Z</time>
      </trkpt>
      <trkpt lat="42.97511" lon="-0.24728">
        <ele>1507.6</ele>
        <time>2020-09-03T08:44:07Z</time>
      </trkpt>
      <trkpt lat="42.97509" lon="-0.24727">
        <ele>1507.6</ele>
        <time>2020-09-03T08:44:08Z</time>
      </trkpt>
      <trkpt lat="42.97507" lon="-0.24727">
        <ele>1507.8</ele>
        <time>2020-09-03T08:44:09Z</time>
      </trkpt>
      <trkpt lat="42.97504" lon="-0.24727">
        <ele>1507.8</ele>
        <time>2020-09-03T08:44:10Z</time>
      </trkpt>
      <trkpt lat="42.97502" lon="-0.24727">
        <ele>1507.8</ele>
        <time>2020-09-03T08:44:11Z</time>
      </trkpt>
      <trkpt lat="42.975" lon="-0.24727">
        <ele>1507.8</ele>
        <time>2020-09-03T08:44:12Z</time>
      </trkpt>
      <trkpt lat="42.975" lon="-0.24727">
        <ele>1507.8</ele>
        <time>2020-09-03T08:44:13Z</time>
      </trkpt>
      <trkpt lat="42.975" lon="-0.24727">
        <ele>1507.8</ele>
        <time>2020-09-03T08:44:14Z</time>
      </trkpt>
      <trkpt lat="42.975" lon="-0.24727">
        <ele>1507.4</ele>
        <time>2020-09-03T08:44:25Z</time>
      </trkpt>
      <trkpt lat="42.97497" lon="-0.24728">
        <ele>1507.6</ele>
        <time>2020-09-03T08:44:37Z</time>
      </trkpt>
      <trkpt lat="42.97482" lon="-0.24733">
        <ele>1507.2</ele>
        <time>2020-09-03T08:44:43Z</time>
      </trkpt>
      <trkpt lat="42.97477" lon="-0.24732">
        <ele>1507.4</ele>
        <time>2020-09-03T08:44:45Z</time>
      </trkpt>
      <trkpt lat="42.97475" lon="-0.24732">
        <ele>1507.6</ele>
        <time>2020-09-03T08:44:46Z</time>
      </trkpt>
      <trkpt lat="42.97472" lon="-0.24731">
        <ele>1507.6</ele>
        <time>2020-09-03T08:44:47Z</time>
      </trkpt>
      <trkpt lat="42.9747" lon="-0.24731">
        <ele>1507.8</ele>
        <time>2020-09-03T08:44:48Z</time>
      </trkpt>
      <trkpt lat="42.97468" lon="-0.24731">
        <ele>1507.8</ele>
        <time>2020-09-03T08:44:49Z</time>
      </trkpt>
      <trkpt lat="42.97465" lon="-0.24731">
        <ele>1508</ele>
        <time>2020-09-03T08:44:50Z</time>
      </trkpt>
      <trkpt lat="42.9746" lon="-0.24731">
        <ele>1508.2</ele>
        <time>2020-09-03T08:44:52Z</time>
      </trkpt>
      <trkpt lat="42.97453" lon="-0.24733">
        <ele>1508.4</ele>
        <time>2020-09-03T08:44:55Z</time>
      </trkpt>
      <trkpt lat="42.97443" lon="-0.24736">
        <ele>1509</ele>
        <time>2020-09-03T08:44:59Z</time>
      </trkpt>
      <trkpt lat="42.97439" lon="-0.24737">
        <ele>1509.4</ele>
        <time>2020-09-03T08:45:01Z</time>
      </trkpt>
      <trkpt lat="42.97437" lon="-0.24738">
        <ele>1509.6</ele>
        <time>2020-09-03T08:45:02Z</time>
      </trkpt>
      <trkpt lat="42.97435" lon="-0.24738">
        <ele>1509.6</ele>
        <time>2020-09-03T08:45:03Z</time>
      </trkpt>
      <trkpt lat="42.97433" lon="-0.24739">
        <ele>1509.8</ele>
        <time>2020-09-03T08:45:04Z</time>
      </trkpt>
      <trkpt lat="42.97432" lon="-0.2474">
        <ele>1509.8</ele>
        <time>2020-09-03T08:45:05Z</time>
      </trkpt>
      <trkpt lat="42.9743" lon="-0.24741">
        <ele>1509.8</ele>
        <time>2020-09-03T08:45:06Z</time>
      </trkpt>
      <trkpt lat="42.97428" lon="-0.24742">
        <ele>1510.2</ele>
        <time>2020-09-03T08:45:07Z</time>
      </trkpt>
      <trkpt lat="42.97426" lon="-0.24743">
        <ele>1510.4</ele>
        <time>2020-09-03T08:45:08Z</time>
      </trkpt>
      <trkpt lat="42.97425" lon="-0.24745">
        <ele>1510.8</ele>
        <time>2020-09-03T08:45:09Z</time>
      </trkpt>
      <trkpt lat="42.97423" lon="-0.24746">
        <ele>1510.8</ele>
        <time>2020-09-03T08:45:10Z</time>
      </trkpt>
      <trkpt lat="42.97422" lon="-0.24748">
        <ele>1511.2</ele>
        <time>2020-09-03T08:45:11Z</time>
      </trkpt>
      <trkpt lat="42.9742" lon="-0.2475">
        <ele>1511.4</ele>
        <time>2020-09-03T08:45:12Z</time>
      </trkpt>
      <trkpt lat="42.97418" lon="-0.24751">
        <ele>1511.6</ele>
        <time>2020-09-03T08:45:13Z</time>
      </trkpt>
      <trkpt lat="42.97416" lon="-0.24753">
        <ele>1512</ele>
        <time>2020-09-03T08:45:14Z</time>
      </trkpt>
      <trkpt lat="42.97415" lon="-0.24754">
        <ele>1512.2</ele>
        <time>2020-09-03T08:45:15Z</time>
      </trkpt>
      <trkpt lat="42.97413" lon="-0.24755">
        <ele>1512.4</ele>
        <time>2020-09-03T08:45:16Z</time>
      </trkpt>
      <trkpt lat="42.97411" lon="-0.24756">
        <ele>1512.6</ele>
        <time>2020-09-03T08:45:17Z</time>
      </trkpt>
      <trkpt lat="42.97409" lon="-0.24757">
        <ele>1512.8</ele>
        <time>2020-09-03T08:45:18Z</time>
      </trkpt>
      <trkpt lat="42.97408" lon="-0.24757">
        <ele>1513</ele>
        <time>2020-09-03T08:45:19Z</time>
      </trkpt>
      <trkpt lat="42.97406" lon="-0.24758">
        <ele>1513.2</ele>
        <time>2020-09-03T08:45:20Z</time>
      </trkpt>
      <trkpt lat="42.97404" lon="-0.24758">
        <ele>1513.4</ele>
        <time>2020-09-03T08:45:21Z</time>
      </trkpt>
      <trkpt lat="42.97402" lon="-0.24759">
        <ele>1513.6</ele>
        <time>2020-09-03T08:45:22Z</time>
      </trkpt>
      <trkpt lat="42.974" lon="-0.2476">
        <ele>1513.6</ele>
        <time>2020-09-03T08:45:23Z</time>
      </trkpt>
      <trkpt lat="42.97399" lon="-0.2476">
        <ele>1513.8</ele>
        <time>2020-09-03T08:45:24Z</time>
      </trkpt>
      <trkpt lat="42.97397" lon="-0.2476">
        <ele>1514</ele>
        <time>2020-09-03T08:45:25Z</time>
      </trkpt>
      <trkpt lat="42.97395" lon="-0.2476">
        <ele>1514.2</ele>
        <time>2020-09-03T08:45:26Z</time>
      </trkpt>
      <trkpt lat="42.97393" lon="-0.2476">
        <ele>1514.4</ele>
        <time>2020-09-03T08:45:27Z</time>
      </trkpt>
      <trkpt lat="42.97391" lon="-0.2476">
        <ele>1514.6</ele>
        <time>2020-09-03T08:45:28Z</time>
      </trkpt>
      <trkpt lat="42.97389" lon="-0.2476">
        <ele>1515</ele>
        <time>2020-09-03T08:45:29Z</time>
      </trkpt>
      <trkpt lat="42.97387" lon="-0.2476">
        <ele>1515</ele>
        <time>2020-09-03T08:45:30Z</time>
      </trkpt>
      <trkpt lat="42.97385" lon="-0.2476">
        <ele>1515.2</ele>
        <time>2020-09-03T08:45:31Z</time>
      </trkpt>
      <trkpt lat="42.97383" lon="-0.2476">
        <ele>1515.4</ele>
        <time>2020-09-03T08:45:32Z</time>
      </trkpt>
      <trkpt lat="42.97381" lon="-0.24759">
        <ele>1515.6</ele>
        <time>2020-09-03T08:45:33Z</time>
      </trkpt>
      <trkpt lat="42.97379" lon="-0.24759">
        <ele>1515.8</ele>
        <time>2020-09-03T08:45:34Z</time>
      </trkpt>
      <trkpt lat="42.97377" lon="-0.24759">
        <ele>1516</ele>
        <time>2020-09-03T08:45:35Z</time>
      </trkpt>
      <trkpt lat="42.97375" lon="-0.24759">
        <ele>1516.2</ele>
        <time>2020-09-03T08:45:36Z</time>
      </trkpt>
      <trkpt lat="42.97374" lon="-0.24759">
        <ele>1516.6</ele>
        <time>2020-09-03T08:45:37Z</time>
      </trkpt>
      <trkpt lat="42.97371" lon="-0.24758">
        <ele>1516.6</ele>
        <time>2020-09-03T08:45:38Z</time>
      </trkpt>
      <trkpt lat="42.97369" lon="-0.24758">
        <ele>1516.6</ele>
        <time>2020-09-03T08:45:39Z</time>
      </trkpt>
      <trkpt lat="42.97368" lon="-0.24758">
        <ele>1516.8</ele>
        <time>2020-09-03T08:45:40Z</time>
      </trkpt>
      <trkpt lat="42.97366" lon="-0.24757">
        <ele>1517</ele>
        <time>2020-09-03T08:45:41Z</time>
      </trkpt>
      <trkpt lat="42.97364" lon="-0.24757">
        <ele>1517.2</ele>
        <time>2020-09-03T08:45:42Z</time>
      </trkpt>
      <trkpt lat="42.97363" lon="-0.24757">
        <ele>1517.2</ele>
        <time>2020-09-03T08:45:43Z</time>
      </trkpt>
      <trkpt lat="42.97361" lon="-0.24756">
        <ele>1517.4</ele>
        <time>2020-09-03T08:45:44Z</time>
      </trkpt>
      <trkpt lat="42.9736" lon="-0.24756">
        <ele>1517.6</ele>
        <time>2020-09-03T08:45:45Z</time>
      </trkpt>
      <trkpt lat="42.97358" lon="-0.24756">
        <ele>1517.6</ele>
        <time>2020-09-03T08:45:46Z</time>
      </trkpt>
      <trkpt lat="42.97356" lon="-0.24756">
        <ele>1517.8</ele>
        <time>2020-09-03T08:45:47Z</time>
      </trkpt>
      <trkpt lat="42.97354" lon="-0.24756">
        <ele>1518</ele>
        <time>2020-09-03T08:45:48Z</time>
      </trkpt>
      <trkpt lat="42.97352" lon="-0.24757">
        <ele>1518.2</ele>
        <time>2020-09-03T08:45:49Z</time>
      </trkpt>
      <trkpt lat="42.9735" lon="-0.24757">
        <ele>1518.4</ele>
        <time>2020-09-03T08:45:50Z</time>
      </trkpt>
      <trkpt lat="42.97349" lon="-0.24758">
        <ele>1518.6</ele>
        <time>2020-09-03T08:45:51Z</time>
      </trkpt>
      <trkpt lat="42.97347" lon="-0.24759">
        <ele>1519</ele>
        <time>2020-09-03T08:45:52Z</time>
      </trkpt>
      <trkpt lat="42.97345" lon="-0.2476">
        <ele>1519</ele>
        <time>2020-09-03T08:45:53Z</time>
      </trkpt>
      <trkpt lat="42.97343" lon="-0.2476">
        <ele>1519.4</ele>
        <time>2020-09-03T08:45:54Z</time>
      </trkpt>
      <trkpt lat="42.97341" lon="-0.24761">
        <ele>1519.6</ele>
        <time>2020-09-03T08:45:55Z</time>
      </trkpt>
      <trkpt lat="42.9734" lon="-0.24761">
        <ele>1519.8</ele>
        <time>2020-09-03T08:45:56Z</time>
      </trkpt>
      <trkpt lat="42.97338" lon="-0.24761">
        <ele>1520</ele>
        <time>2020-09-03T08:45:57Z</time>
      </trkpt>
      <trkpt lat="42.97336" lon="-0.24762">
        <ele>1520.2</ele>
        <time>2020-09-03T08:45:58Z</time>
      </trkpt>
      <trkpt lat="42.97334" lon="-0.24762">
        <ele>1520.4</ele>
        <time>2020-09-03T08:45:59Z</time>
      </trkpt>
      <trkpt lat="42.97331" lon="-0.24762">
        <ele>1520.4</ele>
        <time>2020-09-03T08:46:00Z</time>
      </trkpt>
      <trkpt lat="42.97329" lon="-0.24763">
        <ele>1520.8</ele>
        <time>2020-09-03T08:46:01Z</time>
      </trkpt>
      <trkpt lat="42.97328" lon="-0.24763">
        <ele>1521</ele>
        <time>2020-09-03T08:46:02Z</time>
      </trkpt>
      <trkpt lat="42.97326" lon="-0.24764">
        <ele>1521.4</ele>
        <time>2020-09-03T08:46:03Z</time>
      </trkpt>
      <trkpt lat="42.97323" lon="-0.24765">
        <ele>1521.4</ele>
        <time>2020-09-03T08:46:04Z</time>
      </trkpt>
      <trkpt lat="42.97321" lon="-0.24766">
        <ele>1521.6</ele>
        <time>2020-09-03T08:46:05Z</time>
      </trkpt>
      <trkpt lat="42.97319" lon="-0.24767">
        <ele>1521.6</ele>
        <time>2020-09-03T08:46:06Z</time>
      </trkpt>
      <trkpt lat="42.97317" lon="-0.24768">
        <ele>1521.8</ele>
        <time>2020-09-03T08:46:07Z</time>
      </trkpt>
      <trkpt lat="42.97315" lon="-0.24769">
        <ele>1522</ele>
        <time>2020-09-03T08:46:08Z</time>
      </trkpt>
      <trkpt lat="42.97313" lon="-0.2477">
        <ele>1522.2</ele>
        <time>2020-09-03T08:46:09Z</time>
      </trkpt>
      <trkpt lat="42.97311" lon="-0.2477">
        <ele>1522.4</ele>
        <time>2020-09-03T08:46:10Z</time>
      </trkpt>
      <trkpt lat="42.97309" lon="-0.24772">
        <ele>1522.4</ele>
        <time>2020-09-03T08:46:11Z</time>
      </trkpt>
      <trkpt lat="42.97307" lon="-0.24773">
        <ele>1522.4</ele>
        <time>2020-09-03T08:46:12Z</time>
      </trkpt>
      <trkpt lat="42.97305" lon="-0.24774">
        <ele>1522.6</ele>
        <time>2020-09-03T08:46:13Z</time>
      </trkpt>
      <trkpt lat="42.97303" lon="-0.24776">
        <ele>1522.8</ele>
        <time>2020-09-03T08:46:14Z</time>
      </trkpt>
      <trkpt lat="42.97301" lon="-0.24777">
        <ele>1522.8</ele>
        <time>2020-09-03T08:46:15Z</time>
      </trkpt>
      <trkpt lat="42.97299" lon="-0.24779">
        <ele>1523</ele>
        <time>2020-09-03T08:46:16Z</time>
      </trkpt>
      <trkpt lat="42.97297" lon="-0.2478">
        <ele>1523.2</ele>
        <time>2020-09-03T08:46:17Z</time>
      </trkpt>
      <trkpt lat="42.97295" lon="-0.24781">
        <ele>1523.6</ele>
        <time>2020-09-03T08:46:18Z</time>
      </trkpt>
      <trkpt lat="42.97293" lon="-0.24782">
        <ele>1523.8</ele>
        <time>2020-09-03T08:46:19Z</time>
      </trkpt>
      <trkpt lat="42.97292" lon="-0.24784">
        <ele>1524</ele>
        <time>2020-09-03T08:46:20Z</time>
      </trkpt>
      <trkpt lat="42.9729" lon="-0.24786">
        <ele>1524</ele>
        <time>2020-09-03T08:46:21Z</time>
      </trkpt>
      <trkpt lat="42.97288" lon="-0.24788">
        <ele>1524.2</ele>
        <time>2020-09-03T08:46:22Z</time>
      </trkpt>
      <trkpt lat="42.97287" lon="-0.2479">
        <ele>1524.4</ele>
        <time>2020-09-03T08:46:23Z</time>
      </trkpt>
      <trkpt lat="42.97286" lon="-0.24792">
        <ele>1524.4</ele>
        <time>2020-09-03T08:46:24Z</time>
      </trkpt>
      <trkpt lat="42.97285" lon="-0.24795">
        <ele>1524.6</ele>
        <time>2020-09-03T08:46:25Z</time>
      </trkpt>
      <trkpt lat="42.97283" lon="-0.24797">
        <ele>1524.8</ele>
        <time>2020-09-03T08:46:26Z</time>
      </trkpt>
      <trkpt lat="42.97282" lon="-0.248">
        <ele>1524.8</ele>
        <time>2020-09-03T08:46:27Z</time>
      </trkpt>
      <trkpt lat="42.97281" lon="-0.24803">
        <ele>1525</ele>
        <time>2020-09-03T08:46:28Z</time>
      </trkpt>
      <trkpt lat="42.9728" lon="-0.24805">
        <ele>1525.2</ele>
        <time>2020-09-03T08:46:29Z</time>
      </trkpt>
      <trkpt lat="42.97278" lon="-0.24808">
        <ele>1525.2</ele>
        <time>2020-09-03T08:46:30Z</time>
      </trkpt>
      <trkpt lat="42.97277" lon="-0.2481">
        <ele>1525.4</ele>
        <time>2020-09-03T08:46:31Z</time>
      </trkpt>
      <trkpt lat="42.97275" lon="-0.24813">
        <ele>1525.6</ele>
        <time>2020-09-03T08:46:32Z</time>
      </trkpt>
      <trkpt lat="42.97274" lon="-0.24815">
        <ele>1525.8</ele>
        <time>2020-09-03T08:46:33Z</time>
      </trkpt>
      <trkpt lat="42.97272" lon="-0.24818">
        <ele>1525.8</ele>
        <time>2020-09-03T08:46:34Z</time>
      </trkpt>
      <trkpt lat="42.97271" lon="-0.2482">
        <ele>1526</ele>
        <time>2020-09-03T08:46:35Z</time>
      </trkpt>
      <trkpt lat="42.9727" lon="-0.24823">
        <ele>1526</ele>
        <time>2020-09-03T08:46:36Z</time>
      </trkpt>
      <trkpt lat="42.97268" lon="-0.24825">
        <ele>1526.2</ele>
        <time>2020-09-03T08:46:37Z</time>
      </trkpt>
      <trkpt lat="42.97267" lon="-0.24828">
        <ele>1526.2</ele>
        <time>2020-09-03T08:46:38Z</time>
      </trkpt>
      <trkpt lat="42.97265" lon="-0.2483">
        <ele>1526.2</ele>
        <time>2020-09-03T08:46:39Z</time>
      </trkpt>
      <trkpt lat="42.97264" lon="-0.24834">
        <ele>1526.2</ele>
        <time>2020-09-03T08:46:40Z</time>
      </trkpt>
      <trkpt lat="42.97262" lon="-0.24837">
        <ele>1526.2</ele>
        <time>2020-09-03T08:46:41Z</time>
      </trkpt>
      <trkpt lat="42.97261" lon="-0.2484">
        <ele>1526.4</ele>
        <time>2020-09-03T08:46:42Z</time>
      </trkpt>
      <trkpt lat="42.9726" lon="-0.24843">
        <ele>1526.4</ele>
        <time>2020-09-03T08:46:43Z</time>
      </trkpt>
      <trkpt lat="42.97258" lon="-0.24846">
        <ele>1526.6</ele>
        <time>2020-09-03T08:46:44Z</time>
      </trkpt>
      <trkpt lat="42.97257" lon="-0.24848">
        <ele>1526.6</ele>
        <time>2020-09-03T08:46:45Z</time>
      </trkpt>
      <trkpt lat="42.97256" lon="-0.24851">
        <ele>1526.8</ele>
        <time>2020-09-03T08:46:46Z</time>
      </trkpt>
      <trkpt lat="42.97254" lon="-0.24854">
        <ele>1526.8</ele>
        <time>2020-09-03T08:46:47Z</time>
      </trkpt>
      <trkpt lat="42.97253" lon="-0.24856">
        <ele>1527</ele>
        <time>2020-09-03T08:46:48Z</time>
      </trkpt>
      <trkpt lat="42.97252" lon="-0.24859">
        <ele>1527</ele>
        <time>2020-09-03T08:46:49Z</time>
      </trkpt>
      <trkpt lat="42.9725" lon="-0.24861">
        <ele>1527</ele>
        <time>2020-09-03T08:46:50Z</time>
      </trkpt>
      <trkpt lat="42.97249" lon="-0.24864">
        <ele>1527.2</ele>
        <time>2020-09-03T08:46:51Z</time>
      </trkpt>
      <trkpt lat="42.97247" lon="-0.24866">
        <ele>1527.2</ele>
        <time>2020-09-03T08:46:52Z</time>
      </trkpt>
      <trkpt lat="42.97246" lon="-0.24868">
        <ele>1527.2</ele>
        <time>2020-09-03T08:46:53Z</time>
      </trkpt>
      <trkpt lat="42.97245" lon="-0.2487">
        <ele>1527.2</ele>
        <time>2020-09-03T08:46:54Z</time>
      </trkpt>
      <trkpt lat="42.97243" lon="-0.24872">
        <ele>1527.4</ele>
        <time>2020-09-03T08:46:55Z</time>
      </trkpt>
      <trkpt lat="42.97242" lon="-0.24875">
        <ele>1527.6</ele>
        <time>2020-09-03T08:46:56Z</time>
      </trkpt>
      <trkpt lat="42.97241" lon="-0.24877">
        <ele>1528</ele>
        <time>2020-09-03T08:46:57Z</time>
      </trkpt>
      <trkpt lat="42.9724" lon="-0.2488">
        <ele>1528.2</ele>
        <time>2020-09-03T08:46:58Z</time>
      </trkpt>
      <trkpt lat="42.97238" lon="-0.24882">
        <ele>1528.4</ele>
        <time>2020-09-03T08:46:59Z</time>
      </trkpt>
      <trkpt lat="42.97237" lon="-0.24883">
        <ele>1528.6</ele>
        <time>2020-09-03T08:47:00Z</time>
      </trkpt>
      <trkpt lat="42.97236" lon="-0.24884">
        <ele>1528.8</ele>
        <time>2020-09-03T08:47:01Z</time>
      </trkpt>
      <trkpt lat="42.97236" lon="-0.24884">
        <ele>1528.8</ele>
        <time>2020-09-03T08:47:02Z</time>
      </trkpt>
      <trkpt lat="42.97236" lon="-0.24884">
        <ele>1529</ele>
        <time>2020-09-03T08:47:03Z</time>
      </trkpt>
      <trkpt lat="42.97236" lon="-0.24884">
        <ele>1529</ele>
        <time>2020-09-03T08:47:04Z</time>
      </trkpt>
      <trkpt lat="42.97236" lon="-0.24884">
        <ele>1529.2</ele>
        <time>2020-09-03T08:47:05Z</time>
      </trkpt>
      <trkpt lat="42.97236" lon="-0.24884">
        <ele>1529</ele>
        <time>2020-09-03T08:47:10Z</time>
      </trkpt>
      <trkpt lat="42.97236" lon="-0.24884">
        <ele>1528.6</ele>
        <time>2020-09-03T08:47:13Z</time>
      </trkpt>
      <trkpt lat="42.97236" lon="-0.24884">
        <ele>1528</ele>
        <time>2020-09-03T08:47:33Z</time>
      </trkpt>
      <trkpt lat="42.97235" lon="-0.24884">
        <ele>1528</ele>
        <time>2020-09-03T08:47:51Z</time>
      </trkpt>
      <trkpt lat="42.97232" lon="-0.24887">
        <ele>1528</ele>
        <time>2020-09-03T08:47:53Z</time>
      </trkpt>
      <trkpt lat="42.97219" lon="-0.24902">
        <ele>1528.4</ele>
        <time>2020-09-03T08:47:58Z</time>
      </trkpt>
      <trkpt lat="42.97206" lon="-0.24916">
        <ele>1528.4</ele>
        <time>2020-09-03T08:48:01Z</time>
      </trkpt>
      <trkpt lat="42.97202" lon="-0.24923">
        <ele>1528.2</ele>
        <time>2020-09-03T08:48:02Z</time>
      </trkpt>
      <trkpt lat="42.972" lon="-0.2493">
        <ele>1528.2</ele>
        <time>2020-09-03T08:48:03Z</time>
      </trkpt>
      <trkpt lat="42.97199" lon="-0.24937">
        <ele>1528</ele>
        <time>2020-09-03T08:48:04Z</time>
      </trkpt>
      <trkpt lat="42.97198" lon="-0.24944">
        <ele>1528</ele>
        <time>2020-09-03T08:48:05Z</time>
      </trkpt>
      <trkpt lat="42.97197" lon="-0.2495">
        <ele>1527.8</ele>
        <time>2020-09-03T08:48:06Z</time>
      </trkpt>
      <trkpt lat="42.97195" lon="-0.24956">
        <ele>1527.8</ele>
        <time>2020-09-03T08:48:07Z</time>
      </trkpt>
      <trkpt lat="42.97194" lon="-0.24962">
        <ele>1527.8</ele>
        <time>2020-09-03T08:48:08Z</time>
      </trkpt>
      <trkpt lat="42.97193" lon="-0.24968">
        <ele>1527.8</ele>
        <time>2020-09-03T08:48:09Z</time>
      </trkpt>
      <trkpt lat="42.97191" lon="-0.24974">
        <ele>1527.8</ele>
        <time>2020-09-03T08:48:10Z</time>
      </trkpt>
      <trkpt lat="42.9719" lon="-0.24979">
        <ele>1527.8</ele>
        <time>2020-09-03T08:48:11Z</time>
      </trkpt>
      <trkpt lat="42.97189" lon="-0.24985">
        <ele>1528</ele>
        <time>2020-09-03T08:48:12Z</time>
      </trkpt>
      <trkpt lat="42.97187" lon="-0.24991">
        <ele>1528</ele>
        <time>2020-09-03T08:48:13Z</time>
      </trkpt>
      <trkpt lat="42.97187" lon="-0.24997">
        <ele>1528.2</ele>
        <time>2020-09-03T08:48:14Z</time>
      </trkpt>
      <trkpt lat="42.97186" lon="-0.25004">
        <ele>1528.2</ele>
        <time>2020-09-03T08:48:15Z</time>
      </trkpt>
      <trkpt lat="42.97185" lon="-0.25011">
        <ele>1528.4</ele>
        <time>2020-09-03T08:48:16Z</time>
      </trkpt>
      <trkpt lat="42.97184" lon="-0.25018">
        <ele>1528.6</ele>
        <time>2020-09-03T08:48:17Z</time>
      </trkpt>
      <trkpt lat="42.97183" lon="-0.25026">
        <ele>1528.8</ele>
        <time>2020-09-03T08:48:18Z</time>
      </trkpt>
      <trkpt lat="42.9718" lon="-0.25066">
        <ele>1529</ele>
        <time>2020-09-03T08:48:23Z</time>
      </trkpt>
      <trkpt lat="42.97179" lon="-0.25073">
        <ele>1529</ele>
        <time>2020-09-03T08:48:24Z</time>
      </trkpt>
      <trkpt lat="42.97179" lon="-0.25079">
        <ele>1529</ele>
        <time>2020-09-03T08:48:25Z</time>
      </trkpt>
      <trkpt lat="42.97178" lon="-0.25084">
        <ele>1529</ele>
        <time>2020-09-03T08:48:26Z</time>
      </trkpt>
      <trkpt lat="42.97177" lon="-0.25091">
        <ele>1529</ele>
        <time>2020-09-03T08:48:27Z</time>
      </trkpt>
      <trkpt lat="42.97176" lon="-0.25096">
        <ele>1529.2</ele>
        <time>2020-09-03T08:48:28Z</time>
      </trkpt>
      <trkpt lat="42.97175" lon="-0.25102">
        <ele>1529.2</ele>
        <time>2020-09-03T08:48:29Z</time>
      </trkpt>
      <trkpt lat="42.97174" lon="-0.25106">
        <ele>1529.2</ele>
        <time>2020-09-03T08:48:30Z</time>
      </trkpt>
      <trkpt lat="42.97173" lon="-0.25113">
        <ele>1529.2</ele>
        <time>2020-09-03T08:48:31Z</time>
      </trkpt>
      <trkpt lat="42.97171" lon="-0.25123">
        <ele>1529.2</ele>
        <time>2020-09-03T08:48:33Z</time>
      </trkpt>
      <trkpt lat="42.9717" lon="-0.25128">
        <ele>1529.4</ele>
        <time>2020-09-03T08:48:34Z</time>
      </trkpt>
      <trkpt lat="42.9717" lon="-0.25133">
        <ele>1529.4</ele>
        <time>2020-09-03T08:48:35Z</time>
      </trkpt>
      <trkpt lat="42.97171" lon="-0.2514">
        <ele>1529.6</ele>
        <time>2020-09-03T08:48:36Z</time>
      </trkpt>
      <trkpt lat="42.97172" lon="-0.25146">
        <ele>1529.8</ele>
        <time>2020-09-03T08:48:37Z</time>
      </trkpt>
      <trkpt lat="42.97173" lon="-0.25152">
        <ele>1529.8</ele>
        <time>2020-09-03T08:48:38Z</time>
      </trkpt>
      <trkpt lat="42.97177" lon="-0.25165">
        <ele>1530</ele>
        <time>2020-09-03T08:48:40Z</time>
      </trkpt>
      <trkpt lat="42.97178" lon="-0.25172">
        <ele>1530</ele>
        <time>2020-09-03T08:48:41Z</time>
      </trkpt>
      <trkpt lat="42.97189" lon="-0.25219">
        <ele>1529.8</ele>
        <time>2020-09-03T08:48:47Z</time>
      </trkpt>
      <trkpt lat="42.972" lon="-0.25252">
        <ele>1529</ele>
        <time>2020-09-03T08:48:51Z</time>
      </trkpt>
      <trkpt lat="42.97205" lon="-0.25269">
        <ele>1528.6</ele>
        <time>2020-09-03T08:48:53Z</time>
      </trkpt>
      <trkpt lat="42.97207" lon="-0.25282">
        <ele>1528.2</ele>
        <time>2020-09-03T08:48:54Z</time>
      </trkpt>
      <trkpt lat="42.97208" lon="-0.2529">
        <ele>1527.8</ele>
        <time>2020-09-03T08:48:55Z</time>
      </trkpt>
      <trkpt lat="42.97208" lon="-0.25302">
        <ele>1527.6</ele>
        <time>2020-09-03T08:48:56Z</time>
      </trkpt>
      <trkpt lat="42.97208" lon="-0.25312">
        <ele>1527.4</ele>
        <time>2020-09-03T08:48:57Z</time>
      </trkpt>
      <trkpt lat="42.97208" lon="-0.2532">
        <ele>1527</ele>
        <time>2020-09-03T08:48:58Z</time>
      </trkpt>
      <trkpt lat="42.97207" lon="-0.2533">
        <ele>1526.8</ele>
        <time>2020-09-03T08:48:59Z</time>
      </trkpt>
      <trkpt lat="42.97206" lon="-0.25338">
        <ele>1526.6</ele>
        <time>2020-09-03T08:49:00Z</time>
      </trkpt>
      <trkpt lat="42.97205" lon="-0.25348">
        <ele>1526.6</ele>
        <time>2020-09-03T08:49:01Z</time>
      </trkpt>
      <trkpt lat="42.97205" lon="-0.25354">
        <ele>1526.4</ele>
        <time>2020-09-03T08:49:02Z</time>
      </trkpt>
      <trkpt lat="42.97204" lon="-0.25364">
        <ele>1526.2</ele>
        <time>2020-09-03T08:49:03Z</time>
      </trkpt>
      <trkpt lat="42.97203" lon="-0.25372">
        <ele>1525.6</ele>
        <time>2020-09-03T08:49:04Z</time>
      </trkpt>
      <trkpt lat="42.97202" lon="-0.25381">
        <ele>1525.6</ele>
        <time>2020-09-03T08:49:05Z</time>
      </trkpt>
      <trkpt lat="42.97199" lon="-0.25399">
        <ele>1525</ele>
        <time>2020-09-03T08:49:07Z</time>
      </trkpt>
      <trkpt lat="42.97196" lon="-0.25412">
        <ele>1524.4</ele>
        <time>2020-09-03T08:49:08Z</time>
      </trkpt>
      <trkpt lat="42.97186" lon="-0.25441">
        <ele>1523.2</ele>
        <time>2020-09-03T08:49:11Z</time>
      </trkpt>
      <trkpt lat="42.97173" lon="-0.25473">
        <ele>1522.4</ele>
        <time>2020-09-03T08:49:14Z</time>
      </trkpt>
      <trkpt lat="42.97169" lon="-0.25485">
        <ele>1522</ele>
        <time>2020-09-03T08:49:15Z</time>
      </trkpt>
      <trkpt lat="42.97166" lon="-0.25493">
        <ele>1521.8</ele>
        <time>2020-09-03T08:49:16Z</time>
      </trkpt>
      <trkpt lat="42.97154" lon="-0.2553">
        <ele>1520.6</ele>
        <time>2020-09-03T08:49:19Z</time>
      </trkpt>
      <trkpt lat="42.97142" lon="-0.2556">
        <ele>1519.2</ele>
        <time>2020-09-03T08:49:22Z</time>
      </trkpt>
      <trkpt lat="42.97138" lon="-0.25568">
        <ele>1519</ele>
        <time>2020-09-03T08:49:23Z</time>
      </trkpt>
      <trkpt lat="42.97134" lon="-0.25574">
        <ele>1518.6</ele>
        <time>2020-09-03T08:49:24Z</time>
      </trkpt>
      <trkpt lat="42.9713" lon="-0.25578">
        <ele>1518.4</ele>
        <time>2020-09-03T08:49:25Z</time>
      </trkpt>
      <trkpt lat="42.97123" lon="-0.25583">
        <ele>1518</ele>
        <time>2020-09-03T08:49:26Z</time>
      </trkpt>
      <trkpt lat="42.97119" lon="-0.25588">
        <ele>1518</ele>
        <time>2020-09-03T08:49:27Z</time>
      </trkpt>
      <trkpt lat="42.97117" lon="-0.25595">
        <ele>1517.2</ele>
        <time>2020-09-03T08:49:28Z</time>
      </trkpt>
      <trkpt lat="42.97117" lon="-0.25602">
        <ele>1516.8</ele>
        <time>2020-09-03T08:49:29Z</time>
      </trkpt>
      <trkpt lat="42.9712" lon="-0.25608">
        <ele>1516.4</ele>
        <time>2020-09-03T08:49:30Z</time>
      </trkpt>
      <trkpt lat="42.97123" lon="-0.25612">
        <ele>1516.2</ele>
        <time>2020-09-03T08:49:31Z</time>
      </trkpt>
      <trkpt lat="42.97126" lon="-0.25617">
        <ele>1515.8</ele>
        <time>2020-09-03T08:49:32Z</time>
      </trkpt>
      <trkpt lat="42.97129" lon="-0.25622">
        <ele>1515.6</ele>
        <time>2020-09-03T08:49:33Z</time>
      </trkpt>
      <trkpt lat="42.97131" lon="-0.25627">
        <ele>1515.4</ele>
        <time>2020-09-03T08:49:34Z</time>
      </trkpt>
      <trkpt lat="42.97133" lon="-0.25634">
        <ele>1515.4</ele>
        <time>2020-09-03T08:49:35Z</time>
      </trkpt>
      <trkpt lat="42.97134" lon="-0.2564">
        <ele>1515.4</ele>
        <time>2020-09-03T08:49:36Z</time>
      </trkpt>
      <trkpt lat="42.97134" lon="-0.25646">
        <ele>1515.4</ele>
        <time>2020-09-03T08:49:37Z</time>
      </trkpt>
      <trkpt lat="42.97135" lon="-0.2567">
        <ele>1515.8</ele>
        <time>2020-09-03T08:49:41Z</time>
      </trkpt>
      <trkpt lat="42.97135" lon="-0.25691">
        <ele>1516.4</ele>
        <time>2020-09-03T08:49:45Z</time>
      </trkpt>
      <trkpt lat="42.97134" lon="-0.25696">
        <ele>1516.4</ele>
        <time>2020-09-03T08:49:46Z</time>
      </trkpt>
      <trkpt lat="42.97133" lon="-0.257">
        <ele>1516.6</ele>
        <time>2020-09-03T08:49:47Z</time>
      </trkpt>
      <trkpt lat="42.97132" lon="-0.25704">
        <ele>1516.6</ele>
        <time>2020-09-03T08:49:48Z</time>
      </trkpt>
      <trkpt lat="42.97131" lon="-0.25708">
        <ele>1517</ele>
        <time>2020-09-03T08:49:49Z</time>
      </trkpt>
      <trkpt lat="42.9713" lon="-0.25711">
        <ele>1517.4</ele>
        <time>2020-09-03T08:49:50Z</time>
      </trkpt>
      <trkpt lat="42.97129" lon="-0.25715">
        <ele>1517.6</ele>
        <time>2020-09-03T08:49:51Z</time>
      </trkpt>
      <trkpt lat="42.97128" lon="-0.25718">
        <ele>1517.8</ele>
        <time>2020-09-03T08:49:52Z</time>
      </trkpt>
      <trkpt lat="42.97126" lon="-0.25725">
        <ele>1518.4</ele>
        <time>2020-09-03T08:49:54Z</time>
      </trkpt>
      <trkpt lat="42.97125" lon="-0.25728">
        <ele>1518.6</ele>
        <time>2020-09-03T08:49:55Z</time>
      </trkpt>
      <trkpt lat="42.97124" lon="-0.2573">
        <ele>1518.8</ele>
        <time>2020-09-03T08:49:56Z</time>
      </trkpt>
      <trkpt lat="42.97124" lon="-0.25733">
        <ele>1519</ele>
        <time>2020-09-03T08:49:57Z</time>
      </trkpt>
      <trkpt lat="42.97123" lon="-0.25736">
        <ele>1519.2</ele>
        <time>2020-09-03T08:49:58Z</time>
      </trkpt>
      <trkpt lat="42.97122" lon="-0.25739">
        <ele>1519.4</ele>
        <time>2020-09-03T08:49:59Z</time>
      </trkpt>
      <trkpt lat="42.97121" lon="-0.25742">
        <ele>1519.8</ele>
        <time>2020-09-03T08:50:00Z</time>
      </trkpt>
      <trkpt lat="42.97121" lon="-0.25746">
        <ele>1519.8</ele>
        <time>2020-09-03T08:50:01Z</time>
      </trkpt>
      <trkpt lat="42.9712" lon="-0.25749">
        <ele>1520</ele>
        <time>2020-09-03T08:50:02Z</time>
      </trkpt>
      <trkpt lat="42.97119" lon="-0.25753">
        <ele>1520.4</ele>
        <time>2020-09-03T08:50:03Z</time>
      </trkpt>
      <trkpt lat="42.97118" lon="-0.25756">
        <ele>1520.4</ele>
        <time>2020-09-03T08:50:04Z</time>
      </trkpt>
      <trkpt lat="42.97117" lon="-0.25759">
        <ele>1520.6</ele>
        <time>2020-09-03T08:50:05Z</time>
      </trkpt>
      <trkpt lat="42.97116" lon="-0.25762">
        <ele>1520.6</ele>
        <time>2020-09-03T08:50:06Z</time>
      </trkpt>
      <trkpt lat="42.97116" lon="-0.25764">
        <ele>1520.8</ele>
        <time>2020-09-03T08:50:07Z</time>
      </trkpt>
      <trkpt lat="42.97115" lon="-0.25768">
        <ele>1520.8</ele>
        <time>2020-09-03T08:50:08Z</time>
      </trkpt>
      <trkpt lat="42.97114" lon="-0.25771">
        <ele>1521</ele>
        <time>2020-09-03T08:50:09Z</time>
      </trkpt>
      <trkpt lat="42.97114" lon="-0.25774">
        <ele>1521.2</ele>
        <time>2020-09-03T08:50:10Z</time>
      </trkpt>
      <trkpt lat="42.97114" lon="-0.25776">
        <ele>1521.4</ele>
        <time>2020-09-03T08:50:11Z</time>
      </trkpt>
      <trkpt lat="42.97113" lon="-0.2578">
        <ele>1521.6</ele>
        <time>2020-09-03T08:50:12Z</time>
      </trkpt>
      <trkpt lat="42.97113" lon="-0.25784">
        <ele>1521.6</ele>
        <time>2020-09-03T08:50:13Z</time>
      </trkpt>
      <trkpt lat="42.97112" lon="-0.25787">
        <ele>1521.8</ele>
        <time>2020-09-03T08:50:14Z</time>
      </trkpt>
      <trkpt lat="42.97112" lon="-0.2579">
        <ele>1521.8</ele>
        <time>2020-09-03T08:50:15Z</time>
      </trkpt>
      <trkpt lat="42.97112" lon="-0.25793">
        <ele>1522</ele>
        <time>2020-09-03T08:50:16Z</time>
      </trkpt>
      <trkpt lat="42.97111" lon="-0.25798">
        <ele>1522</ele>
        <time>2020-09-03T08:50:17Z</time>
      </trkpt>
      <trkpt lat="42.9711" lon="-0.25801">
        <ele>1522</ele>
        <time>2020-09-03T08:50:18Z</time>
      </trkpt>
      <trkpt lat="42.9711" lon="-0.25806">
        <ele>1522</ele>
        <time>2020-09-03T08:50:19Z</time>
      </trkpt>
      <trkpt lat="42.97109" lon="-0.2581">
        <ele>1522</ele>
        <time>2020-09-03T08:50:20Z</time>
      </trkpt>
      <trkpt lat="42.9711" lon="-0.25816">
        <ele>1522</ele>
        <time>2020-09-03T08:50:21Z</time>
      </trkpt>
      <trkpt lat="42.9711" lon="-0.25821">
        <ele>1522.2</ele>
        <time>2020-09-03T08:50:22Z</time>
      </trkpt>
      <trkpt lat="42.97111" lon="-0.25826">
        <ele>1522.2</ele>
        <time>2020-09-03T08:50:23Z</time>
      </trkpt>
      <trkpt lat="42.97113" lon="-0.2583">
        <ele>1522.2</ele>
        <time>2020-09-03T08:50:24Z</time>
      </trkpt>
      <trkpt lat="42.97115" lon="-0.25832">
        <ele>1522.2</ele>
        <time>2020-09-03T08:50:25Z</time>
      </trkpt>
      <trkpt lat="42.97117" lon="-0.25835">
        <ele>1522.2</ele>
        <time>2020-09-03T08:50:26Z</time>
      </trkpt>
      <trkpt lat="42.97119" lon="-0.25837">
        <ele>1522.4</ele>
        <time>2020-09-03T08:50:27Z</time>
      </trkpt>
      <trkpt lat="42.97122" lon="-0.2584">
        <ele>1522.6</ele>
        <time>2020-09-03T08:50:28Z</time>
      </trkpt>
      <trkpt lat="42.97123" lon="-0.25842">
        <ele>1522.6</ele>
        <time>2020-09-03T08:50:29Z</time>
      </trkpt>
      <trkpt lat="42.97125" lon="-0.25845">
        <ele>1522.8</ele>
        <time>2020-09-03T08:50:30Z</time>
      </trkpt>
      <trkpt lat="42.97128" lon="-0.25847">
        <ele>1523</ele>
        <time>2020-09-03T08:50:31Z</time>
      </trkpt>
      <trkpt lat="42.9713" lon="-0.2585">
        <ele>1523.2</ele>
        <time>2020-09-03T08:50:32Z</time>
      </trkpt>
      <trkpt lat="42.97132" lon="-0.25853">
        <ele>1523.4</ele>
        <time>2020-09-03T08:50:33Z</time>
      </trkpt>
      <trkpt lat="42.97133" lon="-0.25856">
        <ele>1523.6</ele>
        <time>2020-09-03T08:50:34Z</time>
      </trkpt>
      <trkpt lat="42.97135" lon="-0.2586">
        <ele>1523.6</ele>
        <time>2020-09-03T08:50:35Z</time>
      </trkpt>
      <trkpt lat="42.97136" lon="-0.25864">
        <ele>1523.8</ele>
        <time>2020-09-03T08:50:36Z</time>
      </trkpt>
      <trkpt lat="42.97136" lon="-0.25867">
        <ele>1523.8</ele>
        <time>2020-09-03T08:50:37Z</time>
      </trkpt>
      <trkpt lat="42.97137" lon="-0.25871">
        <ele>1524</ele>
        <time>2020-09-03T08:50:38Z</time>
      </trkpt>
      <trkpt lat="42.97138" lon="-0.25873">
        <ele>1524.2</ele>
        <time>2020-09-03T08:50:39Z</time>
      </trkpt>
      <trkpt lat="42.97139" lon="-0.25877">
        <ele>1524.2</ele>
        <time>2020-09-03T08:50:40Z</time>
      </trkpt>
      <trkpt lat="42.9714" lon="-0.2588">
        <ele>1524.2</ele>
        <time>2020-09-03T08:50:41Z</time>
      </trkpt>
      <trkpt lat="42.9714" lon="-0.25884">
        <ele>1524.4</ele>
        <time>2020-09-03T08:50:42Z</time>
      </trkpt>
      <trkpt lat="42.97141" lon="-0.25886">
        <ele>1524.4</ele>
        <time>2020-09-03T08:50:43Z</time>
      </trkpt>
      <trkpt lat="42.97142" lon="-0.2589">
        <ele>1524.4</ele>
        <time>2020-09-03T08:50:44Z</time>
      </trkpt>
      <trkpt lat="42.97143" lon="-0.25893">
        <ele>1524.6</ele>
        <time>2020-09-03T08:50:45Z</time>
      </trkpt>
      <trkpt lat="42.97145" lon="-0.25896">
        <ele>1525</ele>
        <time>2020-09-03T08:50:46Z</time>
      </trkpt>
      <trkpt lat="42.97146" lon="-0.25899">
        <ele>1525</ele>
        <time>2020-09-03T08:50:47Z</time>
      </trkpt>
      <trkpt lat="42.97148" lon="-0.25902">
        <ele>1525.2</ele>
        <time>2020-09-03T08:50:48Z</time>
      </trkpt>
      <trkpt lat="42.97149" lon="-0.25905">
        <ele>1525.2</ele>
        <time>2020-09-03T08:50:49Z</time>
      </trkpt>
      <trkpt lat="42.97151" lon="-0.25908">
        <ele>1525.4</ele>
        <time>2020-09-03T08:50:50Z</time>
      </trkpt>
      <trkpt lat="42.97153" lon="-0.25911">
        <ele>1525.4</ele>
        <time>2020-09-03T08:50:51Z</time>
      </trkpt>
      <trkpt lat="42.97154" lon="-0.25914">
        <ele>1525.6</ele>
        <time>2020-09-03T08:50:52Z</time>
      </trkpt>
      <trkpt lat="42.97156" lon="-0.25918">
        <ele>1525.6</ele>
        <time>2020-09-03T08:50:53Z</time>
      </trkpt>
      <trkpt lat="42.97158" lon="-0.2592">
        <ele>1525.8</ele>
        <time>2020-09-03T08:50:54Z</time>
      </trkpt>
      <trkpt lat="42.9716" lon="-0.25924">
        <ele>1526</ele>
        <time>2020-09-03T08:50:55Z</time>
      </trkpt>
      <trkpt lat="42.97161" lon="-0.25927">
        <ele>1526.2</ele>
        <time>2020-09-03T08:50:56Z</time>
      </trkpt>
      <trkpt lat="42.97162" lon="-0.25931">
        <ele>1526.2</ele>
        <time>2020-09-03T08:50:57Z</time>
      </trkpt>
      <trkpt lat="42.97163" lon="-0.25934">
        <ele>1526.4</ele>
        <time>2020-09-03T08:50:58Z</time>
      </trkpt>
      <trkpt lat="42.97164" lon="-0.25939">
        <ele>1526.6</ele>
        <time>2020-09-03T08:50:59Z</time>
      </trkpt>
      <trkpt lat="42.97165" lon="-0.25943">
        <ele>1526.6</ele>
        <time>2020-09-03T08:51:00Z</time>
      </trkpt>
      <trkpt lat="42.97166" lon="-0.25946">
        <ele>1526.8</ele>
        <time>2020-09-03T08:51:01Z</time>
      </trkpt>
      <trkpt lat="42.97167" lon="-0.25951">
        <ele>1526.8</ele>
        <time>2020-09-03T08:51:02Z</time>
      </trkpt>
      <trkpt lat="42.97168" lon="-0.25956">
        <ele>1527</ele>
        <time>2020-09-03T08:51:03Z</time>
      </trkpt>
      <trkpt lat="42.97169" lon="-0.25959">
        <ele>1527</ele>
        <time>2020-09-03T08:51:04Z</time>
      </trkpt>
      <trkpt lat="42.9717" lon="-0.25963">
        <ele>1527.2</ele>
        <time>2020-09-03T08:51:05Z</time>
      </trkpt>
      <trkpt lat="42.97172" lon="-0.25967">
        <ele>1527.2</ele>
        <time>2020-09-03T08:51:06Z</time>
      </trkpt>
      <trkpt lat="42.97174" lon="-0.25971">
        <ele>1527.4</ele>
        <time>2020-09-03T08:51:07Z</time>
      </trkpt>
      <trkpt lat="42.97175" lon="-0.25974">
        <ele>1527.4</ele>
        <time>2020-09-03T08:51:08Z</time>
      </trkpt>
      <trkpt lat="42.97176" lon="-0.25979">
        <ele>1527.4</ele>
        <time>2020-09-03T08:51:09Z</time>
      </trkpt>
      <trkpt lat="42.97178" lon="-0.25983">
        <ele>1527.4</ele>
        <time>2020-09-03T08:51:10Z</time>
      </trkpt>
      <trkpt lat="42.97179" lon="-0.25987">
        <ele>1527.4</ele>
        <time>2020-09-03T08:51:11Z</time>
      </trkpt>
      <trkpt lat="42.9718" lon="-0.25992">
        <ele>1527.4</ele>
        <time>2020-09-03T08:51:12Z</time>
      </trkpt>
      <trkpt lat="42.97181" lon="-0.25995">
        <ele>1527.2</ele>
        <time>2020-09-03T08:51:13Z</time>
      </trkpt>
      <trkpt lat="42.97182" lon="-0.25998">
        <ele>1527.2</ele>
        <time>2020-09-03T08:51:14Z</time>
      </trkpt>
      <trkpt lat="42.97183" lon="-0.26001">
        <ele>1527.2</ele>
        <time>2020-09-03T08:51:15Z</time>
      </trkpt>
      <trkpt lat="42.97184" lon="-0.26004">
        <ele>1527</ele>
        <time>2020-09-03T08:51:16Z</time>
      </trkpt>
      <trkpt lat="42.97185" lon="-0.26006">
        <ele>1527</ele>
        <time>2020-09-03T08:51:17Z</time>
      </trkpt>
      <trkpt lat="42.97185" lon="-0.26007">
        <ele>1526.6</ele>
        <time>2020-09-03T08:51:18Z</time>
      </trkpt>
      <trkpt lat="42.97185" lon="-0.26007">
        <ele>1526.4</ele>
        <time>2020-09-03T08:51:19Z</time>
      </trkpt>
      <trkpt lat="42.97185" lon="-0.26007">
        <ele>1526.2</ele>
        <time>2020-09-03T08:51:20Z</time>
      </trkpt>
      <trkpt lat="42.97185" lon="-0.26007">
        <ele>1525.8</ele>
        <time>2020-09-03T08:51:22Z</time>
      </trkpt>
      <trkpt lat="42.97185" lon="-0.26007">
        <ele>1524.8</ele>
        <time>2020-09-03T08:51:54Z</time>
      </trkpt>
      <trkpt lat="42.97185" lon="-0.26007">
        <ele>1524.8</ele>
        <time>2020-09-03T08:52:08Z</time>
      </trkpt>
      <trkpt lat="42.97186" lon="-0.26012">
        <ele>1524.4</ele>
        <time>2020-09-03T08:52:25Z</time>
      </trkpt>
      <trkpt lat="42.9719" lon="-0.26031">
        <ele>1524.4</ele>
        <time>2020-09-03T08:52:29Z</time>
      </trkpt>
      <trkpt lat="42.97196" lon="-0.26059">
        <ele>1523.8</ele>
        <time>2020-09-03T08:52:33Z</time>
      </trkpt>
      <trkpt lat="42.97198" lon="-0.26066">
        <ele>1523.8</ele>
        <time>2020-09-03T08:52:34Z</time>
      </trkpt>
      <trkpt lat="42.97202" lon="-0.26089">
        <ele>1522.6</ele>
        <time>2020-09-03T08:52:37Z</time>
      </trkpt>
      <trkpt lat="42.97203" lon="-0.261">
        <ele>1522</ele>
        <time>2020-09-03T08:52:38Z</time>
      </trkpt>
      <trkpt lat="42.97204" lon="-0.26107">
        <ele>1521.2</ele>
        <time>2020-09-03T08:52:39Z</time>
      </trkpt>
      <trkpt lat="42.97206" lon="-0.26134">
        <ele>1520.2</ele>
        <time>2020-09-03T08:52:42Z</time>
      </trkpt>
      <trkpt lat="42.97206" lon="-0.26144">
        <ele>1520.2</ele>
        <time>2020-09-03T08:52:43Z</time>
      </trkpt>
      <trkpt lat="42.97206" lon="-0.26155">
        <ele>1519.8</ele>
        <time>2020-09-03T08:52:44Z</time>
      </trkpt>
      <trkpt lat="42.97205" lon="-0.26187">
        <ele>1519</ele>
        <time>2020-09-03T08:52:47Z</time>
      </trkpt>
      <trkpt lat="42.97204" lon="-0.2621">
        <ele>1518.4</ele>
        <time>2020-09-03T08:52:49Z</time>
      </trkpt>
      <trkpt lat="42.97203" lon="-0.2622">
        <ele>1517.6</ele>
        <time>2020-09-03T08:52:50Z</time>
      </trkpt>
      <trkpt lat="42.97201" lon="-0.26247">
        <ele>1515</ele>
        <time>2020-09-03T08:52:52Z</time>
      </trkpt>
      <trkpt lat="42.972" lon="-0.2626">
        <ele>1513.2</ele>
        <time>2020-09-03T08:52:53Z</time>
      </trkpt>
      <trkpt lat="42.97199" lon="-0.26282">
        <ele>1512.2</ele>
        <time>2020-09-03T08:52:55Z</time>
      </trkpt>
      <trkpt lat="42.97199" lon="-0.26295">
        <ele>1511.8</ele>
        <time>2020-09-03T08:52:56Z</time>
      </trkpt>
      <trkpt lat="42.97199" lon="-0.26306">
        <ele>1511.2</ele>
        <time>2020-09-03T08:52:57Z</time>
      </trkpt>
      <trkpt lat="42.97199" lon="-0.26316">
        <ele>1510.8</ele>
        <time>2020-09-03T08:52:58Z</time>
      </trkpt>
      <trkpt lat="42.97199" lon="-0.26326">
        <ele>1509.2</ele>
        <time>2020-09-03T08:52:59Z</time>
      </trkpt>
      <trkpt lat="42.97199" lon="-0.2634">
        <ele>1508.6</ele>
        <time>2020-09-03T08:53:00Z</time>
      </trkpt>
      <trkpt lat="42.97199" lon="-0.2635">
        <ele>1507.6</ele>
        <time>2020-09-03T08:53:01Z</time>
      </trkpt>
      <trkpt lat="42.972" lon="-0.26385">
        <ele>1506.6</ele>
        <time>2020-09-03T08:53:04Z</time>
      </trkpt>
      <trkpt lat="42.972" lon="-0.26398">
        <ele>1505.8</ele>
        <time>2020-09-03T08:53:05Z</time>
      </trkpt>
      <trkpt lat="42.97201" lon="-0.26409">
        <ele>1505.6</ele>
        <time>2020-09-03T08:53:06Z</time>
      </trkpt>
      <trkpt lat="42.97204" lon="-0.26418">
        <ele>1504.6</ele>
        <time>2020-09-03T08:53:07Z</time>
      </trkpt>
      <trkpt lat="42.97207" lon="-0.26429">
        <ele>1503.2</ele>
        <time>2020-09-03T08:53:08Z</time>
      </trkpt>
      <trkpt lat="42.97213" lon="-0.2644">
        <ele>1502.6</ele>
        <time>2020-09-03T08:53:09Z</time>
      </trkpt>
      <trkpt lat="42.97218" lon="-0.26448">
        <ele>1501.8</ele>
        <time>2020-09-03T08:53:10Z</time>
      </trkpt>
      <trkpt lat="42.97223" lon="-0.26457">
        <ele>1501.6</ele>
        <time>2020-09-03T08:53:11Z</time>
      </trkpt>
      <trkpt lat="42.97227" lon="-0.26465">
        <ele>1500.6</ele>
        <time>2020-09-03T08:53:12Z</time>
      </trkpt>
      <trkpt lat="42.97229" lon="-0.26473">
        <ele>1500.2</ele>
        <time>2020-09-03T08:53:13Z</time>
      </trkpt>
      <trkpt lat="42.97232" lon="-0.26484">
        <ele>1499.4</ele>
        <time>2020-09-03T08:53:14Z</time>
      </trkpt>
      <trkpt lat="42.97234" lon="-0.26494">
        <ele>1499.2</ele>
        <time>2020-09-03T08:53:15Z</time>
      </trkpt>
      <trkpt lat="42.97235" lon="-0.26513">
        <ele>1498.2</ele>
        <time>2020-09-03T08:53:17Z</time>
      </trkpt>
      <trkpt lat="42.97234" lon="-0.26535">
        <ele>1497.6</ele>
        <time>2020-09-03T08:53:19Z</time>
      </trkpt>
      <trkpt lat="42.97233" lon="-0.26545">
        <ele>1497.2</ele>
        <time>2020-09-03T08:53:20Z</time>
      </trkpt>
      <trkpt lat="42.97231" lon="-0.26553">
        <ele>1497</ele>
        <time>2020-09-03T08:53:21Z</time>
      </trkpt>
      <trkpt lat="42.9723" lon="-0.26559">
        <ele>1496.8</ele>
        <time>2020-09-03T08:53:22Z</time>
      </trkpt>
      <trkpt lat="42.9723" lon="-0.26565">
        <ele>1496.4</ele>
        <time>2020-09-03T08:53:23Z</time>
      </trkpt>
      <trkpt lat="42.97231" lon="-0.2657">
        <ele>1496.2</ele>
        <time>2020-09-03T08:53:24Z</time>
      </trkpt>
      <trkpt lat="42.97232" lon="-0.26572">
        <ele>1495.6</ele>
        <time>2020-09-03T08:53:25Z</time>
      </trkpt>
      <trkpt lat="42.97233" lon="-0.26574">
        <ele>1495.2</ele>
        <time>2020-09-03T08:53:26Z</time>
      </trkpt>
      <trkpt lat="42.97235" lon="-0.26575">
        <ele>1494.2</ele>
        <time>2020-09-03T08:53:27Z</time>
      </trkpt>
      <trkpt lat="42.97236" lon="-0.26577">
        <ele>1494</ele>
        <time>2020-09-03T08:53:28Z</time>
      </trkpt>
      <trkpt lat="42.97237" lon="-0.26579">
        <ele>1493.6</ele>
        <time>2020-09-03T08:53:29Z</time>
      </trkpt>
      <trkpt lat="42.97238" lon="-0.2658">
        <ele>1493.6</ele>
        <time>2020-09-03T08:53:30Z</time>
      </trkpt>
      <trkpt lat="42.97239" lon="-0.2658">
        <ele>1493.4</ele>
        <time>2020-09-03T08:53:31Z</time>
      </trkpt>
      <trkpt lat="42.97239" lon="-0.2658">
        <ele>1493.2</ele>
        <time>2020-09-03T08:53:32Z</time>
      </trkpt>
      <trkpt lat="42.97239" lon="-0.2658">
        <ele>1492.8</ele>
        <time>2020-09-03T08:53:50Z</time>
      </trkpt>
      <trkpt lat="42.97243" lon="-0.26577">
        <ele>1492.6</ele>
        <time>2020-09-03T08:54:26Z</time>
      </trkpt>
      <trkpt lat="42.97261" lon="-0.26566">
        <ele>1492.4</ele>
        <time>2020-09-03T08:54:33Z</time>
      </trkpt>
      <trkpt lat="42.97269" lon="-0.26559">
        <ele>1492.2</ele>
        <time>2020-09-03T08:54:35Z</time>
      </trkpt>
      <trkpt lat="42.97275" lon="-0.26549">
        <ele>1492</ele>
        <time>2020-09-03T08:54:37Z</time>
      </trkpt>
      <trkpt lat="42.97277" lon="-0.26542">
        <ele>1491.6</ele>
        <time>2020-09-03T08:54:38Z</time>
      </trkpt>
      <trkpt lat="42.97277" lon="-0.26538">
        <ele>1491.4</ele>
        <time>2020-09-03T08:54:39Z</time>
      </trkpt>
      <trkpt lat="42.97279" lon="-0.26532">
        <ele>1490.8</ele>
        <time>2020-09-03T08:54:40Z</time>
      </trkpt>
      <trkpt lat="42.9728" lon="-0.26527">
        <ele>1490.6</ele>
        <time>2020-09-03T08:54:41Z</time>
      </trkpt>
      <trkpt lat="42.97282" lon="-0.26521">
        <ele>1490.2</ele>
        <time>2020-09-03T08:54:42Z</time>
      </trkpt>
      <trkpt lat="42.97283" lon="-0.26518">
        <ele>1490</ele>
        <time>2020-09-03T08:54:43Z</time>
      </trkpt>
      <trkpt lat="42.97285" lon="-0.26515">
        <ele>1489.8</ele>
        <time>2020-09-03T08:54:44Z</time>
      </trkpt>
      <trkpt lat="42.97288" lon="-0.26512">
        <ele>1489.6</ele>
        <time>2020-09-03T08:54:45Z</time>
      </trkpt>
      <trkpt lat="42.97292" lon="-0.26511">
        <ele>1489</ele>
        <time>2020-09-03T08:54:46Z</time>
      </trkpt>
      <trkpt lat="42.97295" lon="-0.26511">
        <ele>1488.6</ele>
        <time>2020-09-03T08:54:47Z</time>
      </trkpt>
      <trkpt lat="42.97299" lon="-0.26511">
        <ele>1487.6</ele>
        <time>2020-09-03T08:54:48Z</time>
      </trkpt>
      <trkpt lat="42.97303" lon="-0.26513">
        <ele>1487.4</ele>
        <time>2020-09-03T08:54:49Z</time>
      </trkpt>
      <trkpt lat="42.97315" lon="-0.26516">
        <ele>1485.8</ele>
        <time>2020-09-03T08:54:51Z</time>
      </trkpt>
      <trkpt lat="42.97321" lon="-0.26517">
        <ele>1485</ele>
        <time>2020-09-03T08:54:52Z</time>
      </trkpt>
      <trkpt lat="42.97327" lon="-0.26518">
        <ele>1484</ele>
        <time>2020-09-03T08:54:53Z</time>
      </trkpt>
      <trkpt lat="42.97335" lon="-0.2652">
        <ele>1482.6</ele>
        <time>2020-09-03T08:54:55Z</time>
      </trkpt>
      <trkpt lat="42.97339" lon="-0.26521">
        <ele>1482.4</ele>
        <time>2020-09-03T08:54:56Z</time>
      </trkpt>
      <trkpt lat="42.9734" lon="-0.26523">
        <ele>1481.6</ele>
        <time>2020-09-03T08:54:57Z</time>
      </trkpt>
      <trkpt lat="42.97341" lon="-0.26526">
        <ele>1481.2</ele>
        <time>2020-09-03T08:54:58Z</time>
      </trkpt>
      <trkpt lat="42.97341" lon="-0.26529">
        <ele>1480.6</ele>
        <time>2020-09-03T08:54:59Z</time>
      </trkpt>
      <trkpt lat="42.97341" lon="-0.26535">
        <ele>1480.4</ele>
        <time>2020-09-03T08:55:00Z</time>
      </trkpt>
      <trkpt lat="42.97342" lon="-0.26539">
        <ele>1480</ele>
        <time>2020-09-03T08:55:01Z</time>
      </trkpt>
      <trkpt lat="42.97342" lon="-0.26544">
        <ele>1480</ele>
        <time>2020-09-03T08:55:02Z</time>
      </trkpt>
      <trkpt lat="42.97342" lon="-0.2655">
        <ele>1479.6</ele>
        <time>2020-09-03T08:55:03Z</time>
      </trkpt>
      <trkpt lat="42.97342" lon="-0.26562">
        <ele>1479</ele>
        <time>2020-09-03T08:55:05Z</time>
      </trkpt>
      <trkpt lat="42.9734" lon="-0.26574">
        <ele>1478.6</ele>
        <time>2020-09-03T08:55:07Z</time>
      </trkpt>
      <trkpt lat="42.97338" lon="-0.26581">
        <ele>1478</ele>
        <time>2020-09-03T08:55:08Z</time>
      </trkpt>
      <trkpt lat="42.97328" lon="-0.26614">
        <ele>1476.8</ele>
        <time>2020-09-03T08:55:12Z</time>
      </trkpt>
      <trkpt lat="42.97317" lon="-0.26637">
        <ele>1475.8</ele>
        <time>2020-09-03T08:55:15Z</time>
      </trkpt>
      <trkpt lat="42.97307" lon="-0.26653">
        <ele>1475</ele>
        <time>2020-09-03T08:55:17Z</time>
      </trkpt>
      <trkpt lat="42.97302" lon="-0.2666">
        <ele>1474.4</ele>
        <time>2020-09-03T08:55:18Z</time>
      </trkpt>
      <trkpt lat="42.97298" lon="-0.26666">
        <ele>1474</ele>
        <time>2020-09-03T08:55:19Z</time>
      </trkpt>
      <trkpt lat="42.97292" lon="-0.26671">
        <ele>1473</ele>
        <time>2020-09-03T08:55:20Z</time>
      </trkpt>
      <trkpt lat="42.97287" lon="-0.26675">
        <ele>1472.4</ele>
        <time>2020-09-03T08:55:21Z</time>
      </trkpt>
      <trkpt lat="42.97282" lon="-0.26679">
        <ele>1471.8</ele>
        <time>2020-09-03T08:55:22Z</time>
      </trkpt>
      <trkpt lat="42.97276" lon="-0.26682">
        <ele>1471</ele>
        <time>2020-09-03T08:55:23Z</time>
      </trkpt>
      <trkpt lat="42.9727" lon="-0.26686">
        <ele>1470.6</ele>
        <time>2020-09-03T08:55:24Z</time>
      </trkpt>
      <trkpt lat="42.97246" lon="-0.26702">
        <ele>1469.4</ele>
        <time>2020-09-03T08:55:28Z</time>
      </trkpt>
      <trkpt lat="42.97239" lon="-0.26706">
        <ele>1469</ele>
        <time>2020-09-03T08:55:29Z</time>
      </trkpt>
      <trkpt lat="42.97225" lon="-0.26711">
        <ele>1467.8</ele>
        <time>2020-09-03T08:55:31Z</time>
      </trkpt>
      <trkpt lat="42.97203" lon="-0.26718">
        <ele>1466.8</ele>
        <time>2020-09-03T08:55:34Z</time>
      </trkpt>
      <trkpt lat="42.97193" lon="-0.26721">
        <ele>1466.4</ele>
        <time>2020-09-03T08:55:35Z</time>
      </trkpt>
      <trkpt lat="42.97176" lon="-0.26723">
        <ele>1466</ele>
        <time>2020-09-03T08:55:37Z</time>
      </trkpt>
      <trkpt lat="42.97169" lon="-0.26723">
        <ele>1465.6</ele>
        <time>2020-09-03T08:55:38Z</time>
      </trkpt>
      <trkpt lat="42.97161" lon="-0.26722">
        <ele>1465.2</ele>
        <time>2020-09-03T08:55:39Z</time>
      </trkpt>
      <trkpt lat="42.97154" lon="-0.26722">
        <ele>1464.6</ele>
        <time>2020-09-03T08:55:40Z</time>
      </trkpt>
      <trkpt lat="42.97146" lon="-0.26722">
        <ele>1464</ele>
        <time>2020-09-03T08:55:41Z</time>
      </trkpt>
      <trkpt lat="42.97132" lon="-0.26723">
        <ele>1462.8</ele>
        <time>2020-09-03T08:55:43Z</time>
      </trkpt>
      <trkpt lat="42.97126" lon="-0.26723">
        <ele>1462.2</ele>
        <time>2020-09-03T08:55:44Z</time>
      </trkpt>
      <trkpt lat="42.97119" lon="-0.26721">
        <ele>1461.6</ele>
        <time>2020-09-03T08:55:45Z</time>
      </trkpt>
      <trkpt lat="42.97114" lon="-0.26719">
        <ele>1460.8</ele>
        <time>2020-09-03T08:55:46Z</time>
      </trkpt>
      <trkpt lat="42.97109" lon="-0.26716">
        <ele>1460.6</ele>
        <time>2020-09-03T08:55:47Z</time>
      </trkpt>
      <trkpt lat="42.97105" lon="-0.26712">
        <ele>1460</ele>
        <time>2020-09-03T08:55:48Z</time>
      </trkpt>
      <trkpt lat="42.97102" lon="-0.26706">
        <ele>1459.8</ele>
        <time>2020-09-03T08:55:49Z</time>
      </trkpt>
      <trkpt lat="42.97098" lon="-0.267">
        <ele>1459.4</ele>
        <time>2020-09-03T08:55:50Z</time>
      </trkpt>
      <trkpt lat="42.97095" lon="-0.26693">
        <ele>1459.2</ele>
        <time>2020-09-03T08:55:51Z</time>
      </trkpt>
      <trkpt lat="42.97094" lon="-0.26686">
        <ele>1458.8</ele>
        <time>2020-09-03T08:55:52Z</time>
      </trkpt>
      <trkpt lat="42.97093" lon="-0.26679">
        <ele>1457.8</ele>
        <time>2020-09-03T08:55:53Z</time>
      </trkpt>
      <trkpt lat="42.97092" lon="-0.26673">
        <ele>1457.4</ele>
        <time>2020-09-03T08:55:54Z</time>
      </trkpt>
      <trkpt lat="42.97091" lon="-0.26667">
        <ele>1456.6</ele>
        <time>2020-09-03T08:55:55Z</time>
      </trkpt>
      <trkpt lat="42.97089" lon="-0.26655">
        <ele>1455.8</ele>
        <time>2020-09-03T08:55:57Z</time>
      </trkpt>
      <trkpt lat="42.97088" lon="-0.2665">
        <ele>1455.6</ele>
        <time>2020-09-03T08:55:58Z</time>
      </trkpt>
      <trkpt lat="42.97086" lon="-0.26645">
        <ele>1455.4</ele>
        <time>2020-09-03T08:55:59Z</time>
      </trkpt>
      <trkpt lat="42.97084" lon="-0.26641">
        <ele>1455.4</ele>
        <time>2020-09-03T08:56:00Z</time>
      </trkpt>
      <trkpt lat="42.97082" lon="-0.26637">
        <ele>1455.4</ele>
        <time>2020-09-03T08:56:01Z</time>
      </trkpt>
      <trkpt lat="42.97077" lon="-0.26629">
        <ele>1455.4</ele>
        <time>2020-09-03T08:56:03Z</time>
      </trkpt>
      <trkpt lat="42.97075" lon="-0.26625">
        <ele>1455.4</ele>
        <time>2020-09-03T08:56:04Z</time>
      </trkpt>
      <trkpt lat="42.97072" lon="-0.26621">
        <ele>1455.2</ele>
        <time>2020-09-03T08:56:05Z</time>
      </trkpt>
      <trkpt lat="42.97069" lon="-0.26617">
        <ele>1455.2</ele>
        <time>2020-09-03T08:56:06Z</time>
      </trkpt>
      <trkpt lat="42.97067" lon="-0.26613">
        <ele>1455</ele>
        <time>2020-09-03T08:56:07Z</time>
      </trkpt>
      <trkpt lat="42.97063" lon="-0.26604">
        <ele>1455</ele>
        <time>2020-09-03T08:56:09Z</time>
      </trkpt>
      <trkpt lat="42.97059" lon="-0.26596">
        <ele>1454.8</ele>
        <time>2020-09-03T08:56:11Z</time>
      </trkpt>
      <trkpt lat="42.97057" lon="-0.26593">
        <ele>1454.8</ele>
        <time>2020-09-03T08:56:12Z</time>
      </trkpt>
      <trkpt lat="42.97056" lon="-0.2659">
        <ele>1454.8</ele>
        <time>2020-09-03T08:56:13Z</time>
      </trkpt>
      <trkpt lat="42.97056" lon="-0.26588">
        <ele>1454.6</ele>
        <time>2020-09-03T08:56:14Z</time>
      </trkpt>
      <trkpt lat="42.97056" lon="-0.26588">
        <ele>1454.6</ele>
        <time>2020-09-03T08:56:15Z</time>
      </trkpt>
      <trkpt lat="42.97056" lon="-0.26588">
        <ele>1454.6</ele>
        <time>2020-09-03T08:56:16Z</time>
      </trkpt>
      <trkpt lat="42.97056" lon="-0.26588">
        <ele>1454.4</ele>
        <time>2020-09-03T08:56:18Z</time>
      </trkpt>
      <trkpt lat="42.97056" lon="-0.26588">
        <ele>1454.2</ele>
        <time>2020-09-03T08:56:24Z</time>
      </trkpt>
      <trkpt lat="42.97056" lon="-0.26588">
        <ele>1454</ele>
        <time>2020-09-03T08:56:46Z</time>
      </trkpt>
      <trkpt lat="42.97056" lon="-0.26588">
        <ele>1453.6</ele>
        <time>2020-09-03T08:57:12Z</time>
      </trkpt>
      <trkpt lat="42.97054" lon="-0.26582">
        <ele>1453.6</ele>
        <time>2020-09-03T08:57:15Z</time>
      </trkpt>
      <trkpt lat="42.97049" lon="-0.26565">
        <ele>1453.8</ele>
        <time>2020-09-03T08:57:19Z</time>
      </trkpt>
      <trkpt lat="42.97044" lon="-0.26549">
        <ele>1454</ele>
        <time>2020-09-03T08:57:22Z</time>
      </trkpt>
      <trkpt lat="42.97043" lon="-0.26535">
        <ele>1454</ele>
        <time>2020-09-03T08:57:24Z</time>
      </trkpt>
      <trkpt lat="42.97043" lon="-0.2652">
        <ele>1454.2</ele>
        <time>2020-09-03T08:57:26Z</time>
      </trkpt>
      <trkpt lat="42.97039" lon="-0.26504">
        <ele>1454</ele>
        <time>2020-09-03T08:57:28Z</time>
      </trkpt>
      <trkpt lat="42.97035" lon="-0.26497">
        <ele>1453.8</ele>
        <time>2020-09-03T08:57:29Z</time>
      </trkpt>
      <trkpt lat="42.97032" lon="-0.2649">
        <ele>1453.8</ele>
        <time>2020-09-03T08:57:30Z</time>
      </trkpt>
      <trkpt lat="42.97028" lon="-0.26483">
        <ele>1453.6</ele>
        <time>2020-09-03T08:57:31Z</time>
      </trkpt>
      <trkpt lat="42.97026" lon="-0.26478">
        <ele>1453.4</ele>
        <time>2020-09-03T08:57:32Z</time>
      </trkpt>
      <trkpt lat="42.97022" lon="-0.26471">
        <ele>1453.2</ele>
        <time>2020-09-03T08:57:33Z</time>
      </trkpt>
      <trkpt lat="42.97008" lon="-0.26458">
        <ele>1453</ele>
        <time>2020-09-03T08:57:36Z</time>
      </trkpt>
      <trkpt lat="42.97003" lon="-0.26455">
        <ele>1453</ele>
        <time>2020-09-03T08:57:37Z</time>
      </trkpt>
      <trkpt lat="42.96999" lon="-0.26452">
        <ele>1453</ele>
        <time>2020-09-03T08:57:38Z</time>
      </trkpt>
      <trkpt lat="42.96995" lon="-0.2645">
        <ele>1453</ele>
        <time>2020-09-03T08:57:39Z</time>
      </trkpt>
      <trkpt lat="42.96991" lon="-0.26447">
        <ele>1453</ele>
        <time>2020-09-03T08:57:40Z</time>
      </trkpt>
      <trkpt lat="42.96988" lon="-0.26444">
        <ele>1453</ele>
        <time>2020-09-03T08:57:41Z</time>
      </trkpt>
      <trkpt lat="42.96984" lon="-0.26441">
        <ele>1453.2</ele>
        <time>2020-09-03T08:57:42Z</time>
      </trkpt>
      <trkpt lat="42.96981" lon="-0.26439">
        <ele>1453.6</ele>
        <time>2020-09-03T08:57:43Z</time>
      </trkpt>
      <trkpt lat="42.96972" lon="-0.26437">
        <ele>1454.2</ele>
        <time>2020-09-03T08:57:45Z</time>
      </trkpt>
      <trkpt lat="42.96965" lon="-0.2644">
        <ele>1454.8</ele>
        <time>2020-09-03T08:57:47Z</time>
      </trkpt>
      <trkpt lat="42.96962" lon="-0.26443">
        <ele>1455</ele>
        <time>2020-09-03T08:57:48Z</time>
      </trkpt>
      <trkpt lat="42.96958" lon="-0.26445">
        <ele>1455</ele>
        <time>2020-09-03T08:57:49Z</time>
      </trkpt>
      <trkpt lat="42.96954" lon="-0.26447">
        <ele>1455.4</ele>
        <time>2020-09-03T08:57:50Z</time>
      </trkpt>
      <trkpt lat="42.96952" lon="-0.26448">
        <ele>1455.8</ele>
        <time>2020-09-03T08:57:51Z</time>
      </trkpt>
      <trkpt lat="42.96948" lon="-0.26448">
        <ele>1456</ele>
        <time>2020-09-03T08:57:52Z</time>
      </trkpt>
      <trkpt lat="42.96944" lon="-0.26446">
        <ele>1456.6</ele>
        <time>2020-09-03T08:57:53Z</time>
      </trkpt>
      <trkpt lat="42.96941" lon="-0.26444">
        <ele>1456.8</ele>
        <time>2020-09-03T08:57:54Z</time>
      </trkpt>
      <trkpt lat="42.96938" lon="-0.2644">
        <ele>1457.2</ele>
        <time>2020-09-03T08:57:55Z</time>
      </trkpt>
      <trkpt lat="42.96936" lon="-0.26437">
        <ele>1457.4</ele>
        <time>2020-09-03T08:57:56Z</time>
      </trkpt>
      <trkpt lat="42.96932" lon="-0.26433">
        <ele>1457.6</ele>
        <time>2020-09-03T08:57:57Z</time>
      </trkpt>
      <trkpt lat="42.9693" lon="-0.2643">
        <ele>1457.8</ele>
        <time>2020-09-03T08:57:58Z</time>
      </trkpt>
      <trkpt lat="42.96926" lon="-0.26427">
        <ele>1458.2</ele>
        <time>2020-09-03T08:57:59Z</time>
      </trkpt>
      <trkpt lat="42.96924" lon="-0.26425">
        <ele>1458.6</ele>
        <time>2020-09-03T08:58:00Z</time>
      </trkpt>
      <trkpt lat="42.96921" lon="-0.26424">
        <ele>1459</ele>
        <time>2020-09-03T08:58:01Z</time>
      </trkpt>
      <trkpt lat="42.96917" lon="-0.26423">
        <ele>1459.2</ele>
        <time>2020-09-03T08:58:02Z</time>
      </trkpt>
      <trkpt lat="42.96913" lon="-0.26423">
        <ele>1459.6</ele>
        <time>2020-09-03T08:58:03Z</time>
      </trkpt>
      <trkpt lat="42.9691" lon="-0.26423">
        <ele>1459.6</ele>
        <time>2020-09-03T08:58:04Z</time>
      </trkpt>
      <trkpt lat="42.96905" lon="-0.26423">
        <ele>1459.8</ele>
        <time>2020-09-03T08:58:05Z</time>
      </trkpt>
      <trkpt lat="42.969" lon="-0.26423">
        <ele>1460</ele>
        <time>2020-09-03T08:58:06Z</time>
      </trkpt>
      <trkpt lat="42.96896" lon="-0.26424">
        <ele>1460.2</ele>
        <time>2020-09-03T08:58:07Z</time>
      </trkpt>
      <trkpt lat="42.96891" lon="-0.26425">
        <ele>1460.6</ele>
        <time>2020-09-03T08:58:08Z</time>
      </trkpt>
      <trkpt lat="42.96887" lon="-0.26425">
        <ele>1460.6</ele>
        <time>2020-09-03T08:58:09Z</time>
      </trkpt>
      <trkpt lat="42.96883" lon="-0.26425">
        <ele>1461.2</ele>
        <time>2020-09-03T08:58:10Z</time>
      </trkpt>
      <trkpt lat="42.96877" lon="-0.26424">
        <ele>1461.4</ele>
        <time>2020-09-03T08:58:11Z</time>
      </trkpt>
      <trkpt lat="42.96873" lon="-0.26424">
        <ele>1461.4</ele>
        <time>2020-09-03T08:58:12Z</time>
      </trkpt>
      <trkpt lat="42.96866" lon="-0.26426">
        <ele>1461.6</ele>
        <time>2020-09-03T08:58:13Z</time>
      </trkpt>
      <trkpt lat="42.96862" lon="-0.26429">
        <ele>1461.6</ele>
        <time>2020-09-03T08:58:14Z</time>
      </trkpt>
      <trkpt lat="42.96856" lon="-0.26432">
        <ele>1461.6</ele>
        <time>2020-09-03T08:58:15Z</time>
      </trkpt>
      <trkpt lat="42.9685" lon="-0.26435">
        <ele>1460.8</ele>
        <time>2020-09-03T08:58:16Z</time>
      </trkpt>
      <trkpt lat="42.96844" lon="-0.26439">
        <ele>1460.6</ele>
        <time>2020-09-03T08:58:17Z</time>
      </trkpt>
      <trkpt lat="42.96837" lon="-0.26446">
        <ele>1460.2</ele>
        <time>2020-09-03T08:58:18Z</time>
      </trkpt>
      <trkpt lat="42.96833" lon="-0.26452">
        <ele>1460</ele>
        <time>2020-09-03T08:58:19Z</time>
      </trkpt>
      <trkpt lat="42.96828" lon="-0.26461">
        <ele>1459.6</ele>
        <time>2020-09-03T08:58:20Z</time>
      </trkpt>
      <trkpt lat="42.96823" lon="-0.26468">
        <ele>1458.4</ele>
        <time>2020-09-03T08:58:21Z</time>
      </trkpt>
      <trkpt lat="42.9682" lon="-0.26473">
        <ele>1458</ele>
        <time>2020-09-03T08:58:22Z</time>
      </trkpt>
      <trkpt lat="42.96815" lon="-0.2648">
        <ele>1457</ele>
        <time>2020-09-03T08:58:23Z</time>
      </trkpt>
      <trkpt lat="42.9681" lon="-0.26483">
        <ele>1456.6</ele>
        <time>2020-09-03T08:58:24Z</time>
      </trkpt>
      <trkpt lat="42.96799" lon="-0.26487">
        <ele>1456</ele>
        <time>2020-09-03T08:58:26Z</time>
      </trkpt>
      <trkpt lat="42.96792" lon="-0.26489">
        <ele>1455.6</ele>
        <time>2020-09-03T08:58:27Z</time>
      </trkpt>
      <trkpt lat="42.96787" lon="-0.2649">
        <ele>1455.4</ele>
        <time>2020-09-03T08:58:28Z</time>
      </trkpt>
      <trkpt lat="42.96763" lon="-0.26498">
        <ele>1453.8</ele>
        <time>2020-09-03T08:58:31Z</time>
      </trkpt>
      <trkpt lat="42.96746" lon="-0.26503">
        <ele>1452.6</ele>
        <time>2020-09-03T08:58:33Z</time>
      </trkpt>
      <trkpt lat="42.9672" lon="-0.26514">
        <ele>1451.4</ele>
        <time>2020-09-03T08:58:36Z</time>
      </trkpt>
      <trkpt lat="42.96703" lon="-0.26521">
        <ele>1450.6</ele>
        <time>2020-09-03T08:58:38Z</time>
      </trkpt>
      <trkpt lat="42.96695" lon="-0.26522">
        <ele>1450.4</ele>
        <time>2020-09-03T08:58:39Z</time>
      </trkpt>
      <trkpt lat="42.96687" lon="-0.26522">
        <ele>1450.2</ele>
        <time>2020-09-03T08:58:40Z</time>
      </trkpt>
      <trkpt lat="42.9668" lon="-0.26522">
        <ele>1450</ele>
        <time>2020-09-03T08:58:41Z</time>
      </trkpt>
      <trkpt lat="42.96674" lon="-0.26521">
        <ele>1449.8</ele>
        <time>2020-09-03T08:58:42Z</time>
      </trkpt>
      <trkpt lat="42.96666" lon="-0.26518">
        <ele>1449.8</ele>
        <time>2020-09-03T08:58:43Z</time>
      </trkpt>
      <trkpt lat="42.96661" lon="-0.26516">
        <ele>1449.8</ele>
        <time>2020-09-03T08:58:44Z</time>
      </trkpt>
      <trkpt lat="42.96654" lon="-0.26514">
        <ele>1449.6</ele>
        <time>2020-09-03T08:58:45Z</time>
      </trkpt>
      <trkpt lat="42.96648" lon="-0.2651">
        <ele>1449.6</ele>
        <time>2020-09-03T08:58:46Z</time>
      </trkpt>
      <trkpt lat="42.96641" lon="-0.26507">
        <ele>1449.6</ele>
        <time>2020-09-03T08:58:47Z</time>
      </trkpt>
      <trkpt lat="42.96627" lon="-0.26501">
        <ele>1449</ele>
        <time>2020-09-03T08:58:49Z</time>
      </trkpt>
      <trkpt lat="42.9659" lon="-0.26487">
        <ele>1448.2</ele>
        <time>2020-09-03T08:58:54Z</time>
      </trkpt>
      <trkpt lat="42.96583" lon="-0.26485">
        <ele>1448.2</ele>
        <time>2020-09-03T08:58:55Z</time>
      </trkpt>
      <trkpt lat="42.96576" lon="-0.26484">
        <ele>1448</ele>
        <time>2020-09-03T08:58:56Z</time>
      </trkpt>
      <trkpt lat="42.96569" lon="-0.26481">
        <ele>1447.6</ele>
        <time>2020-09-03T08:58:57Z</time>
      </trkpt>
      <trkpt lat="42.96555" lon="-0.26474">
        <ele>1447.2</ele>
        <time>2020-09-03T08:58:59Z</time>
      </trkpt>
      <trkpt lat="42.96535" lon="-0.26462">
        <ele>1447</ele>
        <time>2020-09-03T08:59:02Z</time>
      </trkpt>
      <trkpt lat="42.96522" lon="-0.26455">
        <ele>1446.6</ele>
        <time>2020-09-03T08:59:04Z</time>
      </trkpt>
      <trkpt lat="42.96516" lon="-0.2645">
        <ele>1446.6</ele>
        <time>2020-09-03T08:59:05Z</time>
      </trkpt>
      <trkpt lat="42.96511" lon="-0.26444">
        <ele>1446.6</ele>
        <time>2020-09-03T08:59:06Z</time>
      </trkpt>
      <trkpt lat="42.96496" lon="-0.26423">
        <ele>1446.6</ele>
        <time>2020-09-03T08:59:09Z</time>
      </trkpt>
      <trkpt lat="42.96491" lon="-0.26416">
        <ele>1446.6</ele>
        <time>2020-09-03T08:59:10Z</time>
      </trkpt>
      <trkpt lat="42.96483" lon="-0.26401">
        <ele>1446.6</ele>
        <time>2020-09-03T08:59:12Z</time>
      </trkpt>
      <trkpt lat="42.96479" lon="-0.26394">
        <ele>1446.6</ele>
        <time>2020-09-03T08:59:13Z</time>
      </trkpt>
      <trkpt lat="42.96474" lon="-0.26386">
        <ele>1446.8</ele>
        <time>2020-09-03T08:59:14Z</time>
      </trkpt>
      <trkpt lat="42.96447" lon="-0.26343">
        <ele>1447</ele>
        <time>2020-09-03T08:59:19Z</time>
      </trkpt>
      <trkpt lat="42.96436" lon="-0.26326">
        <ele>1447</ele>
        <time>2020-09-03T08:59:21Z</time>
      </trkpt>
      <trkpt lat="42.96415" lon="-0.26292">
        <ele>1445.2</ele>
        <time>2020-09-03T08:59:25Z</time>
      </trkpt>
      <trkpt lat="42.96411" lon="-0.26284">
        <ele>1444.8</ele>
        <time>2020-09-03T08:59:26Z</time>
      </trkpt>
      <trkpt lat="42.96405" lon="-0.26277">
        <ele>1444.4</ele>
        <time>2020-09-03T08:59:27Z</time>
      </trkpt>
      <trkpt lat="42.96399" lon="-0.26272">
        <ele>1444.2</ele>
        <time>2020-09-03T08:59:28Z</time>
      </trkpt>
      <trkpt lat="42.96392" lon="-0.26269">
        <ele>1443.8</ele>
        <time>2020-09-03T08:59:29Z</time>
      </trkpt>
      <trkpt lat="42.96386" lon="-0.26266">
        <ele>1443.6</ele>
        <time>2020-09-03T08:59:30Z</time>
      </trkpt>
      <trkpt lat="42.9638" lon="-0.26264">
        <ele>1443.6</ele>
        <time>2020-09-03T08:59:31Z</time>
      </trkpt>
      <trkpt lat="42.96374" lon="-0.26263">
        <ele>1443.6</ele>
        <time>2020-09-03T08:59:32Z</time>
      </trkpt>
      <trkpt lat="42.96369" lon="-0.26261">
        <ele>1443.4</ele>
        <time>2020-09-03T08:59:33Z</time>
      </trkpt>
      <trkpt lat="42.96363" lon="-0.26258">
        <ele>1443.6</ele>
        <time>2020-09-03T08:59:34Z</time>
      </trkpt>
      <trkpt lat="42.96358" lon="-0.26255">
        <ele>1443.6</ele>
        <time>2020-09-03T08:59:35Z</time>
      </trkpt>
      <trkpt lat="42.96353" lon="-0.26253">
        <ele>1444</ele>
        <time>2020-09-03T08:59:36Z</time>
      </trkpt>
      <trkpt lat="42.96348" lon="-0.2625">
        <ele>1444.4</ele>
        <time>2020-09-03T08:59:37Z</time>
      </trkpt>
      <trkpt lat="42.96343" lon="-0.26248">
        <ele>1444.8</ele>
        <time>2020-09-03T08:59:38Z</time>
      </trkpt>
      <trkpt lat="42.96338" lon="-0.26247">
        <ele>1445</ele>
        <time>2020-09-03T08:59:39Z</time>
      </trkpt>
      <trkpt lat="42.96334" lon="-0.26245">
        <ele>1445.2</ele>
        <time>2020-09-03T08:59:40Z</time>
      </trkpt>
      <trkpt lat="42.9633" lon="-0.26244">
        <ele>1445.4</ele>
        <time>2020-09-03T08:59:41Z</time>
      </trkpt>
      <trkpt lat="42.96325" lon="-0.26243">
        <ele>1445.8</ele>
        <time>2020-09-03T08:59:42Z</time>
      </trkpt>
      <trkpt lat="42.96321" lon="-0.26242">
        <ele>1445.8</ele>
        <time>2020-09-03T08:59:43Z</time>
      </trkpt>
      <trkpt lat="42.96318" lon="-0.26241">
        <ele>1446.4</ele>
        <time>2020-09-03T08:59:44Z</time>
      </trkpt>
      <trkpt lat="42.96314" lon="-0.26241">
        <ele>1446.6</ele>
        <time>2020-09-03T08:59:45Z</time>
      </trkpt>
      <trkpt lat="42.96312" lon="-0.26241">
        <ele>1447</ele>
        <time>2020-09-03T08:59:46Z</time>
      </trkpt>
      <trkpt lat="42.96308" lon="-0.26242">
        <ele>1447.2</ele>
        <time>2020-09-03T08:59:47Z</time>
      </trkpt>
      <trkpt lat="42.96305" lon="-0.26242">
        <ele>1447.6</ele>
        <time>2020-09-03T08:59:48Z</time>
      </trkpt>
      <trkpt lat="42.96303" lon="-0.26243">
        <ele>1448.2</ele>
        <time>2020-09-03T08:59:49Z</time>
      </trkpt>
      <trkpt lat="42.963" lon="-0.26245">
        <ele>1448.4</ele>
        <time>2020-09-03T08:59:50Z</time>
      </trkpt>
      <trkpt lat="42.96298" lon="-0.26246">
        <ele>1448.8</ele>
        <time>2020-09-03T08:59:51Z</time>
      </trkpt>
      <trkpt lat="42.96293" lon="-0.2625">
        <ele>1449.6</ele>
        <time>2020-09-03T08:59:53Z</time>
      </trkpt>
      <trkpt lat="42.96291" lon="-0.26252">
        <ele>1449.6</ele>
        <time>2020-09-03T08:59:54Z</time>
      </trkpt>
      <trkpt lat="42.96289" lon="-0.26254">
        <ele>1450.6</ele>
        <time>2020-09-03T08:59:55Z</time>
      </trkpt>
      <trkpt lat="42.96286" lon="-0.26256">
        <ele>1450.8</ele>
        <time>2020-09-03T08:59:56Z</time>
      </trkpt>
      <trkpt lat="42.96285" lon="-0.26257">
        <ele>1451.4</ele>
        <time>2020-09-03T08:59:57Z</time>
      </trkpt>
      <trkpt lat="42.96282" lon="-0.26258">
        <ele>1451.6</ele>
        <time>2020-09-03T08:59:58Z</time>
      </trkpt>
      <trkpt lat="42.9628" lon="-0.2626">
        <ele>1451.8</ele>
        <time>2020-09-03T08:59:59Z</time>
      </trkpt>
      <trkpt lat="42.96277" lon="-0.26261">
        <ele>1452</ele>
        <time>2020-09-03T09:00:00Z</time>
      </trkpt>
      <trkpt lat="42.96275" lon="-0.26262">
        <ele>1452.4</ele>
        <time>2020-09-03T09:00:01Z</time>
      </trkpt>
      <trkpt lat="42.96272" lon="-0.26264">
        <ele>1452.6</ele>
        <time>2020-09-03T09:00:02Z</time>
      </trkpt>
      <trkpt lat="42.9627" lon="-0.26265">
        <ele>1452.8</ele>
        <time>2020-09-03T09:00:03Z</time>
      </trkpt>
      <trkpt lat="42.96267" lon="-0.26266">
        <ele>1453.2</ele>
        <time>2020-09-03T09:00:04Z</time>
      </trkpt>
      <trkpt lat="42.96265" lon="-0.26266">
        <ele>1453.2</ele>
        <time>2020-09-03T09:00:05Z</time>
      </trkpt>
      <trkpt lat="42.96262" lon="-0.26268">
        <ele>1453.8</ele>
        <time>2020-09-03T09:00:06Z</time>
      </trkpt>
      <trkpt lat="42.9626" lon="-0.26269">
        <ele>1454.2</ele>
        <time>2020-09-03T09:00:07Z</time>
      </trkpt>
      <trkpt lat="42.96257" lon="-0.26269">
        <ele>1454.6</ele>
        <time>2020-09-03T09:00:08Z</time>
      </trkpt>
      <trkpt lat="42.96255" lon="-0.26269">
        <ele>1454.8</ele>
        <time>2020-09-03T09:00:09Z</time>
      </trkpt>
      <trkpt lat="42.96252" lon="-0.2627">
        <ele>1455</ele>
        <time>2020-09-03T09:00:10Z</time>
      </trkpt>
      <trkpt lat="42.9625" lon="-0.2627">
        <ele>1455.2</ele>
        <time>2020-09-03T09:00:11Z</time>
      </trkpt>
      <trkpt lat="42.96248" lon="-0.26271">
        <ele>1455.4</ele>
        <time>2020-09-03T09:00:12Z</time>
      </trkpt>
      <trkpt lat="42.96246" lon="-0.2627">
        <ele>1455.6</ele>
        <time>2020-09-03T09:00:13Z</time>
      </trkpt>
      <trkpt lat="42.96244" lon="-0.2627">
        <ele>1456</ele>
        <time>2020-09-03T09:00:14Z</time>
      </trkpt>
      <trkpt lat="42.96242" lon="-0.2627">
        <ele>1456.2</ele>
        <time>2020-09-03T09:00:15Z</time>
      </trkpt>
      <trkpt lat="42.9624" lon="-0.26269">
        <ele>1456.6</ele>
        <time>2020-09-03T09:00:16Z</time>
      </trkpt>
      <trkpt lat="42.96238" lon="-0.26267">
        <ele>1457</ele>
        <time>2020-09-03T09:00:17Z</time>
      </trkpt>
      <trkpt lat="42.96236" lon="-0.26266">
        <ele>1457.2</ele>
        <time>2020-09-03T09:00:18Z</time>
      </trkpt>
      <trkpt lat="42.96235" lon="-0.26264">
        <ele>1457.4</ele>
        <time>2020-09-03T09:00:19Z</time>
      </trkpt>
      <trkpt lat="42.96234" lon="-0.26261">
        <ele>1457.4</ele>
        <time>2020-09-03T09:00:20Z</time>
      </trkpt>
      <trkpt lat="42.96233" lon="-0.26259">
        <ele>1457.8</ele>
        <time>2020-09-03T09:00:21Z</time>
      </trkpt>
      <trkpt lat="42.96232" lon="-0.26257">
        <ele>1457.8</ele>
        <time>2020-09-03T09:00:22Z</time>
      </trkpt>
      <trkpt lat="42.96231" lon="-0.26254">
        <ele>1458</ele>
        <time>2020-09-03T09:00:23Z</time>
      </trkpt>
      <trkpt lat="42.9623" lon="-0.26252">
        <ele>1458.2</ele>
        <time>2020-09-03T09:00:24Z</time>
      </trkpt>
      <trkpt lat="42.9623" lon="-0.26249">
        <ele>1458.2</ele>
        <time>2020-09-03T09:00:25Z</time>
      </trkpt>
      <trkpt lat="42.9623" lon="-0.26246">
        <ele>1458.2</ele>
        <time>2020-09-03T09:00:26Z</time>
      </trkpt>
      <trkpt lat="42.9623" lon="-0.26243">
        <ele>1458.2</ele>
        <time>2020-09-03T09:00:27Z</time>
      </trkpt>
      <trkpt lat="42.96231" lon="-0.2624">
        <ele>1458.2</ele>
        <time>2020-09-03T09:00:28Z</time>
      </trkpt>
      <trkpt lat="42.96232" lon="-0.26236">
        <ele>1458.2</ele>
        <time>2020-09-03T09:00:29Z</time>
      </trkpt>
      <trkpt lat="42.96232" lon="-0.26233">
        <ele>1458.2</ele>
        <time>2020-09-03T09:00:30Z</time>
      </trkpt>
      <trkpt lat="42.96232" lon="-0.26229">
        <ele>1458.2</ele>
        <time>2020-09-03T09:00:31Z</time>
      </trkpt>
      <trkpt lat="42.96231" lon="-0.26224">
        <ele>1458.2</ele>
        <time>2020-09-03T09:00:32Z</time>
      </trkpt>
      <trkpt lat="42.9623" lon="-0.2622">
        <ele>1458.2</ele>
        <time>2020-09-03T09:00:33Z</time>
      </trkpt>
      <trkpt lat="42.96228" lon="-0.26215">
        <ele>1458</ele>
        <time>2020-09-03T09:00:34Z</time>
      </trkpt>
      <trkpt lat="42.96226" lon="-0.2621">
        <ele>1457.8</ele>
        <time>2020-09-03T09:00:35Z</time>
      </trkpt>
      <trkpt lat="42.96224" lon="-0.26204">
        <ele>1457.6</ele>
        <time>2020-09-03T09:00:36Z</time>
      </trkpt>
      <trkpt lat="42.96221" lon="-0.262">
        <ele>1457.4</ele>
        <time>2020-09-03T09:00:37Z</time>
      </trkpt>
      <trkpt lat="42.96219" lon="-0.26195">
        <ele>1457</ele>
        <time>2020-09-03T09:00:38Z</time>
      </trkpt>
      <trkpt lat="42.96216" lon="-0.26192">
        <ele>1456.8</ele>
        <time>2020-09-03T09:00:39Z</time>
      </trkpt>
      <trkpt lat="42.96212" lon="-0.26189">
        <ele>1456.2</ele>
        <time>2020-09-03T09:00:40Z</time>
      </trkpt>
      <trkpt lat="42.96208" lon="-0.26188">
        <ele>1455.8</ele>
        <time>2020-09-03T09:00:41Z</time>
      </trkpt>
      <trkpt lat="42.96204" lon="-0.26186">
        <ele>1455.4</ele>
        <time>2020-09-03T09:00:42Z</time>
      </trkpt>
      <trkpt lat="42.96199" lon="-0.26184">
        <ele>1455</ele>
        <time>2020-09-03T09:00:43Z</time>
      </trkpt>
      <trkpt lat="42.96196" lon="-0.26181">
        <ele>1454.6</ele>
        <time>2020-09-03T09:00:44Z</time>
      </trkpt>
      <trkpt lat="42.96193" lon="-0.26177">
        <ele>1454.2</ele>
        <time>2020-09-03T09:00:45Z</time>
      </trkpt>
      <trkpt lat="42.9619" lon="-0.26173">
        <ele>1453.8</ele>
        <time>2020-09-03T09:00:46Z</time>
      </trkpt>
      <trkpt lat="42.96187" lon="-0.2617">
        <ele>1453.6</ele>
        <time>2020-09-03T09:00:47Z</time>
      </trkpt>
      <trkpt lat="42.96178" lon="-0.26164">
        <ele>1453.4</ele>
        <time>2020-09-03T09:00:50Z</time>
      </trkpt>
      <trkpt lat="42.96174" lon="-0.26162">
        <ele>1453.4</ele>
        <time>2020-09-03T09:00:51Z</time>
      </trkpt>
      <trkpt lat="42.96171" lon="-0.26161">
        <ele>1453.4</ele>
        <time>2020-09-03T09:00:52Z</time>
      </trkpt>
      <trkpt lat="42.96168" lon="-0.2616">
        <ele>1453.4</ele>
        <time>2020-09-03T09:00:53Z</time>
      </trkpt>
      <trkpt lat="42.96165" lon="-0.2616">
        <ele>1453.4</ele>
        <time>2020-09-03T09:00:54Z</time>
      </trkpt>
      <trkpt lat="42.96162" lon="-0.2616">
        <ele>1453.4</ele>
        <time>2020-09-03T09:00:55Z</time>
      </trkpt>
      <trkpt lat="42.96159" lon="-0.2616">
        <ele>1453.4</ele>
        <time>2020-09-03T09:00:56Z</time>
      </trkpt>
      <trkpt lat="42.96156" lon="-0.26161">
        <ele>1453.4</ele>
        <time>2020-09-03T09:00:57Z</time>
      </trkpt>
      <trkpt lat="42.96153" lon="-0.26161">
        <ele>1453.4</ele>
        <time>2020-09-03T09:00:58Z</time>
      </trkpt>
      <trkpt lat="42.96151" lon="-0.26162">
        <ele>1453.6</ele>
        <time>2020-09-03T09:00:59Z</time>
      </trkpt>
      <trkpt lat="42.96148" lon="-0.26163">
        <ele>1453.8</ele>
        <time>2020-09-03T09:01:00Z</time>
      </trkpt>
      <trkpt lat="42.96146" lon="-0.26164">
        <ele>1453.8</ele>
        <time>2020-09-03T09:01:01Z</time>
      </trkpt>
      <trkpt lat="42.96144" lon="-0.26165">
        <ele>1454</ele>
        <time>2020-09-03T09:01:02Z</time>
      </trkpt>
      <trkpt lat="42.96141" lon="-0.26165">
        <ele>1454.2</ele>
        <time>2020-09-03T09:01:03Z</time>
      </trkpt>
      <trkpt lat="42.96139" lon="-0.26167">
        <ele>1454.2</ele>
        <time>2020-09-03T09:01:04Z</time>
      </trkpt>
      <trkpt lat="42.96137" lon="-0.26168">
        <ele>1454.4</ele>
        <time>2020-09-03T09:01:05Z</time>
      </trkpt>
      <trkpt lat="42.96134" lon="-0.26168">
        <ele>1454.8</ele>
        <time>2020-09-03T09:01:06Z</time>
      </trkpt>
      <trkpt lat="42.96132" lon="-0.26169">
        <ele>1454.8</ele>
        <time>2020-09-03T09:01:07Z</time>
      </trkpt>
      <trkpt lat="42.9613" lon="-0.2617">
        <ele>1455</ele>
        <time>2020-09-03T09:01:08Z</time>
      </trkpt>
      <trkpt lat="42.96127" lon="-0.26172">
        <ele>1455.2</ele>
        <time>2020-09-03T09:01:09Z</time>
      </trkpt>
      <trkpt lat="42.96124" lon="-0.26175">
        <ele>1455.4</ele>
        <time>2020-09-03T09:01:11Z</time>
      </trkpt>
      <trkpt lat="42.96122" lon="-0.26176">
        <ele>1455.8</ele>
        <time>2020-09-03T09:01:12Z</time>
      </trkpt>
      <trkpt lat="42.96121" lon="-0.26176">
        <ele>1455.8</ele>
        <time>2020-09-03T09:01:13Z</time>
      </trkpt>
      <trkpt lat="42.9612" lon="-0.26176">
        <ele>1456</ele>
        <time>2020-09-03T09:01:14Z</time>
      </trkpt>
      <trkpt lat="42.9612" lon="-0.26176">
        <ele>1456.2</ele>
        <time>2020-09-03T09:01:15Z</time>
      </trkpt>
      <trkpt lat="42.9612" lon="-0.26176">
        <ele>1456.4</ele>
        <time>2020-09-03T09:01:16Z</time>
      </trkpt>
      <trkpt lat="42.9612" lon="-0.26176">
        <ele>1456.8</ele>
        <time>2020-09-03T09:01:25Z</time>
      </trkpt>
      <trkpt lat="42.9612" lon="-0.26176">
        <ele>1456.8</ele>
        <time>2020-09-03T09:01:30Z</time>
      </trkpt>
      <trkpt lat="42.9612" lon="-0.26176">
        <ele>1456.8</ele>
        <time>2020-09-03T09:02:05Z</time>
      </trkpt>
      <trkpt lat="42.96118" lon="-0.26176">
        <ele>1457.2</ele>
        <time>2020-09-03T09:02:19Z</time>
      </trkpt>
      <trkpt lat="42.96114" lon="-0.26177">
        <ele>1457.2</ele>
        <time>2020-09-03T09:02:21Z</time>
      </trkpt>
      <trkpt lat="42.96099" lon="-0.26182">
        <ele>1457.8</ele>
        <time>2020-09-03T09:02:26Z</time>
      </trkpt>
      <trkpt lat="42.96096" lon="-0.26183">
        <ele>1458</ele>
        <time>2020-09-03T09:02:27Z</time>
      </trkpt>
      <trkpt lat="42.96094" lon="-0.26184">
        <ele>1458.2</ele>
        <time>2020-09-03T09:02:28Z</time>
      </trkpt>
      <trkpt lat="42.96092" lon="-0.26185">
        <ele>1458.2</ele>
        <time>2020-09-03T09:02:29Z</time>
      </trkpt>
      <trkpt lat="42.96081" lon="-0.26188">
        <ele>1459.2</ele>
        <time>2020-09-03T09:02:34Z</time>
      </trkpt>
      <trkpt lat="42.96078" lon="-0.26187">
        <ele>1459.2</ele>
        <time>2020-09-03T09:02:35Z</time>
      </trkpt>
      <trkpt lat="42.96076" lon="-0.26187">
        <ele>1459.6</ele>
        <time>2020-09-03T09:02:36Z</time>
      </trkpt>
      <trkpt lat="42.96074" lon="-0.26186">
        <ele>1459.8</ele>
        <time>2020-09-03T09:02:37Z</time>
      </trkpt>
      <trkpt lat="42.96072" lon="-0.26184">
        <ele>1460</ele>
        <time>2020-09-03T09:02:38Z</time>
      </trkpt>
      <trkpt lat="42.9607" lon="-0.26182">
        <ele>1460</ele>
        <time>2020-09-03T09:02:39Z</time>
      </trkpt>
      <trkpt lat="42.96069" lon="-0.2618">
        <ele>1460.2</ele>
        <time>2020-09-03T09:02:40Z</time>
      </trkpt>
      <trkpt lat="42.96068" lon="-0.26178">
        <ele>1460.2</ele>
        <time>2020-09-03T09:02:41Z</time>
      </trkpt>
      <trkpt lat="42.96068" lon="-0.26174">
        <ele>1460.4</ele>
        <time>2020-09-03T09:02:42Z</time>
      </trkpt>
      <trkpt lat="42.96067" lon="-0.26172">
        <ele>1460.8</ele>
        <time>2020-09-03T09:02:43Z</time>
      </trkpt>
      <trkpt lat="42.96066" lon="-0.26169">
        <ele>1461</ele>
        <time>2020-09-03T09:02:44Z</time>
      </trkpt>
      <trkpt lat="42.96065" lon="-0.26165">
        <ele>1461.4</ele>
        <time>2020-09-03T09:02:45Z</time>
      </trkpt>
      <trkpt lat="42.96064" lon="-0.26162">
        <ele>1461.6</ele>
        <time>2020-09-03T09:02:46Z</time>
      </trkpt>
      <trkpt lat="42.96064" lon="-0.26159">
        <ele>1461.8</ele>
        <time>2020-09-03T09:02:47Z</time>
      </trkpt>
      <trkpt lat="42.96063" lon="-0.26156">
        <ele>1461.8</ele>
        <time>2020-09-03T09:02:48Z</time>
      </trkpt>
      <trkpt lat="42.96063" lon="-0.26152">
        <ele>1462.2</ele>
        <time>2020-09-03T09:02:49Z</time>
      </trkpt>
      <trkpt lat="42.96063" lon="-0.26149">
        <ele>1462.2</ele>
        <time>2020-09-03T09:02:50Z</time>
      </trkpt>
      <trkpt lat="42.96063" lon="-0.26145">
        <ele>1462.4</ele>
        <time>2020-09-03T09:02:51Z</time>
      </trkpt>
      <trkpt lat="42.96062" lon="-0.26142">
        <ele>1462.6</ele>
        <time>2020-09-03T09:02:52Z</time>
      </trkpt>
      <trkpt lat="42.96062" lon="-0.26139">
        <ele>1462.8</ele>
        <time>2020-09-03T09:02:53Z</time>
      </trkpt>
      <trkpt lat="42.96062" lon="-0.26135">
        <ele>1462.8</ele>
        <time>2020-09-03T09:02:54Z</time>
      </trkpt>
      <trkpt lat="42.96061" lon="-0.26132">
        <ele>1463.2</ele>
        <time>2020-09-03T09:02:55Z</time>
      </trkpt>
      <trkpt lat="42.96061" lon="-0.26129">
        <ele>1463.2</ele>
        <time>2020-09-03T09:02:56Z</time>
      </trkpt>
      <trkpt lat="42.96061" lon="-0.26127">
        <ele>1463.4</ele>
        <time>2020-09-03T09:02:57Z</time>
      </trkpt>
      <trkpt lat="42.9606" lon="-0.26124">
        <ele>1463.6</ele>
        <time>2020-09-03T09:02:58Z</time>
      </trkpt>
      <trkpt lat="42.9606" lon="-0.26122">
        <ele>1463.8</ele>
        <time>2020-09-03T09:02:59Z</time>
      </trkpt>
      <trkpt lat="42.9606" lon="-0.2612">
        <ele>1464</ele>
        <time>2020-09-03T09:03:00Z</time>
      </trkpt>
      <trkpt lat="42.9606" lon="-0.26118">
        <ele>1464</ele>
        <time>2020-09-03T09:03:01Z</time>
      </trkpt>
      <trkpt lat="42.9606" lon="-0.26116">
        <ele>1464</ele>
        <time>2020-09-03T09:03:02Z</time>
      </trkpt>
      <trkpt lat="42.9606" lon="-0.26114">
        <ele>1464</ele>
        <time>2020-09-03T09:03:03Z</time>
      </trkpt>
      <trkpt lat="42.9606" lon="-0.26112">
        <ele>1464.2</ele>
        <time>2020-09-03T09:03:04Z</time>
      </trkpt>
      <trkpt lat="42.9606" lon="-0.26111">
        <ele>1464.2</ele>
        <time>2020-09-03T09:03:05Z</time>
      </trkpt>
      <trkpt lat="42.9606" lon="-0.26109">
        <ele>1464.4</ele>
        <time>2020-09-03T09:03:06Z</time>
      </trkpt>
      <trkpt lat="42.96059" lon="-0.26108">
        <ele>1464.4</ele>
        <time>2020-09-03T09:03:07Z</time>
      </trkpt>
      <trkpt lat="42.96059" lon="-0.26107">
        <ele>1464.6</ele>
        <time>2020-09-03T09:03:08Z</time>
      </trkpt>
      <trkpt lat="42.96059" lon="-0.26106">
        <ele>1464.6</ele>
        <time>2020-09-03T09:03:09Z</time>
      </trkpt>
      <trkpt lat="42.96059" lon="-0.26105">
        <ele>1464.6</ele>
        <time>2020-09-03T09:03:10Z</time>
      </trkpt>
      <trkpt lat="42.96059" lon="-0.26105">
        <ele>1464.6</ele>
        <time>2020-09-03T09:03:11Z</time>
      </trkpt>
      <trkpt lat="42.96059" lon="-0.26105">
        <ele>1464.6</ele>
        <time>2020-09-03T09:03:14Z</time>
      </trkpt>
      <trkpt lat="42.96059" lon="-0.26104">
        <ele>1464.2</ele>
        <time>2020-09-03T09:04:14Z</time>
      </trkpt>
      <trkpt lat="42.96059" lon="-0.26104">
        <ele>1463.8</ele>
        <time>2020-09-03T09:04:56Z</time>
      </trkpt>
      <trkpt lat="42.96059" lon="-0.26104">
        <ele>1464</ele>
        <time>2020-09-03T09:05:37Z</time>
      </trkpt>
      <trkpt lat="42.96059" lon="-0.26104">
        <ele>1464.2</ele>
        <time>2020-09-03T09:06:35Z</time>
      </trkpt>
      <trkpt lat="42.96059" lon="-0.26098">
        <ele>1464</ele>
        <time>2020-09-03T09:06:50Z</time>
      </trkpt>
      <trkpt lat="42.96059" lon="-0.26094">
        <ele>1464</ele>
        <time>2020-09-03T09:06:52Z</time>
      </trkpt>
      <trkpt lat="42.96058" lon="-0.26093">
        <ele>1464</ele>
        <time>2020-09-03T09:06:53Z</time>
      </trkpt>
      <trkpt lat="42.96058" lon="-0.26092">
        <ele>1463.8</ele>
        <time>2020-09-03T09:06:54Z</time>
      </trkpt>
      <trkpt lat="42.96058" lon="-0.2609">
        <ele>1463.8</ele>
        <time>2020-09-03T09:06:55Z</time>
      </trkpt>
      <trkpt lat="42.96057" lon="-0.26089">
        <ele>1463.8</ele>
        <time>2020-09-03T09:06:56Z</time>
      </trkpt>
      <trkpt lat="42.96057" lon="-0.26088">
        <ele>1463.8</ele>
        <time>2020-09-03T09:06:57Z</time>
      </trkpt>
      <trkpt lat="42.96057" lon="-0.26088">
        <ele>1463.8</ele>
        <time>2020-09-03T09:06:59Z</time>
      </trkpt>
      <trkpt lat="42.96057" lon="-0.26086">
        <ele>1463.6</ele>
        <time>2020-09-03T09:07:03Z</time>
      </trkpt>
      <trkpt lat="42.96056" lon="-0.26079">
        <ele>1463.4</ele>
        <time>2020-09-03T09:07:09Z</time>
      </trkpt>
      <trkpt lat="42.96056" lon="-0.26078">
        <ele>1463.4</ele>
        <time>2020-09-03T09:07:10Z</time>
      </trkpt>
      <trkpt lat="42.96056" lon="-0.26077">
        <ele>1463.4</ele>
        <time>2020-09-03T09:07:11Z</time>
      </trkpt>
      <trkpt lat="42.96056" lon="-0.26077">
        <ele>1463</ele>
        <time>2020-09-03T09:07:16Z</time>
      </trkpt>
      <trkpt lat="42.96058" lon="-0.26066">
        <ele>1462.4</ele>
        <time>2020-09-03T09:07:26Z</time>
      </trkpt>
      <trkpt lat="42.96058" lon="-0.26064">
        <ele>1462.4</ele>
        <time>2020-09-03T09:07:27Z</time>
      </trkpt>
      <trkpt lat="42.96059" lon="-0.26058">
        <ele>1462.2</ele>
        <time>2020-09-03T09:07:29Z</time>
      </trkpt>
      <trkpt lat="42.96059" lon="-0.26045">
        <ele>1462</ele>
        <time>2020-09-03T09:07:34Z</time>
      </trkpt>
      <trkpt lat="42.96059" lon="-0.26042">
        <ele>1461.6</ele>
        <time>2020-09-03T09:07:35Z</time>
      </trkpt>
      <trkpt lat="42.96057" lon="-0.26027">
        <ele>1460.8</ele>
        <time>2020-09-03T09:07:40Z</time>
      </trkpt>
      <trkpt lat="42.96053" lon="-0.26018">
        <ele>1460.2</ele>
        <time>2020-09-03T09:07:43Z</time>
      </trkpt>
      <trkpt lat="42.96048" lon="-0.2601">
        <ele>1459.6</ele>
        <time>2020-09-03T09:07:46Z</time>
      </trkpt>
      <trkpt lat="42.96041" lon="-0.26">
        <ele>1458.8</ele>
        <time>2020-09-03T09:07:51Z</time>
      </trkpt>
      <trkpt lat="42.96039" lon="-0.25996">
        <ele>1458.6</ele>
        <time>2020-09-03T09:07:53Z</time>
      </trkpt>
      <trkpt lat="42.96038" lon="-0.25994">
        <ele>1458.4</ele>
        <time>2020-09-03T09:07:54Z</time>
      </trkpt>
      <trkpt lat="42.96038" lon="-0.25991">
        <ele>1458.2</ele>
        <time>2020-09-03T09:07:55Z</time>
      </trkpt>
      <trkpt lat="42.96038" lon="-0.25988">
        <ele>1458.2</ele>
        <time>2020-09-03T09:07:56Z</time>
      </trkpt>
      <trkpt lat="42.96037" lon="-0.25985">
        <ele>1458</ele>
        <time>2020-09-03T09:07:57Z</time>
      </trkpt>
      <trkpt lat="42.96036" lon="-0.25982">
        <ele>1457.8</ele>
        <time>2020-09-03T09:07:58Z</time>
      </trkpt>
      <trkpt lat="42.96036" lon="-0.25979">
        <ele>1457.6</ele>
        <time>2020-09-03T09:07:59Z</time>
      </trkpt>
      <trkpt lat="42.96033" lon="-0.25961">
        <ele>1456.6</ele>
        <time>2020-09-03T09:08:03Z</time>
      </trkpt>
      <trkpt lat="42.96033" lon="-0.25956">
        <ele>1456.4</ele>
        <time>2020-09-03T09:08:04Z</time>
      </trkpt>
      <trkpt lat="42.96033" lon="-0.25941">
        <ele>1455.8</ele>
        <time>2020-09-03T09:08:07Z</time>
      </trkpt>
      <trkpt lat="42.96034" lon="-0.25929">
        <ele>1455.2</ele>
        <time>2020-09-03T09:08:09Z</time>
      </trkpt>
      <trkpt lat="42.96037" lon="-0.25915">
        <ele>1454.8</ele>
        <time>2020-09-03T09:08:11Z</time>
      </trkpt>
      <trkpt lat="42.96043" lon="-0.25898">
        <ele>1454.4</ele>
        <time>2020-09-03T09:08:13Z</time>
      </trkpt>
      <trkpt lat="42.96046" lon="-0.25888">
        <ele>1454.2</ele>
        <time>2020-09-03T09:08:14Z</time>
      </trkpt>
      <trkpt lat="42.96056" lon="-0.25855">
        <ele>1453</ele>
        <time>2020-09-03T09:08:17Z</time>
      </trkpt>
      <trkpt lat="42.96065" lon="-0.25816">
        <ele>1451.6</ele>
        <time>2020-09-03T09:08:20Z</time>
      </trkpt>
      <trkpt lat="42.96071" lon="-0.2579">
        <ele>1450.4</ele>
        <time>2020-09-03T09:08:22Z</time>
      </trkpt>
      <trkpt lat="42.96073" lon="-0.2578">
        <ele>1449.4</ele>
        <time>2020-09-03T09:08:23Z</time>
      </trkpt>
      <trkpt lat="42.96076" lon="-0.25767">
        <ele>1448.6</ele>
        <time>2020-09-03T09:08:24Z</time>
      </trkpt>
      <trkpt lat="42.96078" lon="-0.25752">
        <ele>1447.6</ele>
        <time>2020-09-03T09:08:25Z</time>
      </trkpt>
      <trkpt lat="42.9608" lon="-0.25727">
        <ele>1446.2</ele>
        <time>2020-09-03T09:08:27Z</time>
      </trkpt>
      <trkpt lat="42.9608" lon="-0.25703">
        <ele>1444.6</ele>
        <time>2020-09-03T09:08:29Z</time>
      </trkpt>
      <trkpt lat="42.96081" lon="-0.25692">
        <ele>1444</ele>
        <time>2020-09-03T09:08:30Z</time>
      </trkpt>
      <trkpt lat="42.96082" lon="-0.25681">
        <ele>1442.6</ele>
        <time>2020-09-03T09:08:31Z</time>
      </trkpt>
      <trkpt lat="42.96084" lon="-0.25671">
        <ele>1442</ele>
        <time>2020-09-03T09:08:32Z</time>
      </trkpt>
      <trkpt lat="42.96087" lon="-0.25661">
        <ele>1440.8</ele>
        <time>2020-09-03T09:08:33Z</time>
      </trkpt>
      <trkpt lat="42.9609" lon="-0.25651">
        <ele>1439.8</ele>
        <time>2020-09-03T09:08:34Z</time>
      </trkpt>
      <trkpt lat="42.96093" lon="-0.2564">
        <ele>1439.4</ele>
        <time>2020-09-03T09:08:35Z</time>
      </trkpt>
      <trkpt lat="42.961" lon="-0.25608">
        <ele>1437.4</ele>
        <time>2020-09-03T09:08:38Z</time>
      </trkpt>
      <trkpt lat="42.96103" lon="-0.25599">
        <ele>1437.2</ele>
        <time>2020-09-03T09:08:39Z</time>
      </trkpt>
      <trkpt lat="42.96106" lon="-0.25591">
        <ele>1436.6</ele>
        <time>2020-09-03T09:08:40Z</time>
      </trkpt>
      <trkpt lat="42.9611" lon="-0.25585">
        <ele>1436</ele>
        <time>2020-09-03T09:08:41Z</time>
      </trkpt>
      <trkpt lat="42.96115" lon="-0.25581">
        <ele>1435.4</ele>
        <time>2020-09-03T09:08:42Z</time>
      </trkpt>
      <trkpt lat="42.9612" lon="-0.25576">
        <ele>1435.2</ele>
        <time>2020-09-03T09:08:43Z</time>
      </trkpt>
      <trkpt lat="42.96124" lon="-0.2557">
        <ele>1434.8</ele>
        <time>2020-09-03T09:08:44Z</time>
      </trkpt>
      <trkpt lat="42.96127" lon="-0.25565">
        <ele>1434.4</ele>
        <time>2020-09-03T09:08:45Z</time>
      </trkpt>
      <trkpt lat="42.9613" lon="-0.2556">
        <ele>1434</ele>
        <time>2020-09-03T09:08:46Z</time>
      </trkpt>
      <trkpt lat="42.96132" lon="-0.25555">
        <ele>1433.6</ele>
        <time>2020-09-03T09:08:47Z</time>
      </trkpt>
      <trkpt lat="42.96134" lon="-0.25551">
        <ele>1433.6</ele>
        <time>2020-09-03T09:08:48Z</time>
      </trkpt>
      <trkpt lat="42.96137" lon="-0.25546">
        <ele>1433.2</ele>
        <time>2020-09-03T09:08:49Z</time>
      </trkpt>
      <trkpt lat="42.96138" lon="-0.25542">
        <ele>1433</ele>
        <time>2020-09-03T09:08:50Z</time>
      </trkpt>
      <trkpt lat="42.9614" lon="-0.25538">
        <ele>1432.4</ele>
        <time>2020-09-03T09:08:51Z</time>
      </trkpt>
      <trkpt lat="42.96142" lon="-0.25534">
        <ele>1432.2</ele>
        <time>2020-09-03T09:08:52Z</time>
      </trkpt>
      <trkpt lat="42.96144" lon="-0.25531">
        <ele>1432</ele>
        <time>2020-09-03T09:08:53Z</time>
      </trkpt>
      <trkpt lat="42.96146" lon="-0.25529">
        <ele>1432</ele>
        <time>2020-09-03T09:08:54Z</time>
      </trkpt>
      <trkpt lat="42.96147" lon="-0.25528">
        <ele>1431.8</ele>
        <time>2020-09-03T09:08:55Z</time>
      </trkpt>
      <trkpt lat="42.96149" lon="-0.25526">
        <ele>1431.8</ele>
        <time>2020-09-03T09:08:56Z</time>
      </trkpt>
      <trkpt lat="42.96151" lon="-0.25525">
        <ele>1431.6</ele>
        <time>2020-09-03T09:08:57Z</time>
      </trkpt>
      <trkpt lat="42.96153" lon="-0.25525">
        <ele>1431.6</ele>
        <time>2020-09-03T09:08:58Z</time>
      </trkpt>
      <trkpt lat="42.96154" lon="-0.25525">
        <ele>1431.6</ele>
        <time>2020-09-03T09:08:59Z</time>
      </trkpt>
      <trkpt lat="42.96156" lon="-0.25525">
        <ele>1431.6</ele>
        <time>2020-09-03T09:09:00Z</time>
      </trkpt>
      <trkpt lat="42.96157" lon="-0.25526">
        <ele>1431.6</ele>
        <time>2020-09-03T09:09:01Z</time>
      </trkpt>
      <trkpt lat="42.96158" lon="-0.25526">
        <ele>1431.6</ele>
        <time>2020-09-03T09:09:02Z</time>
      </trkpt>
      <trkpt lat="42.96158" lon="-0.25527">
        <ele>1431.6</ele>
        <time>2020-09-03T09:09:03Z</time>
      </trkpt>
      <trkpt lat="42.96159" lon="-0.25529">
        <ele>1431.8</ele>
        <time>2020-09-03T09:09:04Z</time>
      </trkpt>
      <trkpt lat="42.96159" lon="-0.2553">
        <ele>1431.8</ele>
        <time>2020-09-03T09:09:05Z</time>
      </trkpt>
      <trkpt lat="42.9616" lon="-0.25532">
        <ele>1431.8</ele>
        <time>2020-09-03T09:09:06Z</time>
      </trkpt>
      <trkpt lat="42.96162" lon="-0.25536">
        <ele>1431.8</ele>
        <time>2020-09-03T09:09:08Z</time>
      </trkpt>
      <trkpt lat="42.96168" lon="-0.25548">
        <ele>1432</ele>
        <time>2020-09-03T09:09:13Z</time>
      </trkpt>
      <trkpt lat="42.9617" lon="-0.25551">
        <ele>1432</ele>
        <time>2020-09-03T09:09:14Z</time>
      </trkpt>
      <trkpt lat="42.9617" lon="-0.25554">
        <ele>1432.2</ele>
        <time>2020-09-03T09:09:15Z</time>
      </trkpt>
      <trkpt lat="42.96171" lon="-0.25569">
        <ele>1433</ele>
        <time>2020-09-03T09:09:21Z</time>
      </trkpt>
      <trkpt lat="42.96171" lon="-0.25571">
        <ele>1433.2</ele>
        <time>2020-09-03T09:09:22Z</time>
      </trkpt>
      <trkpt lat="42.96171" lon="-0.25574">
        <ele>1433.4</ele>
        <time>2020-09-03T09:09:23Z</time>
      </trkpt>
      <trkpt lat="42.96171" lon="-0.25576">
        <ele>1433.4</ele>
        <time>2020-09-03T09:09:24Z</time>
      </trkpt>
      <trkpt lat="42.9617" lon="-0.25578">
        <ele>1433.6</ele>
        <time>2020-09-03T09:09:25Z</time>
      </trkpt>
      <trkpt lat="42.9617" lon="-0.2558">
        <ele>1433.8</ele>
        <time>2020-09-03T09:09:26Z</time>
      </trkpt>
      <trkpt lat="42.96169" lon="-0.25583">
        <ele>1434</ele>
        <time>2020-09-03T09:09:27Z</time>
      </trkpt>
      <trkpt lat="42.96168" lon="-0.25585">
        <ele>1434.2</ele>
        <time>2020-09-03T09:09:28Z</time>
      </trkpt>
      <trkpt lat="42.96168" lon="-0.25587">
        <ele>1434.2</ele>
        <time>2020-09-03T09:09:29Z</time>
      </trkpt>
      <trkpt lat="42.96167" lon="-0.25589">
        <ele>1434.6</ele>
        <time>2020-09-03T09:09:30Z</time>
      </trkpt>
      <trkpt lat="42.96166" lon="-0.25591">
        <ele>1434.8</ele>
        <time>2020-09-03T09:09:31Z</time>
      </trkpt>
      <trkpt lat="42.96165" lon="-0.25597">
        <ele>1435.6</ele>
        <time>2020-09-03T09:09:34Z</time>
      </trkpt>
      <trkpt lat="42.96164" lon="-0.25599">
        <ele>1435.8</ele>
        <time>2020-09-03T09:09:35Z</time>
      </trkpt>
      <trkpt lat="42.96163" lon="-0.25601">
        <ele>1436.2</ele>
        <time>2020-09-03T09:09:36Z</time>
      </trkpt>
      <trkpt lat="42.96163" lon="-0.25603">
        <ele>1436.4</ele>
        <time>2020-09-03T09:09:37Z</time>
      </trkpt>
      <trkpt lat="42.96162" lon="-0.25605">
        <ele>1436.6</ele>
        <time>2020-09-03T09:09:38Z</time>
      </trkpt>
      <trkpt lat="42.96162" lon="-0.25607">
        <ele>1436.8</ele>
        <time>2020-09-03T09:09:39Z</time>
      </trkpt>
      <trkpt lat="42.96161" lon="-0.25609">
        <ele>1437</ele>
        <time>2020-09-03T09:09:40Z</time>
      </trkpt>
      <trkpt lat="42.96161" lon="-0.25611">
        <ele>1437.2</ele>
        <time>2020-09-03T09:09:41Z</time>
      </trkpt>
      <trkpt lat="42.96161" lon="-0.25612">
        <ele>1437.2</ele>
        <time>2020-09-03T09:09:42Z</time>
      </trkpt>
      <trkpt lat="42.96161" lon="-0.25615">
        <ele>1437.6</ele>
        <time>2020-09-03T09:09:43Z</time>
      </trkpt>
      <trkpt lat="42.9616" lon="-0.25617">
        <ele>1437.6</ele>
        <time>2020-09-03T09:09:44Z</time>
      </trkpt>
      <trkpt lat="42.96161" lon="-0.25619">
        <ele>1438</ele>
        <time>2020-09-03T09:09:45Z</time>
      </trkpt>
      <trkpt lat="42.9616" lon="-0.25622">
        <ele>1438.2</ele>
        <time>2020-09-03T09:09:46Z</time>
      </trkpt>
      <trkpt lat="42.9616" lon="-0.25624">
        <ele>1438.4</ele>
        <time>2020-09-03T09:09:47Z</time>
      </trkpt>
      <trkpt lat="42.9616" lon="-0.25626">
        <ele>1438.6</ele>
        <time>2020-09-03T09:09:48Z</time>
      </trkpt>
      <trkpt lat="42.9616" lon="-0.25628">
        <ele>1439</ele>
        <time>2020-09-03T09:09:49Z</time>
      </trkpt>
      <trkpt lat="42.96161" lon="-0.2563">
        <ele>1439.2</ele>
        <time>2020-09-03T09:09:50Z</time>
      </trkpt>
      <trkpt lat="42.96161" lon="-0.25632">
        <ele>1439.4</ele>
        <time>2020-09-03T09:09:51Z</time>
      </trkpt>
      <trkpt lat="42.96161" lon="-0.25634">
        <ele>1439.6</ele>
        <time>2020-09-03T09:09:52Z</time>
      </trkpt>
      <trkpt lat="42.96162" lon="-0.25636">
        <ele>1440</ele>
        <time>2020-09-03T09:09:53Z</time>
      </trkpt>
      <trkpt lat="42.96163" lon="-0.25638">
        <ele>1440.2</ele>
        <time>2020-09-03T09:09:54Z</time>
      </trkpt>
      <trkpt lat="42.96163" lon="-0.2564">
        <ele>1440.2</ele>
        <time>2020-09-03T09:09:55Z</time>
      </trkpt>
      <trkpt lat="42.96164" lon="-0.25642">
        <ele>1440.6</ele>
        <time>2020-09-03T09:09:56Z</time>
      </trkpt>
      <trkpt lat="42.96165" lon="-0.25643">
        <ele>1440.8</ele>
        <time>2020-09-03T09:09:57Z</time>
      </trkpt>
      <trkpt lat="42.96165" lon="-0.25645">
        <ele>1441</ele>
        <time>2020-09-03T09:09:58Z</time>
      </trkpt>
      <trkpt lat="42.96166" lon="-0.25647">
        <ele>1441.2</ele>
        <time>2020-09-03T09:09:59Z</time>
      </trkpt>
      <trkpt lat="42.96168" lon="-0.25648">
        <ele>1441.4</ele>
        <time>2020-09-03T09:10:00Z</time>
      </trkpt>
      <trkpt lat="42.96169" lon="-0.25649">
        <ele>1441.6</ele>
        <time>2020-09-03T09:10:01Z</time>
      </trkpt>
      <trkpt lat="42.96171" lon="-0.25651">
        <ele>1441.8</ele>
        <time>2020-09-03T09:10:02Z</time>
      </trkpt>
      <trkpt lat="42.96173" lon="-0.25652">
        <ele>1442</ele>
        <time>2020-09-03T09:10:03Z</time>
      </trkpt>
      <trkpt lat="42.96174" lon="-0.25653">
        <ele>1442.2</ele>
        <time>2020-09-03T09:10:04Z</time>
      </trkpt>
      <trkpt lat="42.96176" lon="-0.25654">
        <ele>1442.2</ele>
        <time>2020-09-03T09:10:05Z</time>
      </trkpt>
      <trkpt lat="42.96177" lon="-0.25655">
        <ele>1442.4</ele>
        <time>2020-09-03T09:10:06Z</time>
      </trkpt>
      <trkpt lat="42.96179" lon="-0.25656">
        <ele>1442.6</ele>
        <time>2020-09-03T09:10:07Z</time>
      </trkpt>
      <trkpt lat="42.96182" lon="-0.25657">
        <ele>1442.6</ele>
        <time>2020-09-03T09:10:08Z</time>
      </trkpt>
      <trkpt lat="42.96184" lon="-0.25657">
        <ele>1442.8</ele>
        <time>2020-09-03T09:10:09Z</time>
      </trkpt>
      <trkpt lat="42.96186" lon="-0.25657">
        <ele>1442.8</ele>
        <time>2020-09-03T09:10:10Z</time>
      </trkpt>
      <trkpt lat="42.96188" lon="-0.25657">
        <ele>1442.8</ele>
        <time>2020-09-03T09:10:11Z</time>
      </trkpt>
      <trkpt lat="42.9619" lon="-0.25656">
        <ele>1442.8</ele>
        <time>2020-09-03T09:10:12Z</time>
      </trkpt>
      <trkpt lat="42.96192" lon="-0.25656">
        <ele>1443</ele>
        <time>2020-09-03T09:10:13Z</time>
      </trkpt>
      <trkpt lat="42.96194" lon="-0.25654">
        <ele>1443</ele>
        <time>2020-09-03T09:10:14Z</time>
      </trkpt>
      <trkpt lat="42.96196" lon="-0.25653">
        <ele>1443.2</ele>
        <time>2020-09-03T09:10:15Z</time>
      </trkpt>
      <trkpt lat="42.96198" lon="-0.25652">
        <ele>1443.2</ele>
        <time>2020-09-03T09:10:16Z</time>
      </trkpt>
      <trkpt lat="42.962" lon="-0.2565">
        <ele>1443.2</ele>
        <time>2020-09-03T09:10:17Z</time>
      </trkpt>
      <trkpt lat="42.96202" lon="-0.25649">
        <ele>1443.2</ele>
        <time>2020-09-03T09:10:18Z</time>
      </trkpt>
      <trkpt lat="42.96204" lon="-0.25647">
        <ele>1443.4</ele>
        <time>2020-09-03T09:10:19Z</time>
      </trkpt>
      <trkpt lat="42.96206" lon="-0.25646">
        <ele>1443.4</ele>
        <time>2020-09-03T09:10:20Z</time>
      </trkpt>
      <trkpt lat="42.96207" lon="-0.25644">
        <ele>1443.4</ele>
        <time>2020-09-03T09:10:21Z</time>
      </trkpt>
      <trkpt lat="42.96209" lon="-0.25642">
        <ele>1443.6</ele>
        <time>2020-09-03T09:10:22Z</time>
      </trkpt>
      <trkpt lat="42.9621" lon="-0.2564">
        <ele>1443.6</ele>
        <time>2020-09-03T09:10:23Z</time>
      </trkpt>
      <trkpt lat="42.96212" lon="-0.25638">
        <ele>1443.8</ele>
        <time>2020-09-03T09:10:24Z</time>
      </trkpt>
      <trkpt lat="42.96214" lon="-0.25636">
        <ele>1444</ele>
        <time>2020-09-03T09:10:25Z</time>
      </trkpt>
      <trkpt lat="42.96216" lon="-0.25634">
        <ele>1444</ele>
        <time>2020-09-03T09:10:26Z</time>
      </trkpt>
      <trkpt lat="42.96217" lon="-0.25632">
        <ele>1444.2</ele>
        <time>2020-09-03T09:10:27Z</time>
      </trkpt>
      <trkpt lat="42.96218" lon="-0.2563">
        <ele>1444.4</ele>
        <time>2020-09-03T09:10:28Z</time>
      </trkpt>
      <trkpt lat="42.96219" lon="-0.25627">
        <ele>1444.6</ele>
        <time>2020-09-03T09:10:29Z</time>
      </trkpt>
      <trkpt lat="42.9622" lon="-0.25625">
        <ele>1444.8</ele>
        <time>2020-09-03T09:10:30Z</time>
      </trkpt>
      <trkpt lat="42.96222" lon="-0.25623">
        <ele>1445</ele>
        <time>2020-09-03T09:10:31Z</time>
      </trkpt>
      <trkpt lat="42.96222" lon="-0.2562">
        <ele>1445</ele>
        <time>2020-09-03T09:10:32Z</time>
      </trkpt>
      <trkpt lat="42.96223" lon="-0.25618">
        <ele>1445.2</ele>
        <time>2020-09-03T09:10:33Z</time>
      </trkpt>
      <trkpt lat="42.96224" lon="-0.25615">
        <ele>1445.2</ele>
        <time>2020-09-03T09:10:34Z</time>
      </trkpt>
      <trkpt lat="42.96225" lon="-0.25612">
        <ele>1445.4</ele>
        <time>2020-09-03T09:10:35Z</time>
      </trkpt>
      <trkpt lat="42.96226" lon="-0.2561">
        <ele>1445.6</ele>
        <time>2020-09-03T09:10:36Z</time>
      </trkpt>
      <trkpt lat="42.96227" lon="-0.25607">
        <ele>1445.8</ele>
        <time>2020-09-03T09:10:37Z</time>
      </trkpt>
      <trkpt lat="42.96228" lon="-0.25605">
        <ele>1445.8</ele>
        <time>2020-09-03T09:10:38Z</time>
      </trkpt>
      <trkpt lat="42.9623" lon="-0.25603">
        <ele>1446</ele>
        <time>2020-09-03T09:10:39Z</time>
      </trkpt>
      <trkpt lat="42.9623" lon="-0.256">
        <ele>1446.2</ele>
        <time>2020-09-03T09:10:40Z</time>
      </trkpt>
      <trkpt lat="42.96231" lon="-0.25598">
        <ele>1446.4</ele>
        <time>2020-09-03T09:10:41Z</time>
      </trkpt>
      <trkpt lat="42.96232" lon="-0.25595">
        <ele>1446.6</ele>
        <time>2020-09-03T09:10:42Z</time>
      </trkpt>
      <trkpt lat="42.96233" lon="-0.25592">
        <ele>1446.8</ele>
        <time>2020-09-03T09:10:43Z</time>
      </trkpt>
      <trkpt lat="42.96234" lon="-0.25589">
        <ele>1447</ele>
        <time>2020-09-03T09:10:44Z</time>
      </trkpt>
      <trkpt lat="42.96235" lon="-0.25587">
        <ele>1447.2</ele>
        <time>2020-09-03T09:10:45Z</time>
      </trkpt>
      <trkpt lat="42.96236" lon="-0.25584">
        <ele>1447.2</ele>
        <time>2020-09-03T09:10:46Z</time>
      </trkpt>
      <trkpt lat="42.96237" lon="-0.25581">
        <ele>1447.4</ele>
        <time>2020-09-03T09:10:47Z</time>
      </trkpt>
      <trkpt lat="42.96238" lon="-0.25578">
        <ele>1447.4</ele>
        <time>2020-09-03T09:10:48Z</time>
      </trkpt>
      <trkpt lat="42.96239" lon="-0.25574">
        <ele>1447.4</ele>
        <time>2020-09-03T09:10:49Z</time>
      </trkpt>
      <trkpt lat="42.9624" lon="-0.25571">
        <ele>1447.6</ele>
        <time>2020-09-03T09:10:50Z</time>
      </trkpt>
      <trkpt lat="42.96241" lon="-0.25568">
        <ele>1447.6</ele>
        <time>2020-09-03T09:10:51Z</time>
      </trkpt>
      <trkpt lat="42.96242" lon="-0.25565">
        <ele>1447.6</ele>
        <time>2020-09-03T09:10:52Z</time>
      </trkpt>
      <trkpt lat="42.96243" lon="-0.25561">
        <ele>1447.6</ele>
        <time>2020-09-03T09:10:53Z</time>
      </trkpt>
      <trkpt lat="42.96245" lon="-0.25558">
        <ele>1447.6</ele>
        <time>2020-09-03T09:10:54Z</time>
      </trkpt>
      <trkpt lat="42.96246" lon="-0.25554">
        <ele>1447.6</ele>
        <time>2020-09-03T09:10:55Z</time>
      </trkpt>
      <trkpt lat="42.96247" lon="-0.2555">
        <ele>1447.6</ele>
        <time>2020-09-03T09:10:56Z</time>
      </trkpt>
      <trkpt lat="42.9625" lon="-0.25545">
        <ele>1447.6</ele>
        <time>2020-09-03T09:10:57Z</time>
      </trkpt>
      <trkpt lat="42.96252" lon="-0.2554">
        <ele>1447.6</ele>
        <time>2020-09-03T09:10:58Z</time>
      </trkpt>
      <trkpt lat="42.96255" lon="-0.25535">
        <ele>1447.6</ele>
        <time>2020-09-03T09:10:59Z</time>
      </trkpt>
      <trkpt lat="42.96257" lon="-0.2553">
        <ele>1447.6</ele>
        <time>2020-09-03T09:11:00Z</time>
      </trkpt>
      <trkpt lat="42.96259" lon="-0.25526">
        <ele>1447.6</ele>
        <time>2020-09-03T09:11:01Z</time>
      </trkpt>
      <trkpt lat="42.96261" lon="-0.25521">
        <ele>1447.6</ele>
        <time>2020-09-03T09:11:02Z</time>
      </trkpt>
      <trkpt lat="42.96263" lon="-0.25516">
        <ele>1447.4</ele>
        <time>2020-09-03T09:11:03Z</time>
      </trkpt>
      <trkpt lat="42.96264" lon="-0.25512">
        <ele>1447.4</ele>
        <time>2020-09-03T09:11:04Z</time>
      </trkpt>
      <trkpt lat="42.96265" lon="-0.25507">
        <ele>1447.2</ele>
        <time>2020-09-03T09:11:05Z</time>
      </trkpt>
      <trkpt lat="42.96266" lon="-0.25502">
        <ele>1447.2</ele>
        <time>2020-09-03T09:11:06Z</time>
      </trkpt>
      <trkpt lat="42.96266" lon="-0.25492">
        <ele>1447</ele>
        <time>2020-09-03T09:11:08Z</time>
      </trkpt>
      <trkpt lat="42.96266" lon="-0.25488">
        <ele>1447</ele>
        <time>2020-09-03T09:11:09Z</time>
      </trkpt>
      <trkpt lat="42.96264" lon="-0.25484">
        <ele>1447</ele>
        <time>2020-09-03T09:11:10Z</time>
      </trkpt>
      <trkpt lat="42.96263" lon="-0.25481">
        <ele>1447</ele>
        <time>2020-09-03T09:11:11Z</time>
      </trkpt>
      <trkpt lat="42.96263" lon="-0.25477">
        <ele>1447.2</ele>
        <time>2020-09-03T09:11:12Z</time>
      </trkpt>
      <trkpt lat="42.96262" lon="-0.25473">
        <ele>1447.2</ele>
        <time>2020-09-03T09:11:13Z</time>
      </trkpt>
      <trkpt lat="42.96261" lon="-0.25466">
        <ele>1447.2</ele>
        <time>2020-09-03T09:11:15Z</time>
      </trkpt>
      <trkpt lat="42.96261" lon="-0.25462">
        <ele>1447.2</ele>
        <time>2020-09-03T09:11:16Z</time>
      </trkpt>
      <trkpt lat="42.9626" lon="-0.25459">
        <ele>1447.2</ele>
        <time>2020-09-03T09:11:17Z</time>
      </trkpt>
      <trkpt lat="42.9626" lon="-0.25455">
        <ele>1447.4</ele>
        <time>2020-09-03T09:11:18Z</time>
      </trkpt>
      <trkpt lat="42.96261" lon="-0.25452">
        <ele>1447.6</ele>
        <time>2020-09-03T09:11:19Z</time>
      </trkpt>
      <trkpt lat="42.96261" lon="-0.25448">
        <ele>1447.8</ele>
        <time>2020-09-03T09:11:20Z</time>
      </trkpt>
      <trkpt lat="42.96261" lon="-0.25445">
        <ele>1447.8</ele>
        <time>2020-09-03T09:11:21Z</time>
      </trkpt>
      <trkpt lat="42.96261" lon="-0.25442">
        <ele>1448.2</ele>
        <time>2020-09-03T09:11:22Z</time>
      </trkpt>
      <trkpt lat="42.96262" lon="-0.25439">
        <ele>1448.4</ele>
        <time>2020-09-03T09:11:23Z</time>
      </trkpt>
      <trkpt lat="42.96262" lon="-0.25436">
        <ele>1448.8</ele>
        <time>2020-09-03T09:11:24Z</time>
      </trkpt>
      <trkpt lat="42.96263" lon="-0.25433">
        <ele>1449</ele>
        <time>2020-09-03T09:11:25Z</time>
      </trkpt>
      <trkpt lat="42.96264" lon="-0.2543">
        <ele>1449.4</ele>
        <time>2020-09-03T09:11:26Z</time>
      </trkpt>
      <trkpt lat="42.96265" lon="-0.25427">
        <ele>1449.4</ele>
        <time>2020-09-03T09:11:27Z</time>
      </trkpt>
      <trkpt lat="42.96267" lon="-0.2542">
        <ele>1449.8</ele>
        <time>2020-09-03T09:11:29Z</time>
      </trkpt>
      <trkpt lat="42.96272" lon="-0.25407">
        <ele>1450.2</ele>
        <time>2020-09-03T09:11:33Z</time>
      </trkpt>
      <trkpt lat="42.96274" lon="-0.25404">
        <ele>1450.2</ele>
        <time>2020-09-03T09:11:34Z</time>
      </trkpt>
      <trkpt lat="42.96275" lon="-0.25401">
        <ele>1450.2</ele>
        <time>2020-09-03T09:11:35Z</time>
      </trkpt>
      <trkpt lat="42.96277" lon="-0.25398">
        <ele>1450.2</ele>
        <time>2020-09-03T09:11:36Z</time>
      </trkpt>
      <trkpt lat="42.96278" lon="-0.25395">
        <ele>1450.2</ele>
        <time>2020-09-03T09:11:37Z</time>
      </trkpt>
      <trkpt lat="42.9628" lon="-0.25392">
        <ele>1450.2</ele>
        <time>2020-09-03T09:11:38Z</time>
      </trkpt>
      <trkpt lat="42.96281" lon="-0.25388">
        <ele>1450.4</ele>
        <time>2020-09-03T09:11:39Z</time>
      </trkpt>
      <trkpt lat="42.96283" lon="-0.25385">
        <ele>1450.4</ele>
        <time>2020-09-03T09:11:40Z</time>
      </trkpt>
      <trkpt lat="42.96284" lon="-0.25382">
        <ele>1450.4</ele>
        <time>2020-09-03T09:11:41Z</time>
      </trkpt>
      <trkpt lat="42.96285" lon="-0.25379">
        <ele>1450.6</ele>
        <time>2020-09-03T09:11:42Z</time>
      </trkpt>
      <trkpt lat="42.96286" lon="-0.25375">
        <ele>1450.6</ele>
        <time>2020-09-03T09:11:43Z</time>
      </trkpt>
      <trkpt lat="42.96288" lon="-0.25372">
        <ele>1450.8</ele>
        <time>2020-09-03T09:11:44Z</time>
      </trkpt>
      <trkpt lat="42.96289" lon="-0.2537">
        <ele>1450.8</ele>
        <time>2020-09-03T09:11:45Z</time>
      </trkpt>
      <trkpt lat="42.9629" lon="-0.25368">
        <ele>1451</ele>
        <time>2020-09-03T09:11:46Z</time>
      </trkpt>
      <trkpt lat="42.96292" lon="-0.25366">
        <ele>1451</ele>
        <time>2020-09-03T09:11:47Z</time>
      </trkpt>
      <trkpt lat="42.96294" lon="-0.25365">
        <ele>1451.2</ele>
        <time>2020-09-03T09:11:48Z</time>
      </trkpt>
      <trkpt lat="42.96296" lon="-0.25365">
        <ele>1451.2</ele>
        <time>2020-09-03T09:11:49Z</time>
      </trkpt>
      <trkpt lat="42.96297" lon="-0.25367">
        <ele>1451.2</ele>
        <time>2020-09-03T09:11:50Z</time>
      </trkpt>
      <trkpt lat="42.96298" lon="-0.25369">
        <ele>1451.4</ele>
        <time>2020-09-03T09:11:51Z</time>
      </trkpt>
      <trkpt lat="42.96299" lon="-0.25372">
        <ele>1451.6</ele>
        <time>2020-09-03T09:11:52Z</time>
      </trkpt>
      <trkpt lat="42.963" lon="-0.25374">
        <ele>1451.8</ele>
        <time>2020-09-03T09:11:53Z</time>
      </trkpt>
      <trkpt lat="42.96299" lon="-0.25377">
        <ele>1452</ele>
        <time>2020-09-03T09:11:54Z</time>
      </trkpt>
      <trkpt lat="42.96299" lon="-0.25381">
        <ele>1452.2</ele>
        <time>2020-09-03T09:11:55Z</time>
      </trkpt>
      <trkpt lat="42.96299" lon="-0.25383">
        <ele>1452.6</ele>
        <time>2020-09-03T09:11:56Z</time>
      </trkpt>
      <trkpt lat="42.96298" lon="-0.25387">
        <ele>1453</ele>
        <time>2020-09-03T09:11:57Z</time>
      </trkpt>
      <trkpt lat="42.96298" lon="-0.2539">
        <ele>1453.2</ele>
        <time>2020-09-03T09:11:58Z</time>
      </trkpt>
      <trkpt lat="42.96297" lon="-0.25393">
        <ele>1453.6</ele>
        <time>2020-09-03T09:11:59Z</time>
      </trkpt>
      <trkpt lat="42.96296" lon="-0.25396">
        <ele>1453.6</ele>
        <time>2020-09-03T09:12:00Z</time>
      </trkpt>
      <trkpt lat="42.96295" lon="-0.25399">
        <ele>1453.8</ele>
        <time>2020-09-03T09:12:01Z</time>
      </trkpt>
      <trkpt lat="42.96294" lon="-0.25402">
        <ele>1453.8</ele>
        <time>2020-09-03T09:12:02Z</time>
      </trkpt>
      <trkpt lat="42.96293" lon="-0.25404">
        <ele>1454.2</ele>
        <time>2020-09-03T09:12:03Z</time>
      </trkpt>
      <trkpt lat="42.96292" lon="-0.25407">
        <ele>1454.2</ele>
        <time>2020-09-03T09:12:04Z</time>
      </trkpt>
      <trkpt lat="42.96292" lon="-0.2541">
        <ele>1454.6</ele>
        <time>2020-09-03T09:12:05Z</time>
      </trkpt>
      <trkpt lat="42.96291" lon="-0.25413">
        <ele>1454.8</ele>
        <time>2020-09-03T09:12:06Z</time>
      </trkpt>
      <trkpt lat="42.96291" lon="-0.25415">
        <ele>1455</ele>
        <time>2020-09-03T09:12:07Z</time>
      </trkpt>
      <trkpt lat="42.9629" lon="-0.25418">
        <ele>1455.2</ele>
        <time>2020-09-03T09:12:08Z</time>
      </trkpt>
      <trkpt lat="42.96289" lon="-0.25421">
        <ele>1455.4</ele>
        <time>2020-09-03T09:12:09Z</time>
      </trkpt>
      <trkpt lat="42.96288" lon="-0.25424">
        <ele>1455.4</ele>
        <time>2020-09-03T09:12:10Z</time>
      </trkpt>
      <trkpt lat="42.96288" lon="-0.25427">
        <ele>1455.8</ele>
        <time>2020-09-03T09:12:11Z</time>
      </trkpt>
      <trkpt lat="42.96288" lon="-0.25429">
        <ele>1456.2</ele>
        <time>2020-09-03T09:12:12Z</time>
      </trkpt>
      <trkpt lat="42.96287" lon="-0.25431">
        <ele>1456.2</ele>
        <time>2020-09-03T09:12:13Z</time>
      </trkpt>
      <trkpt lat="42.96287" lon="-0.25434">
        <ele>1456.4</ele>
        <time>2020-09-03T09:12:14Z</time>
      </trkpt>
      <trkpt lat="42.96287" lon="-0.25437">
        <ele>1456.6</ele>
        <time>2020-09-03T09:12:15Z</time>
      </trkpt>
      <trkpt lat="42.96287" lon="-0.25439">
        <ele>1457</ele>
        <time>2020-09-03T09:12:16Z</time>
      </trkpt>
      <trkpt lat="42.96287" lon="-0.25442">
        <ele>1457.2</ele>
        <time>2020-09-03T09:12:17Z</time>
      </trkpt>
      <trkpt lat="42.96288" lon="-0.25444">
        <ele>1457.2</ele>
        <time>2020-09-03T09:12:18Z</time>
      </trkpt>
      <trkpt lat="42.96288" lon="-0.25447">
        <ele>1457.4</ele>
        <time>2020-09-03T09:12:19Z</time>
      </trkpt>
      <trkpt lat="42.9629" lon="-0.25449">
        <ele>1458.2</ele>
        <time>2020-09-03T09:12:20Z</time>
      </trkpt>
      <trkpt lat="42.96292" lon="-0.2545">
        <ele>1458.4</ele>
        <time>2020-09-03T09:12:21Z</time>
      </trkpt>
      <trkpt lat="42.96294" lon="-0.2545">
        <ele>1458.8</ele>
        <time>2020-09-03T09:12:22Z</time>
      </trkpt>
      <trkpt lat="42.96295" lon="-0.25448">
        <ele>1459</ele>
        <time>2020-09-03T09:12:23Z</time>
      </trkpt>
      <trkpt lat="42.96297" lon="-0.25446">
        <ele>1459.2</ele>
        <time>2020-09-03T09:12:24Z</time>
      </trkpt>
      <trkpt lat="42.96298" lon="-0.25444">
        <ele>1459.4</ele>
        <time>2020-09-03T09:12:25Z</time>
      </trkpt>
      <trkpt lat="42.96299" lon="-0.25442">
        <ele>1459.4</ele>
        <time>2020-09-03T09:12:26Z</time>
      </trkpt>
      <trkpt lat="42.963" lon="-0.25439">
        <ele>1459.6</ele>
        <time>2020-09-03T09:12:27Z</time>
      </trkpt>
      <trkpt lat="42.96301" lon="-0.25435">
        <ele>1459.8</ele>
        <time>2020-09-03T09:12:28Z</time>
      </trkpt>
      <trkpt lat="42.96301" lon="-0.25432">
        <ele>1460</ele>
        <time>2020-09-03T09:12:29Z</time>
      </trkpt>
      <trkpt lat="42.96302" lon="-0.25429">
        <ele>1460.2</ele>
        <time>2020-09-03T09:12:30Z</time>
      </trkpt>
      <trkpt lat="42.96302" lon="-0.25426">
        <ele>1460.6</ele>
        <time>2020-09-03T09:12:31Z</time>
      </trkpt>
      <trkpt lat="42.96303" lon="-0.25423">
        <ele>1460.6</ele>
        <time>2020-09-03T09:12:32Z</time>
      </trkpt>
      <trkpt lat="42.96304" lon="-0.2542">
        <ele>1460.8</ele>
        <time>2020-09-03T09:12:33Z</time>
      </trkpt>
      <trkpt lat="42.96305" lon="-0.25417">
        <ele>1461</ele>
        <time>2020-09-03T09:12:34Z</time>
      </trkpt>
      <trkpt lat="42.96306" lon="-0.25413">
        <ele>1461</ele>
        <time>2020-09-03T09:12:35Z</time>
      </trkpt>
      <trkpt lat="42.96307" lon="-0.2541">
        <ele>1461</ele>
        <time>2020-09-03T09:12:36Z</time>
      </trkpt>
      <trkpt lat="42.96309" lon="-0.25406">
        <ele>1461</ele>
        <time>2020-09-03T09:12:37Z</time>
      </trkpt>
      <trkpt lat="42.9631" lon="-0.25403">
        <ele>1461</ele>
        <time>2020-09-03T09:12:38Z</time>
      </trkpt>
      <trkpt lat="42.96311" lon="-0.25399">
        <ele>1461</ele>
        <time>2020-09-03T09:12:39Z</time>
      </trkpt>
      <trkpt lat="42.96312" lon="-0.25396">
        <ele>1461</ele>
        <time>2020-09-03T09:12:40Z</time>
      </trkpt>
      <trkpt lat="42.96313" lon="-0.25392">
        <ele>1461</ele>
        <time>2020-09-03T09:12:41Z</time>
      </trkpt>
      <trkpt lat="42.96314" lon="-0.25389">
        <ele>1461</ele>
        <time>2020-09-03T09:12:42Z</time>
      </trkpt>
      <trkpt lat="42.96315" lon="-0.25386">
        <ele>1461</ele>
        <time>2020-09-03T09:12:43Z</time>
      </trkpt>
      <trkpt lat="42.96317" lon="-0.25383">
        <ele>1461</ele>
        <time>2020-09-03T09:12:44Z</time>
      </trkpt>
      <trkpt lat="42.96318" lon="-0.25379">
        <ele>1461</ele>
        <time>2020-09-03T09:12:45Z</time>
      </trkpt>
      <trkpt lat="42.96319" lon="-0.25376">
        <ele>1461</ele>
        <time>2020-09-03T09:12:46Z</time>
      </trkpt>
      <trkpt lat="42.9632" lon="-0.25373">
        <ele>1461</ele>
        <time>2020-09-03T09:12:47Z</time>
      </trkpt>
      <trkpt lat="42.96321" lon="-0.2537">
        <ele>1461</ele>
        <time>2020-09-03T09:12:48Z</time>
      </trkpt>
      <trkpt lat="42.96322" lon="-0.25367">
        <ele>1461.2</ele>
        <time>2020-09-03T09:12:49Z</time>
      </trkpt>
      <trkpt lat="42.96323" lon="-0.25364">
        <ele>1461.2</ele>
        <time>2020-09-03T09:12:50Z</time>
      </trkpt>
      <trkpt lat="42.96324" lon="-0.25361">
        <ele>1461.2</ele>
        <time>2020-09-03T09:12:51Z</time>
      </trkpt>
      <trkpt lat="42.96325" lon="-0.25359">
        <ele>1461.4</ele>
        <time>2020-09-03T09:12:52Z</time>
      </trkpt>
      <trkpt lat="42.96326" lon="-0.25356">
        <ele>1461.6</ele>
        <time>2020-09-03T09:12:53Z</time>
      </trkpt>
      <trkpt lat="42.96326" lon="-0.25353">
        <ele>1461.8</ele>
        <time>2020-09-03T09:12:54Z</time>
      </trkpt>
      <trkpt lat="42.96327" lon="-0.2535">
        <ele>1462</ele>
        <time>2020-09-03T09:12:55Z</time>
      </trkpt>
      <trkpt lat="42.96328" lon="-0.25347">
        <ele>1462.2</ele>
        <time>2020-09-03T09:12:56Z</time>
      </trkpt>
      <trkpt lat="42.96328" lon="-0.25344">
        <ele>1462.4</ele>
        <time>2020-09-03T09:12:57Z</time>
      </trkpt>
      <trkpt lat="42.96329" lon="-0.25342">
        <ele>1462.6</ele>
        <time>2020-09-03T09:12:58Z</time>
      </trkpt>
      <trkpt lat="42.9633" lon="-0.25339">
        <ele>1462.8</ele>
        <time>2020-09-03T09:12:59Z</time>
      </trkpt>
      <trkpt lat="42.96332" lon="-0.25337">
        <ele>1462.6</ele>
        <time>2020-09-03T09:13:00Z</time>
      </trkpt>
      <trkpt lat="42.96335" lon="-0.25331">
        <ele>1463</ele>
        <time>2020-09-03T09:13:02Z</time>
      </trkpt>
      <trkpt lat="42.96336" lon="-0.25329">
        <ele>1463.2</ele>
        <time>2020-09-03T09:13:03Z</time>
      </trkpt>
      <trkpt lat="42.96337" lon="-0.25326">
        <ele>1463.4</ele>
        <time>2020-09-03T09:13:04Z</time>
      </trkpt>
      <trkpt lat="42.96339" lon="-0.25324">
        <ele>1463.8</ele>
        <time>2020-09-03T09:13:05Z</time>
      </trkpt>
      <trkpt lat="42.9634" lon="-0.25322">
        <ele>1464</ele>
        <time>2020-09-03T09:13:06Z</time>
      </trkpt>
      <trkpt lat="42.96342" lon="-0.2532">
        <ele>1464.2</ele>
        <time>2020-09-03T09:13:07Z</time>
      </trkpt>
      <trkpt lat="42.96344" lon="-0.25319">
        <ele>1464.4</ele>
        <time>2020-09-03T09:13:08Z</time>
      </trkpt>
      <trkpt lat="42.96345" lon="-0.25317">
        <ele>1464.6</ele>
        <time>2020-09-03T09:13:09Z</time>
      </trkpt>
      <trkpt lat="42.96347" lon="-0.25316">
        <ele>1464.8</ele>
        <time>2020-09-03T09:13:10Z</time>
      </trkpt>
      <trkpt lat="42.96349" lon="-0.25314">
        <ele>1464.8</ele>
        <time>2020-09-03T09:13:11Z</time>
      </trkpt>
      <trkpt lat="42.9635" lon="-0.25312">
        <ele>1465</ele>
        <time>2020-09-03T09:13:12Z</time>
      </trkpt>
      <trkpt lat="42.96352" lon="-0.2531">
        <ele>1465.2</ele>
        <time>2020-09-03T09:13:13Z</time>
      </trkpt>
      <trkpt lat="42.96353" lon="-0.25309">
        <ele>1465.4</ele>
        <time>2020-09-03T09:13:14Z</time>
      </trkpt>
      <trkpt lat="42.96354" lon="-0.25308">
        <ele>1465.4</ele>
        <time>2020-09-03T09:13:15Z</time>
      </trkpt>
      <trkpt lat="42.96356" lon="-0.25305">
        <ele>1465.6</ele>
        <time>2020-09-03T09:13:16Z</time>
      </trkpt>
      <trkpt lat="42.96357" lon="-0.25302">
        <ele>1465.6</ele>
        <time>2020-09-03T09:13:17Z</time>
      </trkpt>
      <trkpt lat="42.96359" lon="-0.25299">
        <ele>1466</ele>
        <time>2020-09-03T09:13:18Z</time>
      </trkpt>
      <trkpt lat="42.9636" lon="-0.25296">
        <ele>1466</ele>
        <time>2020-09-03T09:13:19Z</time>
      </trkpt>
      <trkpt lat="42.96362" lon="-0.25294">
        <ele>1466.2</ele>
        <time>2020-09-03T09:13:20Z</time>
      </trkpt>
      <trkpt lat="42.96363" lon="-0.25291">
        <ele>1466.4</ele>
        <time>2020-09-03T09:13:21Z</time>
      </trkpt>
      <trkpt lat="42.96364" lon="-0.25287">
        <ele>1466.4</ele>
        <time>2020-09-03T09:13:22Z</time>
      </trkpt>
      <trkpt lat="42.96366" lon="-0.25283">
        <ele>1466.4</ele>
        <time>2020-09-03T09:13:23Z</time>
      </trkpt>
      <trkpt lat="42.96367" lon="-0.25279">
        <ele>1466.4</ele>
        <time>2020-09-03T09:13:24Z</time>
      </trkpt>
      <trkpt lat="42.96369" lon="-0.25274">
        <ele>1466.6</ele>
        <time>2020-09-03T09:13:25Z</time>
      </trkpt>
      <trkpt lat="42.96371" lon="-0.25268">
        <ele>1466.6</ele>
        <time>2020-09-03T09:13:26Z</time>
      </trkpt>
      <trkpt lat="42.96372" lon="-0.25263">
        <ele>1466.6</ele>
        <time>2020-09-03T09:13:27Z</time>
      </trkpt>
      <trkpt lat="42.96374" lon="-0.25257">
        <ele>1466.6</ele>
        <time>2020-09-03T09:13:28Z</time>
      </trkpt>
      <trkpt lat="42.96376" lon="-0.25253">
        <ele>1466.6</ele>
        <time>2020-09-03T09:13:29Z</time>
      </trkpt>
      <trkpt lat="42.96379" lon="-0.25247">
        <ele>1466.6</ele>
        <time>2020-09-03T09:13:30Z</time>
      </trkpt>
      <trkpt lat="42.96383" lon="-0.25242">
        <ele>1466.2</ele>
        <time>2020-09-03T09:13:31Z</time>
      </trkpt>
      <trkpt lat="42.96386" lon="-0.25237">
        <ele>1466</ele>
        <time>2020-09-03T09:13:32Z</time>
      </trkpt>
      <trkpt lat="42.96389" lon="-0.25233">
        <ele>1465.8</ele>
        <time>2020-09-03T09:13:33Z</time>
      </trkpt>
      <trkpt lat="42.96392" lon="-0.2523">
        <ele>1465.8</ele>
        <time>2020-09-03T09:13:34Z</time>
      </trkpt>
      <trkpt lat="42.96395" lon="-0.25228">
        <ele>1465.6</ele>
        <time>2020-09-03T09:13:35Z</time>
      </trkpt>
      <trkpt lat="42.96398" lon="-0.25229">
        <ele>1465.6</ele>
        <time>2020-09-03T09:13:36Z</time>
      </trkpt>
      <trkpt lat="42.96401" lon="-0.25229">
        <ele>1465.8</ele>
        <time>2020-09-03T09:13:37Z</time>
      </trkpt>
      <trkpt lat="42.96404" lon="-0.2523">
        <ele>1465.8</ele>
        <time>2020-09-03T09:13:38Z</time>
      </trkpt>
      <trkpt lat="42.96407" lon="-0.25232">
        <ele>1465.8</ele>
        <time>2020-09-03T09:13:39Z</time>
      </trkpt>
      <trkpt lat="42.96409" lon="-0.25233">
        <ele>1466.2</ele>
        <time>2020-09-03T09:13:40Z</time>
      </trkpt>
      <trkpt lat="42.96411" lon="-0.25235">
        <ele>1466.4</ele>
        <time>2020-09-03T09:13:41Z</time>
      </trkpt>
      <trkpt lat="42.96413" lon="-0.25237">
        <ele>1466.6</ele>
        <time>2020-09-03T09:13:42Z</time>
      </trkpt>
      <trkpt lat="42.96415" lon="-0.25241">
        <ele>1466.6</ele>
        <time>2020-09-03T09:13:43Z</time>
      </trkpt>
      <trkpt lat="42.96417" lon="-0.25244">
        <ele>1467</ele>
        <time>2020-09-03T09:13:44Z</time>
      </trkpt>
      <trkpt lat="42.96418" lon="-0.25248">
        <ele>1467.2</ele>
        <time>2020-09-03T09:13:45Z</time>
      </trkpt>
      <trkpt lat="42.96419" lon="-0.2525">
        <ele>1467.4</ele>
        <time>2020-09-03T09:13:46Z</time>
      </trkpt>
      <trkpt lat="42.96417" lon="-0.25253">
        <ele>1467.6</ele>
        <time>2020-09-03T09:13:47Z</time>
      </trkpt>
      <trkpt lat="42.96412" lon="-0.25254">
        <ele>1468</ele>
        <time>2020-09-03T09:13:48Z</time>
      </trkpt>
      <trkpt lat="42.96409" lon="-0.25255">
        <ele>1468.2</ele>
        <time>2020-09-03T09:13:49Z</time>
      </trkpt>
      <trkpt lat="42.96407" lon="-0.25255">
        <ele>1468.4</ele>
        <time>2020-09-03T09:13:50Z</time>
      </trkpt>
      <trkpt lat="42.96406" lon="-0.25255">
        <ele>1468.8</ele>
        <time>2020-09-03T09:13:51Z</time>
      </trkpt>
      <trkpt lat="42.96404" lon="-0.25256">
        <ele>1468.8</ele>
        <time>2020-09-03T09:13:52Z</time>
      </trkpt>
      <trkpt lat="42.964" lon="-0.25259">
        <ele>1469.6</ele>
        <time>2020-09-03T09:13:54Z</time>
      </trkpt>
      <trkpt lat="42.96398" lon="-0.2526">
        <ele>1470</ele>
        <time>2020-09-03T09:13:55Z</time>
      </trkpt>
      <trkpt lat="42.96397" lon="-0.25261">
        <ele>1470.2</ele>
        <time>2020-09-03T09:13:56Z</time>
      </trkpt>
      <trkpt lat="42.96396" lon="-0.25263">
        <ele>1470.8</ele>
        <time>2020-09-03T09:13:57Z</time>
      </trkpt>
      <trkpt lat="42.96395" lon="-0.25265">
        <ele>1471.2</ele>
        <time>2020-09-03T09:13:58Z</time>
      </trkpt>
      <trkpt lat="42.96394" lon="-0.25267">
        <ele>1471.8</ele>
        <time>2020-09-03T09:13:59Z</time>
      </trkpt>
      <trkpt lat="42.96394" lon="-0.25269">
        <ele>1472</ele>
        <time>2020-09-03T09:14:00Z</time>
      </trkpt>
      <trkpt lat="42.96393" lon="-0.25271">
        <ele>1472.2</ele>
        <time>2020-09-03T09:14:01Z</time>
      </trkpt>
      <trkpt lat="42.96393" lon="-0.25274">
        <ele>1472.6</ele>
        <time>2020-09-03T09:14:02Z</time>
      </trkpt>
      <trkpt lat="42.96393" lon="-0.25276">
        <ele>1472.6</ele>
        <time>2020-09-03T09:14:03Z</time>
      </trkpt>
      <trkpt lat="42.96393" lon="-0.25278">
        <ele>1473.2</ele>
        <time>2020-09-03T09:14:04Z</time>
      </trkpt>
      <trkpt lat="42.96394" lon="-0.2528">
        <ele>1473.4</ele>
        <time>2020-09-03T09:14:05Z</time>
      </trkpt>
      <trkpt lat="42.96395" lon="-0.25281">
        <ele>1473.6</ele>
        <time>2020-09-03T09:14:06Z</time>
      </trkpt>
      <trkpt lat="42.96396" lon="-0.25282">
        <ele>1473.6</ele>
        <time>2020-09-03T09:14:07Z</time>
      </trkpt>
      <trkpt lat="42.96397" lon="-0.25283">
        <ele>1474.2</ele>
        <time>2020-09-03T09:14:08Z</time>
      </trkpt>
      <trkpt lat="42.96399" lon="-0.25284">
        <ele>1474.4</ele>
        <time>2020-09-03T09:14:09Z</time>
      </trkpt>
      <trkpt lat="42.964" lon="-0.25285">
        <ele>1474.6</ele>
        <time>2020-09-03T09:14:10Z</time>
      </trkpt>
      <trkpt lat="42.96401" lon="-0.25285">
        <ele>1474.8</ele>
        <time>2020-09-03T09:14:11Z</time>
      </trkpt>
      <trkpt lat="42.96403" lon="-0.25286">
        <ele>1474.8</ele>
        <time>2020-09-03T09:14:12Z</time>
      </trkpt>
      <trkpt lat="42.96404" lon="-0.25286">
        <ele>1475</ele>
        <time>2020-09-03T09:14:13Z</time>
      </trkpt>
      <trkpt lat="42.96405" lon="-0.25286">
        <ele>1475.2</ele>
        <time>2020-09-03T09:14:14Z</time>
      </trkpt>
      <trkpt lat="42.96406" lon="-0.25287">
        <ele>1475.4</ele>
        <time>2020-09-03T09:14:15Z</time>
      </trkpt>
      <trkpt lat="42.96408" lon="-0.25288">
        <ele>1475.6</ele>
        <time>2020-09-03T09:14:16Z</time>
      </trkpt>
      <trkpt lat="42.96409" lon="-0.25289">
        <ele>1475.8</ele>
        <time>2020-09-03T09:14:17Z</time>
      </trkpt>
      <trkpt lat="42.96411" lon="-0.25289">
        <ele>1476</ele>
        <time>2020-09-03T09:14:18Z</time>
      </trkpt>
      <trkpt lat="42.96412" lon="-0.2529">
        <ele>1476.2</ele>
        <time>2020-09-03T09:14:19Z</time>
      </trkpt>
      <trkpt lat="42.96413" lon="-0.2529">
        <ele>1476.2</ele>
        <time>2020-09-03T09:14:20Z</time>
      </trkpt>
      <trkpt lat="42.96415" lon="-0.25292">
        <ele>1476.4</ele>
        <time>2020-09-03T09:14:21Z</time>
      </trkpt>
      <trkpt lat="42.96416" lon="-0.25293">
        <ele>1476.6</ele>
        <time>2020-09-03T09:14:22Z</time>
      </trkpt>
      <trkpt lat="42.96417" lon="-0.25294">
        <ele>1476.6</ele>
        <time>2020-09-03T09:14:23Z</time>
      </trkpt>
      <trkpt lat="42.96419" lon="-0.25295">
        <ele>1476.8</ele>
        <time>2020-09-03T09:14:24Z</time>
      </trkpt>
      <trkpt lat="42.96421" lon="-0.25296">
        <ele>1477.2</ele>
        <time>2020-09-03T09:14:25Z</time>
      </trkpt>
      <trkpt lat="42.96422" lon="-0.25296">
        <ele>1477.2</ele>
        <time>2020-09-03T09:14:26Z</time>
      </trkpt>
      <trkpt lat="42.96424" lon="-0.25297">
        <ele>1477.6</ele>
        <time>2020-09-03T09:14:27Z</time>
      </trkpt>
      <trkpt lat="42.96425" lon="-0.25296">
        <ele>1477.6</ele>
        <time>2020-09-03T09:14:28Z</time>
      </trkpt>
      <trkpt lat="42.96427" lon="-0.25296">
        <ele>1477.8</ele>
        <time>2020-09-03T09:14:29Z</time>
      </trkpt>
      <trkpt lat="42.96428" lon="-0.25296">
        <ele>1478</ele>
        <time>2020-09-03T09:14:30Z</time>
      </trkpt>
      <trkpt lat="42.96429" lon="-0.25296">
        <ele>1478.2</ele>
        <time>2020-09-03T09:14:31Z</time>
      </trkpt>
      <trkpt lat="42.96431" lon="-0.25295">
        <ele>1478.4</ele>
        <time>2020-09-03T09:14:32Z</time>
      </trkpt>
      <trkpt lat="42.96432" lon="-0.25295">
        <ele>1478.6</ele>
        <time>2020-09-03T09:14:33Z</time>
      </trkpt>
      <trkpt lat="42.96434" lon="-0.25295">
        <ele>1478.8</ele>
        <time>2020-09-03T09:14:34Z</time>
      </trkpt>
      <trkpt lat="42.96435" lon="-0.25295">
        <ele>1479</ele>
        <time>2020-09-03T09:14:35Z</time>
      </trkpt>
      <trkpt lat="42.96437" lon="-0.25296">
        <ele>1479.2</ele>
        <time>2020-09-03T09:14:36Z</time>
      </trkpt>
      <trkpt lat="42.96439" lon="-0.25296">
        <ele>1479.2</ele>
        <time>2020-09-03T09:14:37Z</time>
      </trkpt>
      <trkpt lat="42.96441" lon="-0.25296">
        <ele>1479.6</ele>
        <time>2020-09-03T09:14:38Z</time>
      </trkpt>
      <trkpt lat="42.96443" lon="-0.25296">
        <ele>1479.6</ele>
        <time>2020-09-03T09:14:39Z</time>
      </trkpt>
      <trkpt lat="42.96445" lon="-0.25295">
        <ele>1479.8</ele>
        <time>2020-09-03T09:14:40Z</time>
      </trkpt>
      <trkpt lat="42.96447" lon="-0.25296">
        <ele>1479.8</ele>
        <time>2020-09-03T09:14:41Z</time>
      </trkpt>
      <trkpt lat="42.9645" lon="-0.25295">
        <ele>1480</ele>
        <time>2020-09-03T09:14:42Z</time>
      </trkpt>
      <trkpt lat="42.96451" lon="-0.25295">
        <ele>1480.2</ele>
        <time>2020-09-03T09:14:43Z</time>
      </trkpt>
      <trkpt lat="42.96452" lon="-0.25294">
        <ele>1480.4</ele>
        <time>2020-09-03T09:14:44Z</time>
      </trkpt>
      <trkpt lat="42.96454" lon="-0.25293">
        <ele>1480.4</ele>
        <time>2020-09-03T09:14:45Z</time>
      </trkpt>
      <trkpt lat="42.96457" lon="-0.2529">
        <ele>1480.6</ele>
        <time>2020-09-03T09:14:46Z</time>
      </trkpt>
      <trkpt lat="42.9646" lon="-0.25288">
        <ele>1480.6</ele>
        <time>2020-09-03T09:14:47Z</time>
      </trkpt>
      <trkpt lat="42.96461" lon="-0.25286">
        <ele>1480.8</ele>
        <time>2020-09-03T09:14:48Z</time>
      </trkpt>
      <trkpt lat="42.96464" lon="-0.25284">
        <ele>1481</ele>
        <time>2020-09-03T09:14:49Z</time>
      </trkpt>
      <trkpt lat="42.96466" lon="-0.25282">
        <ele>1481</ele>
        <time>2020-09-03T09:14:50Z</time>
      </trkpt>
      <trkpt lat="42.96468" lon="-0.25281">
        <ele>1481.2</ele>
        <time>2020-09-03T09:14:51Z</time>
      </trkpt>
      <trkpt lat="42.96471" lon="-0.25282">
        <ele>1481.2</ele>
        <time>2020-09-03T09:14:52Z</time>
      </trkpt>
      <trkpt lat="42.96473" lon="-0.25281">
        <ele>1481.2</ele>
        <time>2020-09-03T09:14:53Z</time>
      </trkpt>
      <trkpt lat="42.96476" lon="-0.25283">
        <ele>1481.2</ele>
        <time>2020-09-03T09:14:54Z</time>
      </trkpt>
      <trkpt lat="42.9648" lon="-0.25286">
        <ele>1481.4</ele>
        <time>2020-09-03T09:14:55Z</time>
      </trkpt>
      <trkpt lat="42.96483" lon="-0.2529">
        <ele>1481.4</ele>
        <time>2020-09-03T09:14:56Z</time>
      </trkpt>
      <trkpt lat="42.96486" lon="-0.2529">
        <ele>1481.4</ele>
        <time>2020-09-03T09:14:57Z</time>
      </trkpt>
      <trkpt lat="42.96489" lon="-0.25289">
        <ele>1481.4</ele>
        <time>2020-09-03T09:14:58Z</time>
      </trkpt>
      <trkpt lat="42.96491" lon="-0.25288">
        <ele>1481.6</ele>
        <time>2020-09-03T09:14:59Z</time>
      </trkpt>
      <trkpt lat="42.96493" lon="-0.25288">
        <ele>1481.6</ele>
        <time>2020-09-03T09:15:00Z</time>
      </trkpt>
      <trkpt lat="42.96496" lon="-0.25286">
        <ele>1481.8</ele>
        <time>2020-09-03T09:15:01Z</time>
      </trkpt>
      <trkpt lat="42.96499" lon="-0.25286">
        <ele>1481.8</ele>
        <time>2020-09-03T09:15:02Z</time>
      </trkpt>
      <trkpt lat="42.96501" lon="-0.2529">
        <ele>1482</ele>
        <time>2020-09-03T09:15:03Z</time>
      </trkpt>
      <trkpt lat="42.96505" lon="-0.25291">
        <ele>1482.2</ele>
        <time>2020-09-03T09:15:04Z</time>
      </trkpt>
      <trkpt lat="42.96509" lon="-0.25291">
        <ele>1482.2</ele>
        <time>2020-09-03T09:15:05Z</time>
      </trkpt>
      <trkpt lat="42.96511" lon="-0.25291">
        <ele>1482.4</ele>
        <time>2020-09-03T09:15:06Z</time>
      </trkpt>
      <trkpt lat="42.96514" lon="-0.2529">
        <ele>1482.6</ele>
        <time>2020-09-03T09:15:07Z</time>
      </trkpt>
      <trkpt lat="42.96516" lon="-0.25289">
        <ele>1482.8</ele>
        <time>2020-09-03T09:15:08Z</time>
      </trkpt>
      <trkpt lat="42.96518" lon="-0.25288">
        <ele>1483</ele>
        <time>2020-09-03T09:15:09Z</time>
      </trkpt>
      <trkpt lat="42.96522" lon="-0.25288">
        <ele>1483</ele>
        <time>2020-09-03T09:15:10Z</time>
      </trkpt>
      <trkpt lat="42.96524" lon="-0.25287">
        <ele>1483.2</ele>
        <time>2020-09-03T09:15:11Z</time>
      </trkpt>
      <trkpt lat="42.96526" lon="-0.25285">
        <ele>1483.2</ele>
        <time>2020-09-03T09:15:12Z</time>
      </trkpt>
      <trkpt lat="42.96526" lon="-0.25284">
        <ele>1483.2</ele>
        <time>2020-09-03T09:15:13Z</time>
      </trkpt>
      <trkpt lat="42.96528" lon="-0.25284">
        <ele>1483.2</ele>
        <time>2020-09-03T09:15:14Z</time>
      </trkpt>
      <trkpt lat="42.9653" lon="-0.25283">
        <ele>1483.2</ele>
        <time>2020-09-03T09:15:15Z</time>
      </trkpt>
      <trkpt lat="42.96532" lon="-0.25281">
        <ele>1483.2</ele>
        <time>2020-09-03T09:15:16Z</time>
      </trkpt>
      <trkpt lat="42.96534" lon="-0.2528">
        <ele>1483.2</ele>
        <time>2020-09-03T09:15:17Z</time>
      </trkpt>
      <trkpt lat="42.96536" lon="-0.25278">
        <ele>1483.4</ele>
        <time>2020-09-03T09:15:18Z</time>
      </trkpt>
      <trkpt lat="42.96539" lon="-0.25275">
        <ele>1483.4</ele>
        <time>2020-09-03T09:15:19Z</time>
      </trkpt>
      <trkpt lat="42.96543" lon="-0.25273">
        <ele>1483.4</ele>
        <time>2020-09-03T09:15:20Z</time>
      </trkpt>
      <trkpt lat="42.96546" lon="-0.2527">
        <ele>1483.4</ele>
        <time>2020-09-03T09:15:21Z</time>
      </trkpt>
      <trkpt lat="42.9655" lon="-0.25267">
        <ele>1483.2</ele>
        <time>2020-09-03T09:15:22Z</time>
      </trkpt>
      <trkpt lat="42.96558" lon="-0.25263">
        <ele>1483.2</ele>
        <time>2020-09-03T09:15:24Z</time>
      </trkpt>
      <trkpt lat="42.96563" lon="-0.25261">
        <ele>1483.2</ele>
        <time>2020-09-03T09:15:25Z</time>
      </trkpt>
      <trkpt lat="42.96571" lon="-0.25257">
        <ele>1483</ele>
        <time>2020-09-03T09:15:28Z</time>
      </trkpt>
      <trkpt lat="42.96574" lon="-0.25255">
        <ele>1483</ele>
        <time>2020-09-03T09:15:29Z</time>
      </trkpt>
      <trkpt lat="42.96576" lon="-0.25254">
        <ele>1482.8</ele>
        <time>2020-09-03T09:15:30Z</time>
      </trkpt>
      <trkpt lat="42.96579" lon="-0.25252">
        <ele>1482.8</ele>
        <time>2020-09-03T09:15:31Z</time>
      </trkpt>
      <trkpt lat="42.96581" lon="-0.2525">
        <ele>1482.8</ele>
        <time>2020-09-03T09:15:32Z</time>
      </trkpt>
      <trkpt lat="42.96583" lon="-0.25247">
        <ele>1483</ele>
        <time>2020-09-03T09:15:33Z</time>
      </trkpt>
      <trkpt lat="42.96584" lon="-0.25245">
        <ele>1483.2</ele>
        <time>2020-09-03T09:15:34Z</time>
      </trkpt>
      <trkpt lat="42.96587" lon="-0.25239">
        <ele>1483.4</ele>
        <time>2020-09-03T09:15:36Z</time>
      </trkpt>
      <trkpt lat="42.96588" lon="-0.25236">
        <ele>1483.6</ele>
        <time>2020-09-03T09:15:37Z</time>
      </trkpt>
      <trkpt lat="42.96589" lon="-0.25232">
        <ele>1483.6</ele>
        <time>2020-09-03T09:15:38Z</time>
      </trkpt>
      <trkpt lat="42.96589" lon="-0.25228">
        <ele>1483.6</ele>
        <time>2020-09-03T09:15:39Z</time>
      </trkpt>
      <trkpt lat="42.9659" lon="-0.25225">
        <ele>1483.6</ele>
        <time>2020-09-03T09:15:40Z</time>
      </trkpt>
      <trkpt lat="42.96592" lon="-0.2521">
        <ele>1484</ele>
        <time>2020-09-03T09:15:44Z</time>
      </trkpt>
      <trkpt lat="42.96592" lon="-0.25207">
        <ele>1484</ele>
        <time>2020-09-03T09:15:45Z</time>
      </trkpt>
      <trkpt lat="42.96595" lon="-0.25183">
        <ele>1485</ele>
        <time>2020-09-03T09:15:52Z</time>
      </trkpt>
      <trkpt lat="42.96601" lon="-0.25154">
        <ele>1486</ele>
        <time>2020-09-03T09:16:00Z</time>
      </trkpt>
      <trkpt lat="42.96602" lon="-0.25149">
        <ele>1486</ele>
        <time>2020-09-03T09:16:01Z</time>
      </trkpt>
      <trkpt lat="42.96602" lon="-0.25145">
        <ele>1486</ele>
        <time>2020-09-03T09:16:02Z</time>
      </trkpt>
      <trkpt lat="42.96602" lon="-0.25141">
        <ele>1486</ele>
        <time>2020-09-03T09:16:03Z</time>
      </trkpt>
      <trkpt lat="42.96602" lon="-0.25131">
        <ele>1486</ele>
        <time>2020-09-03T09:16:04Z</time>
      </trkpt>
      <trkpt lat="42.96602" lon="-0.25131">
        <ele>1486</ele>
        <time>2020-09-03T09:16:05Z</time>
      </trkpt>
      <trkpt lat="42.96602" lon="-0.25126">
        <ele>1485.8</ele>
        <time>2020-09-03T09:16:06Z</time>
      </trkpt>
      <trkpt lat="42.966" lon="-0.25115">
        <ele>1485.8</ele>
        <time>2020-09-03T09:16:07Z</time>
      </trkpt>
      <trkpt lat="42.96598" lon="-0.25107">
        <ele>1485.6</ele>
        <time>2020-09-03T09:16:09Z</time>
      </trkpt>
      <trkpt lat="42.96598" lon="-0.25103">
        <ele>1485.6</ele>
        <time>2020-09-03T09:16:10Z</time>
      </trkpt>
      <trkpt lat="42.96598" lon="-0.25103">
        <ele>1485.6</ele>
        <time>2020-09-03T09:16:11Z</time>
      </trkpt>
      <trkpt lat="42.96598" lon="-0.251">
        <ele>1485.6</ele>
        <time>2020-09-03T09:16:12Z</time>
      </trkpt>
      <trkpt lat="42.96597" lon="-0.2509">
        <ele>1485.6</ele>
        <time>2020-09-03T09:16:13Z</time>
      </trkpt>
      <trkpt lat="42.96598" lon="-0.25085">
        <ele>1485.4</ele>
        <time>2020-09-03T09:16:14Z</time>
      </trkpt>
      <trkpt lat="42.96601" lon="-0.25071">
        <ele>1485.4</ele>
        <time>2020-09-03T09:16:16Z</time>
      </trkpt>
      <trkpt lat="42.96603" lon="-0.25063">
        <ele>1485.2</ele>
        <time>2020-09-03T09:16:18Z</time>
      </trkpt>
      <trkpt lat="42.96607" lon="-0.25047">
        <ele>1485</ele>
        <time>2020-09-03T09:16:19Z</time>
      </trkpt>
      <trkpt lat="42.96608" lon="-0.25039">
        <ele>1484.8</ele>
        <time>2020-09-03T09:16:21Z</time>
      </trkpt>
      <trkpt lat="42.96612" lon="-0.25027">
        <ele>1484.6</ele>
        <time>2020-09-03T09:16:22Z</time>
      </trkpt>
      <trkpt lat="42.96614" lon="-0.25022">
        <ele>1484.4</ele>
        <time>2020-09-03T09:16:23Z</time>
      </trkpt>
      <trkpt lat="42.96615" lon="-0.25018">
        <ele>1484.2</ele>
        <time>2020-09-03T09:16:24Z</time>
      </trkpt>
      <trkpt lat="42.96618" lon="-0.25014">
        <ele>1484</ele>
        <time>2020-09-03T09:16:25Z</time>
      </trkpt>
      <trkpt lat="42.9662" lon="-0.25011">
        <ele>1483.8</ele>
        <time>2020-09-03T09:16:26Z</time>
      </trkpt>
      <trkpt lat="42.96622" lon="-0.25007">
        <ele>1483.8</ele>
        <time>2020-09-03T09:16:27Z</time>
      </trkpt>
      <trkpt lat="42.96624" lon="-0.25004">
        <ele>1483.8</ele>
        <time>2020-09-03T09:16:28Z</time>
      </trkpt>
      <trkpt lat="42.96629" lon="-0.24999">
        <ele>1483.8</ele>
        <time>2020-09-03T09:16:30Z</time>
      </trkpt>
      <trkpt lat="42.96632" lon="-0.24996">
        <ele>1483.8</ele>
        <time>2020-09-03T09:16:31Z</time>
      </trkpt>
      <trkpt lat="42.96634" lon="-0.24994">
        <ele>1483.8</ele>
        <time>2020-09-03T09:16:32Z</time>
      </trkpt>
      <trkpt lat="42.96646" lon="-0.24984">
        <ele>1483.8</ele>
        <time>2020-09-03T09:16:36Z</time>
      </trkpt>
      <trkpt lat="42.96676" lon="-0.24961">
        <ele>1484.6</ele>
        <time>2020-09-03T09:16:46Z</time>
      </trkpt>
      <trkpt lat="42.96705" lon="-0.24948">
        <ele>1485.2</ele>
        <time>2020-09-03T09:16:54Z</time>
      </trkpt>
      <trkpt lat="42.96729" lon="-0.24934">
        <ele>1485.6</ele>
        <time>2020-09-03T09:17:02Z</time>
      </trkpt>
      <trkpt lat="42.96738" lon="-0.24917">
        <ele>1485.8</ele>
        <time>2020-09-03T09:17:06Z</time>
      </trkpt>
      <trkpt lat="42.96739" lon="-0.24913">
        <ele>1485.8</ele>
        <time>2020-09-03T09:17:07Z</time>
      </trkpt>
      <trkpt lat="42.96739" lon="-0.24908">
        <ele>1486</ele>
        <time>2020-09-03T09:17:08Z</time>
      </trkpt>
      <trkpt lat="42.9674" lon="-0.24904">
        <ele>1486.2</ele>
        <time>2020-09-03T09:17:09Z</time>
      </trkpt>
      <trkpt lat="42.96747" lon="-0.2488">
        <ele>1486.4</ele>
        <time>2020-09-03T09:17:14Z</time>
      </trkpt>
      <trkpt lat="42.9675" lon="-0.24865">
        <ele>1486.4</ele>
        <time>2020-09-03T09:17:17Z</time>
      </trkpt>
      <trkpt lat="42.96753" lon="-0.2485">
        <ele>1486.6</ele>
        <time>2020-09-03T09:17:20Z</time>
      </trkpt>
      <trkpt lat="42.96756" lon="-0.24842">
        <ele>1486.4</ele>
        <time>2020-09-03T09:17:22Z</time>
      </trkpt>
      <trkpt lat="42.96757" lon="-0.24838">
        <ele>1486.2</ele>
        <time>2020-09-03T09:17:23Z</time>
      </trkpt>
      <trkpt lat="42.96758" lon="-0.24835">
        <ele>1486.2</ele>
        <time>2020-09-03T09:17:24Z</time>
      </trkpt>
      <trkpt lat="42.96759" lon="-0.24834">
        <ele>1486.2</ele>
        <time>2020-09-03T09:17:25Z</time>
      </trkpt>
      <trkpt lat="42.96759" lon="-0.24834">
        <ele>1486.2</ele>
        <time>2020-09-03T09:17:26Z</time>
      </trkpt>
      <trkpt lat="42.96759" lon="-0.24834">
        <ele>1486</ele>
        <time>2020-09-03T09:17:28Z</time>
      </trkpt>
      <trkpt lat="42.96759" lon="-0.24834">
        <ele>1485.4</ele>
        <time>2020-09-03T09:17:33Z</time>
      </trkpt>
      <trkpt lat="42.96759" lon="-0.24834">
        <ele>1484.8</ele>
        <time>2020-09-03T09:17:39Z</time>
      </trkpt>
      <trkpt lat="42.96759" lon="-0.24834">
        <ele>1484.4</ele>
        <time>2020-09-03T09:18:02Z</time>
      </trkpt>
      <trkpt lat="42.96765" lon="-0.24828">
        <ele>1484.4</ele>
        <time>2020-09-03T09:18:05Z</time>
      </trkpt>
      <trkpt lat="42.96767" lon="-0.24824">
        <ele>1484.4</ele>
        <time>2020-09-03T09:18:06Z</time>
      </trkpt>
      <trkpt lat="42.9677" lon="-0.24821">
        <ele>1484.4</ele>
        <time>2020-09-03T09:18:07Z</time>
      </trkpt>
      <trkpt lat="42.96779" lon="-0.24813">
        <ele>1484.6</ele>
        <time>2020-09-03T09:18:10Z</time>
      </trkpt>
      <trkpt lat="42.96782" lon="-0.24811">
        <ele>1484.8</ele>
        <time>2020-09-03T09:18:11Z</time>
      </trkpt>
      <trkpt lat="42.96792" lon="-0.24812">
        <ele>1485.4</ele>
        <time>2020-09-03T09:18:14Z</time>
      </trkpt>
      <trkpt lat="42.96795" lon="-0.24814">
        <ele>1485.6</ele>
        <time>2020-09-03T09:18:15Z</time>
      </trkpt>
      <trkpt lat="42.96798" lon="-0.24816">
        <ele>1486</ele>
        <time>2020-09-03T09:18:16Z</time>
      </trkpt>
      <trkpt lat="42.96801" lon="-0.24818">
        <ele>1486</ele>
        <time>2020-09-03T09:18:17Z</time>
      </trkpt>
      <trkpt lat="42.96804" lon="-0.2482">
        <ele>1486.6</ele>
        <time>2020-09-03T09:18:18Z</time>
      </trkpt>
      <trkpt lat="42.9681" lon="-0.24824">
        <ele>1487.2</ele>
        <time>2020-09-03T09:18:20Z</time>
      </trkpt>
      <trkpt lat="42.96821" lon="-0.24832">
        <ele>1488</ele>
        <time>2020-09-03T09:18:23Z</time>
      </trkpt>
      <trkpt lat="42.96829" lon="-0.24836">
        <ele>1488.4</ele>
        <time>2020-09-03T09:18:25Z</time>
      </trkpt>
      <trkpt lat="42.96832" lon="-0.24837">
        <ele>1488.4</ele>
        <time>2020-09-03T09:18:26Z</time>
      </trkpt>
      <trkpt lat="42.96835" lon="-0.24839">
        <ele>1488.8</ele>
        <time>2020-09-03T09:18:27Z</time>
      </trkpt>
      <trkpt lat="42.96839" lon="-0.24841">
        <ele>1488.8</ele>
        <time>2020-09-03T09:18:28Z</time>
      </trkpt>
      <trkpt lat="42.96843" lon="-0.24842">
        <ele>1489</ele>
        <time>2020-09-03T09:18:29Z</time>
      </trkpt>
      <trkpt lat="42.96847" lon="-0.24843">
        <ele>1489</ele>
        <time>2020-09-03T09:18:30Z</time>
      </trkpt>
      <trkpt lat="42.9685" lon="-0.24844">
        <ele>1489.2</ele>
        <time>2020-09-03T09:18:31Z</time>
      </trkpt>
      <trkpt lat="42.96853" lon="-0.24844">
        <ele>1489.2</ele>
        <time>2020-09-03T09:18:32Z</time>
      </trkpt>
      <trkpt lat="42.96856" lon="-0.24844">
        <ele>1489.6</ele>
        <time>2020-09-03T09:18:33Z</time>
      </trkpt>
      <trkpt lat="42.96859" lon="-0.24846">
        <ele>1489.6</ele>
        <time>2020-09-03T09:18:34Z</time>
      </trkpt>
      <trkpt lat="42.96862" lon="-0.24847">
        <ele>1490</ele>
        <time>2020-09-03T09:18:35Z</time>
      </trkpt>
      <trkpt lat="42.96865" lon="-0.24849">
        <ele>1490</ele>
        <time>2020-09-03T09:18:36Z</time>
      </trkpt>
      <trkpt lat="42.96868" lon="-0.24851">
        <ele>1490.4</ele>
        <time>2020-09-03T09:18:37Z</time>
      </trkpt>
      <trkpt lat="42.96871" lon="-0.24853">
        <ele>1490.6</ele>
        <time>2020-09-03T09:18:38Z</time>
      </trkpt>
      <trkpt lat="42.96874" lon="-0.24856">
        <ele>1490.8</ele>
        <time>2020-09-03T09:18:39Z</time>
      </trkpt>
      <trkpt lat="42.96876" lon="-0.24859">
        <ele>1491.2</ele>
        <time>2020-09-03T09:18:40Z</time>
      </trkpt>
      <trkpt lat="42.96879" lon="-0.24862">
        <ele>1491.4</ele>
        <time>2020-09-03T09:18:41Z</time>
      </trkpt>
      <trkpt lat="42.96882" lon="-0.24865">
        <ele>1491.6</ele>
        <time>2020-09-03T09:18:42Z</time>
      </trkpt>
      <trkpt lat="42.96885" lon="-0.24867">
        <ele>1491.8</ele>
        <time>2020-09-03T09:18:43Z</time>
      </trkpt>
      <trkpt lat="42.96887" lon="-0.2487">
        <ele>1492.2</ele>
        <time>2020-09-03T09:18:44Z</time>
      </trkpt>
      <trkpt lat="42.9689" lon="-0.24873">
        <ele>1492.4</ele>
        <time>2020-09-03T09:18:45Z</time>
      </trkpt>
      <trkpt lat="42.96893" lon="-0.24876">
        <ele>1492.6</ele>
        <time>2020-09-03T09:18:46Z</time>
      </trkpt>
      <trkpt lat="42.96896" lon="-0.24879">
        <ele>1492.6</ele>
        <time>2020-09-03T09:18:47Z</time>
      </trkpt>
      <trkpt lat="42.96899" lon="-0.24882">
        <ele>1492.6</ele>
        <time>2020-09-03T09:18:48Z</time>
      </trkpt>
      <trkpt lat="42.96903" lon="-0.24884">
        <ele>1492.8</ele>
        <time>2020-09-03T09:18:49Z</time>
      </trkpt>
      <trkpt lat="42.96907" lon="-0.24885">
        <ele>1492.8</ele>
        <time>2020-09-03T09:18:50Z</time>
      </trkpt>
      <trkpt lat="42.9691" lon="-0.24885">
        <ele>1493</ele>
        <time>2020-09-03T09:18:51Z</time>
      </trkpt>
      <trkpt lat="42.96913" lon="-0.24885">
        <ele>1492.8</ele>
        <time>2020-09-03T09:18:52Z</time>
      </trkpt>
      <trkpt lat="42.96916" lon="-0.24884">
        <ele>1493</ele>
        <time>2020-09-03T09:18:53Z</time>
      </trkpt>
      <trkpt lat="42.96919" lon="-0.24883">
        <ele>1493.2</ele>
        <time>2020-09-03T09:18:54Z</time>
      </trkpt>
      <trkpt lat="42.96922" lon="-0.24881">
        <ele>1493.2</ele>
        <time>2020-09-03T09:18:55Z</time>
      </trkpt>
      <trkpt lat="42.96924" lon="-0.24879">
        <ele>1493.4</ele>
        <time>2020-09-03T09:18:56Z</time>
      </trkpt>
      <trkpt lat="42.96927" lon="-0.24878">
        <ele>1493.4</ele>
        <time>2020-09-03T09:18:57Z</time>
      </trkpt>
      <trkpt lat="42.96929" lon="-0.24876">
        <ele>1493.4</ele>
        <time>2020-09-03T09:18:58Z</time>
      </trkpt>
      <trkpt lat="42.96932" lon="-0.24874">
        <ele>1493.6</ele>
        <time>2020-09-03T09:18:59Z</time>
      </trkpt>
      <trkpt lat="42.96933" lon="-0.24873">
        <ele>1493.8</ele>
        <time>2020-09-03T09:19:00Z</time>
      </trkpt>
      <trkpt lat="42.96936" lon="-0.24871">
        <ele>1494.2</ele>
        <time>2020-09-03T09:19:01Z</time>
      </trkpt>
      <trkpt lat="42.96938" lon="-0.24869">
        <ele>1494.2</ele>
        <time>2020-09-03T09:19:02Z</time>
      </trkpt>
      <trkpt lat="42.9694" lon="-0.24867">
        <ele>1494.4</ele>
        <time>2020-09-03T09:19:03Z</time>
      </trkpt>
      <trkpt lat="42.96942" lon="-0.24865">
        <ele>1494.4</ele>
        <time>2020-09-03T09:19:04Z</time>
      </trkpt>
      <trkpt lat="42.96945" lon="-0.24863">
        <ele>1494.8</ele>
        <time>2020-09-03T09:19:05Z</time>
      </trkpt>
      <trkpt lat="42.96947" lon="-0.24862">
        <ele>1495.2</ele>
        <time>2020-09-03T09:19:06Z</time>
      </trkpt>
      <trkpt lat="42.96951" lon="-0.24859">
        <ele>1495.2</ele>
        <time>2020-09-03T09:19:07Z</time>
      </trkpt>
      <trkpt lat="42.96953" lon="-0.24857">
        <ele>1495.4</ele>
        <time>2020-09-03T09:19:08Z</time>
      </trkpt>
      <trkpt lat="42.96956" lon="-0.24854">
        <ele>1495.4</ele>
        <time>2020-09-03T09:19:09Z</time>
      </trkpt>
      <trkpt lat="42.9696" lon="-0.24851">
        <ele>1495.4</ele>
        <time>2020-09-03T09:19:10Z</time>
      </trkpt>
      <trkpt lat="42.96962" lon="-0.24849">
        <ele>1495.4</ele>
        <time>2020-09-03T09:19:11Z</time>
      </trkpt>
      <trkpt lat="42.96966" lon="-0.24846">
        <ele>1495.4</ele>
        <time>2020-09-03T09:19:12Z</time>
      </trkpt>
      <trkpt lat="42.96969" lon="-0.24843">
        <ele>1495.4</ele>
        <time>2020-09-03T09:19:13Z</time>
      </trkpt>
      <trkpt lat="42.96972" lon="-0.24839">
        <ele>1495.4</ele>
        <time>2020-09-03T09:19:14Z</time>
      </trkpt>
      <trkpt lat="42.96974" lon="-0.24835">
        <ele>1495.6</ele>
        <time>2020-09-03T09:19:15Z</time>
      </trkpt>
      <trkpt lat="42.96977" lon="-0.2483">
        <ele>1495.8</ele>
        <time>2020-09-03T09:19:16Z</time>
      </trkpt>
      <trkpt lat="42.96979" lon="-0.24826">
        <ele>1495.8</ele>
        <time>2020-09-03T09:19:17Z</time>
      </trkpt>
      <trkpt lat="42.9698" lon="-0.24822">
        <ele>1496</ele>
        <time>2020-09-03T09:19:18Z</time>
      </trkpt>
      <trkpt lat="42.96982" lon="-0.24817">
        <ele>1496</ele>
        <time>2020-09-03T09:19:19Z</time>
      </trkpt>
      <trkpt lat="42.96984" lon="-0.24812">
        <ele>1496</ele>
        <time>2020-09-03T09:19:20Z</time>
      </trkpt>
      <trkpt lat="42.96985" lon="-0.24808">
        <ele>1496.2</ele>
        <time>2020-09-03T09:19:21Z</time>
      </trkpt>
      <trkpt lat="42.96987" lon="-0.24803">
        <ele>1496.2</ele>
        <time>2020-09-03T09:19:22Z</time>
      </trkpt>
      <trkpt lat="42.96988" lon="-0.24798">
        <ele>1496.4</ele>
        <time>2020-09-03T09:19:23Z</time>
      </trkpt>
      <trkpt lat="42.9699" lon="-0.24793">
        <ele>1496.4</ele>
        <time>2020-09-03T09:19:24Z</time>
      </trkpt>
      <trkpt lat="42.96991" lon="-0.24788">
        <ele>1496.4</ele>
        <time>2020-09-03T09:19:25Z</time>
      </trkpt>
      <trkpt lat="42.96992" lon="-0.24784">
        <ele>1496.4</ele>
        <time>2020-09-03T09:19:26Z</time>
      </trkpt>
      <trkpt lat="42.96993" lon="-0.24778">
        <ele>1496.6</ele>
        <time>2020-09-03T09:19:27Z</time>
      </trkpt>
      <trkpt lat="42.96994" lon="-0.24774">
        <ele>1496.6</ele>
        <time>2020-09-03T09:19:28Z</time>
      </trkpt>
      <trkpt lat="42.96995" lon="-0.2477">
        <ele>1496.6</ele>
        <time>2020-09-03T09:19:29Z</time>
      </trkpt>
      <trkpt lat="42.96997" lon="-0.24761">
        <ele>1496.6</ele>
        <time>2020-09-03T09:19:31Z</time>
      </trkpt>
      <trkpt lat="42.96999" lon="-0.24758">
        <ele>1496.8</ele>
        <time>2020-09-03T09:19:32Z</time>
      </trkpt>
      <trkpt lat="42.97001" lon="-0.24756">
        <ele>1497</ele>
        <time>2020-09-03T09:19:33Z</time>
      </trkpt>
      <trkpt lat="42.97002" lon="-0.24754">
        <ele>1497.2</ele>
        <time>2020-09-03T09:19:34Z</time>
      </trkpt>
      <trkpt lat="42.97004" lon="-0.24752">
        <ele>1497.4</ele>
        <time>2020-09-03T09:19:35Z</time>
      </trkpt>
      <trkpt lat="42.97006" lon="-0.2475">
        <ele>1497.6</ele>
        <time>2020-09-03T09:19:36Z</time>
      </trkpt>
      <trkpt lat="42.97007" lon="-0.24748">
        <ele>1497.6</ele>
        <time>2020-09-03T09:19:37Z</time>
      </trkpt>
      <trkpt lat="42.9701" lon="-0.24745">
        <ele>1498.2</ele>
        <time>2020-09-03T09:19:39Z</time>
      </trkpt>
      <trkpt lat="42.97012" lon="-0.24743">
        <ele>1498.6</ele>
        <time>2020-09-03T09:19:40Z</time>
      </trkpt>
      <trkpt lat="42.97014" lon="-0.24742">
        <ele>1498.6</ele>
        <time>2020-09-03T09:19:41Z</time>
      </trkpt>
      <trkpt lat="42.97016" lon="-0.24741">
        <ele>1498.8</ele>
        <time>2020-09-03T09:19:42Z</time>
      </trkpt>
      <trkpt lat="42.97018" lon="-0.24739">
        <ele>1499</ele>
        <time>2020-09-03T09:19:43Z</time>
      </trkpt>
      <trkpt lat="42.9702" lon="-0.24738">
        <ele>1499.2</ele>
        <time>2020-09-03T09:19:44Z</time>
      </trkpt>
      <trkpt lat="42.97022" lon="-0.24737">
        <ele>1499.2</ele>
        <time>2020-09-03T09:19:45Z</time>
      </trkpt>
      <trkpt lat="42.97024" lon="-0.24736">
        <ele>1499.6</ele>
        <time>2020-09-03T09:19:46Z</time>
      </trkpt>
      <trkpt lat="42.97025" lon="-0.24735">
        <ele>1500</ele>
        <time>2020-09-03T09:19:47Z</time>
      </trkpt>
      <trkpt lat="42.97027" lon="-0.24733">
        <ele>1500.2</ele>
        <time>2020-09-03T09:19:48Z</time>
      </trkpt>
      <trkpt lat="42.9703" lon="-0.24732">
        <ele>1500.4</ele>
        <time>2020-09-03T09:19:49Z</time>
      </trkpt>
      <trkpt lat="42.97031" lon="-0.24731">
        <ele>1500.4</ele>
        <time>2020-09-03T09:19:50Z</time>
      </trkpt>
      <trkpt lat="42.97033" lon="-0.2473">
        <ele>1500.6</ele>
        <time>2020-09-03T09:19:51Z</time>
      </trkpt>
      <trkpt lat="42.97035" lon="-0.24729">
        <ele>1500.6</ele>
        <time>2020-09-03T09:19:52Z</time>
      </trkpt>
      <trkpt lat="42.97037" lon="-0.24728">
        <ele>1500.8</ele>
        <time>2020-09-03T09:19:53Z</time>
      </trkpt>
      <trkpt lat="42.9704" lon="-0.24727">
        <ele>1501</ele>
        <time>2020-09-03T09:19:54Z</time>
      </trkpt>
      <trkpt lat="42.97042" lon="-0.24725">
        <ele>1501.4</ele>
        <time>2020-09-03T09:19:55Z</time>
      </trkpt>
      <trkpt lat="42.97044" lon="-0.24724">
        <ele>1501.4</ele>
        <time>2020-09-03T09:19:56Z</time>
      </trkpt>
      <trkpt lat="42.97047" lon="-0.24722">
        <ele>1501.8</ele>
        <time>2020-09-03T09:19:57Z</time>
      </trkpt>
      <trkpt lat="42.9705" lon="-0.2472">
        <ele>1501.8</ele>
        <time>2020-09-03T09:19:58Z</time>
      </trkpt>
      <trkpt lat="42.97052" lon="-0.24719">
        <ele>1502</ele>
        <time>2020-09-03T09:19:59Z</time>
      </trkpt>
      <trkpt lat="42.97055" lon="-0.24717">
        <ele>1502.2</ele>
        <time>2020-09-03T09:20:00Z</time>
      </trkpt>
      <trkpt lat="42.97057" lon="-0.24715">
        <ele>1502.2</ele>
        <time>2020-09-03T09:20:01Z</time>
      </trkpt>
      <trkpt lat="42.97059" lon="-0.24713">
        <ele>1502.4</ele>
        <time>2020-09-03T09:20:02Z</time>
      </trkpt>
      <trkpt lat="42.97061" lon="-0.2471">
        <ele>1502.4</ele>
        <time>2020-09-03T09:20:03Z</time>
      </trkpt>
      <trkpt lat="42.97063" lon="-0.24708">
        <ele>1502.6</ele>
        <time>2020-09-03T09:20:04Z</time>
      </trkpt>
      <trkpt lat="42.97065" lon="-0.24705">
        <ele>1502.6</ele>
        <time>2020-09-03T09:20:05Z</time>
      </trkpt>
      <trkpt lat="42.97067" lon="-0.24701">
        <ele>1502.8</ele>
        <time>2020-09-03T09:20:06Z</time>
      </trkpt>
      <trkpt lat="42.97069" lon="-0.24697">
        <ele>1502.8</ele>
        <time>2020-09-03T09:20:07Z</time>
      </trkpt>
      <trkpt lat="42.9707" lon="-0.24693">
        <ele>1502.8</ele>
        <time>2020-09-03T09:20:08Z</time>
      </trkpt>
      <trkpt lat="42.9707" lon="-0.24688">
        <ele>1503</ele>
        <time>2020-09-03T09:20:09Z</time>
      </trkpt>
      <trkpt lat="42.9707" lon="-0.24683">
        <ele>1503</ele>
        <time>2020-09-03T09:20:10Z</time>
      </trkpt>
      <trkpt lat="42.9707" lon="-0.24679">
        <ele>1503</ele>
        <time>2020-09-03T09:20:11Z</time>
      </trkpt>
      <trkpt lat="42.97071" lon="-0.24674">
        <ele>1503</ele>
        <time>2020-09-03T09:20:12Z</time>
      </trkpt>
      <trkpt lat="42.97071" lon="-0.24669">
        <ele>1503</ele>
        <time>2020-09-03T09:20:13Z</time>
      </trkpt>
      <trkpt lat="42.9707" lon="-0.24665">
        <ele>1503</ele>
        <time>2020-09-03T09:20:14Z</time>
      </trkpt>
      <trkpt lat="42.9707" lon="-0.24661">
        <ele>1503</ele>
        <time>2020-09-03T09:20:15Z</time>
      </trkpt>
      <trkpt lat="42.97069" lon="-0.24657">
        <ele>1503</ele>
        <time>2020-09-03T09:20:16Z</time>
      </trkpt>
      <trkpt lat="42.97069" lon="-0.24652">
        <ele>1503</ele>
        <time>2020-09-03T09:20:17Z</time>
      </trkpt>
      <trkpt lat="42.97069" lon="-0.24648">
        <ele>1503</ele>
        <time>2020-09-03T09:20:18Z</time>
      </trkpt>
      <trkpt lat="42.97069" lon="-0.24644">
        <ele>1503</ele>
        <time>2020-09-03T09:20:19Z</time>
      </trkpt>
      <trkpt lat="42.97068" lon="-0.24639">
        <ele>1502.8</ele>
        <time>2020-09-03T09:20:20Z</time>
      </trkpt>
      <trkpt lat="42.97067" lon="-0.24635">
        <ele>1502.8</ele>
        <time>2020-09-03T09:20:21Z</time>
      </trkpt>
      <trkpt lat="42.97065" lon="-0.2463">
        <ele>1502.8</ele>
        <time>2020-09-03T09:20:22Z</time>
      </trkpt>
      <trkpt lat="42.97059" lon="-0.24607">
        <ele>1502.4</ele>
        <time>2020-09-03T09:20:27Z</time>
      </trkpt>
      <trkpt lat="42.97055" lon="-0.24571">
        <ele>1502.4</ele>
        <time>2020-09-03T09:20:34Z</time>
      </trkpt>
      <trkpt lat="42.97062" lon="-0.2455">
        <ele>1502.4</ele>
        <time>2020-09-03T09:20:38Z</time>
      </trkpt>
      <trkpt lat="42.97065" lon="-0.24545">
        <ele>1502.4</ele>
        <time>2020-09-03T09:20:39Z</time>
      </trkpt>
      <trkpt lat="42.97069" lon="-0.2454">
        <ele>1502.4</ele>
        <time>2020-09-03T09:20:40Z</time>
      </trkpt>
      <trkpt lat="42.97073" lon="-0.24535">
        <ele>1502.4</ele>
        <time>2020-09-03T09:20:41Z</time>
      </trkpt>
      <trkpt lat="42.97076" lon="-0.24529">
        <ele>1502.2</ele>
        <time>2020-09-03T09:20:42Z</time>
      </trkpt>
      <trkpt lat="42.97079" lon="-0.24523">
        <ele>1502</ele>
        <time>2020-09-03T09:20:43Z</time>
      </trkpt>
      <trkpt lat="42.97081" lon="-0.24517">
        <ele>1502</ele>
        <time>2020-09-03T09:20:44Z</time>
      </trkpt>
      <trkpt lat="42.97083" lon="-0.24511">
        <ele>1501.8</ele>
        <time>2020-09-03T09:20:45Z</time>
      </trkpt>
      <trkpt lat="42.97085" lon="-0.24499">
        <ele>1501.6</ele>
        <time>2020-09-03T09:20:47Z</time>
      </trkpt>
      <trkpt lat="42.97086" lon="-0.24493">
        <ele>1501.6</ele>
        <time>2020-09-03T09:20:48Z</time>
      </trkpt>
      <trkpt lat="42.97088" lon="-0.24481">
        <ele>1501.4</ele>
        <time>2020-09-03T09:20:50Z</time>
      </trkpt>
      <trkpt lat="42.97089" lon="-0.24476">
        <ele>1501.4</ele>
        <time>2020-09-03T09:20:51Z</time>
      </trkpt>
      <trkpt lat="42.9709" lon="-0.24471">
        <ele>1501.4</ele>
        <time>2020-09-03T09:20:52Z</time>
      </trkpt>
      <trkpt lat="42.97091" lon="-0.24466">
        <ele>1501.4</ele>
        <time>2020-09-03T09:20:53Z</time>
      </trkpt>
      <trkpt lat="42.97093" lon="-0.24461">
        <ele>1501.6</ele>
        <time>2020-09-03T09:20:54Z</time>
      </trkpt>
      <trkpt lat="42.97094" lon="-0.24456">
        <ele>1501.6</ele>
        <time>2020-09-03T09:20:55Z</time>
      </trkpt>
      <trkpt lat="42.97095" lon="-0.24451">
        <ele>1501.6</ele>
        <time>2020-09-03T09:20:56Z</time>
      </trkpt>
      <trkpt lat="42.97096" lon="-0.24446">
        <ele>1501.8</ele>
        <time>2020-09-03T09:20:57Z</time>
      </trkpt>
      <trkpt lat="42.97096" lon="-0.24441">
        <ele>1502</ele>
        <time>2020-09-03T09:20:58Z</time>
      </trkpt>
      <trkpt lat="42.97097" lon="-0.24436">
        <ele>1502.2</ele>
        <time>2020-09-03T09:20:59Z</time>
      </trkpt>
      <trkpt lat="42.97097" lon="-0.24431">
        <ele>1502.8</ele>
        <time>2020-09-03T09:21:00Z</time>
      </trkpt>
      <trkpt lat="42.97098" lon="-0.24427">
        <ele>1502.8</ele>
        <time>2020-09-03T09:21:01Z</time>
      </trkpt>
      <trkpt lat="42.97098" lon="-0.24422">
        <ele>1503.4</ele>
        <time>2020-09-03T09:21:02Z</time>
      </trkpt>
      <trkpt lat="42.97099" lon="-0.24418">
        <ele>1503.6</ele>
        <time>2020-09-03T09:21:03Z</time>
      </trkpt>
      <trkpt lat="42.971" lon="-0.24414">
        <ele>1504</ele>
        <time>2020-09-03T09:21:04Z</time>
      </trkpt>
      <trkpt lat="42.971" lon="-0.24414">
        <ele>1504.2</ele>
        <time>2020-09-03T09:21:05Z</time>
      </trkpt>
      <trkpt lat="42.97101" lon="-0.24404">
        <ele>1504.6</ele>
        <time>2020-09-03T09:21:06Z</time>
      </trkpt>
      <trkpt lat="42.97104" lon="-0.24389">
        <ele>1505.4</ele>
        <time>2020-09-03T09:21:09Z</time>
      </trkpt>
      <trkpt lat="42.97107" lon="-0.2438">
        <ele>1505.8</ele>
        <time>2020-09-03T09:21:11Z</time>
      </trkpt>
      <trkpt lat="42.97109" lon="-0.24375">
        <ele>1506</ele>
        <time>2020-09-03T09:21:12Z</time>
      </trkpt>
      <trkpt lat="42.9711" lon="-0.2437">
        <ele>1506.2</ele>
        <time>2020-09-03T09:21:13Z</time>
      </trkpt>
      <trkpt lat="42.9711" lon="-0.2437">
        <ele>1506.2</ele>
        <time>2020-09-03T09:21:14Z</time>
      </trkpt>
      <trkpt lat="42.97113" lon="-0.24359">
        <ele>1506.4</ele>
        <time>2020-09-03T09:21:15Z</time>
      </trkpt>
      <trkpt lat="42.97115" lon="-0.24355">
        <ele>1506.4</ele>
        <time>2020-09-03T09:21:16Z</time>
      </trkpt>
      <trkpt lat="42.97116" lon="-0.24351">
        <ele>1506.4</ele>
        <time>2020-09-03T09:21:17Z</time>
      </trkpt>
      <trkpt lat="42.97118" lon="-0.24347">
        <ele>1506.4</ele>
        <time>2020-09-03T09:21:18Z</time>
      </trkpt>
      <trkpt lat="42.9712" lon="-0.24343">
        <ele>1506.6</ele>
        <time>2020-09-03T09:21:19Z</time>
      </trkpt>
      <trkpt lat="42.97121" lon="-0.2434">
        <ele>1506.6</ele>
        <time>2020-09-03T09:21:20Z</time>
      </trkpt>
      <trkpt lat="42.97123" lon="-0.24337">
        <ele>1506.6</ele>
        <time>2020-09-03T09:21:21Z</time>
      </trkpt>
      <trkpt lat="42.97125" lon="-0.24335">
        <ele>1506.8</ele>
        <time>2020-09-03T09:21:22Z</time>
      </trkpt>
      <trkpt lat="42.97127" lon="-0.24332">
        <ele>1506.8</ele>
        <time>2020-09-03T09:21:23Z</time>
      </trkpt>
      <trkpt lat="42.97129" lon="-0.2433">
        <ele>1506.8</ele>
        <time>2020-09-03T09:21:24Z</time>
      </trkpt>
      <trkpt lat="42.97131" lon="-0.24328">
        <ele>1506.8</ele>
        <time>2020-09-03T09:21:25Z</time>
      </trkpt>
      <trkpt lat="42.97133" lon="-0.24327">
        <ele>1506.8</ele>
        <time>2020-09-03T09:21:26Z</time>
      </trkpt>
      <trkpt lat="42.97135" lon="-0.24327">
        <ele>1506.8</ele>
        <time>2020-09-03T09:21:27Z</time>
      </trkpt>
      <trkpt lat="42.97137" lon="-0.24327">
        <ele>1507</ele>
        <time>2020-09-03T09:21:28Z</time>
      </trkpt>
      <trkpt lat="42.97139" lon="-0.24328">
        <ele>1507</ele>
        <time>2020-09-03T09:21:29Z</time>
      </trkpt>
      <trkpt lat="42.97141" lon="-0.24329">
        <ele>1507.2</ele>
        <time>2020-09-03T09:21:30Z</time>
      </trkpt>
      <trkpt lat="42.97143" lon="-0.24331">
        <ele>1507.4</ele>
        <time>2020-09-03T09:21:31Z</time>
      </trkpt>
      <trkpt lat="42.97145" lon="-0.24333">
        <ele>1507.4</ele>
        <time>2020-09-03T09:21:32Z</time>
      </trkpt>
      <trkpt lat="42.97147" lon="-0.24335">
        <ele>1507.6</ele>
        <time>2020-09-03T09:21:33Z</time>
      </trkpt>
      <trkpt lat="42.97149" lon="-0.24338">
        <ele>1507.6</ele>
        <time>2020-09-03T09:21:34Z</time>
      </trkpt>
      <trkpt lat="42.9715" lon="-0.24341">
        <ele>1507.6</ele>
        <time>2020-09-03T09:21:35Z</time>
      </trkpt>
      <trkpt lat="42.97152" lon="-0.24344">
        <ele>1507.8</ele>
        <time>2020-09-03T09:21:36Z</time>
      </trkpt>
      <trkpt lat="42.97154" lon="-0.24348">
        <ele>1508.2</ele>
        <time>2020-09-03T09:21:37Z</time>
      </trkpt>
      <trkpt lat="42.97155" lon="-0.24351">
        <ele>1508.2</ele>
        <time>2020-09-03T09:21:38Z</time>
      </trkpt>
      <trkpt lat="42.97155" lon="-0.24354">
        <ele>1508.4</ele>
        <time>2020-09-03T09:21:39Z</time>
      </trkpt>
      <trkpt lat="42.97157" lon="-0.24358">
        <ele>1508.6</ele>
        <time>2020-09-03T09:21:40Z</time>
      </trkpt>
      <trkpt lat="42.97158" lon="-0.24361">
        <ele>1508.8</ele>
        <time>2020-09-03T09:21:41Z</time>
      </trkpt>
      <trkpt lat="42.9716" lon="-0.24364">
        <ele>1509</ele>
        <time>2020-09-03T09:21:42Z</time>
      </trkpt>
      <trkpt lat="42.97161" lon="-0.24367">
        <ele>1509.2</ele>
        <time>2020-09-03T09:21:43Z</time>
      </trkpt>
      <trkpt lat="42.97162" lon="-0.24371">
        <ele>1509.2</ele>
        <time>2020-09-03T09:21:44Z</time>
      </trkpt>
      <trkpt lat="42.97164" lon="-0.24375">
        <ele>1509.4</ele>
        <time>2020-09-03T09:21:45Z</time>
      </trkpt>
      <trkpt lat="42.97165" lon="-0.24378">
        <ele>1509.4</ele>
        <time>2020-09-03T09:21:46Z</time>
      </trkpt>
      <trkpt lat="42.97167" lon="-0.24382">
        <ele>1509.6</ele>
        <time>2020-09-03T09:21:47Z</time>
      </trkpt>
      <trkpt lat="42.97169" lon="-0.24384">
        <ele>1509.8</ele>
        <time>2020-09-03T09:21:48Z</time>
      </trkpt>
      <trkpt lat="42.97172" lon="-0.24386">
        <ele>1510</ele>
        <time>2020-09-03T09:21:49Z</time>
      </trkpt>
      <trkpt lat="42.97175" lon="-0.24387">
        <ele>1510.2</ele>
        <time>2020-09-03T09:21:50Z</time>
      </trkpt>
      <trkpt lat="42.97177" lon="-0.24387">
        <ele>1510.4</ele>
        <time>2020-09-03T09:21:51Z</time>
      </trkpt>
      <trkpt lat="42.97179" lon="-0.24386">
        <ele>1510.6</ele>
        <time>2020-09-03T09:21:52Z</time>
      </trkpt>
      <trkpt lat="42.97181" lon="-0.24384">
        <ele>1510.6</ele>
        <time>2020-09-03T09:21:53Z</time>
      </trkpt>
      <trkpt lat="42.97184" lon="-0.24383">
        <ele>1510.8</ele>
        <time>2020-09-03T09:21:54Z</time>
      </trkpt>
      <trkpt lat="42.97185" lon="-0.24382">
        <ele>1511</ele>
        <time>2020-09-03T09:21:55Z</time>
      </trkpt>
      <trkpt lat="42.97188" lon="-0.2438">
        <ele>1511.2</ele>
        <time>2020-09-03T09:21:56Z</time>
      </trkpt>
      <trkpt lat="42.97189" lon="-0.24378">
        <ele>1511.4</ele>
        <time>2020-09-03T09:21:57Z</time>
      </trkpt>
      <trkpt lat="42.9719" lon="-0.24376">
        <ele>1512</ele>
        <time>2020-09-03T09:21:58Z</time>
      </trkpt>
      <trkpt lat="42.97192" lon="-0.24374">
        <ele>1512.2</ele>
        <time>2020-09-03T09:21:59Z</time>
      </trkpt>
      <trkpt lat="42.97194" lon="-0.2437">
        <ele>1512.6</ele>
        <time>2020-09-03T09:22:00Z</time>
      </trkpt>
      <trkpt lat="42.97195" lon="-0.24366">
        <ele>1512.8</ele>
        <time>2020-09-03T09:22:01Z</time>
      </trkpt>
      <trkpt lat="42.97196" lon="-0.24363">
        <ele>1512.8</ele>
        <time>2020-09-03T09:22:02Z</time>
      </trkpt>
      <trkpt lat="42.97198" lon="-0.2436">
        <ele>1513.2</ele>
        <time>2020-09-03T09:22:03Z</time>
      </trkpt>
      <trkpt lat="42.97199" lon="-0.24356">
        <ele>1513.2</ele>
        <time>2020-09-03T09:22:04Z</time>
      </trkpt>
      <trkpt lat="42.972" lon="-0.24352">
        <ele>1513.4</ele>
        <time>2020-09-03T09:22:05Z</time>
      </trkpt>
      <trkpt lat="42.97201" lon="-0.24349">
        <ele>1513.6</ele>
        <time>2020-09-03T09:22:06Z</time>
      </trkpt>
      <trkpt lat="42.97203" lon="-0.24345">
        <ele>1514</ele>
        <time>2020-09-03T09:22:07Z</time>
      </trkpt>
      <trkpt lat="42.97204" lon="-0.24341">
        <ele>1514</ele>
        <time>2020-09-03T09:22:08Z</time>
      </trkpt>
      <trkpt lat="42.97205" lon="-0.24338">
        <ele>1514.4</ele>
        <time>2020-09-03T09:22:09Z</time>
      </trkpt>
      <trkpt lat="42.97207" lon="-0.24335">
        <ele>1514.6</ele>
        <time>2020-09-03T09:22:10Z</time>
      </trkpt>
      <trkpt lat="42.97208" lon="-0.24332">
        <ele>1514.8</ele>
        <time>2020-09-03T09:22:11Z</time>
      </trkpt>
      <trkpt lat="42.97211" lon="-0.24329">
        <ele>1514.8</ele>
        <time>2020-09-03T09:22:12Z</time>
      </trkpt>
      <trkpt lat="42.97213" lon="-0.24327">
        <ele>1515</ele>
        <time>2020-09-03T09:22:13Z</time>
      </trkpt>
      <trkpt lat="42.97215" lon="-0.24325">
        <ele>1515.2</ele>
        <time>2020-09-03T09:22:14Z</time>
      </trkpt>
      <trkpt lat="42.97218" lon="-0.24324">
        <ele>1515.4</ele>
        <time>2020-09-03T09:22:15Z</time>
      </trkpt>
      <trkpt lat="42.9722" lon="-0.24324">
        <ele>1515.6</ele>
        <time>2020-09-03T09:22:16Z</time>
      </trkpt>
      <trkpt lat="42.97222" lon="-0.24324">
        <ele>1515.8</ele>
        <time>2020-09-03T09:22:17Z</time>
      </trkpt>
      <trkpt lat="42.97225" lon="-0.24324">
        <ele>1516.2</ele>
        <time>2020-09-03T09:22:18Z</time>
      </trkpt>
      <trkpt lat="42.97227" lon="-0.24324">
        <ele>1516.2</ele>
        <time>2020-09-03T09:22:19Z</time>
      </trkpt>
      <trkpt lat="42.97229" lon="-0.24323">
        <ele>1516.6</ele>
        <time>2020-09-03T09:22:20Z</time>
      </trkpt>
      <trkpt lat="42.97232" lon="-0.24323">
        <ele>1516.8</ele>
        <time>2020-09-03T09:22:21Z</time>
      </trkpt>
      <trkpt lat="42.97234" lon="-0.24323">
        <ele>1517</ele>
        <time>2020-09-03T09:22:22Z</time>
      </trkpt>
      <trkpt lat="42.97237" lon="-0.24322">
        <ele>1517</ele>
        <time>2020-09-03T09:22:23Z</time>
      </trkpt>
      <trkpt lat="42.97239" lon="-0.24322">
        <ele>1517.6</ele>
        <time>2020-09-03T09:22:24Z</time>
      </trkpt>
      <trkpt lat="42.97241" lon="-0.24321">
        <ele>1517.6</ele>
        <time>2020-09-03T09:22:25Z</time>
      </trkpt>
      <trkpt lat="42.97244" lon="-0.24321">
        <ele>1518</ele>
        <time>2020-09-03T09:22:26Z</time>
      </trkpt>
      <trkpt lat="42.97247" lon="-0.24322">
        <ele>1518.2</ele>
        <time>2020-09-03T09:22:27Z</time>
      </trkpt>
      <trkpt lat="42.97249" lon="-0.24322">
        <ele>1518.2</ele>
        <time>2020-09-03T09:22:28Z</time>
      </trkpt>
      <trkpt lat="42.97252" lon="-0.24322">
        <ele>1518.4</ele>
        <time>2020-09-03T09:22:29Z</time>
      </trkpt>
      <trkpt lat="42.97255" lon="-0.24322">
        <ele>1518.6</ele>
        <time>2020-09-03T09:22:30Z</time>
      </trkpt>
      <trkpt lat="42.97259" lon="-0.24323">
        <ele>1518.6</ele>
        <time>2020-09-03T09:22:31Z</time>
      </trkpt>
      <trkpt lat="42.97262" lon="-0.24324">
        <ele>1518.6</ele>
        <time>2020-09-03T09:22:32Z</time>
      </trkpt>
      <trkpt lat="42.97264" lon="-0.24326">
        <ele>1518.6</ele>
        <time>2020-09-03T09:22:33Z</time>
      </trkpt>
      <trkpt lat="42.97266" lon="-0.24328">
        <ele>1518.6</ele>
        <time>2020-09-03T09:22:34Z</time>
      </trkpt>
      <trkpt lat="42.97269" lon="-0.2433">
        <ele>1518.6</ele>
        <time>2020-09-03T09:22:35Z</time>
      </trkpt>
      <trkpt lat="42.97271" lon="-0.24332">
        <ele>1518.6</ele>
        <time>2020-09-03T09:22:36Z</time>
      </trkpt>
      <trkpt lat="42.97273" lon="-0.24335">
        <ele>1518.4</ele>
        <time>2020-09-03T09:22:37Z</time>
      </trkpt>
      <trkpt lat="42.97275" lon="-0.24338">
        <ele>1518.2</ele>
        <time>2020-09-03T09:22:38Z</time>
      </trkpt>
      <trkpt lat="42.97277" lon="-0.24341">
        <ele>1518.4</ele>
        <time>2020-09-03T09:22:39Z</time>
      </trkpt>
      <trkpt lat="42.97279" lon="-0.24345">
        <ele>1518</ele>
        <time>2020-09-03T09:22:40Z</time>
      </trkpt>
      <trkpt lat="42.97282" lon="-0.24349">
        <ele>1517.6</ele>
        <time>2020-09-03T09:22:41Z</time>
      </trkpt>
      <trkpt lat="42.97284" lon="-0.24353">
        <ele>1517.4</ele>
        <time>2020-09-03T09:22:42Z</time>
      </trkpt>
      <trkpt lat="42.97288" lon="-0.24357">
        <ele>1517.4</ele>
        <time>2020-09-03T09:22:43Z</time>
      </trkpt>
      <trkpt lat="42.97292" lon="-0.24362">
        <ele>1517.2</ele>
        <time>2020-09-03T09:22:44Z</time>
      </trkpt>
      <trkpt lat="42.97301" lon="-0.24373">
        <ele>1516.6</ele>
        <time>2020-09-03T09:22:46Z</time>
      </trkpt>
      <trkpt lat="42.97313" lon="-0.24383">
        <ele>1515.8</ele>
        <time>2020-09-03T09:22:48Z</time>
      </trkpt>
      <trkpt lat="42.97325" lon="-0.2439">
        <ele>1515.4</ele>
        <time>2020-09-03T09:22:50Z</time>
      </trkpt>
      <trkpt lat="42.97338" lon="-0.24396">
        <ele>1514.2</ele>
        <time>2020-09-03T09:22:52Z</time>
      </trkpt>
      <trkpt lat="42.97351" lon="-0.24402">
        <ele>1513.4</ele>
        <time>2020-09-03T09:22:54Z</time>
      </trkpt>
      <trkpt lat="42.97357" lon="-0.24405">
        <ele>1513.2</ele>
        <time>2020-09-03T09:22:55Z</time>
      </trkpt>
      <trkpt lat="42.97368" lon="-0.24411">
        <ele>1512.8</ele>
        <time>2020-09-03T09:22:57Z</time>
      </trkpt>
      <trkpt lat="42.97373" lon="-0.24416">
        <ele>1512.8</ele>
        <time>2020-09-03T09:22:58Z</time>
      </trkpt>
      <trkpt lat="42.97377" lon="-0.24422">
        <ele>1512.8</ele>
        <time>2020-09-03T09:22:59Z</time>
      </trkpt>
      <trkpt lat="42.9738" lon="-0.24429">
        <ele>1512.6</ele>
        <time>2020-09-03T09:23:00Z</time>
      </trkpt>
      <trkpt lat="42.97381" lon="-0.24436">
        <ele>1512.6</ele>
        <time>2020-09-03T09:23:01Z</time>
      </trkpt>
      <trkpt lat="42.97381" lon="-0.24442">
        <ele>1512.4</ele>
        <time>2020-09-03T09:23:02Z</time>
      </trkpt>
      <trkpt lat="42.97381" lon="-0.24447">
        <ele>1512.2</ele>
        <time>2020-09-03T09:23:03Z</time>
      </trkpt>
      <trkpt lat="42.97381" lon="-0.2445">
        <ele>1512</ele>
        <time>2020-09-03T09:23:04Z</time>
      </trkpt>
      <trkpt lat="42.97381" lon="-0.24451">
        <ele>1511.4</ele>
        <time>2020-09-03T09:23:05Z</time>
      </trkpt>
      <trkpt lat="42.97381" lon="-0.24451">
        <ele>1511</ele>
        <time>2020-09-03T09:23:11Z</time>
      </trkpt>
      <trkpt lat="42.97381" lon="-0.24451">
        <ele>1510.8</ele>
        <time>2020-09-03T09:23:26Z</time>
      </trkpt>
      <trkpt lat="42.97381" lon="-0.24451">
        <ele>1510.8</ele>
        <time>2020-09-03T09:23:28Z</time>
      </trkpt>
      <trkpt lat="42.97381" lon="-0.24451">
        <ele>1511</ele>
        <time>2020-09-03T09:24:05Z</time>
      </trkpt>
      <trkpt lat="42.97382" lon="-0.2445">
        <ele>1510.4</ele>
        <time>2020-09-03T09:24:52Z</time>
      </trkpt>
      <trkpt lat="42.97382" lon="-0.2445">
        <ele>1509.4</ele>
        <time>2020-09-03T09:26:07Z</time>
      </trkpt>
      <trkpt lat="42.97382" lon="-0.2445">
        <ele>1509.6</ele>
        <time>2020-09-03T09:26:37Z</time>
      </trkpt>
      <trkpt lat="42.97382" lon="-0.2445">
        <ele>1509.2</ele>
        <time>2020-09-03T09:27:12Z</time>
      </trkpt>
      <trkpt lat="42.97382" lon="-0.2445">
        <ele>1509.2</ele>
        <time>2020-09-03T09:27:41Z</time>
      </trkpt>
      <trkpt lat="42.97384" lon="-0.24452">
        <ele>1509.6</ele>
        <time>2020-09-03T09:28:12Z</time>
      </trkpt>
      <trkpt lat="42.97389" lon="-0.24457">
        <ele>1509.4</ele>
        <time>2020-09-03T09:28:14Z</time>
      </trkpt>
      <trkpt lat="42.974" lon="-0.24462">
        <ele>1509.4</ele>
        <time>2020-09-03T09:28:18Z</time>
      </trkpt>
      <trkpt lat="42.97404" lon="-0.24462">
        <ele>1509.4</ele>
        <time>2020-09-03T09:28:19Z</time>
      </trkpt>
      <trkpt lat="42.97407" lon="-0.24461">
        <ele>1509.4</ele>
        <time>2020-09-03T09:28:20Z</time>
      </trkpt>
      <trkpt lat="42.9741" lon="-0.2446">
        <ele>1509.4</ele>
        <time>2020-09-03T09:28:21Z</time>
      </trkpt>
      <trkpt lat="42.97418" lon="-0.24455">
        <ele>1509.4</ele>
        <time>2020-09-03T09:28:24Z</time>
      </trkpt>
      <trkpt lat="42.9744" lon="-0.24444">
        <ele>1509.6</ele>
        <time>2020-09-03T09:28:30Z</time>
      </trkpt>
      <trkpt lat="42.97452" lon="-0.24441">
        <ele>1509.6</ele>
        <time>2020-09-03T09:28:33Z</time>
      </trkpt>
      <trkpt lat="42.97462" lon="-0.24439">
        <ele>1509.6</ele>
        <time>2020-09-03T09:28:35Z</time>
      </trkpt>
      <trkpt lat="42.97488" lon="-0.24434">
        <ele>1509.4</ele>
        <time>2020-09-03T09:28:40Z</time>
      </trkpt>
      <trkpt lat="42.97493" lon="-0.24433">
        <ele>1509.2</ele>
        <time>2020-09-03T09:28:41Z</time>
      </trkpt>
      <trkpt lat="42.97497" lon="-0.24431">
        <ele>1509.2</ele>
        <time>2020-09-03T09:28:42Z</time>
      </trkpt>
      <trkpt lat="42.97502" lon="-0.24428">
        <ele>1509.2</ele>
        <time>2020-09-03T09:28:43Z</time>
      </trkpt>
      <trkpt lat="42.97507" lon="-0.24425">
        <ele>1509</ele>
        <time>2020-09-03T09:28:44Z</time>
      </trkpt>
      <trkpt lat="42.97518" lon="-0.24412">
        <ele>1508.8</ele>
        <time>2020-09-03T09:28:47Z</time>
      </trkpt>
      <trkpt lat="42.97522" lon="-0.24408">
        <ele>1508.8</ele>
        <time>2020-09-03T09:28:48Z</time>
      </trkpt>
      <trkpt lat="42.97526" lon="-0.24404">
        <ele>1508.8</ele>
        <time>2020-09-03T09:28:49Z</time>
      </trkpt>
      <trkpt lat="42.9753" lon="-0.244">
        <ele>1509</ele>
        <time>2020-09-03T09:28:50Z</time>
      </trkpt>
      <trkpt lat="42.97534" lon="-0.24396">
        <ele>1509</ele>
        <time>2020-09-03T09:28:51Z</time>
      </trkpt>
      <trkpt lat="42.9755" lon="-0.24385">
        <ele>1509.4</ele>
        <time>2020-09-03T09:28:54Z</time>
      </trkpt>
      <trkpt lat="42.97568" lon="-0.24373">
        <ele>1509.4</ele>
        <time>2020-09-03T09:28:57Z</time>
      </trkpt>
      <trkpt lat="42.97573" lon="-0.24369">
        <ele>1509.4</ele>
        <time>2020-09-03T09:28:58Z</time>
      </trkpt>
      <trkpt lat="42.97583" lon="-0.24359">
        <ele>1509.6</ele>
        <time>2020-09-03T09:29:00Z</time>
      </trkpt>
      <trkpt lat="42.97589" lon="-0.24354">
        <ele>1509.6</ele>
        <time>2020-09-03T09:29:01Z</time>
      </trkpt>
      <trkpt lat="42.97594" lon="-0.2435">
        <ele>1509.6</ele>
        <time>2020-09-03T09:29:02Z</time>
      </trkpt>
      <trkpt lat="42.97606" lon="-0.24341">
        <ele>1509.4</ele>
        <time>2020-09-03T09:29:04Z</time>
      </trkpt>
      <trkpt lat="42.97631" lon="-0.24323">
        <ele>1509</ele>
        <time>2020-09-03T09:29:08Z</time>
      </trkpt>
      <trkpt lat="42.97641" lon="-0.24312">
        <ele>1509</ele>
        <time>2020-09-03T09:29:10Z</time>
      </trkpt>
      <trkpt lat="42.97647" lon="-0.24308">
        <ele>1508.8</ele>
        <time>2020-09-03T09:29:11Z</time>
      </trkpt>
      <trkpt lat="42.97652" lon="-0.24303">
        <ele>1508.8</ele>
        <time>2020-09-03T09:29:12Z</time>
      </trkpt>
      <trkpt lat="42.97657" lon="-0.24299">
        <ele>1509</ele>
        <time>2020-09-03T09:29:13Z</time>
      </trkpt>
      <trkpt lat="42.97662" lon="-0.24294">
        <ele>1509</ele>
        <time>2020-09-03T09:29:14Z</time>
      </trkpt>
      <trkpt lat="42.97672" lon="-0.24285">
        <ele>1509</ele>
        <time>2020-09-03T09:29:16Z</time>
      </trkpt>
      <trkpt lat="42.97681" lon="-0.24275">
        <ele>1509.2</ele>
        <time>2020-09-03T09:29:18Z</time>
      </trkpt>
      <trkpt lat="42.97685" lon="-0.2427">
        <ele>1509.4</ele>
        <time>2020-09-03T09:29:19Z</time>
      </trkpt>
      <trkpt lat="42.9769" lon="-0.24266">
        <ele>1509.6</ele>
        <time>2020-09-03T09:29:20Z</time>
      </trkpt>
      <trkpt lat="42.97696" lon="-0.24264">
        <ele>1509.6</ele>
        <time>2020-09-03T09:29:21Z</time>
      </trkpt>
      <trkpt lat="42.97702" lon="-0.24263">
        <ele>1509.8</ele>
        <time>2020-09-03T09:29:22Z</time>
      </trkpt>
      <trkpt lat="42.97709" lon="-0.24263">
        <ele>1509.8</ele>
        <time>2020-09-03T09:29:23Z</time>
      </trkpt>
      <trkpt lat="42.97716" lon="-0.24262">
        <ele>1510</ele>
        <time>2020-09-03T09:29:24Z</time>
      </trkpt>
      <trkpt lat="42.97722" lon="-0.24261">
        <ele>1510</ele>
        <time>2020-09-03T09:29:25Z</time>
      </trkpt>
      <trkpt lat="42.97741" lon="-0.24256">
        <ele>1510.2</ele>
        <time>2020-09-03T09:29:28Z</time>
      </trkpt>
      <trkpt lat="42.97747" lon="-0.24255">
        <ele>1510</ele>
        <time>2020-09-03T09:29:29Z</time>
      </trkpt>
      <trkpt lat="42.97753" lon="-0.24256">
        <ele>1510</ele>
        <time>2020-09-03T09:29:30Z</time>
      </trkpt>
      <trkpt lat="42.97759" lon="-0.24258">
        <ele>1510.2</ele>
        <time>2020-09-03T09:29:31Z</time>
      </trkpt>
      <trkpt lat="42.97771" lon="-0.24265">
        <ele>1510.2</ele>
        <time>2020-09-03T09:29:33Z</time>
      </trkpt>
      <trkpt lat="42.97777" lon="-0.24267">
        <ele>1510.2</ele>
        <time>2020-09-03T09:29:34Z</time>
      </trkpt>
      <trkpt lat="42.97783" lon="-0.24267">
        <ele>1510.2</ele>
        <time>2020-09-03T09:29:35Z</time>
      </trkpt>
      <trkpt lat="42.97788" lon="-0.24265">
        <ele>1510.2</ele>
        <time>2020-09-03T09:29:36Z</time>
      </trkpt>
      <trkpt lat="42.97793" lon="-0.24261">
        <ele>1510.4</ele>
        <time>2020-09-03T09:29:37Z</time>
      </trkpt>
      <trkpt lat="42.97797" lon="-0.24257">
        <ele>1510.8</ele>
        <time>2020-09-03T09:29:38Z</time>
      </trkpt>
      <trkpt lat="42.97802" lon="-0.24252">
        <ele>1510.6</ele>
        <time>2020-09-03T09:29:39Z</time>
      </trkpt>
      <trkpt lat="42.97806" lon="-0.24247">
        <ele>1510.8</ele>
        <time>2020-09-03T09:29:40Z</time>
      </trkpt>
      <trkpt lat="42.9781" lon="-0.2424">
        <ele>1511.2</ele>
        <time>2020-09-03T09:29:41Z</time>
      </trkpt>
      <trkpt lat="42.97814" lon="-0.24234">
        <ele>1511</ele>
        <time>2020-09-03T09:29:42Z</time>
      </trkpt>
      <trkpt lat="42.97817" lon="-0.24227">
        <ele>1511.2</ele>
        <time>2020-09-03T09:29:43Z</time>
      </trkpt>
      <trkpt lat="42.97821" lon="-0.24212">
        <ele>1511</ele>
        <time>2020-09-03T09:29:45Z</time>
      </trkpt>
      <trkpt lat="42.97822" lon="-0.24205">
        <ele>1511.2</ele>
        <time>2020-09-03T09:29:46Z</time>
      </trkpt>
      <trkpt lat="42.97823" lon="-0.24198">
        <ele>1511.2</ele>
        <time>2020-09-03T09:29:47Z</time>
      </trkpt>
      <trkpt lat="42.97827" lon="-0.24185">
        <ele>1511.4</ele>
        <time>2020-09-03T09:29:49Z</time>
      </trkpt>
      <trkpt lat="42.9783" lon="-0.2418">
        <ele>1511.4</ele>
        <time>2020-09-03T09:29:50Z</time>
      </trkpt>
      <trkpt lat="42.97834" lon="-0.24177">
        <ele>1511.4</ele>
        <time>2020-09-03T09:29:51Z</time>
      </trkpt>
      <trkpt lat="42.97839" lon="-0.24175">
        <ele>1511.8</ele>
        <time>2020-09-03T09:29:52Z</time>
      </trkpt>
      <trkpt lat="42.97843" lon="-0.24173">
        <ele>1512</ele>
        <time>2020-09-03T09:29:53Z</time>
      </trkpt>
      <trkpt lat="42.97847" lon="-0.24171">
        <ele>1512.2</ele>
        <time>2020-09-03T09:29:54Z</time>
      </trkpt>
      <trkpt lat="42.97851" lon="-0.2417">
        <ele>1512.2</ele>
        <time>2020-09-03T09:29:55Z</time>
      </trkpt>
      <trkpt lat="42.97855" lon="-0.24169">
        <ele>1512.2</ele>
        <time>2020-09-03T09:29:56Z</time>
      </trkpt>
      <trkpt lat="42.97858" lon="-0.24167">
        <ele>1512.4</ele>
        <time>2020-09-03T09:29:57Z</time>
      </trkpt>
      <trkpt lat="42.97862" lon="-0.24166">
        <ele>1512.6</ele>
        <time>2020-09-03T09:29:58Z</time>
      </trkpt>
      <trkpt lat="42.97866" lon="-0.24164">
        <ele>1513</ele>
        <time>2020-09-03T09:29:59Z</time>
      </trkpt>
      <trkpt lat="42.97869" lon="-0.24163">
        <ele>1513.2</ele>
        <time>2020-09-03T09:30:00Z</time>
      </trkpt>
      <trkpt lat="42.97873" lon="-0.24162">
        <ele>1513.6</ele>
        <time>2020-09-03T09:30:01Z</time>
      </trkpt>
      <trkpt lat="42.97877" lon="-0.24161">
        <ele>1513.6</ele>
        <time>2020-09-03T09:30:02Z</time>
      </trkpt>
      <trkpt lat="42.9788" lon="-0.24161">
        <ele>1514</ele>
        <time>2020-09-03T09:30:03Z</time>
      </trkpt>
      <trkpt lat="42.97884" lon="-0.2416">
        <ele>1514.2</ele>
        <time>2020-09-03T09:30:04Z</time>
      </trkpt>
      <trkpt lat="42.97888" lon="-0.2416">
        <ele>1514.6</ele>
        <time>2020-09-03T09:30:05Z</time>
      </trkpt>
      <trkpt lat="42.97892" lon="-0.2416">
        <ele>1514.6</ele>
        <time>2020-09-03T09:30:06Z</time>
      </trkpt>
      <trkpt lat="42.97897" lon="-0.2416">
        <ele>1514.8</ele>
        <time>2020-09-03T09:30:07Z</time>
      </trkpt>
      <trkpt lat="42.97901" lon="-0.24161">
        <ele>1515</ele>
        <time>2020-09-03T09:30:08Z</time>
      </trkpt>
      <trkpt lat="42.97906" lon="-0.24162">
        <ele>1515</ele>
        <time>2020-09-03T09:30:09Z</time>
      </trkpt>
      <trkpt lat="42.97911" lon="-0.24163">
        <ele>1515.2</ele>
        <time>2020-09-03T09:30:10Z</time>
      </trkpt>
      <trkpt lat="42.97916" lon="-0.24163">
        <ele>1515.2</ele>
        <time>2020-09-03T09:30:11Z</time>
      </trkpt>
      <trkpt lat="42.97921" lon="-0.24162">
        <ele>1515.2</ele>
        <time>2020-09-03T09:30:12Z</time>
      </trkpt>
      <trkpt lat="42.97926" lon="-0.2416">
        <ele>1515.6</ele>
        <time>2020-09-03T09:30:13Z</time>
      </trkpt>
      <trkpt lat="42.9793" lon="-0.24158">
        <ele>1515.8</ele>
        <time>2020-09-03T09:30:14Z</time>
      </trkpt>
      <trkpt lat="42.97934" lon="-0.24155">
        <ele>1515.8</ele>
        <time>2020-09-03T09:30:15Z</time>
      </trkpt>
      <trkpt lat="42.97938" lon="-0.24153">
        <ele>1515.8</ele>
        <time>2020-09-03T09:30:16Z</time>
      </trkpt>
      <trkpt lat="42.97941" lon="-0.24151">
        <ele>1516</ele>
        <time>2020-09-03T09:30:17Z</time>
      </trkpt>
      <trkpt lat="42.97945" lon="-0.24148">
        <ele>1516</ele>
        <time>2020-09-03T09:30:18Z</time>
      </trkpt>
      <trkpt lat="42.97949" lon="-0.24146">
        <ele>1516.2</ele>
        <time>2020-09-03T09:30:19Z</time>
      </trkpt>
      <trkpt lat="42.97953" lon="-0.24144">
        <ele>1516.4</ele>
        <time>2020-09-03T09:30:20Z</time>
      </trkpt>
      <trkpt lat="42.97957" lon="-0.24143">
        <ele>1516.4</ele>
        <time>2020-09-03T09:30:21Z</time>
      </trkpt>
      <trkpt lat="42.97962" lon="-0.24143">
        <ele>1516.6</ele>
        <time>2020-09-03T09:30:22Z</time>
      </trkpt>
      <trkpt lat="42.97962" lon="-0.24143">
        <ele>1516.6</ele>
        <time>2020-09-03T09:30:23Z</time>
      </trkpt>
      <trkpt lat="42.97971" lon="-0.24145">
        <ele>1516.8</ele>
        <time>2020-09-03T09:30:24Z</time>
      </trkpt>
      <trkpt lat="42.97976" lon="-0.24146">
        <ele>1516.8</ele>
        <time>2020-09-03T09:30:25Z</time>
      </trkpt>
      <trkpt lat="42.97981" lon="-0.24146">
        <ele>1517</ele>
        <time>2020-09-03T09:30:26Z</time>
      </trkpt>
      <trkpt lat="42.97985" lon="-0.24146">
        <ele>1517.2</ele>
        <time>2020-09-03T09:30:27Z</time>
      </trkpt>
      <trkpt lat="42.97989" lon="-0.24146">
        <ele>1517.2</ele>
        <time>2020-09-03T09:30:28Z</time>
      </trkpt>
      <trkpt lat="42.97994" lon="-0.24145">
        <ele>1517.4</ele>
        <time>2020-09-03T09:30:29Z</time>
      </trkpt>
      <trkpt lat="42.97998" lon="-0.24145">
        <ele>1517.4</ele>
        <time>2020-09-03T09:30:30Z</time>
      </trkpt>
      <trkpt lat="42.98002" lon="-0.24145">
        <ele>1517.4</ele>
        <time>2020-09-03T09:30:31Z</time>
      </trkpt>
      <trkpt lat="42.98002" lon="-0.24145">
        <ele>1517.6</ele>
        <time>2020-09-03T09:30:32Z</time>
      </trkpt>
      <trkpt lat="42.9801" lon="-0.24144">
        <ele>1517.8</ele>
        <time>2020-09-03T09:30:33Z</time>
      </trkpt>
      <trkpt lat="42.98014" lon="-0.24143">
        <ele>1517.8</ele>
        <time>2020-09-03T09:30:34Z</time>
      </trkpt>
      <trkpt lat="42.98019" lon="-0.24142">
        <ele>1518</ele>
        <time>2020-09-03T09:30:35Z</time>
      </trkpt>
      <trkpt lat="42.98023" lon="-0.2414">
        <ele>1518</ele>
        <time>2020-09-03T09:30:36Z</time>
      </trkpt>
      <trkpt lat="42.98027" lon="-0.24137">
        <ele>1518.2</ele>
        <time>2020-09-03T09:30:37Z</time>
      </trkpt>
      <trkpt lat="42.98031" lon="-0.24133">
        <ele>1518.4</ele>
        <time>2020-09-03T09:30:38Z</time>
      </trkpt>
      <trkpt lat="42.98035" lon="-0.2413">
        <ele>1518.6</ele>
        <time>2020-09-03T09:30:39Z</time>
      </trkpt>
      <trkpt lat="42.98038" lon="-0.24126">
        <ele>1518.8</ele>
        <time>2020-09-03T09:30:40Z</time>
      </trkpt>
      <trkpt lat="42.98041" lon="-0.24122">
        <ele>1519</ele>
        <time>2020-09-03T09:30:41Z</time>
      </trkpt>
      <trkpt lat="42.98043" lon="-0.24118">
        <ele>1519.2</ele>
        <time>2020-09-03T09:30:42Z</time>
      </trkpt>
      <trkpt lat="42.98046" lon="-0.24113">
        <ele>1519.4</ele>
        <time>2020-09-03T09:30:43Z</time>
      </trkpt>
      <trkpt lat="42.98049" lon="-0.24109">
        <ele>1519.4</ele>
        <time>2020-09-03T09:30:44Z</time>
      </trkpt>
      <trkpt lat="42.98052" lon="-0.24105">
        <ele>1519.4</ele>
        <time>2020-09-03T09:30:45Z</time>
      </trkpt>
      <trkpt lat="42.98056" lon="-0.24102">
        <ele>1519.4</ele>
        <time>2020-09-03T09:30:46Z</time>
      </trkpt>
      <trkpt lat="42.98061" lon="-0.24099">
        <ele>1519.4</ele>
        <time>2020-09-03T09:30:47Z</time>
      </trkpt>
      <trkpt lat="42.98066" lon="-0.24098">
        <ele>1519.4</ele>
        <time>2020-09-03T09:30:48Z</time>
      </trkpt>
      <trkpt lat="42.98071" lon="-0.24098">
        <ele>1519.4</ele>
        <time>2020-09-03T09:30:49Z</time>
      </trkpt>
      <trkpt lat="42.98076" lon="-0.24097">
        <ele>1519.4</ele>
        <time>2020-09-03T09:30:50Z</time>
      </trkpt>
      <trkpt lat="42.98081" lon="-0.24096">
        <ele>1519.4</ele>
        <time>2020-09-03T09:30:51Z</time>
      </trkpt>
      <trkpt lat="42.98087" lon="-0.24095">
        <ele>1519.4</ele>
        <time>2020-09-03T09:30:52Z</time>
      </trkpt>
      <trkpt lat="42.98092" lon="-0.24092">
        <ele>1519.4</ele>
        <time>2020-09-03T09:30:53Z</time>
      </trkpt>
      <trkpt lat="42.98096" lon="-0.24089">
        <ele>1519.4</ele>
        <time>2020-09-03T09:30:54Z</time>
      </trkpt>
      <trkpt lat="42.981" lon="-0.24085">
        <ele>1519.6</ele>
        <time>2020-09-03T09:30:55Z</time>
      </trkpt>
      <trkpt lat="42.98102" lon="-0.24081">
        <ele>1519.4</ele>
        <time>2020-09-03T09:30:56Z</time>
      </trkpt>
      <trkpt lat="42.98104" lon="-0.24076">
        <ele>1519.4</ele>
        <time>2020-09-03T09:30:57Z</time>
      </trkpt>
      <trkpt lat="42.98106" lon="-0.2407">
        <ele>1519.4</ele>
        <time>2020-09-03T09:30:58Z</time>
      </trkpt>
      <trkpt lat="42.98106" lon="-0.2407">
        <ele>1519.4</ele>
        <time>2020-09-03T09:30:59Z</time>
      </trkpt>
      <trkpt lat="42.9811" lon="-0.24061">
        <ele>1519.4</ele>
        <time>2020-09-03T09:31:00Z</time>
      </trkpt>
      <trkpt lat="42.98121" lon="-0.24043">
        <ele>1520</ele>
        <time>2020-09-03T09:31:04Z</time>
      </trkpt>
      <trkpt lat="42.98148" lon="-0.24003">
        <ele>1520.8</ele>
        <time>2020-09-03T09:31:13Z</time>
      </trkpt>
      <trkpt lat="42.98152" lon="-0.24">
        <ele>1520.8</ele>
        <time>2020-09-03T09:31:14Z</time>
      </trkpt>
      <trkpt lat="42.9816" lon="-0.23997">
        <ele>1520.8</ele>
        <time>2020-09-03T09:31:16Z</time>
      </trkpt>
      <trkpt lat="42.98164" lon="-0.23998">
        <ele>1521</ele>
        <time>2020-09-03T09:31:17Z</time>
      </trkpt>
      <trkpt lat="42.98167" lon="-0.24001">
        <ele>1521.2</ele>
        <time>2020-09-03T09:31:18Z</time>
      </trkpt>
      <trkpt lat="42.98169" lon="-0.24005">
        <ele>1521.2</ele>
        <time>2020-09-03T09:31:19Z</time>
      </trkpt>
      <trkpt lat="42.9817" lon="-0.24009">
        <ele>1521.4</ele>
        <time>2020-09-03T09:31:20Z</time>
      </trkpt>
      <trkpt lat="42.98172" lon="-0.24015">
        <ele>1521.4</ele>
        <time>2020-09-03T09:31:21Z</time>
      </trkpt>
      <trkpt lat="42.98176" lon="-0.24026">
        <ele>1521.8</ele>
        <time>2020-09-03T09:31:23Z</time>
      </trkpt>
      <trkpt lat="42.98179" lon="-0.2403">
        <ele>1521.8</ele>
        <time>2020-09-03T09:31:24Z</time>
      </trkpt>
      <trkpt lat="42.98184" lon="-0.24033">
        <ele>1522</ele>
        <time>2020-09-03T09:31:25Z</time>
      </trkpt>
      <trkpt lat="42.98188" lon="-0.24034">
        <ele>1522</ele>
        <time>2020-09-03T09:31:26Z</time>
      </trkpt>
      <trkpt lat="42.98192" lon="-0.24033">
        <ele>1522</ele>
        <time>2020-09-03T09:31:27Z</time>
      </trkpt>
      <trkpt lat="42.98196" lon="-0.24032">
        <ele>1522.2</ele>
        <time>2020-09-03T09:31:28Z</time>
      </trkpt>
      <trkpt lat="42.98204" lon="-0.24026">
        <ele>1522.6</ele>
        <time>2020-09-03T09:31:30Z</time>
      </trkpt>
      <trkpt lat="42.98207" lon="-0.24022">
        <ele>1522.8</ele>
        <time>2020-09-03T09:31:31Z</time>
      </trkpt>
      <trkpt lat="42.9821" lon="-0.24017">
        <ele>1522.8</ele>
        <time>2020-09-03T09:31:32Z</time>
      </trkpt>
      <trkpt lat="42.98213" lon="-0.24013">
        <ele>1522.8</ele>
        <time>2020-09-03T09:31:33Z</time>
      </trkpt>
      <trkpt lat="42.98217" lon="-0.24009">
        <ele>1522.8</ele>
        <time>2020-09-03T09:31:34Z</time>
      </trkpt>
      <trkpt lat="42.98225" lon="-0.24003">
        <ele>1522.8</ele>
        <time>2020-09-03T09:31:36Z</time>
      </trkpt>
      <trkpt lat="42.98229" lon="-0.24001">
        <ele>1522.8</ele>
        <time>2020-09-03T09:31:37Z</time>
      </trkpt>
      <trkpt lat="42.98238" lon="-0.23999">
        <ele>1522.8</ele>
        <time>2020-09-03T09:31:39Z</time>
      </trkpt>
      <trkpt lat="42.98246" lon="-0.23999">
        <ele>1523</ele>
        <time>2020-09-03T09:31:41Z</time>
      </trkpt>
      <trkpt lat="42.9825" lon="-0.23999">
        <ele>1523</ele>
        <time>2020-09-03T09:31:42Z</time>
      </trkpt>
      <trkpt lat="42.98254" lon="-0.24001">
        <ele>1523</ele>
        <time>2020-09-03T09:31:43Z</time>
      </trkpt>
      <trkpt lat="42.98257" lon="-0.24003">
        <ele>1523</ele>
        <time>2020-09-03T09:31:44Z</time>
      </trkpt>
      <trkpt lat="42.9826" lon="-0.24006">
        <ele>1523.2</ele>
        <time>2020-09-03T09:31:45Z</time>
      </trkpt>
      <trkpt lat="42.98263" lon="-0.24011">
        <ele>1523.2</ele>
        <time>2020-09-03T09:31:46Z</time>
      </trkpt>
      <trkpt lat="42.98265" lon="-0.24015">
        <ele>1523.2</ele>
        <time>2020-09-03T09:31:47Z</time>
      </trkpt>
      <trkpt lat="42.98267" lon="-0.24019">
        <ele>1523.4</ele>
        <time>2020-09-03T09:31:48Z</time>
      </trkpt>
      <trkpt lat="42.98268" lon="-0.24024">
        <ele>1523.6</ele>
        <time>2020-09-03T09:31:49Z</time>
      </trkpt>
      <trkpt lat="42.98269" lon="-0.24028">
        <ele>1524</ele>
        <time>2020-09-03T09:31:50Z</time>
      </trkpt>
      <trkpt lat="42.98269" lon="-0.24034">
        <ele>1524.2</ele>
        <time>2020-09-03T09:31:51Z</time>
      </trkpt>
      <trkpt lat="42.98268" lon="-0.24038">
        <ele>1524.6</ele>
        <time>2020-09-03T09:31:52Z</time>
      </trkpt>
      <trkpt lat="42.98268" lon="-0.24043">
        <ele>1525</ele>
        <time>2020-09-03T09:31:53Z</time>
      </trkpt>
      <trkpt lat="42.98268" lon="-0.24048">
        <ele>1525.2</ele>
        <time>2020-09-03T09:31:54Z</time>
      </trkpt>
      <trkpt lat="42.98268" lon="-0.24053">
        <ele>1525.6</ele>
        <time>2020-09-03T09:31:55Z</time>
      </trkpt>
      <trkpt lat="42.98269" lon="-0.24058">
        <ele>1525.8</ele>
        <time>2020-09-03T09:31:56Z</time>
      </trkpt>
      <trkpt lat="42.9827" lon="-0.24062">
        <ele>1526</ele>
        <time>2020-09-03T09:31:57Z</time>
      </trkpt>
      <trkpt lat="42.9827" lon="-0.24066">
        <ele>1526.2</ele>
        <time>2020-09-03T09:31:58Z</time>
      </trkpt>
      <trkpt lat="42.98271" lon="-0.2407">
        <ele>1526.4</ele>
        <time>2020-09-03T09:31:59Z</time>
      </trkpt>
      <trkpt lat="42.98272" lon="-0.24074">
        <ele>1526.6</ele>
        <time>2020-09-03T09:32:00Z</time>
      </trkpt>
      <trkpt lat="42.98273" lon="-0.24077">
        <ele>1527</ele>
        <time>2020-09-03T09:32:01Z</time>
      </trkpt>
      <trkpt lat="42.98274" lon="-0.24081">
        <ele>1527.2</ele>
        <time>2020-09-03T09:32:02Z</time>
      </trkpt>
      <trkpt lat="42.98275" lon="-0.24085">
        <ele>1527.4</ele>
        <time>2020-09-03T09:32:03Z</time>
      </trkpt>
      <trkpt lat="42.98277" lon="-0.24089">
        <ele>1527.6</ele>
        <time>2020-09-03T09:32:04Z</time>
      </trkpt>
      <trkpt lat="42.98278" lon="-0.24092">
        <ele>1528</ele>
        <time>2020-09-03T09:32:05Z</time>
      </trkpt>
      <trkpt lat="42.98279" lon="-0.24095">
        <ele>1528.4</ele>
        <time>2020-09-03T09:32:06Z</time>
      </trkpt>
      <trkpt lat="42.98279" lon="-0.24098">
        <ele>1528.6</ele>
        <time>2020-09-03T09:32:07Z</time>
      </trkpt>
      <trkpt lat="42.98279" lon="-0.241">
        <ele>1528.8</ele>
        <time>2020-09-03T09:32:08Z</time>
      </trkpt>
      <trkpt lat="42.9828" lon="-0.24102">
        <ele>1528.8</ele>
        <time>2020-09-03T09:32:09Z</time>
      </trkpt>
      <trkpt lat="42.9828" lon="-0.24103">
        <ele>1528.8</ele>
        <time>2020-09-03T09:32:10Z</time>
      </trkpt>
      <trkpt lat="42.98279" lon="-0.24103">
        <ele>1529.2</ele>
        <time>2020-09-03T09:32:11Z</time>
      </trkpt>
      <trkpt lat="42.98279" lon="-0.24103">
        <ele>1529.2</ele>
        <time>2020-09-03T09:32:12Z</time>
      </trkpt>
      <trkpt lat="42.98279" lon="-0.24103">
        <ele>1528.6</ele>
        <time>2020-09-03T09:32:27Z</time>
      </trkpt>
      <trkpt lat="42.98279" lon="-0.24103">
        <ele>1528</ele>
        <time>2020-09-03T09:34:25Z</time>
      </trkpt>
      <trkpt lat="42.98279" lon="-0.24103">
        <ele>1528.2</ele>
        <time>2020-09-03T09:34:33Z</time>
      </trkpt>
      <trkpt lat="42.98279" lon="-0.24112">
        <ele>1528.2</ele>
        <time>2020-09-03T09:34:36Z</time>
      </trkpt>
      <trkpt lat="42.98273" lon="-0.24133">
        <ele>1528.6</ele>
        <time>2020-09-03T09:34:40Z</time>
      </trkpt>
      <trkpt lat="42.98271" lon="-0.2414">
        <ele>1528.6</ele>
        <time>2020-09-03T09:34:41Z</time>
      </trkpt>
      <trkpt lat="42.98265" lon="-0.24155">
        <ele>1528.4</ele>
        <time>2020-09-03T09:34:44Z</time>
      </trkpt>
      <trkpt lat="42.98263" lon="-0.24161">
        <ele>1528.4</ele>
        <time>2020-09-03T09:34:45Z</time>
      </trkpt>
      <trkpt lat="42.98261" lon="-0.24165">
        <ele>1528.2</ele>
        <time>2020-09-03T09:34:46Z</time>
      </trkpt>
      <trkpt lat="42.98259" lon="-0.2417">
        <ele>1527.8</ele>
        <time>2020-09-03T09:34:47Z</time>
      </trkpt>
      <trkpt lat="42.98256" lon="-0.24174">
        <ele>1527.2</ele>
        <time>2020-09-03T09:34:48Z</time>
      </trkpt>
      <trkpt lat="42.9825" lon="-0.24185">
        <ele>1526.2</ele>
        <time>2020-09-03T09:34:50Z</time>
      </trkpt>
      <trkpt lat="42.98244" lon="-0.24199">
        <ele>1525.2</ele>
        <time>2020-09-03T09:34:52Z</time>
      </trkpt>
      <trkpt lat="42.98241" lon="-0.24206">
        <ele>1525.2</ele>
        <time>2020-09-03T09:34:53Z</time>
      </trkpt>
      <trkpt lat="42.98239" lon="-0.24214">
        <ele>1524.8</ele>
        <time>2020-09-03T09:34:54Z</time>
      </trkpt>
      <trkpt lat="42.98236" lon="-0.24231">
        <ele>1524.4</ele>
        <time>2020-09-03T09:34:56Z</time>
      </trkpt>
      <trkpt lat="42.98229" lon="-0.2426">
        <ele>1523.4</ele>
        <time>2020-09-03T09:34:59Z</time>
      </trkpt>
      <trkpt lat="42.98227" lon="-0.2427">
        <ele>1522.6</ele>
        <time>2020-09-03T09:35:00Z</time>
      </trkpt>
      <trkpt lat="42.98223" lon="-0.2428">
        <ele>1522.2</ele>
        <time>2020-09-03T09:35:01Z</time>
      </trkpt>
      <trkpt lat="42.98218" lon="-0.24289">
        <ele>1521.8</ele>
        <time>2020-09-03T09:35:02Z</time>
      </trkpt>
      <trkpt lat="42.98207" lon="-0.24305">
        <ele>1521.4</ele>
        <time>2020-09-03T09:35:04Z</time>
      </trkpt>
      <trkpt lat="42.98194" lon="-0.24318">
        <ele>1520.8</ele>
        <time>2020-09-03T09:35:06Z</time>
      </trkpt>
      <trkpt lat="42.98189" lon="-0.24324">
        <ele>1519.8</ele>
        <time>2020-09-03T09:35:07Z</time>
      </trkpt>
      <trkpt lat="42.98183" lon="-0.24329">
        <ele>1519.6</ele>
        <time>2020-09-03T09:35:08Z</time>
      </trkpt>
      <trkpt lat="42.98178" lon="-0.24335">
        <ele>1518.6</ele>
        <time>2020-09-03T09:35:09Z</time>
      </trkpt>
      <trkpt lat="42.98173" lon="-0.2434">
        <ele>1518.4</ele>
        <time>2020-09-03T09:35:10Z</time>
      </trkpt>
      <trkpt lat="42.98167" lon="-0.24346">
        <ele>1518</ele>
        <time>2020-09-03T09:35:11Z</time>
      </trkpt>
      <trkpt lat="42.98162" lon="-0.24352">
        <ele>1517.8</ele>
        <time>2020-09-03T09:35:12Z</time>
      </trkpt>
      <trkpt lat="42.98157" lon="-0.2436">
        <ele>1517</ele>
        <time>2020-09-03T09:35:13Z</time>
      </trkpt>
      <trkpt lat="42.98152" lon="-0.24368">
        <ele>1516.8</ele>
        <time>2020-09-03T09:35:14Z</time>
      </trkpt>
      <trkpt lat="42.98146" lon="-0.24387">
        <ele>1516</ele>
        <time>2020-09-03T09:35:16Z</time>
      </trkpt>
      <trkpt lat="42.98144" lon="-0.24396">
        <ele>1515.6</ele>
        <time>2020-09-03T09:35:17Z</time>
      </trkpt>
      <trkpt lat="42.98143" lon="-0.24405">
        <ele>1515.4</ele>
        <time>2020-09-03T09:35:18Z</time>
      </trkpt>
      <trkpt lat="42.98142" lon="-0.24413">
        <ele>1515</ele>
        <time>2020-09-03T09:35:19Z</time>
      </trkpt>
      <trkpt lat="42.98139" lon="-0.2442">
        <ele>1514.6</ele>
        <time>2020-09-03T09:35:20Z</time>
      </trkpt>
      <trkpt lat="42.98136" lon="-0.24426">
        <ele>1514.6</ele>
        <time>2020-09-03T09:35:21Z</time>
      </trkpt>
      <trkpt lat="42.98131" lon="-0.24431">
        <ele>1514</ele>
        <time>2020-09-03T09:35:22Z</time>
      </trkpt>
      <trkpt lat="42.98125" lon="-0.24436">
        <ele>1513.4</ele>
        <time>2020-09-03T09:35:23Z</time>
      </trkpt>
      <trkpt lat="42.98118" lon="-0.2444">
        <ele>1512.4</ele>
        <time>2020-09-03T09:35:24Z</time>
      </trkpt>
      <trkpt lat="42.98111" lon="-0.24444">
        <ele>1512</ele>
        <time>2020-09-03T09:35:25Z</time>
      </trkpt>
      <trkpt lat="42.98103" lon="-0.24448">
        <ele>1511.6</ele>
        <time>2020-09-03T09:35:26Z</time>
      </trkpt>
      <trkpt lat="42.98095" lon="-0.24452">
        <ele>1511.6</ele>
        <time>2020-09-03T09:35:27Z</time>
      </trkpt>
      <trkpt lat="42.98087" lon="-0.24457">
        <ele>1511.2</ele>
        <time>2020-09-03T09:35:28Z</time>
      </trkpt>
      <trkpt lat="42.98078" lon="-0.24462">
        <ele>1510.8</ele>
        <time>2020-09-03T09:35:29Z</time>
      </trkpt>
      <trkpt lat="42.98071" lon="-0.24468">
        <ele>1509.4</ele>
        <time>2020-09-03T09:35:30Z</time>
      </trkpt>
      <trkpt lat="42.98059" lon="-0.24484">
        <ele>1507.6</ele>
        <time>2020-09-03T09:35:32Z</time>
      </trkpt>
      <trkpt lat="42.98057" lon="-0.24493">
        <ele>1507.2</ele>
        <time>2020-09-03T09:35:33Z</time>
      </trkpt>
      <trkpt lat="42.98056" lon="-0.24504">
        <ele>1506.6</ele>
        <time>2020-09-03T09:35:34Z</time>
      </trkpt>
      <trkpt lat="42.98057" lon="-0.24514">
        <ele>1506.2</ele>
        <time>2020-09-03T09:35:35Z</time>
      </trkpt>
      <trkpt lat="42.9806" lon="-0.24524">
        <ele>1506</ele>
        <time>2020-09-03T09:35:36Z</time>
      </trkpt>
      <trkpt lat="42.98062" lon="-0.24533">
        <ele>1505.6</ele>
        <time>2020-09-03T09:35:37Z</time>
      </trkpt>
      <trkpt lat="42.98063" lon="-0.24542">
        <ele>1505.2</ele>
        <time>2020-09-03T09:35:38Z</time>
      </trkpt>
      <trkpt lat="42.98063" lon="-0.24551">
        <ele>1504.2</ele>
        <time>2020-09-03T09:35:39Z</time>
      </trkpt>
      <trkpt lat="42.98061" lon="-0.2456">
        <ele>1503.8</ele>
        <time>2020-09-03T09:35:40Z</time>
      </trkpt>
      <trkpt lat="42.98058" lon="-0.24567">
        <ele>1503</ele>
        <time>2020-09-03T09:35:41Z</time>
      </trkpt>
      <trkpt lat="42.98054" lon="-0.24579">
        <ele>1502.6</ele>
        <time>2020-09-03T09:35:42Z</time>
      </trkpt>
      <trkpt lat="42.98051" lon="-0.2459">
        <ele>1501.8</ele>
        <time>2020-09-03T09:35:43Z</time>
      </trkpt>
      <trkpt lat="42.98048" lon="-0.246">
        <ele>1501.6</ele>
        <time>2020-09-03T09:35:44Z</time>
      </trkpt>
      <trkpt lat="42.98047" lon="-0.24609">
        <ele>1500.6</ele>
        <time>2020-09-03T09:35:45Z</time>
      </trkpt>
      <trkpt lat="42.98046" lon="-0.24621">
        <ele>1500.2</ele>
        <time>2020-09-03T09:35:46Z</time>
      </trkpt>
      <trkpt lat="42.98046" lon="-0.24632">
        <ele>1499.8</ele>
        <time>2020-09-03T09:35:47Z</time>
      </trkpt>
      <trkpt lat="42.98046" lon="-0.24643">
        <ele>1499.2</ele>
        <time>2020-09-03T09:35:48Z</time>
      </trkpt>
      <trkpt lat="42.98049" lon="-0.24666">
        <ele>1498.2</ele>
        <time>2020-09-03T09:35:50Z</time>
      </trkpt>
      <trkpt lat="42.98052" lon="-0.24695">
        <ele>1497.2</ele>
        <time>2020-09-03T09:35:53Z</time>
      </trkpt>
      <trkpt lat="42.98054" lon="-0.24701">
        <ele>1496.4</ele>
        <time>2020-09-03T09:35:54Z</time>
      </trkpt>
      <trkpt lat="42.98055" lon="-0.24704">
        <ele>1496</ele>
        <time>2020-09-03T09:35:55Z</time>
      </trkpt>
      <trkpt lat="42.98058" lon="-0.24705">
        <ele>1495.4</ele>
        <time>2020-09-03T09:35:56Z</time>
      </trkpt>
      <trkpt lat="42.9806" lon="-0.24702">
        <ele>1494.8</ele>
        <time>2020-09-03T09:35:57Z</time>
      </trkpt>
      <trkpt lat="42.98061" lon="-0.24697">
        <ele>1493.8</ele>
        <time>2020-09-03T09:35:58Z</time>
      </trkpt>
      <trkpt lat="42.98061" lon="-0.24691">
        <ele>1493.4</ele>
        <time>2020-09-03T09:35:59Z</time>
      </trkpt>
      <trkpt lat="42.98062" lon="-0.24675">
        <ele>1491.4</ele>
        <time>2020-09-03T09:36:01Z</time>
      </trkpt>
      <trkpt lat="42.98063" lon="-0.24665">
        <ele>1490.8</ele>
        <time>2020-09-03T09:36:02Z</time>
      </trkpt>
      <trkpt lat="42.98064" lon="-0.24654">
        <ele>1490</ele>
        <time>2020-09-03T09:36:03Z</time>
      </trkpt>
      <trkpt lat="42.98066" lon="-0.24631">
        <ele>1489.2</ele>
        <time>2020-09-03T09:36:05Z</time>
      </trkpt>
      <trkpt lat="42.9807" lon="-0.24619">
        <ele>1488.8</ele>
        <time>2020-09-03T09:36:06Z</time>
      </trkpt>
      <trkpt lat="42.98074" lon="-0.24608">
        <ele>1488.2</ele>
        <time>2020-09-03T09:36:07Z</time>
      </trkpt>
      <trkpt lat="42.98079" lon="-0.24598">
        <ele>1487.8</ele>
        <time>2020-09-03T09:36:08Z</time>
      </trkpt>
      <trkpt lat="42.98086" lon="-0.24589">
        <ele>1487</ele>
        <time>2020-09-03T09:36:09Z</time>
      </trkpt>
      <trkpt lat="42.98093" lon="-0.2458">
        <ele>1486.6</ele>
        <time>2020-09-03T09:36:10Z</time>
      </trkpt>
      <trkpt lat="42.98099" lon="-0.2457">
        <ele>1486</ele>
        <time>2020-09-03T09:36:11Z</time>
      </trkpt>
      <trkpt lat="42.98111" lon="-0.24552">
        <ele>1484.8</ele>
        <time>2020-09-03T09:36:13Z</time>
      </trkpt>
      <trkpt lat="42.98118" lon="-0.24542">
        <ele>1484.6</ele>
        <time>2020-09-03T09:36:14Z</time>
      </trkpt>
      <trkpt lat="42.98125" lon="-0.24533">
        <ele>1484</ele>
        <time>2020-09-03T09:36:15Z</time>
      </trkpt>
      <trkpt lat="42.98132" lon="-0.24524">
        <ele>1483.2</ele>
        <time>2020-09-03T09:36:16Z</time>
      </trkpt>
      <trkpt lat="42.9814" lon="-0.24516">
        <ele>1483</ele>
        <time>2020-09-03T09:36:17Z</time>
      </trkpt>
      <trkpt lat="42.98158" lon="-0.24503">
        <ele>1482.6</ele>
        <time>2020-09-03T09:36:19Z</time>
      </trkpt>
      <trkpt lat="42.98166" lon="-0.24498">
        <ele>1481.6</ele>
        <time>2020-09-03T09:36:20Z</time>
      </trkpt>
      <trkpt lat="42.98183" lon="-0.24488">
        <ele>1479.8</ele>
        <time>2020-09-03T09:36:22Z</time>
      </trkpt>
      <trkpt lat="42.98201" lon="-0.24478">
        <ele>1478.2</ele>
        <time>2020-09-03T09:36:24Z</time>
      </trkpt>
      <trkpt lat="42.98209" lon="-0.24474">
        <ele>1477.4</ele>
        <time>2020-09-03T09:36:25Z</time>
      </trkpt>
      <trkpt lat="42.98218" lon="-0.24472">
        <ele>1476.4</ele>
        <time>2020-09-03T09:36:26Z</time>
      </trkpt>
      <trkpt lat="42.98228" lon="-0.24471">
        <ele>1476</ele>
        <time>2020-09-03T09:36:27Z</time>
      </trkpt>
      <trkpt lat="42.98236" lon="-0.24471">
        <ele>1475.2</ele>
        <time>2020-09-03T09:36:28Z</time>
      </trkpt>
      <trkpt lat="42.98245" lon="-0.2447">
        <ele>1474.6</ele>
        <time>2020-09-03T09:36:29Z</time>
      </trkpt>
      <trkpt lat="42.98252" lon="-0.24467">
        <ele>1474.4</ele>
        <time>2020-09-03T09:36:30Z</time>
      </trkpt>
      <trkpt lat="42.98259" lon="-0.24461">
        <ele>1473.8</ele>
        <time>2020-09-03T09:36:31Z</time>
      </trkpt>
      <trkpt lat="42.98264" lon="-0.24453">
        <ele>1473.6</ele>
        <time>2020-09-03T09:36:32Z</time>
      </trkpt>
      <trkpt lat="42.9827" lon="-0.24444">
        <ele>1473</ele>
        <time>2020-09-03T09:36:33Z</time>
      </trkpt>
      <trkpt lat="42.98275" lon="-0.24436">
        <ele>1472.8</ele>
        <time>2020-09-03T09:36:34Z</time>
      </trkpt>
      <trkpt lat="42.98279" lon="-0.24429">
        <ele>1472.4</ele>
        <time>2020-09-03T09:36:35Z</time>
      </trkpt>
      <trkpt lat="42.98284" lon="-0.24423">
        <ele>1471.8</ele>
        <time>2020-09-03T09:36:36Z</time>
      </trkpt>
      <trkpt lat="42.98289" lon="-0.24419">
        <ele>1471.2</ele>
        <time>2020-09-03T09:36:37Z</time>
      </trkpt>
      <trkpt lat="42.98294" lon="-0.24418">
        <ele>1470.8</ele>
        <time>2020-09-03T09:36:38Z</time>
      </trkpt>
      <trkpt lat="42.98299" lon="-0.2442">
        <ele>1470.4</ele>
        <time>2020-09-03T09:36:39Z</time>
      </trkpt>
      <trkpt lat="42.98304" lon="-0.24425">
        <ele>1470.2</ele>
        <time>2020-09-03T09:36:40Z</time>
      </trkpt>
      <trkpt lat="42.98308" lon="-0.2443">
        <ele>1469.8</ele>
        <time>2020-09-03T09:36:41Z</time>
      </trkpt>
      <trkpt lat="42.98317" lon="-0.24441">
        <ele>1468.2</ele>
        <time>2020-09-03T09:36:43Z</time>
      </trkpt>
      <trkpt lat="42.98322" lon="-0.24444">
        <ele>1467.8</ele>
        <time>2020-09-03T09:36:44Z</time>
      </trkpt>
      <trkpt lat="42.98328" lon="-0.24447">
        <ele>1467.6</ele>
        <time>2020-09-03T09:36:45Z</time>
      </trkpt>
      <trkpt lat="42.98342" lon="-0.24448">
        <ele>1467.2</ele>
        <time>2020-09-03T09:36:47Z</time>
      </trkpt>
      <trkpt lat="42.98349" lon="-0.24447">
        <ele>1467</ele>
        <time>2020-09-03T09:36:48Z</time>
      </trkpt>
      <trkpt lat="42.98356" lon="-0.24447">
        <ele>1467</ele>
        <time>2020-09-03T09:36:49Z</time>
      </trkpt>
      <trkpt lat="42.98378" lon="-0.24452">
        <ele>1466.4</ele>
        <time>2020-09-03T09:36:52Z</time>
      </trkpt>
      <trkpt lat="42.98399" lon="-0.24459">
        <ele>1466.4</ele>
        <time>2020-09-03T09:36:55Z</time>
      </trkpt>
      <trkpt lat="42.98413" lon="-0.24466">
        <ele>1466</ele>
        <time>2020-09-03T09:36:57Z</time>
      </trkpt>
      <trkpt lat="42.9842" lon="-0.2447">
        <ele>1466</ele>
        <time>2020-09-03T09:36:58Z</time>
      </trkpt>
      <trkpt lat="42.98434" lon="-0.2448">
        <ele>1466</ele>
        <time>2020-09-03T09:37:00Z</time>
      </trkpt>
      <trkpt lat="42.98453" lon="-0.24498">
        <ele>1464.8</ele>
        <time>2020-09-03T09:37:03Z</time>
      </trkpt>
      <trkpt lat="42.98484" lon="-0.24529">
        <ele>1463.6</ele>
        <time>2020-09-03T09:37:08Z</time>
      </trkpt>
      <trkpt lat="42.98501" lon="-0.2455">
        <ele>1463</ele>
        <time>2020-09-03T09:37:11Z</time>
      </trkpt>
      <trkpt lat="42.98505" lon="-0.24557">
        <ele>1463</ele>
        <time>2020-09-03T09:37:12Z</time>
      </trkpt>
      <trkpt lat="42.9851" lon="-0.24565">
        <ele>1462.4</ele>
        <time>2020-09-03T09:37:13Z</time>
      </trkpt>
      <trkpt lat="42.98527" lon="-0.2459">
        <ele>1460.8</ele>
        <time>2020-09-03T09:37:16Z</time>
      </trkpt>
      <trkpt lat="42.98535" lon="-0.24597">
        <ele>1460.4</ele>
        <time>2020-09-03T09:37:17Z</time>
      </trkpt>
      <trkpt lat="42.98543" lon="-0.24602">
        <ele>1459.6</ele>
        <time>2020-09-03T09:37:18Z</time>
      </trkpt>
      <trkpt lat="42.98562" lon="-0.24606">
        <ele>1457.6</ele>
        <time>2020-09-03T09:37:20Z</time>
      </trkpt>
      <trkpt lat="42.98571" lon="-0.24605">
        <ele>1457.2</ele>
        <time>2020-09-03T09:37:21Z</time>
      </trkpt>
      <trkpt lat="42.9858" lon="-0.24605">
        <ele>1456.6</ele>
        <time>2020-09-03T09:37:22Z</time>
      </trkpt>
      <trkpt lat="42.98589" lon="-0.24603">
        <ele>1456.2</ele>
        <time>2020-09-03T09:37:23Z</time>
      </trkpt>
      <trkpt lat="42.98599" lon="-0.24601">
        <ele>1455.6</ele>
        <time>2020-09-03T09:37:24Z</time>
      </trkpt>
      <trkpt lat="42.98608" lon="-0.24598">
        <ele>1455</ele>
        <time>2020-09-03T09:37:25Z</time>
      </trkpt>
      <trkpt lat="42.98623" lon="-0.24587">
        <ele>1454.2</ele>
        <time>2020-09-03T09:37:27Z</time>
      </trkpt>
      <trkpt lat="42.98629" lon="-0.24579">
        <ele>1454</ele>
        <time>2020-09-03T09:37:28Z</time>
      </trkpt>
      <trkpt lat="42.98633" lon="-0.24569">
        <ele>1453.4</ele>
        <time>2020-09-03T09:37:29Z</time>
      </trkpt>
      <trkpt lat="42.98635" lon="-0.24559">
        <ele>1453.2</ele>
        <time>2020-09-03T09:37:30Z</time>
      </trkpt>
      <trkpt lat="42.98636" lon="-0.24548">
        <ele>1452</ele>
        <time>2020-09-03T09:37:31Z</time>
      </trkpt>
      <trkpt lat="42.98636" lon="-0.24537">
        <ele>1451.6</ele>
        <time>2020-09-03T09:37:32Z</time>
      </trkpt>
      <trkpt lat="42.98635" lon="-0.24527">
        <ele>1450.4</ele>
        <time>2020-09-03T09:37:33Z</time>
      </trkpt>
      <trkpt lat="42.98633" lon="-0.24516">
        <ele>1450</ele>
        <time>2020-09-03T09:37:34Z</time>
      </trkpt>
      <trkpt lat="42.98631" lon="-0.24505">
        <ele>1449.4</ele>
        <time>2020-09-03T09:37:35Z</time>
      </trkpt>
      <trkpt lat="42.98629" lon="-0.24494">
        <ele>1449</ele>
        <time>2020-09-03T09:37:36Z</time>
      </trkpt>
      <trkpt lat="42.98628" lon="-0.24483">
        <ele>1448.4</ele>
        <time>2020-09-03T09:37:37Z</time>
      </trkpt>
      <trkpt lat="42.98627" lon="-0.24472">
        <ele>1447.8</ele>
        <time>2020-09-03T09:37:38Z</time>
      </trkpt>
      <trkpt lat="42.98625" lon="-0.24451">
        <ele>1446.4</ele>
        <time>2020-09-03T09:37:40Z</time>
      </trkpt>
      <trkpt lat="42.98624" lon="-0.24429">
        <ele>1445</ele>
        <time>2020-09-03T09:37:42Z</time>
      </trkpt>
      <trkpt lat="42.98622" lon="-0.24418">
        <ele>1444.8</ele>
        <time>2020-09-03T09:37:43Z</time>
      </trkpt>
      <trkpt lat="42.98621" lon="-0.24397">
        <ele>1444.4</ele>
        <time>2020-09-03T09:37:45Z</time>
      </trkpt>
      <trkpt lat="42.98621" lon="-0.24387">
        <ele>1444.2</ele>
        <time>2020-09-03T09:37:46Z</time>
      </trkpt>
      <trkpt lat="42.9862" lon="-0.24378">
        <ele>1444.2</ele>
        <time>2020-09-03T09:37:47Z</time>
      </trkpt>
      <trkpt lat="42.9862" lon="-0.2437">
        <ele>1444</ele>
        <time>2020-09-03T09:37:48Z</time>
      </trkpt>
      <trkpt lat="42.98621" lon="-0.24362">
        <ele>1443.8</ele>
        <time>2020-09-03T09:37:49Z</time>
      </trkpt>
      <trkpt lat="42.98621" lon="-0.24355">
        <ele>1443.6</ele>
        <time>2020-09-03T09:37:50Z</time>
      </trkpt>
      <trkpt lat="42.98622" lon="-0.24347">
        <ele>1443.6</ele>
        <time>2020-09-03T09:37:51Z</time>
      </trkpt>
      <trkpt lat="42.98622" lon="-0.2434">
        <ele>1443.4</ele>
        <time>2020-09-03T09:37:52Z</time>
      </trkpt>
      <trkpt lat="42.98622" lon="-0.24332">
        <ele>1443.4</ele>
        <time>2020-09-03T09:37:53Z</time>
      </trkpt>
      <trkpt lat="42.98622" lon="-0.24325">
        <ele>1443.4</ele>
        <time>2020-09-03T09:37:54Z</time>
      </trkpt>
      <trkpt lat="42.98622" lon="-0.24319">
        <ele>1443.4</ele>
        <time>2020-09-03T09:37:55Z</time>
      </trkpt>
      <trkpt lat="42.98623" lon="-0.24313">
        <ele>1443.4</ele>
        <time>2020-09-03T09:37:56Z</time>
      </trkpt>
      <trkpt lat="42.98623" lon="-0.24308">
        <ele>1443.6</ele>
        <time>2020-09-03T09:37:57Z</time>
      </trkpt>
      <trkpt lat="42.98624" lon="-0.24303">
        <ele>1443.8</ele>
        <time>2020-09-03T09:37:58Z</time>
      </trkpt>
      <trkpt lat="42.98624" lon="-0.24298">
        <ele>1443.8</ele>
        <time>2020-09-03T09:37:59Z</time>
      </trkpt>
      <trkpt lat="42.98624" lon="-0.24294">
        <ele>1444</ele>
        <time>2020-09-03T09:38:00Z</time>
      </trkpt>
      <trkpt lat="42.98625" lon="-0.2429">
        <ele>1444</ele>
        <time>2020-09-03T09:38:01Z</time>
      </trkpt>
      <trkpt lat="42.98625" lon="-0.24285">
        <ele>1444.2</ele>
        <time>2020-09-03T09:38:02Z</time>
      </trkpt>
      <trkpt lat="42.98626" lon="-0.24281">
        <ele>1444.4</ele>
        <time>2020-09-03T09:38:03Z</time>
      </trkpt>
      <trkpt lat="42.98625" lon="-0.24273">
        <ele>1445</ele>
        <time>2020-09-03T09:38:05Z</time>
      </trkpt>
      <trkpt lat="42.98625" lon="-0.24269">
        <ele>1445.2</ele>
        <time>2020-09-03T09:38:06Z</time>
      </trkpt>
      <trkpt lat="42.98625" lon="-0.24265">
        <ele>1445.6</ele>
        <time>2020-09-03T09:38:07Z</time>
      </trkpt>
      <trkpt lat="42.98625" lon="-0.24261">
        <ele>1445.8</ele>
        <time>2020-09-03T09:38:08Z</time>
      </trkpt>
      <trkpt lat="42.98625" lon="-0.24257">
        <ele>1446.2</ele>
        <time>2020-09-03T09:38:09Z</time>
      </trkpt>
      <trkpt lat="42.98625" lon="-0.24253">
        <ele>1446.4</ele>
        <time>2020-09-03T09:38:10Z</time>
      </trkpt>
      <trkpt lat="42.98625" lon="-0.2425">
        <ele>1446.6</ele>
        <time>2020-09-03T09:38:11Z</time>
      </trkpt>
      <trkpt lat="42.98625" lon="-0.24246">
        <ele>1447</ele>
        <time>2020-09-03T09:38:12Z</time>
      </trkpt>
      <trkpt lat="42.98624" lon="-0.24242">
        <ele>1447.2</ele>
        <time>2020-09-03T09:38:13Z</time>
      </trkpt>
      <trkpt lat="42.98625" lon="-0.24239">
        <ele>1447.4</ele>
        <time>2020-09-03T09:38:14Z</time>
      </trkpt>
      <trkpt lat="42.98625" lon="-0.24235">
        <ele>1447.6</ele>
        <time>2020-09-03T09:38:15Z</time>
      </trkpt>
      <trkpt lat="42.98625" lon="-0.24231">
        <ele>1448.2</ele>
        <time>2020-09-03T09:38:16Z</time>
      </trkpt>
      <trkpt lat="42.98624" lon="-0.24227">
        <ele>1448.4</ele>
        <time>2020-09-03T09:38:17Z</time>
      </trkpt>
      <trkpt lat="42.98623" lon="-0.24224">
        <ele>1448.6</ele>
        <time>2020-09-03T09:38:18Z</time>
      </trkpt>
      <trkpt lat="42.98623" lon="-0.2422">
        <ele>1448.8</ele>
        <time>2020-09-03T09:38:19Z</time>
      </trkpt>
      <trkpt lat="42.98623" lon="-0.24216">
        <ele>1449</ele>
        <time>2020-09-03T09:38:20Z</time>
      </trkpt>
      <trkpt lat="42.98623" lon="-0.24212">
        <ele>1449</ele>
        <time>2020-09-03T09:38:21Z</time>
      </trkpt>
      <trkpt lat="42.98624" lon="-0.24207">
        <ele>1449</ele>
        <time>2020-09-03T09:38:22Z</time>
      </trkpt>
      <trkpt lat="42.98625" lon="-0.24204">
        <ele>1449.4</ele>
        <time>2020-09-03T09:38:23Z</time>
      </trkpt>
      <trkpt lat="42.98626" lon="-0.242">
        <ele>1449.6</ele>
        <time>2020-09-03T09:38:24Z</time>
      </trkpt>
      <trkpt lat="42.98627" lon="-0.24196">
        <ele>1450</ele>
        <time>2020-09-03T09:38:25Z</time>
      </trkpt>
      <trkpt lat="42.98627" lon="-0.24192">
        <ele>1450.2</ele>
        <time>2020-09-03T09:38:26Z</time>
      </trkpt>
      <trkpt lat="42.98627" lon="-0.24188">
        <ele>1450.4</ele>
        <time>2020-09-03T09:38:27Z</time>
      </trkpt>
      <trkpt lat="42.98627" lon="-0.24185">
        <ele>1450.6</ele>
        <time>2020-09-03T09:38:28Z</time>
      </trkpt>
      <trkpt lat="42.98627" lon="-0.24182">
        <ele>1450.8</ele>
        <time>2020-09-03T09:38:29Z</time>
      </trkpt>
      <trkpt lat="42.98628" lon="-0.24178">
        <ele>1451</ele>
        <time>2020-09-03T09:38:30Z</time>
      </trkpt>
      <trkpt lat="42.98629" lon="-0.24174">
        <ele>1451.2</ele>
        <time>2020-09-03T09:38:31Z</time>
      </trkpt>
      <trkpt lat="42.98629" lon="-0.2417">
        <ele>1451.4</ele>
        <time>2020-09-03T09:38:32Z</time>
      </trkpt>
      <trkpt lat="42.9863" lon="-0.24166">
        <ele>1451.8</ele>
        <time>2020-09-03T09:38:33Z</time>
      </trkpt>
      <trkpt lat="42.9863" lon="-0.24162">
        <ele>1451.8</ele>
        <time>2020-09-03T09:38:34Z</time>
      </trkpt>
      <trkpt lat="42.9863" lon="-0.24159">
        <ele>1452</ele>
        <time>2020-09-03T09:38:35Z</time>
      </trkpt>
      <trkpt lat="42.9863" lon="-0.24156">
        <ele>1452.4</ele>
        <time>2020-09-03T09:38:36Z</time>
      </trkpt>
      <trkpt lat="42.98631" lon="-0.24154">
        <ele>1452.6</ele>
        <time>2020-09-03T09:38:37Z</time>
      </trkpt>
      <trkpt lat="42.9863" lon="-0.24151">
        <ele>1452.8</ele>
        <time>2020-09-03T09:38:38Z</time>
      </trkpt>
      <trkpt lat="42.9863" lon="-0.24148">
        <ele>1453.2</ele>
        <time>2020-09-03T09:38:39Z</time>
      </trkpt>
      <trkpt lat="42.98631" lon="-0.24145">
        <ele>1453.6</ele>
        <time>2020-09-03T09:38:40Z</time>
      </trkpt>
      <trkpt lat="42.98631" lon="-0.24142">
        <ele>1453.6</ele>
        <time>2020-09-03T09:38:41Z</time>
      </trkpt>
      <trkpt lat="42.98631" lon="-0.24139">
        <ele>1453.8</ele>
        <time>2020-09-03T09:38:42Z</time>
      </trkpt>
      <trkpt lat="42.98631" lon="-0.24136">
        <ele>1453.8</ele>
        <time>2020-09-03T09:38:43Z</time>
      </trkpt>
      <trkpt lat="42.98632" lon="-0.24133">
        <ele>1454.2</ele>
        <time>2020-09-03T09:38:44Z</time>
      </trkpt>
      <trkpt lat="42.98632" lon="-0.24131">
        <ele>1454.2</ele>
        <time>2020-09-03T09:38:45Z</time>
      </trkpt>
      <trkpt lat="42.98632" lon="-0.24128">
        <ele>1454.8</ele>
        <time>2020-09-03T09:38:46Z</time>
      </trkpt>
      <trkpt lat="42.98633" lon="-0.24124">
        <ele>1454.8</ele>
        <time>2020-09-03T09:38:47Z</time>
      </trkpt>
      <trkpt lat="42.98633" lon="-0.24121">
        <ele>1455.2</ele>
        <time>2020-09-03T09:38:48Z</time>
      </trkpt>
      <trkpt lat="42.98633" lon="-0.24118">
        <ele>1455.2</ele>
        <time>2020-09-03T09:38:49Z</time>
      </trkpt>
      <trkpt lat="42.98634" lon="-0.24115">
        <ele>1455.6</ele>
        <time>2020-09-03T09:38:50Z</time>
      </trkpt>
      <trkpt lat="42.98634" lon="-0.24112">
        <ele>1456</ele>
        <time>2020-09-03T09:38:51Z</time>
      </trkpt>
      <trkpt lat="42.98634" lon="-0.24109">
        <ele>1456.2</ele>
        <time>2020-09-03T09:38:52Z</time>
      </trkpt>
      <trkpt lat="42.98634" lon="-0.24105">
        <ele>1456.4</ele>
        <time>2020-09-03T09:38:53Z</time>
      </trkpt>
      <trkpt lat="42.98635" lon="-0.24102">
        <ele>1456.4</ele>
        <time>2020-09-03T09:38:54Z</time>
      </trkpt>
      <trkpt lat="42.98636" lon="-0.24098">
        <ele>1456.6</ele>
        <time>2020-09-03T09:38:55Z</time>
      </trkpt>
      <trkpt lat="42.98637" lon="-0.24096">
        <ele>1456.4</ele>
        <time>2020-09-03T09:38:56Z</time>
      </trkpt>
      <trkpt lat="42.98638" lon="-0.24092">
        <ele>1456.6</ele>
        <time>2020-09-03T09:38:57Z</time>
      </trkpt>
      <trkpt lat="42.98638" lon="-0.24089">
        <ele>1456.6</ele>
        <time>2020-09-03T09:38:58Z</time>
      </trkpt>
      <trkpt lat="42.98638" lon="-0.24086">
        <ele>1457</ele>
        <time>2020-09-03T09:38:59Z</time>
      </trkpt>
      <trkpt lat="42.98639" lon="-0.24083">
        <ele>1457.2</ele>
        <time>2020-09-03T09:39:00Z</time>
      </trkpt>
      <trkpt lat="42.9864" lon="-0.2408">
        <ele>1457.4</ele>
        <time>2020-09-03T09:39:01Z</time>
      </trkpt>
      <trkpt lat="42.98641" lon="-0.24076">
        <ele>1457.6</ele>
        <time>2020-09-03T09:39:02Z</time>
      </trkpt>
      <trkpt lat="42.98642" lon="-0.24073">
        <ele>1457.8</ele>
        <time>2020-09-03T09:39:03Z</time>
      </trkpt>
      <trkpt lat="42.98642" lon="-0.24073">
        <ele>1457.8</ele>
        <time>2020-09-03T09:39:04Z</time>
      </trkpt>
      <trkpt lat="42.98644" lon="-0.24067">
        <ele>1458</ele>
        <time>2020-09-03T09:39:05Z</time>
      </trkpt>
      <trkpt lat="42.98644" lon="-0.24063">
        <ele>1458.2</ele>
        <time>2020-09-03T09:39:06Z</time>
      </trkpt>
      <trkpt lat="42.98645" lon="-0.2406">
        <ele>1458.4</ele>
        <time>2020-09-03T09:39:07Z</time>
      </trkpt>
      <trkpt lat="42.98646" lon="-0.24057">
        <ele>1458.6</ele>
        <time>2020-09-03T09:39:08Z</time>
      </trkpt>
      <trkpt lat="42.98647" lon="-0.24053">
        <ele>1458.8</ele>
        <time>2020-09-03T09:39:09Z</time>
      </trkpt>
      <trkpt lat="42.98647" lon="-0.2405">
        <ele>1459</ele>
        <time>2020-09-03T09:39:10Z</time>
      </trkpt>
      <trkpt lat="42.98648" lon="-0.24047">
        <ele>1459</ele>
        <time>2020-09-03T09:39:11Z</time>
      </trkpt>
      <trkpt lat="42.98649" lon="-0.24044">
        <ele>1459.4</ele>
        <time>2020-09-03T09:39:12Z</time>
      </trkpt>
      <trkpt lat="42.9865" lon="-0.24041">
        <ele>1459.4</ele>
        <time>2020-09-03T09:39:13Z</time>
      </trkpt>
      <trkpt lat="42.98651" lon="-0.24038">
        <ele>1459.6</ele>
        <time>2020-09-03T09:39:14Z</time>
      </trkpt>
      <trkpt lat="42.98652" lon="-0.24035">
        <ele>1459.6</ele>
        <time>2020-09-03T09:39:15Z</time>
      </trkpt>
      <trkpt lat="42.98652" lon="-0.24033">
        <ele>1459.8</ele>
        <time>2020-09-03T09:39:16Z</time>
      </trkpt>
      <trkpt lat="42.98653" lon="-0.2403">
        <ele>1460</ele>
        <time>2020-09-03T09:39:17Z</time>
      </trkpt>
      <trkpt lat="42.98653" lon="-0.24027">
        <ele>1460.2</ele>
        <time>2020-09-03T09:39:18Z</time>
      </trkpt>
      <trkpt lat="42.98653" lon="-0.24023">
        <ele>1460.6</ele>
        <time>2020-09-03T09:39:19Z</time>
      </trkpt>
      <trkpt lat="42.98654" lon="-0.2402">
        <ele>1460.8</ele>
        <time>2020-09-03T09:39:20Z</time>
      </trkpt>
      <trkpt lat="42.98654" lon="-0.24016">
        <ele>1461.2</ele>
        <time>2020-09-03T09:39:21Z</time>
      </trkpt>
      <trkpt lat="42.98654" lon="-0.24013">
        <ele>1461.4</ele>
        <time>2020-09-03T09:39:22Z</time>
      </trkpt>
      <trkpt lat="42.98655" lon="-0.2401">
        <ele>1461.4</ele>
        <time>2020-09-03T09:39:23Z</time>
      </trkpt>
      <trkpt lat="42.98656" lon="-0.24006">
        <ele>1461.6</ele>
        <time>2020-09-03T09:39:24Z</time>
      </trkpt>
      <trkpt lat="42.98656" lon="-0.24003">
        <ele>1461.8</ele>
        <time>2020-09-03T09:39:25Z</time>
      </trkpt>
      <trkpt lat="42.98657" lon="-0.23999">
        <ele>1461.8</ele>
        <time>2020-09-03T09:39:26Z</time>
      </trkpt>
      <trkpt lat="42.98658" lon="-0.23996">
        <ele>1462</ele>
        <time>2020-09-03T09:39:27Z</time>
      </trkpt>
      <trkpt lat="42.98659" lon="-0.23992">
        <ele>1462.2</ele>
        <time>2020-09-03T09:39:28Z</time>
      </trkpt>
      <trkpt lat="42.98659" lon="-0.23989">
        <ele>1462.4</ele>
        <time>2020-09-03T09:39:29Z</time>
      </trkpt>
      <trkpt lat="42.9866" lon="-0.23986">
        <ele>1462.6</ele>
        <time>2020-09-03T09:39:30Z</time>
      </trkpt>
      <trkpt lat="42.98661" lon="-0.23982">
        <ele>1462.4</ele>
        <time>2020-09-03T09:39:31Z</time>
      </trkpt>
      <trkpt lat="42.98661" lon="-0.23979">
        <ele>1462.4</ele>
        <time>2020-09-03T09:39:32Z</time>
      </trkpt>
      <trkpt lat="42.98661" lon="-0.23975">
        <ele>1462.6</ele>
        <time>2020-09-03T09:39:33Z</time>
      </trkpt>
      <trkpt lat="42.98661" lon="-0.23972">
        <ele>1462.8</ele>
        <time>2020-09-03T09:39:34Z</time>
      </trkpt>
      <trkpt lat="42.98661" lon="-0.23969">
        <ele>1462.8</ele>
        <time>2020-09-03T09:39:35Z</time>
      </trkpt>
      <trkpt lat="42.98661" lon="-0.23966">
        <ele>1463</ele>
        <time>2020-09-03T09:39:36Z</time>
      </trkpt>
      <trkpt lat="42.98662" lon="-0.23963">
        <ele>1463</ele>
        <time>2020-09-03T09:39:37Z</time>
      </trkpt>
      <trkpt lat="42.98662" lon="-0.2396">
        <ele>1463.2</ele>
        <time>2020-09-03T09:39:38Z</time>
      </trkpt>
      <trkpt lat="42.98661" lon="-0.23957">
        <ele>1463.4</ele>
        <time>2020-09-03T09:39:39Z</time>
      </trkpt>
      <trkpt lat="42.98661" lon="-0.23953">
        <ele>1463.4</ele>
        <time>2020-09-03T09:39:40Z</time>
      </trkpt>
      <trkpt lat="42.98661" lon="-0.2395">
        <ele>1463.6</ele>
        <time>2020-09-03T09:39:41Z</time>
      </trkpt>
      <trkpt lat="42.98661" lon="-0.23946">
        <ele>1463.8</ele>
        <time>2020-09-03T09:39:42Z</time>
      </trkpt>
      <trkpt lat="42.98661" lon="-0.23943">
        <ele>1463.8</ele>
        <time>2020-09-03T09:39:43Z</time>
      </trkpt>
      <trkpt lat="42.98661" lon="-0.2394">
        <ele>1464</ele>
        <time>2020-09-03T09:39:44Z</time>
      </trkpt>
      <trkpt lat="42.98661" lon="-0.23936">
        <ele>1464.2</ele>
        <time>2020-09-03T09:39:45Z</time>
      </trkpt>
      <trkpt lat="42.98661" lon="-0.23933">
        <ele>1464.2</ele>
        <time>2020-09-03T09:39:46Z</time>
      </trkpt>
      <trkpt lat="42.9866" lon="-0.2393">
        <ele>1464.4</ele>
        <time>2020-09-03T09:39:47Z</time>
      </trkpt>
      <trkpt lat="42.9866" lon="-0.23927">
        <ele>1464.4</ele>
        <time>2020-09-03T09:39:48Z</time>
      </trkpt>
      <trkpt lat="42.9866" lon="-0.23924">
        <ele>1464.6</ele>
        <time>2020-09-03T09:39:49Z</time>
      </trkpt>
      <trkpt lat="42.9866" lon="-0.23921">
        <ele>1464.6</ele>
        <time>2020-09-03T09:39:50Z</time>
      </trkpt>
      <trkpt lat="42.98659" lon="-0.23917">
        <ele>1464.8</ele>
        <time>2020-09-03T09:39:51Z</time>
      </trkpt>
      <trkpt lat="42.98658" lon="-0.23914">
        <ele>1464.8</ele>
        <time>2020-09-03T09:39:52Z</time>
      </trkpt>
      <trkpt lat="42.98657" lon="-0.2391">
        <ele>1465</ele>
        <time>2020-09-03T09:39:53Z</time>
      </trkpt>
      <trkpt lat="42.98655" lon="-0.23906">
        <ele>1465</ele>
        <time>2020-09-03T09:39:54Z</time>
      </trkpt>
      <trkpt lat="42.98654" lon="-0.23903">
        <ele>1465</ele>
        <time>2020-09-03T09:39:55Z</time>
      </trkpt>
      <trkpt lat="42.98652" lon="-0.239">
        <ele>1465</ele>
        <time>2020-09-03T09:39:56Z</time>
      </trkpt>
      <trkpt lat="42.98651" lon="-0.23897">
        <ele>1465.2</ele>
        <time>2020-09-03T09:39:57Z</time>
      </trkpt>
      <trkpt lat="42.98649" lon="-0.23894">
        <ele>1465.2</ele>
        <time>2020-09-03T09:39:58Z</time>
      </trkpt>
      <trkpt lat="42.98647" lon="-0.23891">
        <ele>1465.2</ele>
        <time>2020-09-03T09:39:59Z</time>
      </trkpt>
      <trkpt lat="42.98646" lon="-0.23889">
        <ele>1465.2</ele>
        <time>2020-09-03T09:40:00Z</time>
      </trkpt>
      <trkpt lat="42.98644" lon="-0.23886">
        <ele>1465.2</ele>
        <time>2020-09-03T09:40:01Z</time>
      </trkpt>
      <trkpt lat="42.98642" lon="-0.23884">
        <ele>1465.4</ele>
        <time>2020-09-03T09:40:02Z</time>
      </trkpt>
      <trkpt lat="42.9864" lon="-0.23882">
        <ele>1465.4</ele>
        <time>2020-09-03T09:40:03Z</time>
      </trkpt>
      <trkpt lat="42.98638" lon="-0.2388">
        <ele>1465.4</ele>
        <time>2020-09-03T09:40:04Z</time>
      </trkpt>
      <trkpt lat="42.98636" lon="-0.23879">
        <ele>1465.4</ele>
        <time>2020-09-03T09:40:05Z</time>
      </trkpt>
      <trkpt lat="42.98634" lon="-0.23877">
        <ele>1465.4</ele>
        <time>2020-09-03T09:40:06Z</time>
      </trkpt>
      <trkpt lat="42.98632" lon="-0.23875">
        <ele>1465.4</ele>
        <time>2020-09-03T09:40:07Z</time>
      </trkpt>
      <trkpt lat="42.9863" lon="-0.23873">
        <ele>1465.6</ele>
        <time>2020-09-03T09:40:08Z</time>
      </trkpt>
      <trkpt lat="42.98627" lon="-0.23872">
        <ele>1465.8</ele>
        <time>2020-09-03T09:40:09Z</time>
      </trkpt>
      <trkpt lat="42.98626" lon="-0.23871">
        <ele>1465.8</ele>
        <time>2020-09-03T09:40:10Z</time>
      </trkpt>
      <trkpt lat="42.98624" lon="-0.23869">
        <ele>1465.8</ele>
        <time>2020-09-03T09:40:11Z</time>
      </trkpt>
      <trkpt lat="42.98622" lon="-0.23868">
        <ele>1466</ele>
        <time>2020-09-03T09:40:12Z</time>
      </trkpt>
      <trkpt lat="42.9862" lon="-0.23866">
        <ele>1466.2</ele>
        <time>2020-09-03T09:40:13Z</time>
      </trkpt>
      <trkpt lat="42.98618" lon="-0.23864">
        <ele>1466.2</ele>
        <time>2020-09-03T09:40:14Z</time>
      </trkpt>
      <trkpt lat="42.98617" lon="-0.23862">
        <ele>1466.4</ele>
        <time>2020-09-03T09:40:15Z</time>
      </trkpt>
      <trkpt lat="42.98615" lon="-0.23861">
        <ele>1466.6</ele>
        <time>2020-09-03T09:40:16Z</time>
      </trkpt>
      <trkpt lat="42.98613" lon="-0.23859">
        <ele>1467</ele>
        <time>2020-09-03T09:40:17Z</time>
      </trkpt>
      <trkpt lat="42.98605" lon="-0.23851">
        <ele>1467.6</ele>
        <time>2020-09-03T09:40:21Z</time>
      </trkpt>
      <trkpt lat="42.98597" lon="-0.23842">
        <ele>1468</ele>
        <time>2020-09-03T09:40:25Z</time>
      </trkpt>
      <trkpt lat="42.98595" lon="-0.23839">
        <ele>1468</ele>
        <time>2020-09-03T09:40:26Z</time>
      </trkpt>
      <trkpt lat="42.98593" lon="-0.23837">
        <ele>1468.2</ele>
        <time>2020-09-03T09:40:27Z</time>
      </trkpt>
      <trkpt lat="42.98591" lon="-0.23834">
        <ele>1468.4</ele>
        <time>2020-09-03T09:40:28Z</time>
      </trkpt>
      <trkpt lat="42.9859" lon="-0.23831">
        <ele>1468.4</ele>
        <time>2020-09-03T09:40:29Z</time>
      </trkpt>
      <trkpt lat="42.98588" lon="-0.23829">
        <ele>1468.4</ele>
        <time>2020-09-03T09:40:30Z</time>
      </trkpt>
      <trkpt lat="42.98586" lon="-0.23826">
        <ele>1468.4</ele>
        <time>2020-09-03T09:40:31Z</time>
      </trkpt>
      <trkpt lat="42.98585" lon="-0.23824">
        <ele>1468.6</ele>
        <time>2020-09-03T09:40:32Z</time>
      </trkpt>
      <trkpt lat="42.98583" lon="-0.23821">
        <ele>1468.6</ele>
        <time>2020-09-03T09:40:33Z</time>
      </trkpt>
      <trkpt lat="42.98582" lon="-0.23818">
        <ele>1468.8</ele>
        <time>2020-09-03T09:40:34Z</time>
      </trkpt>
      <trkpt lat="42.9858" lon="-0.23814">
        <ele>1468.8</ele>
        <time>2020-09-03T09:40:35Z</time>
      </trkpt>
      <trkpt lat="42.9858" lon="-0.2381">
        <ele>1469</ele>
        <time>2020-09-03T09:40:36Z</time>
      </trkpt>
      <trkpt lat="42.98579" lon="-0.23806">
        <ele>1469.2</ele>
        <time>2020-09-03T09:40:37Z</time>
      </trkpt>
      <trkpt lat="42.98578" lon="-0.23802">
        <ele>1469.4</ele>
        <time>2020-09-03T09:40:38Z</time>
      </trkpt>
      <trkpt lat="42.98578" lon="-0.23797">
        <ele>1469.4</ele>
        <time>2020-09-03T09:40:39Z</time>
      </trkpt>
      <trkpt lat="42.98578" lon="-0.23794">
        <ele>1469.6</ele>
        <time>2020-09-03T09:40:40Z</time>
      </trkpt>
      <trkpt lat="42.98578" lon="-0.2379">
        <ele>1469.6</ele>
        <time>2020-09-03T09:40:41Z</time>
      </trkpt>
      <trkpt lat="42.98577" lon="-0.23786">
        <ele>1469.8</ele>
        <time>2020-09-03T09:40:42Z</time>
      </trkpt>
      <trkpt lat="42.98577" lon="-0.23783">
        <ele>1469.8</ele>
        <time>2020-09-03T09:40:43Z</time>
      </trkpt>
      <trkpt lat="42.98576" lon="-0.23779">
        <ele>1470</ele>
        <time>2020-09-03T09:40:44Z</time>
      </trkpt>
      <trkpt lat="42.98576" lon="-0.23776">
        <ele>1470.2</ele>
        <time>2020-09-03T09:40:45Z</time>
      </trkpt>
      <trkpt lat="42.98576" lon="-0.23772">
        <ele>1470.4</ele>
        <time>2020-09-03T09:40:46Z</time>
      </trkpt>
      <trkpt lat="42.98575" lon="-0.23769">
        <ele>1470.4</ele>
        <time>2020-09-03T09:40:47Z</time>
      </trkpt>
      <trkpt lat="42.98574" lon="-0.23766">
        <ele>1470.6</ele>
        <time>2020-09-03T09:40:48Z</time>
      </trkpt>
      <trkpt lat="42.98574" lon="-0.23763">
        <ele>1470.8</ele>
        <time>2020-09-03T09:40:49Z</time>
      </trkpt>
      <trkpt lat="42.98573" lon="-0.23761">
        <ele>1470.8</ele>
        <time>2020-09-03T09:40:50Z</time>
      </trkpt>
      <trkpt lat="42.98572" lon="-0.23758">
        <ele>1471</ele>
        <time>2020-09-03T09:40:51Z</time>
      </trkpt>
      <trkpt lat="42.98571" lon="-0.23755">
        <ele>1471.2</ele>
        <time>2020-09-03T09:40:52Z</time>
      </trkpt>
      <trkpt lat="42.9857" lon="-0.23752">
        <ele>1471.2</ele>
        <time>2020-09-03T09:40:53Z</time>
      </trkpt>
      <trkpt lat="42.98569" lon="-0.23748">
        <ele>1471.4</ele>
        <time>2020-09-03T09:40:54Z</time>
      </trkpt>
      <trkpt lat="42.98568" lon="-0.23745">
        <ele>1471.8</ele>
        <time>2020-09-03T09:40:55Z</time>
      </trkpt>
      <trkpt lat="42.98567" lon="-0.23743">
        <ele>1472</ele>
        <time>2020-09-03T09:40:56Z</time>
      </trkpt>
      <trkpt lat="42.98566" lon="-0.23739">
        <ele>1472.2</ele>
        <time>2020-09-03T09:40:57Z</time>
      </trkpt>
      <trkpt lat="42.98564" lon="-0.23735">
        <ele>1472.2</ele>
        <time>2020-09-03T09:40:58Z</time>
      </trkpt>
      <trkpt lat="42.98564" lon="-0.23732">
        <ele>1472.4</ele>
        <time>2020-09-03T09:40:59Z</time>
      </trkpt>
      <trkpt lat="42.98563" lon="-0.23729">
        <ele>1472.4</ele>
        <time>2020-09-03T09:41:00Z</time>
      </trkpt>
      <trkpt lat="42.98562" lon="-0.23725">
        <ele>1472.6</ele>
        <time>2020-09-03T09:41:01Z</time>
      </trkpt>
      <trkpt lat="42.98561" lon="-0.23721">
        <ele>1472.8</ele>
        <time>2020-09-03T09:41:02Z</time>
      </trkpt>
      <trkpt lat="42.9856" lon="-0.23717">
        <ele>1473</ele>
        <time>2020-09-03T09:41:03Z</time>
      </trkpt>
      <trkpt lat="42.98559" lon="-0.23715">
        <ele>1473.2</ele>
        <time>2020-09-03T09:41:04Z</time>
      </trkpt>
      <trkpt lat="42.98558" lon="-0.23712">
        <ele>1473.2</ele>
        <time>2020-09-03T09:41:05Z</time>
      </trkpt>
      <trkpt lat="42.98558" lon="-0.23709">
        <ele>1473.4</ele>
        <time>2020-09-03T09:41:06Z</time>
      </trkpt>
      <trkpt lat="42.98557" lon="-0.23705">
        <ele>1473.4</ele>
        <time>2020-09-03T09:41:07Z</time>
      </trkpt>
      <trkpt lat="42.98557" lon="-0.23703">
        <ele>1473.8</ele>
        <time>2020-09-03T09:41:08Z</time>
      </trkpt>
      <trkpt lat="42.98556" lon="-0.237">
        <ele>1474</ele>
        <time>2020-09-03T09:41:09Z</time>
      </trkpt>
      <trkpt lat="42.98555" lon="-0.23697">
        <ele>1474.4</ele>
        <time>2020-09-03T09:41:10Z</time>
      </trkpt>
      <trkpt lat="42.98555" lon="-0.23694">
        <ele>1474.6</ele>
        <time>2020-09-03T09:41:11Z</time>
      </trkpt>
      <trkpt lat="42.98555" lon="-0.23691">
        <ele>1475.2</ele>
        <time>2020-09-03T09:41:12Z</time>
      </trkpt>
      <trkpt lat="42.98554" lon="-0.23688">
        <ele>1475.4</ele>
        <time>2020-09-03T09:41:13Z</time>
      </trkpt>
      <trkpt lat="42.98553" lon="-0.23685">
        <ele>1475.6</ele>
        <time>2020-09-03T09:41:14Z</time>
      </trkpt>
      <trkpt lat="42.98553" lon="-0.23682">
        <ele>1476</ele>
        <time>2020-09-03T09:41:15Z</time>
      </trkpt>
      <trkpt lat="42.98553" lon="-0.23679">
        <ele>1476.2</ele>
        <time>2020-09-03T09:41:16Z</time>
      </trkpt>
      <trkpt lat="42.98553" lon="-0.23677">
        <ele>1476.4</ele>
        <time>2020-09-03T09:41:17Z</time>
      </trkpt>
      <trkpt lat="42.98553" lon="-0.23674">
        <ele>1476.6</ele>
        <time>2020-09-03T09:41:18Z</time>
      </trkpt>
      <trkpt lat="42.98553" lon="-0.23672">
        <ele>1477</ele>
        <time>2020-09-03T09:41:19Z</time>
      </trkpt>
      <trkpt lat="42.98554" lon="-0.23669">
        <ele>1477</ele>
        <time>2020-09-03T09:41:20Z</time>
      </trkpt>
      <trkpt lat="42.98554" lon="-0.23666">
        <ele>1477.4</ele>
        <time>2020-09-03T09:41:21Z</time>
      </trkpt>
      <trkpt lat="42.98555" lon="-0.23663">
        <ele>1477.4</ele>
        <time>2020-09-03T09:41:22Z</time>
      </trkpt>
      <trkpt lat="42.98555" lon="-0.2366">
        <ele>1477.8</ele>
        <time>2020-09-03T09:41:23Z</time>
      </trkpt>
      <trkpt lat="42.98555" lon="-0.23657">
        <ele>1478</ele>
        <time>2020-09-03T09:41:24Z</time>
      </trkpt>
      <trkpt lat="42.98555" lon="-0.23654">
        <ele>1478.2</ele>
        <time>2020-09-03T09:41:25Z</time>
      </trkpt>
      <trkpt lat="42.98556" lon="-0.23651">
        <ele>1478.4</ele>
        <time>2020-09-03T09:41:26Z</time>
      </trkpt>
      <trkpt lat="42.98556" lon="-0.23648">
        <ele>1478.8</ele>
        <time>2020-09-03T09:41:27Z</time>
      </trkpt>
      <trkpt lat="42.98556" lon="-0.23645">
        <ele>1479</ele>
        <time>2020-09-03T09:41:28Z</time>
      </trkpt>
      <trkpt lat="42.98556" lon="-0.23641">
        <ele>1479.2</ele>
        <time>2020-09-03T09:41:29Z</time>
      </trkpt>
      <trkpt lat="42.98556" lon="-0.23638">
        <ele>1479.4</ele>
        <time>2020-09-03T09:41:30Z</time>
      </trkpt>
      <trkpt lat="42.98555" lon="-0.23634">
        <ele>1479.6</ele>
        <time>2020-09-03T09:41:31Z</time>
      </trkpt>
      <trkpt lat="42.98554" lon="-0.23631">
        <ele>1480</ele>
        <time>2020-09-03T09:41:32Z</time>
      </trkpt>
      <trkpt lat="42.98553" lon="-0.23628">
        <ele>1480.2</ele>
        <time>2020-09-03T09:41:33Z</time>
      </trkpt>
      <trkpt lat="42.98552" lon="-0.23625">
        <ele>1480.4</ele>
        <time>2020-09-03T09:41:34Z</time>
      </trkpt>
      <trkpt lat="42.98551" lon="-0.23623">
        <ele>1480.4</ele>
        <time>2020-09-03T09:41:35Z</time>
      </trkpt>
      <trkpt lat="42.9855" lon="-0.2362">
        <ele>1480.6</ele>
        <time>2020-09-03T09:41:36Z</time>
      </trkpt>
      <trkpt lat="42.98549" lon="-0.23617">
        <ele>1480.6</ele>
        <time>2020-09-03T09:41:37Z</time>
      </trkpt>
      <trkpt lat="42.98549" lon="-0.23615">
        <ele>1480.8</ele>
        <time>2020-09-03T09:41:38Z</time>
      </trkpt>
      <trkpt lat="42.98548" lon="-0.23612">
        <ele>1480.8</ele>
        <time>2020-09-03T09:41:39Z</time>
      </trkpt>
      <trkpt lat="42.98548" lon="-0.23609">
        <ele>1481</ele>
        <time>2020-09-03T09:41:40Z</time>
      </trkpt>
      <trkpt lat="42.98548" lon="-0.23606">
        <ele>1481</ele>
        <time>2020-09-03T09:41:41Z</time>
      </trkpt>
      <trkpt lat="42.98548" lon="-0.23603">
        <ele>1481.2</ele>
        <time>2020-09-03T09:41:42Z</time>
      </trkpt>
      <trkpt lat="42.98548" lon="-0.236">
        <ele>1481.2</ele>
        <time>2020-09-03T09:41:43Z</time>
      </trkpt>
      <trkpt lat="42.98548" lon="-0.23596">
        <ele>1481.4</ele>
        <time>2020-09-03T09:41:44Z</time>
      </trkpt>
      <trkpt lat="42.98548" lon="-0.23593">
        <ele>1481.6</ele>
        <time>2020-09-03T09:41:45Z</time>
      </trkpt>
      <trkpt lat="42.98548" lon="-0.2359">
        <ele>1481.8</ele>
        <time>2020-09-03T09:41:46Z</time>
      </trkpt>
      <trkpt lat="42.98548" lon="-0.23587">
        <ele>1482.2</ele>
        <time>2020-09-03T09:41:47Z</time>
      </trkpt>
      <trkpt lat="42.98548" lon="-0.23583">
        <ele>1482.4</ele>
        <time>2020-09-03T09:41:48Z</time>
      </trkpt>
      <trkpt lat="42.98549" lon="-0.23581">
        <ele>1482.6</ele>
        <time>2020-09-03T09:41:49Z</time>
      </trkpt>
      <trkpt lat="42.98549" lon="-0.23578">
        <ele>1482.6</ele>
        <time>2020-09-03T09:41:50Z</time>
      </trkpt>
      <trkpt lat="42.98549" lon="-0.23575">
        <ele>1482.8</ele>
        <time>2020-09-03T09:41:51Z</time>
      </trkpt>
      <trkpt lat="42.98549" lon="-0.23571">
        <ele>1483</ele>
        <time>2020-09-03T09:41:52Z</time>
      </trkpt>
      <trkpt lat="42.9855" lon="-0.23568">
        <ele>1483</ele>
        <time>2020-09-03T09:41:53Z</time>
      </trkpt>
      <trkpt lat="42.9855" lon="-0.23565">
        <ele>1483.2</ele>
        <time>2020-09-03T09:41:54Z</time>
      </trkpt>
      <trkpt lat="42.9855" lon="-0.23562">
        <ele>1483.6</ele>
        <time>2020-09-03T09:41:55Z</time>
      </trkpt>
      <trkpt lat="42.9855" lon="-0.23559">
        <ele>1483.6</ele>
        <time>2020-09-03T09:41:56Z</time>
      </trkpt>
      <trkpt lat="42.9855" lon="-0.23556">
        <ele>1483.8</ele>
        <time>2020-09-03T09:41:57Z</time>
      </trkpt>
      <trkpt lat="42.9855" lon="-0.23553">
        <ele>1483.8</ele>
        <time>2020-09-03T09:41:58Z</time>
      </trkpt>
      <trkpt lat="42.9855" lon="-0.2355">
        <ele>1484</ele>
        <time>2020-09-03T09:41:59Z</time>
      </trkpt>
      <trkpt lat="42.9855" lon="-0.23548">
        <ele>1484.4</ele>
        <time>2020-09-03T09:42:00Z</time>
      </trkpt>
      <trkpt lat="42.9855" lon="-0.23544">
        <ele>1484.6</ele>
        <time>2020-09-03T09:42:01Z</time>
      </trkpt>
      <trkpt lat="42.98549" lon="-0.23541">
        <ele>1484.8</ele>
        <time>2020-09-03T09:42:02Z</time>
      </trkpt>
      <trkpt lat="42.98549" lon="-0.23537">
        <ele>1484.8</ele>
        <time>2020-09-03T09:42:03Z</time>
      </trkpt>
      <trkpt lat="42.98549" lon="-0.23534">
        <ele>1485</ele>
        <time>2020-09-03T09:42:04Z</time>
      </trkpt>
      <trkpt lat="42.98549" lon="-0.23531">
        <ele>1485.2</ele>
        <time>2020-09-03T09:42:05Z</time>
      </trkpt>
      <trkpt lat="42.98549" lon="-0.23526">
        <ele>1485.2</ele>
        <time>2020-09-03T09:42:06Z</time>
      </trkpt>
      <trkpt lat="42.98549" lon="-0.23521">
        <ele>1485.4</ele>
        <time>2020-09-03T09:42:07Z</time>
      </trkpt>
      <trkpt lat="42.9855" lon="-0.23517">
        <ele>1485.6</ele>
        <time>2020-09-03T09:42:08Z</time>
      </trkpt>
      <trkpt lat="42.98552" lon="-0.23515">
        <ele>1485.6</ele>
        <time>2020-09-03T09:42:09Z</time>
      </trkpt>
      <trkpt lat="42.98554" lon="-0.23512">
        <ele>1485.8</ele>
        <time>2020-09-03T09:42:10Z</time>
      </trkpt>
      <trkpt lat="42.98556" lon="-0.2351">
        <ele>1485.8</ele>
        <time>2020-09-03T09:42:11Z</time>
      </trkpt>
      <trkpt lat="42.98557" lon="-0.23507">
        <ele>1486</ele>
        <time>2020-09-03T09:42:12Z</time>
      </trkpt>
      <trkpt lat="42.98559" lon="-0.23504">
        <ele>1486</ele>
        <time>2020-09-03T09:42:13Z</time>
      </trkpt>
      <trkpt lat="42.98561" lon="-0.23502">
        <ele>1486.2</ele>
        <time>2020-09-03T09:42:14Z</time>
      </trkpt>
      <trkpt lat="42.98562" lon="-0.23499">
        <ele>1486.4</ele>
        <time>2020-09-03T09:42:15Z</time>
      </trkpt>
      <trkpt lat="42.98564" lon="-0.23496">
        <ele>1486.6</ele>
        <time>2020-09-03T09:42:16Z</time>
      </trkpt>
      <trkpt lat="42.98565" lon="-0.23494">
        <ele>1486.6</ele>
        <time>2020-09-03T09:42:17Z</time>
      </trkpt>
      <trkpt lat="42.98566" lon="-0.23491">
        <ele>1486.8</ele>
        <time>2020-09-03T09:42:18Z</time>
      </trkpt>
      <trkpt lat="42.98567" lon="-0.23489">
        <ele>1487</ele>
        <time>2020-09-03T09:42:19Z</time>
      </trkpt>
      <trkpt lat="42.98567" lon="-0.23486">
        <ele>1487.2</ele>
        <time>2020-09-03T09:42:20Z</time>
      </trkpt>
      <trkpt lat="42.98567" lon="-0.23483">
        <ele>1487.6</ele>
        <time>2020-09-03T09:42:21Z</time>
      </trkpt>
      <trkpt lat="42.98568" lon="-0.23481">
        <ele>1487.6</ele>
        <time>2020-09-03T09:42:22Z</time>
      </trkpt>
      <trkpt lat="42.98569" lon="-0.23479">
        <ele>1487.8</ele>
        <time>2020-09-03T09:42:23Z</time>
      </trkpt>
      <trkpt lat="42.98569" lon="-0.23476">
        <ele>1488</ele>
        <time>2020-09-03T09:42:24Z</time>
      </trkpt>
      <trkpt lat="42.9857" lon="-0.23473">
        <ele>1488.2</ele>
        <time>2020-09-03T09:42:25Z</time>
      </trkpt>
      <trkpt lat="42.98571" lon="-0.2347">
        <ele>1488.4</ele>
        <time>2020-09-03T09:42:26Z</time>
      </trkpt>
      <trkpt lat="42.98571" lon="-0.23467">
        <ele>1488.6</ele>
        <time>2020-09-03T09:42:27Z</time>
      </trkpt>
      <trkpt lat="42.98572" lon="-0.23464">
        <ele>1488.6</ele>
        <time>2020-09-03T09:42:28Z</time>
      </trkpt>
      <trkpt lat="42.98573" lon="-0.23461">
        <ele>1488.8</ele>
        <time>2020-09-03T09:42:29Z</time>
      </trkpt>
      <trkpt lat="42.98574" lon="-0.23458">
        <ele>1489</ele>
        <time>2020-09-03T09:42:30Z</time>
      </trkpt>
      <trkpt lat="42.98575" lon="-0.23455">
        <ele>1489.2</ele>
        <time>2020-09-03T09:42:31Z</time>
      </trkpt>
      <trkpt lat="42.98577" lon="-0.23453">
        <ele>1489.4</ele>
        <time>2020-09-03T09:42:32Z</time>
      </trkpt>
      <trkpt lat="42.98578" lon="-0.23449">
        <ele>1489.4</ele>
        <time>2020-09-03T09:42:33Z</time>
      </trkpt>
      <trkpt lat="42.98579" lon="-0.23446">
        <ele>1489.6</ele>
        <time>2020-09-03T09:42:34Z</time>
      </trkpt>
      <trkpt lat="42.9858" lon="-0.23444">
        <ele>1489.8</ele>
        <time>2020-09-03T09:42:35Z</time>
      </trkpt>
      <trkpt lat="42.9858" lon="-0.2344">
        <ele>1490</ele>
        <time>2020-09-03T09:42:36Z</time>
      </trkpt>
      <trkpt lat="42.98581" lon="-0.23438">
        <ele>1490</ele>
        <time>2020-09-03T09:42:37Z</time>
      </trkpt>
      <trkpt lat="42.98581" lon="-0.23434">
        <ele>1490.2</ele>
        <time>2020-09-03T09:42:38Z</time>
      </trkpt>
      <trkpt lat="42.98581" lon="-0.23431">
        <ele>1490.4</ele>
        <time>2020-09-03T09:42:39Z</time>
      </trkpt>
      <trkpt lat="42.98581" lon="-0.23429">
        <ele>1490.4</ele>
        <time>2020-09-03T09:42:40Z</time>
      </trkpt>
      <trkpt lat="42.98582" lon="-0.23426">
        <ele>1490.4</ele>
        <time>2020-09-03T09:42:41Z</time>
      </trkpt>
      <trkpt lat="42.98581" lon="-0.23423">
        <ele>1490.6</ele>
        <time>2020-09-03T09:42:42Z</time>
      </trkpt>
      <trkpt lat="42.98582" lon="-0.2342">
        <ele>1490.8</ele>
        <time>2020-09-03T09:42:43Z</time>
      </trkpt>
      <trkpt lat="42.98582" lon="-0.23417">
        <ele>1491</ele>
        <time>2020-09-03T09:42:44Z</time>
      </trkpt>
      <trkpt lat="42.98583" lon="-0.23414">
        <ele>1491.2</ele>
        <time>2020-09-03T09:42:45Z</time>
      </trkpt>
      <trkpt lat="42.98583" lon="-0.23411">
        <ele>1491.4</ele>
        <time>2020-09-03T09:42:46Z</time>
      </trkpt>
      <trkpt lat="42.98583" lon="-0.23408">
        <ele>1491.6</ele>
        <time>2020-09-03T09:42:47Z</time>
      </trkpt>
      <trkpt lat="42.98583" lon="-0.23405">
        <ele>1491.6</ele>
        <time>2020-09-03T09:42:48Z</time>
      </trkpt>
      <trkpt lat="42.98583" lon="-0.23402">
        <ele>1492</ele>
        <time>2020-09-03T09:42:49Z</time>
      </trkpt>
      <trkpt lat="42.98583" lon="-0.23398">
        <ele>1492.2</ele>
        <time>2020-09-03T09:42:50Z</time>
      </trkpt>
      <trkpt lat="42.98583" lon="-0.23395">
        <ele>1492.4</ele>
        <time>2020-09-03T09:42:51Z</time>
      </trkpt>
      <trkpt lat="42.98584" lon="-0.23392">
        <ele>1492.4</ele>
        <time>2020-09-03T09:42:52Z</time>
      </trkpt>
      <trkpt lat="42.98584" lon="-0.23389">
        <ele>1493</ele>
        <time>2020-09-03T09:42:53Z</time>
      </trkpt>
      <trkpt lat="42.98584" lon="-0.23385">
        <ele>1493</ele>
        <time>2020-09-03T09:42:54Z</time>
      </trkpt>
      <trkpt lat="42.98584" lon="-0.23382">
        <ele>1493.4</ele>
        <time>2020-09-03T09:42:55Z</time>
      </trkpt>
      <trkpt lat="42.98585" lon="-0.23379">
        <ele>1493.6</ele>
        <time>2020-09-03T09:42:56Z</time>
      </trkpt>
      <trkpt lat="42.98585" lon="-0.23377">
        <ele>1494</ele>
        <time>2020-09-03T09:42:57Z</time>
      </trkpt>
      <trkpt lat="42.98586" lon="-0.23374">
        <ele>1494</ele>
        <time>2020-09-03T09:42:58Z</time>
      </trkpt>
      <trkpt lat="42.98586" lon="-0.23371">
        <ele>1494.2</ele>
        <time>2020-09-03T09:42:59Z</time>
      </trkpt>
      <trkpt lat="42.98586" lon="-0.23368">
        <ele>1494.4</ele>
        <time>2020-09-03T09:43:00Z</time>
      </trkpt>
      <trkpt lat="42.98586" lon="-0.23364">
        <ele>1494.6</ele>
        <time>2020-09-03T09:43:01Z</time>
      </trkpt>
      <trkpt lat="42.98586" lon="-0.23361">
        <ele>1495</ele>
        <time>2020-09-03T09:43:02Z</time>
      </trkpt>
      <trkpt lat="42.98585" lon="-0.23359">
        <ele>1495.2</ele>
        <time>2020-09-03T09:43:03Z</time>
      </trkpt>
      <trkpt lat="42.98585" lon="-0.23355">
        <ele>1495.4</ele>
        <time>2020-09-03T09:43:04Z</time>
      </trkpt>
      <trkpt lat="42.98584" lon="-0.23351">
        <ele>1495.6</ele>
        <time>2020-09-03T09:43:05Z</time>
      </trkpt>
      <trkpt lat="42.98584" lon="-0.23348">
        <ele>1495.6</ele>
        <time>2020-09-03T09:43:06Z</time>
      </trkpt>
      <trkpt lat="42.98583" lon="-0.23345">
        <ele>1495.8</ele>
        <time>2020-09-03T09:43:07Z</time>
      </trkpt>
      <trkpt lat="42.98582" lon="-0.23342">
        <ele>1496</ele>
        <time>2020-09-03T09:43:08Z</time>
      </trkpt>
      <trkpt lat="42.98581" lon="-0.23339">
        <ele>1496</ele>
        <time>2020-09-03T09:43:09Z</time>
      </trkpt>
      <trkpt lat="42.9858" lon="-0.23335">
        <ele>1496.4</ele>
        <time>2020-09-03T09:43:10Z</time>
      </trkpt>
      <trkpt lat="42.98578" lon="-0.23332">
        <ele>1496.4</ele>
        <time>2020-09-03T09:43:11Z</time>
      </trkpt>
      <trkpt lat="42.98576" lon="-0.2333">
        <ele>1496.6</ele>
        <time>2020-09-03T09:43:12Z</time>
      </trkpt>
      <trkpt lat="42.98575" lon="-0.23327">
        <ele>1496.6</ele>
        <time>2020-09-03T09:43:13Z</time>
      </trkpt>
      <trkpt lat="42.98573" lon="-0.23324">
        <ele>1496.8</ele>
        <time>2020-09-03T09:43:14Z</time>
      </trkpt>
      <trkpt lat="42.98571" lon="-0.23321">
        <ele>1496.8</ele>
        <time>2020-09-03T09:43:15Z</time>
      </trkpt>
      <trkpt lat="42.9857" lon="-0.23317">
        <ele>1496.8</ele>
        <time>2020-09-03T09:43:16Z</time>
      </trkpt>
      <trkpt lat="42.98569" lon="-0.23314">
        <ele>1497</ele>
        <time>2020-09-03T09:43:17Z</time>
      </trkpt>
      <trkpt lat="42.98568" lon="-0.23311">
        <ele>1497</ele>
        <time>2020-09-03T09:43:18Z</time>
      </trkpt>
      <trkpt lat="42.98567" lon="-0.23307">
        <ele>1497.2</ele>
        <time>2020-09-03T09:43:19Z</time>
      </trkpt>
      <trkpt lat="42.98566" lon="-0.23302">
        <ele>1497.4</ele>
        <time>2020-09-03T09:43:20Z</time>
      </trkpt>
      <trkpt lat="42.98566" lon="-0.23297">
        <ele>1497.4</ele>
        <time>2020-09-03T09:43:21Z</time>
      </trkpt>
      <trkpt lat="42.98566" lon="-0.23294">
        <ele>1497.6</ele>
        <time>2020-09-03T09:43:22Z</time>
      </trkpt>
      <trkpt lat="42.98566" lon="-0.2329">
        <ele>1497.8</ele>
        <time>2020-09-03T09:43:23Z</time>
      </trkpt>
      <trkpt lat="42.98566" lon="-0.23286">
        <ele>1497.8</ele>
        <time>2020-09-03T09:43:24Z</time>
      </trkpt>
      <trkpt lat="42.98567" lon="-0.2328">
        <ele>1498</ele>
        <time>2020-09-03T09:43:25Z</time>
      </trkpt>
      <trkpt lat="42.98568" lon="-0.23275">
        <ele>1498</ele>
        <time>2020-09-03T09:43:26Z</time>
      </trkpt>
      <trkpt lat="42.98569" lon="-0.2327">
        <ele>1498</ele>
        <time>2020-09-03T09:43:27Z</time>
      </trkpt>
      <trkpt lat="42.9857" lon="-0.23263">
        <ele>1498</ele>
        <time>2020-09-03T09:43:28Z</time>
      </trkpt>
      <trkpt lat="42.98571" lon="-0.23258">
        <ele>1498.2</ele>
        <time>2020-09-03T09:43:29Z</time>
      </trkpt>
      <trkpt lat="42.98572" lon="-0.23252">
        <ele>1498.2</ele>
        <time>2020-09-03T09:43:30Z</time>
      </trkpt>
      <trkpt lat="42.98572" lon="-0.23245">
        <ele>1498</ele>
        <time>2020-09-03T09:43:31Z</time>
      </trkpt>
      <trkpt lat="42.98573" lon="-0.23238">
        <ele>1498</ele>
        <time>2020-09-03T09:43:32Z</time>
      </trkpt>
      <trkpt lat="42.98574" lon="-0.23231">
        <ele>1498</ele>
        <time>2020-09-03T09:43:33Z</time>
      </trkpt>
      <trkpt lat="42.98575" lon="-0.23226">
        <ele>1497.8</ele>
        <time>2020-09-03T09:43:34Z</time>
      </trkpt>
      <trkpt lat="42.98576" lon="-0.23218">
        <ele>1497.8</ele>
        <time>2020-09-03T09:43:35Z</time>
      </trkpt>
      <trkpt lat="42.98577" lon="-0.23213">
        <ele>1497.6</ele>
        <time>2020-09-03T09:43:36Z</time>
      </trkpt>
      <trkpt lat="42.98578" lon="-0.23207">
        <ele>1497.4</ele>
        <time>2020-09-03T09:43:37Z</time>
      </trkpt>
      <trkpt lat="42.98579" lon="-0.232">
        <ele>1497.4</ele>
        <time>2020-09-03T09:43:38Z</time>
      </trkpt>
      <trkpt lat="42.9858" lon="-0.2319">
        <ele>1497.2</ele>
        <time>2020-09-03T09:43:40Z</time>
      </trkpt>
      <trkpt lat="42.9858" lon="-0.23186">
        <ele>1497.2</ele>
        <time>2020-09-03T09:43:41Z</time>
      </trkpt>
      <trkpt lat="42.98581" lon="-0.23181">
        <ele>1497.2</ele>
        <time>2020-09-03T09:43:42Z</time>
      </trkpt>
      <trkpt lat="42.98581" lon="-0.23178">
        <ele>1497.2</ele>
        <time>2020-09-03T09:43:43Z</time>
      </trkpt>
      <trkpt lat="42.98582" lon="-0.23174">
        <ele>1497.2</ele>
        <time>2020-09-03T09:43:44Z</time>
      </trkpt>
      <trkpt lat="42.98582" lon="-0.2317">
        <ele>1497.2</ele>
        <time>2020-09-03T09:43:45Z</time>
      </trkpt>
      <trkpt lat="42.98582" lon="-0.23167">
        <ele>1497.2</ele>
        <time>2020-09-03T09:43:46Z</time>
      </trkpt>
      <trkpt lat="42.98583" lon="-0.23163">
        <ele>1497.2</ele>
        <time>2020-09-03T09:43:47Z</time>
      </trkpt>
      <trkpt lat="42.98583" lon="-0.23159">
        <ele>1497.2</ele>
        <time>2020-09-03T09:43:48Z</time>
      </trkpt>
      <trkpt lat="42.98583" lon="-0.23156">
        <ele>1497.4</ele>
        <time>2020-09-03T09:43:49Z</time>
      </trkpt>
      <trkpt lat="42.98582" lon="-0.23149">
        <ele>1498</ele>
        <time>2020-09-03T09:43:51Z</time>
      </trkpt>
      <trkpt lat="42.98582" lon="-0.23146">
        <ele>1498.2</ele>
        <time>2020-09-03T09:43:52Z</time>
      </trkpt>
      <trkpt lat="42.98581" lon="-0.23142">
        <ele>1498.4</ele>
        <time>2020-09-03T09:43:53Z</time>
      </trkpt>
      <trkpt lat="42.9858" lon="-0.23135">
        <ele>1499</ele>
        <time>2020-09-03T09:43:55Z</time>
      </trkpt>
      <trkpt lat="42.9858" lon="-0.23131">
        <ele>1499</ele>
        <time>2020-09-03T09:43:56Z</time>
      </trkpt>
      <trkpt lat="42.98579" lon="-0.23121">
        <ele>1499.6</ele>
        <time>2020-09-03T09:43:59Z</time>
      </trkpt>
      <trkpt lat="42.98579" lon="-0.23117">
        <ele>1499.8</ele>
        <time>2020-09-03T09:44:00Z</time>
      </trkpt>
      <trkpt lat="42.98578" lon="-0.23114">
        <ele>1500</ele>
        <time>2020-09-03T09:44:01Z</time>
      </trkpt>
      <trkpt lat="42.98578" lon="-0.23106">
        <ele>1500.6</ele>
        <time>2020-09-03T09:44:04Z</time>
      </trkpt>
      <trkpt lat="42.98578" lon="-0.23103">
        <ele>1500.8</ele>
        <time>2020-09-03T09:44:05Z</time>
      </trkpt>
      <trkpt lat="42.98577" lon="-0.23099">
        <ele>1500.8</ele>
        <time>2020-09-03T09:44:06Z</time>
      </trkpt>
      <trkpt lat="42.98577" lon="-0.23096">
        <ele>1501</ele>
        <time>2020-09-03T09:44:07Z</time>
      </trkpt>
      <trkpt lat="42.98576" lon="-0.23093">
        <ele>1501.4</ele>
        <time>2020-09-03T09:44:08Z</time>
      </trkpt>
      <trkpt lat="42.98575" lon="-0.23089">
        <ele>1501.4</ele>
        <time>2020-09-03T09:44:09Z</time>
      </trkpt>
      <trkpt lat="42.98575" lon="-0.23086">
        <ele>1501.8</ele>
        <time>2020-09-03T09:44:10Z</time>
      </trkpt>
      <trkpt lat="42.98574" lon="-0.23083">
        <ele>1502.2</ele>
        <time>2020-09-03T09:44:11Z</time>
      </trkpt>
      <trkpt lat="42.98574" lon="-0.23081">
        <ele>1502.2</ele>
        <time>2020-09-03T09:44:12Z</time>
      </trkpt>
      <trkpt lat="42.98573" lon="-0.23078">
        <ele>1502.6</ele>
        <time>2020-09-03T09:44:13Z</time>
      </trkpt>
      <trkpt lat="42.98572" lon="-0.23075">
        <ele>1502.8</ele>
        <time>2020-09-03T09:44:14Z</time>
      </trkpt>
      <trkpt lat="42.98572" lon="-0.23072">
        <ele>1503</ele>
        <time>2020-09-03T09:44:15Z</time>
      </trkpt>
      <trkpt lat="42.98572" lon="-0.23069">
        <ele>1503.2</ele>
        <time>2020-09-03T09:44:16Z</time>
      </trkpt>
      <trkpt lat="42.98571" lon="-0.23066">
        <ele>1503.6</ele>
        <time>2020-09-03T09:44:17Z</time>
      </trkpt>
      <trkpt lat="42.9857" lon="-0.23063">
        <ele>1504</ele>
        <time>2020-09-03T09:44:18Z</time>
      </trkpt>
      <trkpt lat="42.98568" lon="-0.2306">
        <ele>1504.2</ele>
        <time>2020-09-03T09:44:19Z</time>
      </trkpt>
      <trkpt lat="42.98567" lon="-0.23057">
        <ele>1504.2</ele>
        <time>2020-09-03T09:44:20Z</time>
      </trkpt>
      <trkpt lat="42.98566" lon="-0.23054">
        <ele>1504.4</ele>
        <time>2020-09-03T09:44:21Z</time>
      </trkpt>
      <trkpt lat="42.98565" lon="-0.23052">
        <ele>1504.4</ele>
        <time>2020-09-03T09:44:22Z</time>
      </trkpt>
      <trkpt lat="42.98564" lon="-0.23049">
        <ele>1504.8</ele>
        <time>2020-09-03T09:44:23Z</time>
      </trkpt>
      <trkpt lat="42.98563" lon="-0.23045">
        <ele>1504.8</ele>
        <time>2020-09-03T09:44:24Z</time>
      </trkpt>
      <trkpt lat="42.98562" lon="-0.23042">
        <ele>1505.2</ele>
        <time>2020-09-03T09:44:25Z</time>
      </trkpt>
      <trkpt lat="42.98562" lon="-0.2304">
        <ele>1505.4</ele>
        <time>2020-09-03T09:44:26Z</time>
      </trkpt>
      <trkpt lat="42.98561" lon="-0.23037">
        <ele>1505.4</ele>
        <time>2020-09-03T09:44:27Z</time>
      </trkpt>
      <trkpt lat="42.9856" lon="-0.23034">
        <ele>1505.8</ele>
        <time>2020-09-03T09:44:28Z</time>
      </trkpt>
      <trkpt lat="42.98558" lon="-0.23031">
        <ele>1505.8</ele>
        <time>2020-09-03T09:44:29Z</time>
      </trkpt>
      <trkpt lat="42.98557" lon="-0.23028">
        <ele>1506</ele>
        <time>2020-09-03T09:44:30Z</time>
      </trkpt>
      <trkpt lat="42.98556" lon="-0.23026">
        <ele>1506.2</ele>
        <time>2020-09-03T09:44:31Z</time>
      </trkpt>
      <trkpt lat="42.98554" lon="-0.23022">
        <ele>1506.2</ele>
        <time>2020-09-03T09:44:32Z</time>
      </trkpt>
      <trkpt lat="42.98552" lon="-0.23019">
        <ele>1506.4</ele>
        <time>2020-09-03T09:44:33Z</time>
      </trkpt>
      <trkpt lat="42.98549" lon="-0.23017">
        <ele>1506.6</ele>
        <time>2020-09-03T09:44:34Z</time>
      </trkpt>
      <trkpt lat="42.98548" lon="-0.23015">
        <ele>1506.8</ele>
        <time>2020-09-03T09:44:35Z</time>
      </trkpt>
      <trkpt lat="42.98546" lon="-0.23013">
        <ele>1507</ele>
        <time>2020-09-03T09:44:36Z</time>
      </trkpt>
      <trkpt lat="42.98544" lon="-0.23011">
        <ele>1507.2</ele>
        <time>2020-09-03T09:44:37Z</time>
      </trkpt>
      <trkpt lat="42.98542" lon="-0.23008">
        <ele>1507.6</ele>
        <time>2020-09-03T09:44:38Z</time>
      </trkpt>
      <trkpt lat="42.9854" lon="-0.23006">
        <ele>1507.6</ele>
        <time>2020-09-03T09:44:39Z</time>
      </trkpt>
      <trkpt lat="42.98538" lon="-0.23002">
        <ele>1508</ele>
        <time>2020-09-03T09:44:40Z</time>
      </trkpt>
      <trkpt lat="42.98536" lon="-0.23">
        <ele>1508</ele>
        <time>2020-09-03T09:44:41Z</time>
      </trkpt>
      <trkpt lat="42.98535" lon="-0.22998">
        <ele>1508.2</ele>
        <time>2020-09-03T09:44:42Z</time>
      </trkpt>
      <trkpt lat="42.98533" lon="-0.22996">
        <ele>1508.4</ele>
        <time>2020-09-03T09:44:43Z</time>
      </trkpt>
      <trkpt lat="42.98532" lon="-0.22994">
        <ele>1508.6</ele>
        <time>2020-09-03T09:44:44Z</time>
      </trkpt>
      <trkpt lat="42.9853" lon="-0.22991">
        <ele>1508.8</ele>
        <time>2020-09-03T09:44:45Z</time>
      </trkpt>
      <trkpt lat="42.98529" lon="-0.22989">
        <ele>1509</ele>
        <time>2020-09-03T09:44:46Z</time>
      </trkpt>
      <trkpt lat="42.98527" lon="-0.22985">
        <ele>1509.2</ele>
        <time>2020-09-03T09:44:47Z</time>
      </trkpt>
      <trkpt lat="42.98526" lon="-0.22983">
        <ele>1509.4</ele>
        <time>2020-09-03T09:44:48Z</time>
      </trkpt>
      <trkpt lat="42.98525" lon="-0.2298">
        <ele>1509.8</ele>
        <time>2020-09-03T09:44:49Z</time>
      </trkpt>
      <trkpt lat="42.98525" lon="-0.22977">
        <ele>1509.8</ele>
        <time>2020-09-03T09:44:50Z</time>
      </trkpt>
      <trkpt lat="42.98524" lon="-0.22974">
        <ele>1510.2</ele>
        <time>2020-09-03T09:44:51Z</time>
      </trkpt>
      <trkpt lat="42.98524" lon="-0.22971">
        <ele>1510.4</ele>
        <time>2020-09-03T09:44:52Z</time>
      </trkpt>
      <trkpt lat="42.98523" lon="-0.22968">
        <ele>1510.6</ele>
        <time>2020-09-03T09:44:53Z</time>
      </trkpt>
      <trkpt lat="42.98522" lon="-0.22965">
        <ele>1511</ele>
        <time>2020-09-03T09:44:54Z</time>
      </trkpt>
      <trkpt lat="42.98522" lon="-0.22963">
        <ele>1511</ele>
        <time>2020-09-03T09:44:55Z</time>
      </trkpt>
      <trkpt lat="42.98521" lon="-0.2296">
        <ele>1511.2</ele>
        <time>2020-09-03T09:44:56Z</time>
      </trkpt>
      <trkpt lat="42.98521" lon="-0.22957">
        <ele>1511.4</ele>
        <time>2020-09-03T09:44:57Z</time>
      </trkpt>
      <trkpt lat="42.98521" lon="-0.22954">
        <ele>1512</ele>
        <time>2020-09-03T09:44:58Z</time>
      </trkpt>
      <trkpt lat="42.98521" lon="-0.2295">
        <ele>1512.2</ele>
        <time>2020-09-03T09:44:59Z</time>
      </trkpt>
      <trkpt lat="42.9852" lon="-0.22947">
        <ele>1512.6</ele>
        <time>2020-09-03T09:45:00Z</time>
      </trkpt>
      <trkpt lat="42.98519" lon="-0.22945">
        <ele>1512.8</ele>
        <time>2020-09-03T09:45:01Z</time>
      </trkpt>
      <trkpt lat="42.98518" lon="-0.22942">
        <ele>1513</ele>
        <time>2020-09-03T09:45:02Z</time>
      </trkpt>
      <trkpt lat="42.98518" lon="-0.22939">
        <ele>1513</ele>
        <time>2020-09-03T09:45:03Z</time>
      </trkpt>
      <trkpt lat="42.98517" lon="-0.22936">
        <ele>1513.2</ele>
        <time>2020-09-03T09:45:04Z</time>
      </trkpt>
      <trkpt lat="42.98517" lon="-0.22932">
        <ele>1513.4</ele>
        <time>2020-09-03T09:45:05Z</time>
      </trkpt>
      <trkpt lat="42.98517" lon="-0.22929">
        <ele>1513.6</ele>
        <time>2020-09-03T09:45:06Z</time>
      </trkpt>
      <trkpt lat="42.98518" lon="-0.22925">
        <ele>1513.6</ele>
        <time>2020-09-03T09:45:07Z</time>
      </trkpt>
      <trkpt lat="42.98518" lon="-0.22922">
        <ele>1513.8</ele>
        <time>2020-09-03T09:45:08Z</time>
      </trkpt>
      <trkpt lat="42.98519" lon="-0.22919">
        <ele>1514</ele>
        <time>2020-09-03T09:45:09Z</time>
      </trkpt>
      <trkpt lat="42.9852" lon="-0.22916">
        <ele>1514.2</ele>
        <time>2020-09-03T09:45:10Z</time>
      </trkpt>
      <trkpt lat="42.9852" lon="-0.22913">
        <ele>1514.2</ele>
        <time>2020-09-03T09:45:11Z</time>
      </trkpt>
      <trkpt lat="42.98521" lon="-0.22909">
        <ele>1514.4</ele>
        <time>2020-09-03T09:45:12Z</time>
      </trkpt>
      <trkpt lat="42.98522" lon="-0.22906">
        <ele>1514.6</ele>
        <time>2020-09-03T09:45:13Z</time>
      </trkpt>
      <trkpt lat="42.98522" lon="-0.22903">
        <ele>1514.8</ele>
        <time>2020-09-03T09:45:14Z</time>
      </trkpt>
      <trkpt lat="42.98523" lon="-0.229">
        <ele>1515</ele>
        <time>2020-09-03T09:45:15Z</time>
      </trkpt>
      <trkpt lat="42.98523" lon="-0.22897">
        <ele>1515</ele>
        <time>2020-09-03T09:45:16Z</time>
      </trkpt>
      <trkpt lat="42.98523" lon="-0.22893">
        <ele>1515.4</ele>
        <time>2020-09-03T09:45:17Z</time>
      </trkpt>
      <trkpt lat="42.98524" lon="-0.2289">
        <ele>1515.4</ele>
        <time>2020-09-03T09:45:18Z</time>
      </trkpt>
      <trkpt lat="42.98524" lon="-0.22888">
        <ele>1515.6</ele>
        <time>2020-09-03T09:45:19Z</time>
      </trkpt>
      <trkpt lat="42.98526" lon="-0.22885">
        <ele>1515.8</ele>
        <time>2020-09-03T09:45:20Z</time>
      </trkpt>
      <trkpt lat="42.98527" lon="-0.22882">
        <ele>1516</ele>
        <time>2020-09-03T09:45:21Z</time>
      </trkpt>
      <trkpt lat="42.98529" lon="-0.22879">
        <ele>1516</ele>
        <time>2020-09-03T09:45:22Z</time>
      </trkpt>
      <trkpt lat="42.98531" lon="-0.22877">
        <ele>1516.4</ele>
        <time>2020-09-03T09:45:23Z</time>
      </trkpt>
      <trkpt lat="42.98533" lon="-0.22875">
        <ele>1516.6</ele>
        <time>2020-09-03T09:45:24Z</time>
      </trkpt>
      <trkpt lat="42.98535" lon="-0.22873">
        <ele>1516.8</ele>
        <time>2020-09-03T09:45:25Z</time>
      </trkpt>
      <trkpt lat="42.98537" lon="-0.22871">
        <ele>1516.8</ele>
        <time>2020-09-03T09:45:26Z</time>
      </trkpt>
      <trkpt lat="42.9854" lon="-0.22868">
        <ele>1516.8</ele>
        <time>2020-09-03T09:45:27Z</time>
      </trkpt>
      <trkpt lat="42.98541" lon="-0.22866">
        <ele>1517</ele>
        <time>2020-09-03T09:45:28Z</time>
      </trkpt>
      <trkpt lat="42.98544" lon="-0.22864">
        <ele>1517</ele>
        <time>2020-09-03T09:45:29Z</time>
      </trkpt>
      <trkpt lat="42.98546" lon="-0.22861">
        <ele>1517.2</ele>
        <time>2020-09-03T09:45:30Z</time>
      </trkpt>
      <trkpt lat="42.98549" lon="-0.22859">
        <ele>1517.2</ele>
        <time>2020-09-03T09:45:31Z</time>
      </trkpt>
      <trkpt lat="42.98552" lon="-0.22857">
        <ele>1517.2</ele>
        <time>2020-09-03T09:45:32Z</time>
      </trkpt>
      <trkpt lat="42.98555" lon="-0.22855">
        <ele>1517.4</ele>
        <time>2020-09-03T09:45:33Z</time>
      </trkpt>
      <trkpt lat="42.98557" lon="-0.22854">
        <ele>1517.4</ele>
        <time>2020-09-03T09:45:34Z</time>
      </trkpt>
      <trkpt lat="42.98559" lon="-0.22852">
        <ele>1517.4</ele>
        <time>2020-09-03T09:45:35Z</time>
      </trkpt>
      <trkpt lat="42.98562" lon="-0.2285">
        <ele>1517.6</ele>
        <time>2020-09-03T09:45:36Z</time>
      </trkpt>
      <trkpt lat="42.98565" lon="-0.22848">
        <ele>1517.6</ele>
        <time>2020-09-03T09:45:37Z</time>
      </trkpt>
      <trkpt lat="42.98568" lon="-0.22847">
        <ele>1517.8</ele>
        <time>2020-09-03T09:45:38Z</time>
      </trkpt>
      <trkpt lat="42.9857" lon="-0.22845">
        <ele>1517.8</ele>
        <time>2020-09-03T09:45:39Z</time>
      </trkpt>
      <trkpt lat="42.98573" lon="-0.22843">
        <ele>1518</ele>
        <time>2020-09-03T09:45:40Z</time>
      </trkpt>
      <trkpt lat="42.98575" lon="-0.22841">
        <ele>1518</ele>
        <time>2020-09-03T09:45:41Z</time>
      </trkpt>
      <trkpt lat="42.98579" lon="-0.22839">
        <ele>1518</ele>
        <time>2020-09-03T09:45:42Z</time>
      </trkpt>
      <trkpt lat="42.98581" lon="-0.22838">
        <ele>1518.2</ele>
        <time>2020-09-03T09:45:43Z</time>
      </trkpt>
      <trkpt lat="42.98584" lon="-0.22836">
        <ele>1518.2</ele>
        <time>2020-09-03T09:45:44Z</time>
      </trkpt>
      <trkpt lat="42.98587" lon="-0.22835">
        <ele>1518.4</ele>
        <time>2020-09-03T09:45:45Z</time>
      </trkpt>
      <trkpt lat="42.98591" lon="-0.22834">
        <ele>1518.4</ele>
        <time>2020-09-03T09:45:46Z</time>
      </trkpt>
      <trkpt lat="42.98594" lon="-0.22832">
        <ele>1518.4</ele>
        <time>2020-09-03T09:45:47Z</time>
      </trkpt>
      <trkpt lat="42.98596" lon="-0.22831">
        <ele>1518.6</ele>
        <time>2020-09-03T09:45:48Z</time>
      </trkpt>
      <trkpt lat="42.986" lon="-0.2283">
        <ele>1518.6</ele>
        <time>2020-09-03T09:45:49Z</time>
      </trkpt>
      <trkpt lat="42.98602" lon="-0.22829">
        <ele>1518.6</ele>
        <time>2020-09-03T09:45:50Z</time>
      </trkpt>
      <trkpt lat="42.98606" lon="-0.22828">
        <ele>1518.8</ele>
        <time>2020-09-03T09:45:51Z</time>
      </trkpt>
      <trkpt lat="42.98608" lon="-0.22828">
        <ele>1518.8</ele>
        <time>2020-09-03T09:45:52Z</time>
      </trkpt>
      <trkpt lat="42.98612" lon="-0.22827">
        <ele>1519</ele>
        <time>2020-09-03T09:45:53Z</time>
      </trkpt>
      <trkpt lat="42.98622" lon="-0.22824">
        <ele>1519.2</ele>
        <time>2020-09-03T09:45:57Z</time>
      </trkpt>
      <trkpt lat="42.98625" lon="-0.22823">
        <ele>1519.4</ele>
        <time>2020-09-03T09:45:58Z</time>
      </trkpt>
      <trkpt lat="42.98628" lon="-0.22823">
        <ele>1519.4</ele>
        <time>2020-09-03T09:45:59Z</time>
      </trkpt>
      <trkpt lat="42.98631" lon="-0.22822">
        <ele>1519.4</ele>
        <time>2020-09-03T09:46:00Z</time>
      </trkpt>
      <trkpt lat="42.98637" lon="-0.22821">
        <ele>1519.8</ele>
        <time>2020-09-03T09:46:02Z</time>
      </trkpt>
      <trkpt lat="42.98642" lon="-0.22822">
        <ele>1519.8</ele>
        <time>2020-09-03T09:46:04Z</time>
      </trkpt>
      <trkpt lat="42.98645" lon="-0.22822">
        <ele>1520</ele>
        <time>2020-09-03T09:46:05Z</time>
      </trkpt>
      <trkpt lat="42.98647" lon="-0.22822">
        <ele>1520</ele>
        <time>2020-09-03T09:46:06Z</time>
      </trkpt>
      <trkpt lat="42.9865" lon="-0.22823">
        <ele>1520.2</ele>
        <time>2020-09-03T09:46:07Z</time>
      </trkpt>
      <trkpt lat="42.98653" lon="-0.22824">
        <ele>1520.4</ele>
        <time>2020-09-03T09:46:08Z</time>
      </trkpt>
      <trkpt lat="42.98655" lon="-0.22824">
        <ele>1520.6</ele>
        <time>2020-09-03T09:46:09Z</time>
      </trkpt>
      <trkpt lat="42.98658" lon="-0.22825">
        <ele>1520.8</ele>
        <time>2020-09-03T09:46:10Z</time>
      </trkpt>
      <trkpt lat="42.98676" lon="-0.22823">
        <ele>1521.4</ele>
        <time>2020-09-03T09:46:16Z</time>
      </trkpt>
      <trkpt lat="42.98679" lon="-0.22822">
        <ele>1521.6</ele>
        <time>2020-09-03T09:46:17Z</time>
      </trkpt>
      <trkpt lat="42.98682" lon="-0.22821">
        <ele>1521.6</ele>
        <time>2020-09-03T09:46:18Z</time>
      </trkpt>
      <trkpt lat="42.98686" lon="-0.22819">
        <ele>1521.6</ele>
        <time>2020-09-03T09:46:19Z</time>
      </trkpt>
      <trkpt lat="42.98688" lon="-0.22817">
        <ele>1521.8</ele>
        <time>2020-09-03T09:46:20Z</time>
      </trkpt>
      <trkpt lat="42.98692" lon="-0.22814">
        <ele>1521.8</ele>
        <time>2020-09-03T09:46:21Z</time>
      </trkpt>
      <trkpt lat="42.98695" lon="-0.2281">
        <ele>1521.8</ele>
        <time>2020-09-03T09:46:22Z</time>
      </trkpt>
      <trkpt lat="42.98697" lon="-0.22806">
        <ele>1521.8</ele>
        <time>2020-09-03T09:46:23Z</time>
      </trkpt>
      <trkpt lat="42.98699" lon="-0.22801">
        <ele>1521.8</ele>
        <time>2020-09-03T09:46:24Z</time>
      </trkpt>
      <trkpt lat="42.98701" lon="-0.22796">
        <ele>1521.8</ele>
        <time>2020-09-03T09:46:25Z</time>
      </trkpt>
      <trkpt lat="42.98702" lon="-0.22791">
        <ele>1521.8</ele>
        <time>2020-09-03T09:46:26Z</time>
      </trkpt>
      <trkpt lat="42.98704" lon="-0.22786">
        <ele>1521.8</ele>
        <time>2020-09-03T09:46:27Z</time>
      </trkpt>
      <trkpt lat="42.98721" lon="-0.22765">
        <ele>1522</ele>
        <time>2020-09-03T09:46:33Z</time>
      </trkpt>
      <trkpt lat="42.9874" lon="-0.22755">
        <ele>1522</ele>
        <time>2020-09-03T09:46:37Z</time>
      </trkpt>
      <trkpt lat="42.98744" lon="-0.22754">
        <ele>1522</ele>
        <time>2020-09-03T09:46:38Z</time>
      </trkpt>
      <trkpt lat="42.98758" lon="-0.2275">
        <ele>1521.8</ele>
        <time>2020-09-03T09:46:41Z</time>
      </trkpt>
      <trkpt lat="42.98762" lon="-0.22749">
        <ele>1521.8</ele>
        <time>2020-09-03T09:46:42Z</time>
      </trkpt>
      <trkpt lat="42.98766" lon="-0.22747">
        <ele>1521.8</ele>
        <time>2020-09-03T09:46:43Z</time>
      </trkpt>
      <trkpt lat="42.98775" lon="-0.22744">
        <ele>1521.8</ele>
        <time>2020-09-03T09:46:45Z</time>
      </trkpt>
      <trkpt lat="42.98779" lon="-0.22742">
        <ele>1521.6</ele>
        <time>2020-09-03T09:46:46Z</time>
      </trkpt>
      <trkpt lat="42.98788" lon="-0.22737">
        <ele>1521.4</ele>
        <time>2020-09-03T09:46:48Z</time>
      </trkpt>
      <trkpt lat="42.98792" lon="-0.22736">
        <ele>1521.2</ele>
        <time>2020-09-03T09:46:49Z</time>
      </trkpt>
      <trkpt lat="42.98797" lon="-0.22733">
        <ele>1521.2</ele>
        <time>2020-09-03T09:46:50Z</time>
      </trkpt>
      <trkpt lat="42.98801" lon="-0.2273">
        <ele>1521.2</ele>
        <time>2020-09-03T09:46:51Z</time>
      </trkpt>
      <trkpt lat="42.98826" lon="-0.22715">
        <ele>1521.2</ele>
        <time>2020-09-03T09:46:57Z</time>
      </trkpt>
      <trkpt lat="42.9883" lon="-0.22712">
        <ele>1521.2</ele>
        <time>2020-09-03T09:46:58Z</time>
      </trkpt>
      <trkpt lat="42.98834" lon="-0.22709">
        <ele>1521.2</ele>
        <time>2020-09-03T09:46:59Z</time>
      </trkpt>
      <trkpt lat="42.98843" lon="-0.22704">
        <ele>1521.2</ele>
        <time>2020-09-03T09:47:01Z</time>
      </trkpt>
      <trkpt lat="42.98862" lon="-0.22698">
        <ele>1520.6</ele>
        <time>2020-09-03T09:47:05Z</time>
      </trkpt>
      <trkpt lat="42.98889" lon="-0.2269">
        <ele>1520.2</ele>
        <time>2020-09-03T09:47:10Z</time>
      </trkpt>
      <trkpt lat="42.98906" lon="-0.22684">
        <ele>1520</ele>
        <time>2020-09-03T09:47:13Z</time>
      </trkpt>
      <trkpt lat="42.98923" lon="-0.22677">
        <ele>1519.8</ele>
        <time>2020-09-03T09:47:16Z</time>
      </trkpt>
      <trkpt lat="42.98933" lon="-0.22673">
        <ele>1519.6</ele>
        <time>2020-09-03T09:47:18Z</time>
      </trkpt>
      <trkpt lat="42.98944" lon="-0.22671">
        <ele>1519.4</ele>
        <time>2020-09-03T09:47:20Z</time>
      </trkpt>
      <trkpt lat="42.98949" lon="-0.22671">
        <ele>1519.4</ele>
        <time>2020-09-03T09:47:21Z</time>
      </trkpt>
      <trkpt lat="42.98954" lon="-0.22672">
        <ele>1519.4</ele>
        <time>2020-09-03T09:47:22Z</time>
      </trkpt>
      <trkpt lat="42.98959" lon="-0.22673">
        <ele>1519.2</ele>
        <time>2020-09-03T09:47:23Z</time>
      </trkpt>
      <trkpt lat="42.98964" lon="-0.22674">
        <ele>1519</ele>
        <time>2020-09-03T09:47:24Z</time>
      </trkpt>
      <trkpt lat="42.98981" lon="-0.22681">
        <ele>1518.6</ele>
        <time>2020-09-03T09:47:27Z</time>
      </trkpt>
      <trkpt lat="42.98986" lon="-0.22685">
        <ele>1518.4</ele>
        <time>2020-09-03T09:47:28Z</time>
      </trkpt>
      <trkpt lat="42.99009" lon="-0.22702">
        <ele>1518.2</ele>
        <time>2020-09-03T09:47:32Z</time>
      </trkpt>
      <trkpt lat="42.99015" lon="-0.22705">
        <ele>1517.6</ele>
        <time>2020-09-03T09:47:33Z</time>
      </trkpt>
      <trkpt lat="42.99021" lon="-0.22709">
        <ele>1517.2</ele>
        <time>2020-09-03T09:47:34Z</time>
      </trkpt>
      <trkpt lat="42.99034" lon="-0.22714">
        <ele>1516.4</ele>
        <time>2020-09-03T09:47:36Z</time>
      </trkpt>
      <trkpt lat="42.99041" lon="-0.22715">
        <ele>1516.2</ele>
        <time>2020-09-03T09:47:37Z</time>
      </trkpt>
      <trkpt lat="42.99048" lon="-0.22715">
        <ele>1516</ele>
        <time>2020-09-03T09:47:38Z</time>
      </trkpt>
      <trkpt lat="42.99062" lon="-0.22712">
        <ele>1515.6</ele>
        <time>2020-09-03T09:47:40Z</time>
      </trkpt>
      <trkpt lat="42.99074" lon="-0.22705">
        <ele>1515</ele>
        <time>2020-09-03T09:47:42Z</time>
      </trkpt>
      <trkpt lat="42.99091" lon="-0.22692">
        <ele>1514</ele>
        <time>2020-09-03T09:47:45Z</time>
      </trkpt>
      <trkpt lat="42.99095" lon="-0.22688">
        <ele>1513.4</ele>
        <time>2020-09-03T09:47:46Z</time>
      </trkpt>
      <trkpt lat="42.991" lon="-0.22683">
        <ele>1513.4</ele>
        <time>2020-09-03T09:47:47Z</time>
      </trkpt>
      <trkpt lat="42.99104" lon="-0.22679">
        <ele>1513.2</ele>
        <time>2020-09-03T09:47:48Z</time>
      </trkpt>
      <trkpt lat="42.99108" lon="-0.22675">
        <ele>1513.2</ele>
        <time>2020-09-03T09:47:49Z</time>
      </trkpt>
      <trkpt lat="42.99113" lon="-0.22671">
        <ele>1513</ele>
        <time>2020-09-03T09:47:50Z</time>
      </trkpt>
      <trkpt lat="42.99117" lon="-0.22666">
        <ele>1513</ele>
        <time>2020-09-03T09:47:51Z</time>
      </trkpt>
      <trkpt lat="42.9912" lon="-0.22662">
        <ele>1513</ele>
        <time>2020-09-03T09:47:52Z</time>
      </trkpt>
      <trkpt lat="42.99124" lon="-0.22658">
        <ele>1513</ele>
        <time>2020-09-03T09:47:53Z</time>
      </trkpt>
      <trkpt lat="42.99127" lon="-0.22655">
        <ele>1513</ele>
        <time>2020-09-03T09:47:54Z</time>
      </trkpt>
      <trkpt lat="42.9913" lon="-0.22652">
        <ele>1513</ele>
        <time>2020-09-03T09:47:55Z</time>
      </trkpt>
      <trkpt lat="42.99132" lon="-0.22649">
        <ele>1513.2</ele>
        <time>2020-09-03T09:47:56Z</time>
      </trkpt>
      <trkpt lat="42.99135" lon="-0.22646">
        <ele>1513.2</ele>
        <time>2020-09-03T09:47:57Z</time>
      </trkpt>
      <trkpt lat="42.99137" lon="-0.22643">
        <ele>1513.4</ele>
        <time>2020-09-03T09:47:58Z</time>
      </trkpt>
      <trkpt lat="42.99139" lon="-0.22641">
        <ele>1513.4</ele>
        <time>2020-09-03T09:47:59Z</time>
      </trkpt>
      <trkpt lat="42.99141" lon="-0.2264">
        <ele>1513.4</ele>
        <time>2020-09-03T09:48:00Z</time>
      </trkpt>
      <trkpt lat="42.99143" lon="-0.22638">
        <ele>1513.4</ele>
        <time>2020-09-03T09:48:01Z</time>
      </trkpt>
      <trkpt lat="42.99144" lon="-0.22637">
        <ele>1513.6</ele>
        <time>2020-09-03T09:48:02Z</time>
      </trkpt>
      <trkpt lat="42.99145" lon="-0.22634">
        <ele>1513.8</ele>
        <time>2020-09-03T09:48:03Z</time>
      </trkpt>
      <trkpt lat="42.99145" lon="-0.22633">
        <ele>1513.8</ele>
        <time>2020-09-03T09:48:04Z</time>
      </trkpt>
      <trkpt lat="42.99145" lon="-0.22632">
        <ele>1513.8</ele>
        <time>2020-09-03T09:48:05Z</time>
      </trkpt>
      <trkpt lat="42.99145" lon="-0.22631">
        <ele>1513.8</ele>
        <time>2020-09-03T09:48:06Z</time>
      </trkpt>
      <trkpt lat="42.99145" lon="-0.22631">
        <ele>1513.8</ele>
        <time>2020-09-03T09:48:07Z</time>
      </trkpt>
      <trkpt lat="42.99146" lon="-0.22631">
        <ele>1513.8</ele>
        <time>2020-09-03T09:48:08Z</time>
      </trkpt>
      <trkpt lat="42.99146" lon="-0.22631">
        <ele>1513.8</ele>
        <time>2020-09-03T09:48:19Z</time>
      </trkpt>
      <trkpt lat="42.99145" lon="-0.22632">
        <ele>1513.6</ele>
        <time>2020-09-03T09:48:23Z</time>
      </trkpt>
      <trkpt lat="42.99145" lon="-0.22632">
        <ele>1513.6</ele>
        <time>2020-09-03T09:48:25Z</time>
      </trkpt>
      <trkpt lat="42.99145" lon="-0.22633">
        <ele>1513.8</ele>
        <time>2020-09-03T09:49:07Z</time>
      </trkpt>
      <trkpt lat="42.99145" lon="-0.22633">
        <ele>1513.6</ele>
        <time>2020-09-03T09:50:07Z</time>
      </trkpt>
      <trkpt lat="42.99145" lon="-0.22633">
        <ele>1513.4</ele>
        <time>2020-09-03T09:50:42Z</time>
      </trkpt>
      <trkpt lat="42.99145" lon="-0.22633">
        <ele>1513.4</ele>
        <time>2020-09-03T09:51:04Z</time>
      </trkpt>
      <trkpt lat="42.99145" lon="-0.22633">
        <ele>1513.4</ele>
        <time>2020-09-03T09:52:01Z</time>
      </trkpt>
      <trkpt lat="42.99145" lon="-0.22632">
        <ele>1513.4</ele>
        <time>2020-09-03T09:52:34Z</time>
      </trkpt>
      <trkpt lat="42.99145" lon="-0.2263">
        <ele>1513.4</ele>
        <time>2020-09-03T09:52:46Z</time>
      </trkpt>
      <trkpt lat="42.99148" lon="-0.22622">
        <ele>1514.2</ele>
        <time>2020-09-03T09:53:28Z</time>
      </trkpt>
      <trkpt lat="42.99149" lon="-0.22616">
        <ele>1514.4</ele>
        <time>2020-09-03T09:53:30Z</time>
      </trkpt>
      <trkpt lat="42.99148" lon="-0.22593">
        <ele>1514.8</ele>
        <time>2020-09-03T09:53:38Z</time>
      </trkpt>
      <trkpt lat="42.99148" lon="-0.22591">
        <ele>1515</ele>
        <time>2020-09-03T09:53:39Z</time>
      </trkpt>
      <trkpt lat="42.99144" lon="-0.22576">
        <ele>1515.2</ele>
        <time>2020-09-03T09:53:45Z</time>
      </trkpt>
      <trkpt lat="42.99142" lon="-0.22573">
        <ele>1515.2</ele>
        <time>2020-09-03T09:53:46Z</time>
      </trkpt>
      <trkpt lat="42.99141" lon="-0.22571">
        <ele>1515.2</ele>
        <time>2020-09-03T09:53:47Z</time>
      </trkpt>
      <trkpt lat="42.99134" lon="-0.22557">
        <ele>1515.6</ele>
        <time>2020-09-03T09:53:52Z</time>
      </trkpt>
      <trkpt lat="42.99119" lon="-0.22535">
        <ele>1515.6</ele>
        <time>2020-09-03T09:54:00Z</time>
      </trkpt>
      <trkpt lat="42.99105" lon="-0.22515">
        <ele>1516</ele>
        <time>2020-09-03T09:54:06Z</time>
      </trkpt>
      <trkpt lat="42.99101" lon="-0.22508">
        <ele>1516</ele>
        <time>2020-09-03T09:54:08Z</time>
      </trkpt>
      <trkpt lat="42.99098" lon="-0.22498">
        <ele>1515.8</ele>
        <time>2020-09-03T09:54:10Z</time>
      </trkpt>
      <trkpt lat="42.99094" lon="-0.22475">
        <ele>1516.2</ele>
        <time>2020-09-03T09:54:14Z</time>
      </trkpt>
      <trkpt lat="42.99089" lon="-0.22455">
        <ele>1516</ele>
        <time>2020-09-03T09:54:18Z</time>
      </trkpt>
      <trkpt lat="42.99085" lon="-0.22447">
        <ele>1516.2</ele>
        <time>2020-09-03T09:54:20Z</time>
      </trkpt>
      <trkpt lat="42.99084" lon="-0.22444">
        <ele>1516.2</ele>
        <time>2020-09-03T09:54:21Z</time>
      </trkpt>
      <trkpt lat="42.99082" lon="-0.22441">
        <ele>1516.4</ele>
        <time>2020-09-03T09:54:22Z</time>
      </trkpt>
      <trkpt lat="42.9908" lon="-0.22437">
        <ele>1516.4</ele>
        <time>2020-09-03T09:54:23Z</time>
      </trkpt>
      <trkpt lat="42.99079" lon="-0.22434">
        <ele>1516.4</ele>
        <time>2020-09-03T09:54:24Z</time>
      </trkpt>
      <trkpt lat="42.99078" lon="-0.22431">
        <ele>1516.8</ele>
        <time>2020-09-03T09:54:25Z</time>
      </trkpt>
      <trkpt lat="42.99076" lon="-0.22427">
        <ele>1517</ele>
        <time>2020-09-03T09:54:26Z</time>
      </trkpt>
      <trkpt lat="42.99072" lon="-0.22419">
        <ele>1517.4</ele>
        <time>2020-09-03T09:54:28Z</time>
      </trkpt>
      <trkpt lat="42.99069" lon="-0.22404">
        <ele>1518.4</ele>
        <time>2020-09-03T09:54:31Z</time>
      </trkpt>
      <trkpt lat="42.99068" lon="-0.22399">
        <ele>1518.6</ele>
        <time>2020-09-03T09:54:32Z</time>
      </trkpt>
      <trkpt lat="42.99067" lon="-0.22393">
        <ele>1519</ele>
        <time>2020-09-03T09:54:33Z</time>
      </trkpt>
      <trkpt lat="42.99064" lon="-0.22382">
        <ele>1519.4</ele>
        <time>2020-09-03T09:54:35Z</time>
      </trkpt>
      <trkpt lat="42.99063" lon="-0.22376">
        <ele>1519.6</ele>
        <time>2020-09-03T09:54:36Z</time>
      </trkpt>
      <trkpt lat="42.99061" lon="-0.22369">
        <ele>1519.6</ele>
        <time>2020-09-03T09:54:37Z</time>
      </trkpt>
      <trkpt lat="42.99059" lon="-0.22363">
        <ele>1519.8</ele>
        <time>2020-09-03T09:54:38Z</time>
      </trkpt>
      <trkpt lat="42.99057" lon="-0.22356">
        <ele>1519.8</ele>
        <time>2020-09-03T09:54:39Z</time>
      </trkpt>
      <trkpt lat="42.99055" lon="-0.22349">
        <ele>1519.8</ele>
        <time>2020-09-03T09:54:40Z</time>
      </trkpt>
      <trkpt lat="42.99053" lon="-0.22343">
        <ele>1520</ele>
        <time>2020-09-03T09:54:41Z</time>
      </trkpt>
      <trkpt lat="42.9905" lon="-0.22336">
        <ele>1520</ele>
        <time>2020-09-03T09:54:42Z</time>
      </trkpt>
      <trkpt lat="42.99047" lon="-0.22329">
        <ele>1520</ele>
        <time>2020-09-03T09:54:43Z</time>
      </trkpt>
      <trkpt lat="42.99043" lon="-0.22323">
        <ele>1520</ele>
        <time>2020-09-03T09:54:44Z</time>
      </trkpt>
      <trkpt lat="42.9904" lon="-0.22317">
        <ele>1520</ele>
        <time>2020-09-03T09:54:45Z</time>
      </trkpt>
      <trkpt lat="42.99036" lon="-0.22311">
        <ele>1520</ele>
        <time>2020-09-03T09:54:46Z</time>
      </trkpt>
      <trkpt lat="42.99032" lon="-0.22305">
        <ele>1520</ele>
        <time>2020-09-03T09:54:47Z</time>
      </trkpt>
      <trkpt lat="42.99027" lon="-0.22299">
        <ele>1520</ele>
        <time>2020-09-03T09:54:48Z</time>
      </trkpt>
      <trkpt lat="42.99022" lon="-0.22293">
        <ele>1520</ele>
        <time>2020-09-03T09:54:49Z</time>
      </trkpt>
      <trkpt lat="42.99016" lon="-0.22287">
        <ele>1520</ele>
        <time>2020-09-03T09:54:50Z</time>
      </trkpt>
      <trkpt lat="42.9901" lon="-0.22283">
        <ele>1520</ele>
        <time>2020-09-03T09:54:51Z</time>
      </trkpt>
      <trkpt lat="42.99004" lon="-0.22277">
        <ele>1520</ele>
        <time>2020-09-03T09:54:52Z</time>
      </trkpt>
      <trkpt lat="42.98998" lon="-0.22271">
        <ele>1519.8</ele>
        <time>2020-09-03T09:54:53Z</time>
      </trkpt>
      <trkpt lat="42.98993" lon="-0.22264">
        <ele>1519.8</ele>
        <time>2020-09-03T09:54:54Z</time>
      </trkpt>
      <trkpt lat="42.98987" lon="-0.22256">
        <ele>1519.6</ele>
        <time>2020-09-03T09:54:55Z</time>
      </trkpt>
      <trkpt lat="42.98982" lon="-0.22251">
        <ele>1519.6</ele>
        <time>2020-09-03T09:54:56Z</time>
      </trkpt>
      <trkpt lat="42.98973" lon="-0.22238">
        <ele>1519.8</ele>
        <time>2020-09-03T09:54:58Z</time>
      </trkpt>
      <trkpt lat="42.98967" lon="-0.22229">
        <ele>1519.8</ele>
        <time>2020-09-03T09:55:00Z</time>
      </trkpt>
      <trkpt lat="42.98963" lon="-0.22224">
        <ele>1520</ele>
        <time>2020-09-03T09:55:01Z</time>
      </trkpt>
      <trkpt lat="42.98959" lon="-0.22219">
        <ele>1520</ele>
        <time>2020-09-03T09:55:02Z</time>
      </trkpt>
      <trkpt lat="42.98955" lon="-0.22215">
        <ele>1519.6</ele>
        <time>2020-09-03T09:55:03Z</time>
      </trkpt>
      <trkpt lat="42.98952" lon="-0.22212">
        <ele>1519.6</ele>
        <time>2020-09-03T09:55:04Z</time>
      </trkpt>
      <trkpt lat="42.9895" lon="-0.2221">
        <ele>1519.6</ele>
        <time>2020-09-03T09:55:05Z</time>
      </trkpt>
      <trkpt lat="42.98948" lon="-0.22208">
        <ele>1519.2</ele>
        <time>2020-09-03T09:55:06Z</time>
      </trkpt>
      <trkpt lat="42.98946" lon="-0.22207">
        <ele>1519.2</ele>
        <time>2020-09-03T09:55:07Z</time>
      </trkpt>
      <trkpt lat="42.98945" lon="-0.22206">
        <ele>1519.2</ele>
        <time>2020-09-03T09:55:08Z</time>
      </trkpt>
      <trkpt lat="42.98943" lon="-0.22205">
        <ele>1519</ele>
        <time>2020-09-03T09:55:09Z</time>
      </trkpt>
      <trkpt lat="42.98943" lon="-0.22205">
        <ele>1519</ele>
        <time>2020-09-03T09:55:10Z</time>
      </trkpt>
      <trkpt lat="42.98944" lon="-0.22205">
        <ele>1518.8</ele>
        <time>2020-09-03T09:55:12Z</time>
      </trkpt>
      <trkpt lat="42.98944" lon="-0.22205">
        <ele>1518.6</ele>
        <time>2020-09-03T09:55:15Z</time>
      </trkpt>
      <trkpt lat="42.98941" lon="-0.22203">
        <ele>1518.4</ele>
        <time>2020-09-03T09:55:26Z</time>
      </trkpt>
      <trkpt lat="42.98939" lon="-0.22201">
        <ele>1518.4</ele>
        <time>2020-09-03T09:55:27Z</time>
      </trkpt>
      <trkpt lat="42.98937" lon="-0.22198">
        <ele>1518.4</ele>
        <time>2020-09-03T09:55:28Z</time>
      </trkpt>
      <trkpt lat="42.98934" lon="-0.22196">
        <ele>1518.4</ele>
        <time>2020-09-03T09:55:29Z</time>
      </trkpt>
      <trkpt lat="42.98921" lon="-0.2219">
        <ele>1518.4</ele>
        <time>2020-09-03T09:55:32Z</time>
      </trkpt>
      <trkpt lat="42.98911" lon="-0.22188">
        <ele>1518.2</ele>
        <time>2020-09-03T09:55:34Z</time>
      </trkpt>
      <trkpt lat="42.98903" lon="-0.22186">
        <ele>1518.2</ele>
        <time>2020-09-03T09:55:36Z</time>
      </trkpt>
      <trkpt lat="42.98899" lon="-0.22186">
        <ele>1518.2</ele>
        <time>2020-09-03T09:55:37Z</time>
      </trkpt>
      <trkpt lat="42.98896" lon="-0.22186">
        <ele>1518.2</ele>
        <time>2020-09-03T09:55:38Z</time>
      </trkpt>
      <trkpt lat="42.98891" lon="-0.22184">
        <ele>1518.2</ele>
        <time>2020-09-03T09:55:39Z</time>
      </trkpt>
      <trkpt lat="42.98887" lon="-0.22182">
        <ele>1518</ele>
        <time>2020-09-03T09:55:40Z</time>
      </trkpt>
      <trkpt lat="42.98879" lon="-0.22174">
        <ele>1518</ele>
        <time>2020-09-03T09:55:42Z</time>
      </trkpt>
      <trkpt lat="42.98875" lon="-0.22169">
        <ele>1517.6</ele>
        <time>2020-09-03T09:55:43Z</time>
      </trkpt>
      <trkpt lat="42.98873" lon="-0.22163">
        <ele>1517.4</ele>
        <time>2020-09-03T09:55:44Z</time>
      </trkpt>
      <trkpt lat="42.98871" lon="-0.22157">
        <ele>1517.4</ele>
        <time>2020-09-03T09:55:45Z</time>
      </trkpt>
      <trkpt lat="42.9887" lon="-0.22151">
        <ele>1517.4</ele>
        <time>2020-09-03T09:55:46Z</time>
      </trkpt>
      <trkpt lat="42.98868" lon="-0.22144">
        <ele>1517.4</ele>
        <time>2020-09-03T09:55:47Z</time>
      </trkpt>
      <trkpt lat="42.98863" lon="-0.22129">
        <ele>1517.4</ele>
        <time>2020-09-03T09:55:49Z</time>
      </trkpt>
      <trkpt lat="42.98861" lon="-0.22122">
        <ele>1517.4</ele>
        <time>2020-09-03T09:55:50Z</time>
      </trkpt>
      <trkpt lat="42.98859" lon="-0.22115">
        <ele>1517.4</ele>
        <time>2020-09-03T09:55:51Z</time>
      </trkpt>
      <trkpt lat="42.98858" lon="-0.221">
        <ele>1517.4</ele>
        <time>2020-09-03T09:55:53Z</time>
      </trkpt>
      <trkpt lat="42.98858" lon="-0.22085">
        <ele>1518</ele>
        <time>2020-09-03T09:55:55Z</time>
      </trkpt>
      <trkpt lat="42.98858" lon="-0.22071">
        <ele>1518.6</ele>
        <time>2020-09-03T09:55:57Z</time>
      </trkpt>
      <trkpt lat="42.98857" lon="-0.22056">
        <ele>1519</ele>
        <time>2020-09-03T09:55:59Z</time>
      </trkpt>
      <trkpt lat="42.98855" lon="-0.22042">
        <ele>1519</ele>
        <time>2020-09-03T09:56:01Z</time>
      </trkpt>
      <trkpt lat="42.98855" lon="-0.22027">
        <ele>1519.2</ele>
        <time>2020-09-03T09:56:03Z</time>
      </trkpt>
      <trkpt lat="42.98858" lon="-0.22013">
        <ele>1519.2</ele>
        <time>2020-09-03T09:56:05Z</time>
      </trkpt>
      <trkpt lat="42.9886" lon="-0.22006">
        <ele>1519</ele>
        <time>2020-09-03T09:56:06Z</time>
      </trkpt>
      <trkpt lat="42.98869" lon="-0.2196">
        <ele>1519</ele>
        <time>2020-09-03T09:56:11Z</time>
      </trkpt>
      <trkpt lat="42.98884" lon="-0.21896">
        <ele>1518.2</ele>
        <time>2020-09-03T09:56:17Z</time>
      </trkpt>
      <trkpt lat="42.98887" lon="-0.21886">
        <ele>1518</ele>
        <time>2020-09-03T09:56:18Z</time>
      </trkpt>
      <trkpt lat="42.9889" lon="-0.21876">
        <ele>1517.6</ele>
        <time>2020-09-03T09:56:19Z</time>
      </trkpt>
      <trkpt lat="42.98894" lon="-0.21855">
        <ele>1516.4</ele>
        <time>2020-09-03T09:56:21Z</time>
      </trkpt>
      <trkpt lat="42.98891" lon="-0.21834">
        <ele>1515.6</ele>
        <time>2020-09-03T09:56:23Z</time>
      </trkpt>
      <trkpt lat="42.98889" lon="-0.21825">
        <ele>1515.4</ele>
        <time>2020-09-03T09:56:24Z</time>
      </trkpt>
      <trkpt lat="42.98888" lon="-0.21818">
        <ele>1514.4</ele>
        <time>2020-09-03T09:56:25Z</time>
      </trkpt>
      <trkpt lat="42.98887" lon="-0.21808">
        <ele>1513.4</ele>
        <time>2020-09-03T09:56:26Z</time>
      </trkpt>
      <trkpt lat="42.98887" lon="-0.21796">
        <ele>1512.8</ele>
        <time>2020-09-03T09:56:27Z</time>
      </trkpt>
      <trkpt lat="42.98886" lon="-0.21787">
        <ele>1512</ele>
        <time>2020-09-03T09:56:28Z</time>
      </trkpt>
      <trkpt lat="42.98886" lon="-0.21776">
        <ele>1511.8</ele>
        <time>2020-09-03T09:56:29Z</time>
      </trkpt>
      <trkpt lat="42.98886" lon="-0.21762">
        <ele>1511</ele>
        <time>2020-09-03T09:56:30Z</time>
      </trkpt>
      <trkpt lat="42.98885" lon="-0.21738">
        <ele>1509.6</ele>
        <time>2020-09-03T09:56:32Z</time>
      </trkpt>
      <trkpt lat="42.98884" lon="-0.21726">
        <ele>1509.2</ele>
        <time>2020-09-03T09:56:33Z</time>
      </trkpt>
      <trkpt lat="42.98877" lon="-0.21691">
        <ele>1507.8</ele>
        <time>2020-09-03T09:56:36Z</time>
      </trkpt>
      <trkpt lat="42.98869" lon="-0.21672">
        <ele>1507</ele>
        <time>2020-09-03T09:56:38Z</time>
      </trkpt>
      <trkpt lat="42.98864" lon="-0.21664">
        <ele>1506.4</ele>
        <time>2020-09-03T09:56:39Z</time>
      </trkpt>
      <trkpt lat="42.9886" lon="-0.21657">
        <ele>1505.4</ele>
        <time>2020-09-03T09:56:40Z</time>
      </trkpt>
      <trkpt lat="42.98853" lon="-0.21652">
        <ele>1504.6</ele>
        <time>2020-09-03T09:56:41Z</time>
      </trkpt>
      <trkpt lat="42.98848" lon="-0.2165">
        <ele>1504.4</ele>
        <time>2020-09-03T09:56:42Z</time>
      </trkpt>
      <trkpt lat="42.98843" lon="-0.2165">
        <ele>1504</ele>
        <time>2020-09-03T09:56:43Z</time>
      </trkpt>
      <trkpt lat="42.98837" lon="-0.21651">
        <ele>1504</ele>
        <time>2020-09-03T09:56:44Z</time>
      </trkpt>
      <trkpt lat="42.98833" lon="-0.21653">
        <ele>1503.8</ele>
        <time>2020-09-03T09:56:45Z</time>
      </trkpt>
      <trkpt lat="42.98826" lon="-0.21657">
        <ele>1503.6</ele>
        <time>2020-09-03T09:56:46Z</time>
      </trkpt>
      <trkpt lat="42.98821" lon="-0.21661">
        <ele>1503.4</ele>
        <time>2020-09-03T09:56:47Z</time>
      </trkpt>
      <trkpt lat="42.98816" lon="-0.21664">
        <ele>1503.2</ele>
        <time>2020-09-03T09:56:48Z</time>
      </trkpt>
      <trkpt lat="42.98809" lon="-0.21669">
        <ele>1502.6</ele>
        <time>2020-09-03T09:56:49Z</time>
      </trkpt>
      <trkpt lat="42.98803" lon="-0.21671">
        <ele>1502.2</ele>
        <time>2020-09-03T09:56:50Z</time>
      </trkpt>
      <trkpt lat="42.98796" lon="-0.21674">
        <ele>1501.8</ele>
        <time>2020-09-03T09:56:51Z</time>
      </trkpt>
      <trkpt lat="42.98789" lon="-0.21675">
        <ele>1501.8</ele>
        <time>2020-09-03T09:56:52Z</time>
      </trkpt>
      <trkpt lat="42.98773" lon="-0.21676">
        <ele>1500.2</ele>
        <time>2020-09-03T09:56:54Z</time>
      </trkpt>
      <trkpt lat="42.98758" lon="-0.21676">
        <ele>1499.6</ele>
        <time>2020-09-03T09:56:56Z</time>
      </trkpt>
      <trkpt lat="42.9874" lon="-0.21673">
        <ele>1498.8</ele>
        <time>2020-09-03T09:56:58Z</time>
      </trkpt>
      <trkpt lat="42.98715" lon="-0.21662">
        <ele>1497.8</ele>
        <time>2020-09-03T09:57:01Z</time>
      </trkpt>
      <trkpt lat="42.98707" lon="-0.21658">
        <ele>1497.6</ele>
        <time>2020-09-03T09:57:02Z</time>
      </trkpt>
      <trkpt lat="42.98699" lon="-0.21653">
        <ele>1497.6</ele>
        <time>2020-09-03T09:57:03Z</time>
      </trkpt>
      <trkpt lat="42.98692" lon="-0.21649">
        <ele>1497.4</ele>
        <time>2020-09-03T09:57:04Z</time>
      </trkpt>
      <trkpt lat="42.98685" lon="-0.21648">
        <ele>1497</ele>
        <time>2020-09-03T09:57:05Z</time>
      </trkpt>
      <trkpt lat="42.98678" lon="-0.21647">
        <ele>1495.6</ele>
        <time>2020-09-03T09:57:06Z</time>
      </trkpt>
      <trkpt lat="42.98669" lon="-0.21647">
        <ele>1494.6</ele>
        <time>2020-09-03T09:57:07Z</time>
      </trkpt>
      <trkpt lat="42.98661" lon="-0.2165">
        <ele>1494</ele>
        <time>2020-09-03T09:57:08Z</time>
      </trkpt>
      <trkpt lat="42.98653" lon="-0.21653">
        <ele>1492.8</ele>
        <time>2020-09-03T09:57:09Z</time>
      </trkpt>
      <trkpt lat="42.98647" lon="-0.21655">
        <ele>1492.2</ele>
        <time>2020-09-03T09:57:10Z</time>
      </trkpt>
      <trkpt lat="42.9864" lon="-0.21658">
        <ele>1491.2</ele>
        <time>2020-09-03T09:57:11Z</time>
      </trkpt>
      <trkpt lat="42.98633" lon="-0.21662">
        <ele>1490.8</ele>
        <time>2020-09-03T09:57:12Z</time>
      </trkpt>
      <trkpt lat="42.98628" lon="-0.21663">
        <ele>1490.2</ele>
        <time>2020-09-03T09:57:13Z</time>
      </trkpt>
      <trkpt lat="42.98623" lon="-0.21663">
        <ele>1490</ele>
        <time>2020-09-03T09:57:14Z</time>
      </trkpt>
      <trkpt lat="42.98619" lon="-0.2166">
        <ele>1489.8</ele>
        <time>2020-09-03T09:57:15Z</time>
      </trkpt>
      <trkpt lat="42.98618" lon="-0.21657">
        <ele>1489.6</ele>
        <time>2020-09-03T09:57:16Z</time>
      </trkpt>
      <trkpt lat="42.98617" lon="-0.21651">
        <ele>1489.2</ele>
        <time>2020-09-03T09:57:17Z</time>
      </trkpt>
      <trkpt lat="42.98621" lon="-0.21647">
        <ele>1488.6</ele>
        <time>2020-09-03T09:57:18Z</time>
      </trkpt>
      <trkpt lat="42.98625" lon="-0.21644">
        <ele>1487.8</ele>
        <time>2020-09-03T09:57:19Z</time>
      </trkpt>
      <trkpt lat="42.98629" lon="-0.21642">
        <ele>1487.4</ele>
        <time>2020-09-03T09:57:20Z</time>
      </trkpt>
      <trkpt lat="42.98633" lon="-0.21641">
        <ele>1486.2</ele>
        <time>2020-09-03T09:57:21Z</time>
      </trkpt>
      <trkpt lat="42.9864" lon="-0.21638">
        <ele>1485.6</ele>
        <time>2020-09-03T09:57:22Z</time>
      </trkpt>
      <trkpt lat="42.98653" lon="-0.21632">
        <ele>1485</ele>
        <time>2020-09-03T09:57:24Z</time>
      </trkpt>
      <trkpt lat="42.98664" lon="-0.21628">
        <ele>1484.6</ele>
        <time>2020-09-03T09:57:26Z</time>
      </trkpt>
      <trkpt lat="42.98676" lon="-0.21626">
        <ele>1484.6</ele>
        <time>2020-09-03T09:57:28Z</time>
      </trkpt>
      <trkpt lat="42.98681" lon="-0.21625">
        <ele>1484.6</ele>
        <time>2020-09-03T09:57:29Z</time>
      </trkpt>
      <trkpt lat="42.98684" lon="-0.21626">
        <ele>1484.6</ele>
        <time>2020-09-03T09:57:30Z</time>
      </trkpt>
      <trkpt lat="42.98689" lon="-0.21626">
        <ele>1484.6</ele>
        <time>2020-09-03T09:57:31Z</time>
      </trkpt>
      <trkpt lat="42.98692" lon="-0.21627">
        <ele>1484.8</ele>
        <time>2020-09-03T09:57:32Z</time>
      </trkpt>
      <trkpt lat="42.98697" lon="-0.21628">
        <ele>1485</ele>
        <time>2020-09-03T09:57:33Z</time>
      </trkpt>
      <trkpt lat="42.98701" lon="-0.21628">
        <ele>1485</ele>
        <time>2020-09-03T09:57:34Z</time>
      </trkpt>
      <trkpt lat="42.98705" lon="-0.21629">
        <ele>1485</ele>
        <time>2020-09-03T09:57:35Z</time>
      </trkpt>
      <trkpt lat="42.98729" lon="-0.21638">
        <ele>1485</ele>
        <time>2020-09-03T09:57:39Z</time>
      </trkpt>
      <trkpt lat="42.98765" lon="-0.21638">
        <ele>1484.2</ele>
        <time>2020-09-03T09:57:44Z</time>
      </trkpt>
      <trkpt lat="42.98788" lon="-0.21631">
        <ele>1483.6</ele>
        <time>2020-09-03T09:57:47Z</time>
      </trkpt>
      <trkpt lat="42.98802" lon="-0.21623">
        <ele>1483.2</ele>
        <time>2020-09-03T09:57:49Z</time>
      </trkpt>
      <trkpt lat="42.98818" lon="-0.2161">
        <ele>1482.6</ele>
        <time>2020-09-03T09:57:51Z</time>
      </trkpt>
      <trkpt lat="42.98837" lon="-0.2159">
        <ele>1482</ele>
        <time>2020-09-03T09:57:54Z</time>
      </trkpt>
      <trkpt lat="42.98843" lon="-0.21585">
        <ele>1481.8</ele>
        <time>2020-09-03T09:57:55Z</time>
      </trkpt>
      <trkpt lat="42.98849" lon="-0.2158">
        <ele>1481.6</ele>
        <time>2020-09-03T09:57:56Z</time>
      </trkpt>
      <trkpt lat="42.98854" lon="-0.21576">
        <ele>1481.6</ele>
        <time>2020-09-03T09:57:57Z</time>
      </trkpt>
      <trkpt lat="42.9886" lon="-0.21571">
        <ele>1481.4</ele>
        <time>2020-09-03T09:57:58Z</time>
      </trkpt>
      <trkpt lat="42.98867" lon="-0.21565">
        <ele>1481.2</ele>
        <time>2020-09-03T09:57:59Z</time>
      </trkpt>
      <trkpt lat="42.9888" lon="-0.21546">
        <ele>1480.4</ele>
        <time>2020-09-03T09:58:01Z</time>
      </trkpt>
      <trkpt lat="42.98885" lon="-0.21535">
        <ele>1479.6</ele>
        <time>2020-09-03T09:58:02Z</time>
      </trkpt>
      <trkpt lat="42.98888" lon="-0.21526">
        <ele>1478</ele>
        <time>2020-09-03T09:58:03Z</time>
      </trkpt>
      <trkpt lat="42.98893" lon="-0.21512">
        <ele>1477.6</ele>
        <time>2020-09-03T09:58:04Z</time>
      </trkpt>
      <trkpt lat="42.98896" lon="-0.21501">
        <ele>1475.8</ele>
        <time>2020-09-03T09:58:05Z</time>
      </trkpt>
      <trkpt lat="42.98902" lon="-0.2148">
        <ele>1474</ele>
        <time>2020-09-03T09:58:07Z</time>
      </trkpt>
      <trkpt lat="42.98906" lon="-0.2147">
        <ele>1473.8</ele>
        <time>2020-09-03T09:58:08Z</time>
      </trkpt>
      <trkpt lat="42.9891" lon="-0.21462">
        <ele>1473.4</ele>
        <time>2020-09-03T09:58:09Z</time>
      </trkpt>
      <trkpt lat="42.98918" lon="-0.21444">
        <ele>1473</ele>
        <time>2020-09-03T09:58:11Z</time>
      </trkpt>
      <trkpt lat="42.98924" lon="-0.21423">
        <ele>1472</ele>
        <time>2020-09-03T09:58:13Z</time>
      </trkpt>
      <trkpt lat="42.98928" lon="-0.2141">
        <ele>1471.6</ele>
        <time>2020-09-03T09:58:14Z</time>
      </trkpt>
      <trkpt lat="42.9893" lon="-0.21402">
        <ele>1470.8</ele>
        <time>2020-09-03T09:58:15Z</time>
      </trkpt>
      <trkpt lat="42.98934" lon="-0.21393">
        <ele>1470.2</ele>
        <time>2020-09-03T09:58:16Z</time>
      </trkpt>
      <trkpt lat="42.98938" lon="-0.21385">
        <ele>1469.6</ele>
        <time>2020-09-03T09:58:17Z</time>
      </trkpt>
      <trkpt lat="42.98943" lon="-0.21378">
        <ele>1469.2</ele>
        <time>2020-09-03T09:58:18Z</time>
      </trkpt>
      <trkpt lat="42.9895" lon="-0.21372">
        <ele>1469.2</ele>
        <time>2020-09-03T09:58:19Z</time>
      </trkpt>
      <trkpt lat="42.98955" lon="-0.2137">
        <ele>1468.8</ele>
        <time>2020-09-03T09:58:20Z</time>
      </trkpt>
      <trkpt lat="42.98962" lon="-0.21369">
        <ele>1468</ele>
        <time>2020-09-03T09:58:21Z</time>
      </trkpt>
      <trkpt lat="42.98969" lon="-0.21368">
        <ele>1467.2</ele>
        <time>2020-09-03T09:58:22Z</time>
      </trkpt>
      <trkpt lat="42.98975" lon="-0.21365">
        <ele>1466.8</ele>
        <time>2020-09-03T09:58:23Z</time>
      </trkpt>
      <trkpt lat="42.98982" lon="-0.21361">
        <ele>1466</ele>
        <time>2020-09-03T09:58:24Z</time>
      </trkpt>
      <trkpt lat="42.98988" lon="-0.21354">
        <ele>1465.6</ele>
        <time>2020-09-03T09:58:25Z</time>
      </trkpt>
      <trkpt lat="42.98993" lon="-0.21347">
        <ele>1465</ele>
        <time>2020-09-03T09:58:26Z</time>
      </trkpt>
      <trkpt lat="42.98999" lon="-0.21338">
        <ele>1464.6</ele>
        <time>2020-09-03T09:58:27Z</time>
      </trkpt>
      <trkpt lat="42.99003" lon="-0.21328">
        <ele>1464</ele>
        <time>2020-09-03T09:58:28Z</time>
      </trkpt>
      <trkpt lat="42.99006" lon="-0.21317">
        <ele>1463.6</ele>
        <time>2020-09-03T09:58:29Z</time>
      </trkpt>
      <trkpt lat="42.99009" lon="-0.21304">
        <ele>1462.8</ele>
        <time>2020-09-03T09:58:30Z</time>
      </trkpt>
      <trkpt lat="42.99014" lon="-0.21279">
        <ele>1461.2</ele>
        <time>2020-09-03T09:58:32Z</time>
      </trkpt>
      <trkpt lat="42.99017" lon="-0.21268">
        <ele>1460</ele>
        <time>2020-09-03T09:58:33Z</time>
      </trkpt>
      <trkpt lat="42.9902" lon="-0.21257">
        <ele>1459.6</ele>
        <time>2020-09-03T09:58:34Z</time>
      </trkpt>
      <trkpt lat="42.99023" lon="-0.21247">
        <ele>1458.8</ele>
        <time>2020-09-03T09:58:35Z</time>
      </trkpt>
      <trkpt lat="42.99028" lon="-0.21239">
        <ele>1458.4</ele>
        <time>2020-09-03T09:58:36Z</time>
      </trkpt>
      <trkpt lat="42.99032" lon="-0.21231">
        <ele>1458</ele>
        <time>2020-09-03T09:58:37Z</time>
      </trkpt>
      <trkpt lat="42.99036" lon="-0.21224">
        <ele>1457.6</ele>
        <time>2020-09-03T09:58:38Z</time>
      </trkpt>
      <trkpt lat="42.9904" lon="-0.21217">
        <ele>1457.2</ele>
        <time>2020-09-03T09:58:39Z</time>
      </trkpt>
      <trkpt lat="42.99045" lon="-0.21209">
        <ele>1457</ele>
        <time>2020-09-03T09:58:40Z</time>
      </trkpt>
      <trkpt lat="42.9905" lon="-0.21201">
        <ele>1456.8</ele>
        <time>2020-09-03T09:58:41Z</time>
      </trkpt>
      <trkpt lat="42.99062" lon="-0.21183">
        <ele>1456.6</ele>
        <time>2020-09-03T09:58:43Z</time>
      </trkpt>
      <trkpt lat="42.99067" lon="-0.21176">
        <ele>1456.4</ele>
        <time>2020-09-03T09:58:44Z</time>
      </trkpt>
      <trkpt lat="42.99078" lon="-0.21162">
        <ele>1455.2</ele>
        <time>2020-09-03T09:58:46Z</time>
      </trkpt>
      <trkpt lat="42.99083" lon="-0.21155">
        <ele>1454.6</ele>
        <time>2020-09-03T09:58:47Z</time>
      </trkpt>
      <trkpt lat="42.99087" lon="-0.21148">
        <ele>1453.6</ele>
        <time>2020-09-03T09:58:48Z</time>
      </trkpt>
      <trkpt lat="42.99097" lon="-0.21128">
        <ele>1452</ele>
        <time>2020-09-03T09:58:50Z</time>
      </trkpt>
      <trkpt lat="42.99102" lon="-0.21107">
        <ele>1450</ele>
        <time>2020-09-03T09:58:52Z</time>
      </trkpt>
      <trkpt lat="42.99102" lon="-0.21085">
        <ele>1448.4</ele>
        <time>2020-09-03T09:58:54Z</time>
      </trkpt>
      <trkpt lat="42.99102" lon="-0.21072">
        <ele>1448.2</ele>
        <time>2020-09-03T09:58:55Z</time>
      </trkpt>
      <trkpt lat="42.99104" lon="-0.21057">
        <ele>1447.6</ele>
        <time>2020-09-03T09:58:56Z</time>
      </trkpt>
      <trkpt lat="42.99105" lon="-0.21046">
        <ele>1447.2</ele>
        <time>2020-09-03T09:58:57Z</time>
      </trkpt>
      <trkpt lat="42.99108" lon="-0.21022">
        <ele>1445.2</ele>
        <time>2020-09-03T09:58:59Z</time>
      </trkpt>
      <trkpt lat="42.99108" lon="-0.2101">
        <ele>1444.8</ele>
        <time>2020-09-03T09:59:00Z</time>
      </trkpt>
      <trkpt lat="42.99107" lon="-0.20999">
        <ele>1444.4</ele>
        <time>2020-09-03T09:59:01Z</time>
      </trkpt>
      <trkpt lat="42.99105" lon="-0.20986">
        <ele>1444.2</ele>
        <time>2020-09-03T09:59:02Z</time>
      </trkpt>
      <trkpt lat="42.99102" lon="-0.20979">
        <ele>1443.2</ele>
        <time>2020-09-03T09:59:03Z</time>
      </trkpt>
      <trkpt lat="42.99096" lon="-0.2097">
        <ele>1442.6</ele>
        <time>2020-09-03T09:59:04Z</time>
      </trkpt>
      <trkpt lat="42.9909" lon="-0.20962">
        <ele>1442</ele>
        <time>2020-09-03T09:59:05Z</time>
      </trkpt>
      <trkpt lat="42.99084" lon="-0.20953">
        <ele>1441.4</ele>
        <time>2020-09-03T09:59:06Z</time>
      </trkpt>
      <trkpt lat="42.99078" lon="-0.20944">
        <ele>1440.6</ele>
        <time>2020-09-03T09:59:07Z</time>
      </trkpt>
      <trkpt lat="42.99067" lon="-0.2093">
        <ele>1438.6</ele>
        <time>2020-09-03T09:59:09Z</time>
      </trkpt>
      <trkpt lat="42.99062" lon="-0.20921">
        <ele>1437.2</ele>
        <time>2020-09-03T09:59:10Z</time>
      </trkpt>
      <trkpt lat="42.99058" lon="-0.20914">
        <ele>1435</ele>
        <time>2020-09-03T09:59:11Z</time>
      </trkpt>
      <trkpt lat="42.99054" lon="-0.20906">
        <ele>1434</ele>
        <time>2020-09-03T09:59:12Z</time>
      </trkpt>
      <trkpt lat="42.99051" lon="-0.20899">
        <ele>1432.4</ele>
        <time>2020-09-03T09:59:13Z</time>
      </trkpt>
      <trkpt lat="42.99046" lon="-0.20886">
        <ele>1430.6</ele>
        <time>2020-09-03T09:59:14Z</time>
      </trkpt>
      <trkpt lat="42.99038" lon="-0.20868">
        <ele>1428.4</ele>
        <time>2020-09-03T09:59:16Z</time>
      </trkpt>
      <trkpt lat="42.99028" lon="-0.20847">
        <ele>1426.8</ele>
        <time>2020-09-03T09:59:18Z</time>
      </trkpt>
      <trkpt lat="42.99021" lon="-0.20829">
        <ele>1425.6</ele>
        <time>2020-09-03T09:59:20Z</time>
      </trkpt>
      <trkpt lat="42.9902" lon="-0.20822">
        <ele>1425.2</ele>
        <time>2020-09-03T09:59:21Z</time>
      </trkpt>
      <trkpt lat="42.99019" lon="-0.20813">
        <ele>1422.2</ele>
        <time>2020-09-03T09:59:22Z</time>
      </trkpt>
      <trkpt lat="42.99019" lon="-0.20801">
        <ele>1421</ele>
        <time>2020-09-03T09:59:23Z</time>
      </trkpt>
      <trkpt lat="42.9902" lon="-0.2079">
        <ele>1419</ele>
        <time>2020-09-03T09:59:24Z</time>
      </trkpt>
      <trkpt lat="42.99021" lon="-0.20777">
        <ele>1418.2</ele>
        <time>2020-09-03T09:59:25Z</time>
      </trkpt>
      <trkpt lat="42.99022" lon="-0.20765">
        <ele>1416.2</ele>
        <time>2020-09-03T09:59:26Z</time>
      </trkpt>
      <trkpt lat="42.99022" lon="-0.20755">
        <ele>1414.4</ele>
        <time>2020-09-03T09:59:27Z</time>
      </trkpt>
      <trkpt lat="42.99023" lon="-0.20729">
        <ele>1412</ele>
        <time>2020-09-03T09:59:29Z</time>
      </trkpt>
      <trkpt lat="42.99022" lon="-0.20718">
        <ele>1411.2</ele>
        <time>2020-09-03T09:59:30Z</time>
      </trkpt>
      <trkpt lat="42.99022" lon="-0.20709">
        <ele>1409.2</ele>
        <time>2020-09-03T09:59:31Z</time>
      </trkpt>
      <trkpt lat="42.99023" lon="-0.20684">
        <ele>1407.6</ele>
        <time>2020-09-03T09:59:33Z</time>
      </trkpt>
      <trkpt lat="42.99024" lon="-0.20664">
        <ele>1405.6</ele>
        <time>2020-09-03T09:59:35Z</time>
      </trkpt>
      <trkpt lat="42.99026" lon="-0.20657">
        <ele>1404.8</ele>
        <time>2020-09-03T09:59:36Z</time>
      </trkpt>
      <trkpt lat="42.9903" lon="-0.20649">
        <ele>1403.4</ele>
        <time>2020-09-03T09:59:37Z</time>
      </trkpt>
      <trkpt lat="42.99035" lon="-0.20646">
        <ele>1402.6</ele>
        <time>2020-09-03T09:59:38Z</time>
      </trkpt>
      <trkpt lat="42.99042" lon="-0.20645">
        <ele>1400.4</ele>
        <time>2020-09-03T09:59:39Z</time>
      </trkpt>
      <trkpt lat="42.99048" lon="-0.20645">
        <ele>1399.4</ele>
        <time>2020-09-03T09:59:40Z</time>
      </trkpt>
      <trkpt lat="42.99062" lon="-0.20646">
        <ele>1398.2</ele>
        <time>2020-09-03T09:59:42Z</time>
      </trkpt>
      <trkpt lat="42.99064" lon="-0.20645">
        <ele>1398</ele>
        <time>2020-09-03T09:59:43Z</time>
      </trkpt>
      <trkpt lat="42.99065" lon="-0.20642">
        <ele>1396.6</ele>
        <time>2020-09-03T09:59:44Z</time>
      </trkpt>
      <trkpt lat="42.99065" lon="-0.20639">
        <ele>1396.4</ele>
        <time>2020-09-03T09:59:45Z</time>
      </trkpt>
      <trkpt lat="42.9907" lon="-0.20634">
        <ele>1395.4</ele>
        <time>2020-09-03T09:59:46Z</time>
      </trkpt>
      <trkpt lat="42.99076" lon="-0.20621">
        <ele>1394.8</ele>
        <time>2020-09-03T09:59:47Z</time>
      </trkpt>
      <trkpt lat="42.99078" lon="-0.20607">
        <ele>1393.8</ele>
        <time>2020-09-03T09:59:48Z</time>
      </trkpt>
      <trkpt lat="42.99079" lon="-0.20596">
        <ele>1393.4</ele>
        <time>2020-09-03T09:59:49Z</time>
      </trkpt>
      <trkpt lat="42.9908" lon="-0.20583">
        <ele>1392.8</ele>
        <time>2020-09-03T09:59:50Z</time>
      </trkpt>
      <trkpt lat="42.99081" lon="-0.20573">
        <ele>1392.8</ele>
        <time>2020-09-03T09:59:51Z</time>
      </trkpt>
      <trkpt lat="42.99081" lon="-0.20562">
        <ele>1392.4</ele>
        <time>2020-09-03T09:59:52Z</time>
      </trkpt>
      <trkpt lat="42.99082" lon="-0.20551">
        <ele>1392.2</ele>
        <time>2020-09-03T09:59:53Z</time>
      </trkpt>
      <trkpt lat="42.99083" lon="-0.20541">
        <ele>1390.8</ele>
        <time>2020-09-03T09:59:54Z</time>
      </trkpt>
      <trkpt lat="42.99084" lon="-0.20531">
        <ele>1389.4</ele>
        <time>2020-09-03T09:59:55Z</time>
      </trkpt>
      <trkpt lat="42.99083" lon="-0.20505">
        <ele>1388</ele>
        <time>2020-09-03T09:59:57Z</time>
      </trkpt>
      <trkpt lat="42.99084" lon="-0.20481">
        <ele>1386</ele>
        <time>2020-09-03T09:59:59Z</time>
      </trkpt>
      <trkpt lat="42.99085" lon="-0.20472">
        <ele>1385</ele>
        <time>2020-09-03T10:00:00Z</time>
      </trkpt>
      <trkpt lat="42.99088" lon="-0.20459">
        <ele>1383.8</ele>
        <time>2020-09-03T10:00:01Z</time>
      </trkpt>
      <trkpt lat="42.99092" lon="-0.20449">
        <ele>1383.4</ele>
        <time>2020-09-03T10:00:02Z</time>
      </trkpt>
      <trkpt lat="42.99096" lon="-0.20439">
        <ele>1382.2</ele>
        <time>2020-09-03T10:00:03Z</time>
      </trkpt>
      <trkpt lat="42.99099" lon="-0.20431">
        <ele>1381.4</ele>
        <time>2020-09-03T10:00:04Z</time>
      </trkpt>
      <trkpt lat="42.99103" lon="-0.2042">
        <ele>1380</ele>
        <time>2020-09-03T10:00:05Z</time>
      </trkpt>
      <trkpt lat="42.99108" lon="-0.20392">
        <ele>1378</ele>
        <time>2020-09-03T10:00:07Z</time>
      </trkpt>
      <trkpt lat="42.99113" lon="-0.2037">
        <ele>1375.2</ele>
        <time>2020-09-03T10:00:09Z</time>
      </trkpt>
      <trkpt lat="42.99115" lon="-0.20359">
        <ele>1374</ele>
        <time>2020-09-03T10:00:10Z</time>
      </trkpt>
      <trkpt lat="42.99118" lon="-0.20346">
        <ele>1372.6</ele>
        <time>2020-09-03T10:00:11Z</time>
      </trkpt>
      <trkpt lat="42.99119" lon="-0.20335">
        <ele>1371.2</ele>
        <time>2020-09-03T10:00:12Z</time>
      </trkpt>
      <trkpt lat="42.99121" lon="-0.20326">
        <ele>1370.8</ele>
        <time>2020-09-03T10:00:13Z</time>
      </trkpt>
      <trkpt lat="42.99122" lon="-0.20319">
        <ele>1369.2</ele>
        <time>2020-09-03T10:00:14Z</time>
      </trkpt>
      <trkpt lat="42.99122" lon="-0.20309">
        <ele>1368</ele>
        <time>2020-09-03T10:00:15Z</time>
      </trkpt>
      <trkpt lat="42.99121" lon="-0.20301">
        <ele>1366.2</ele>
        <time>2020-09-03T10:00:16Z</time>
      </trkpt>
      <trkpt lat="42.99119" lon="-0.20296">
        <ele>1365.4</ele>
        <time>2020-09-03T10:00:17Z</time>
      </trkpt>
      <trkpt lat="42.99116" lon="-0.20293">
        <ele>1364.4</ele>
        <time>2020-09-03T10:00:18Z</time>
      </trkpt>
      <trkpt lat="42.99112" lon="-0.2029">
        <ele>1364</ele>
        <time>2020-09-03T10:00:19Z</time>
      </trkpt>
      <trkpt lat="42.99106" lon="-0.20288">
        <ele>1363.2</ele>
        <time>2020-09-03T10:00:20Z</time>
      </trkpt>
      <trkpt lat="42.99102" lon="-0.20285">
        <ele>1362.2</ele>
        <time>2020-09-03T10:00:21Z</time>
      </trkpt>
      <trkpt lat="42.99097" lon="-0.20279">
        <ele>1361</ele>
        <time>2020-09-03T10:00:22Z</time>
      </trkpt>
      <trkpt lat="42.99089" lon="-0.20269">
        <ele>1360</ele>
        <time>2020-09-03T10:00:24Z</time>
      </trkpt>
      <trkpt lat="42.99083" lon="-0.20264">
        <ele>1359.6</ele>
        <time>2020-09-03T10:00:25Z</time>
      </trkpt>
      <trkpt lat="42.99072" lon="-0.20255">
        <ele>1359.2</ele>
        <time>2020-09-03T10:00:27Z</time>
      </trkpt>
      <trkpt lat="42.99069" lon="-0.20251">
        <ele>1359.2</ele>
        <time>2020-09-03T10:00:28Z</time>
      </trkpt>
      <trkpt lat="42.99065" lon="-0.20246">
        <ele>1358.8</ele>
        <time>2020-09-03T10:00:29Z</time>
      </trkpt>
      <trkpt lat="42.99063" lon="-0.2024">
        <ele>1358.8</ele>
        <time>2020-09-03T10:00:30Z</time>
      </trkpt>
      <trkpt lat="42.99062" lon="-0.20234">
        <ele>1358.8</ele>
        <time>2020-09-03T10:00:31Z</time>
      </trkpt>
      <trkpt lat="42.99061" lon="-0.20231">
        <ele>1359</ele>
        <time>2020-09-03T10:00:32Z</time>
      </trkpt>
      <trkpt lat="42.99059" lon="-0.20226">
        <ele>1359</ele>
        <time>2020-09-03T10:00:33Z</time>
      </trkpt>
      <trkpt lat="42.99057" lon="-0.20222">
        <ele>1359</ele>
        <time>2020-09-03T10:00:34Z</time>
      </trkpt>
      <trkpt lat="42.99055" lon="-0.20218">
        <ele>1359</ele>
        <time>2020-09-03T10:00:35Z</time>
      </trkpt>
      <trkpt lat="42.99055" lon="-0.20215">
        <ele>1359.2</ele>
        <time>2020-09-03T10:00:36Z</time>
      </trkpt>
      <trkpt lat="42.99056" lon="-0.20214">
        <ele>1359.2</ele>
        <time>2020-09-03T10:00:37Z</time>
      </trkpt>
      <trkpt lat="42.99057" lon="-0.20214">
        <ele>1359.2</ele>
        <time>2020-09-03T10:00:38Z</time>
      </trkpt>
      <trkpt lat="42.99058" lon="-0.20214">
        <ele>1359.2</ele>
        <time>2020-09-03T10:00:39Z</time>
      </trkpt>
      <trkpt lat="42.99058" lon="-0.20214">
        <ele>1359.2</ele>
        <time>2020-09-03T10:00:40Z</time>
      </trkpt>
      <trkpt lat="42.99058" lon="-0.20214">
        <ele>1359.6</ele>
        <time>2020-09-03T10:00:47Z</time>
      </trkpt>
      <trkpt lat="42.99058" lon="-0.20215">
        <ele>1358.6</ele>
        <time>2020-09-03T10:01:14Z</time>
      </trkpt>
      <trkpt lat="42.99058" lon="-0.20215">
        <ele>1358.4</ele>
        <time>2020-09-03T10:02:05Z</time>
      </trkpt>
      <trkpt lat="42.99058" lon="-0.20215">
        <ele>1358</ele>
        <time>2020-09-03T10:02:23Z</time>
      </trkpt>
      <trkpt lat="42.99058" lon="-0.20215">
        <ele>1358.2</ele>
        <time>2020-09-03T10:02:45Z</time>
      </trkpt>
      <trkpt lat="42.99058" lon="-0.20215">
        <ele>1358.6</ele>
        <time>2020-09-03T10:03:20Z</time>
      </trkpt>
    </trkseg>
  </trk>
</gpx>